# Wetter Temperatur Luftdruck Luftfeuchtigkeit Sichtweite Windgeschwindigkeit Windrichtung Zeit
1 Clouds 17 1019 72 10000 8.7 280 21:19 12.07.2020
2 Clouds 17 1019 72 10000 8.7 280 20:57 12.07.2020
3 Clouds 17 1019 72 10000 8.7 280 20:57 12.07.2020
4 Clouds 18 1018 72 10000 9.8 280 20:38 12.07.2020
5 Clouds 18 1018 72 10000 10.8 280 20:19 12.07.2020
6 Clouds 18 1018 72 10000 10.8 280 20:19 12.07.2020
7 Clouds 19 1018 68 10000 11.3 280 19:40 12.07.2020
8 Clouds 19 1017 68 10000 12.9 280 19:22 12.07.2020
9 Clouds 19 1017 68 10000 12.9 280 18:58 12.07.2020
10 Clouds 20 1017 64 10000 11.8 280 18:39 12.07.2020
11 Clouds 21 1017 64 10000 11.3 280 18:19 12.07.2020
12 Clouds 23 1017 56 10000 9.3 280 17:39 12.07.2020
13 Clouds 25 1016 53 10000 9.3 280 17:21 12.07.2020
14 Clouds 25 1016 53 10000 9.3 280 16:57 12.07.2020
15 Clouds 26 1016 50 10000 7.7 290 16:38 12.07.2020
16 Clouds 27 1016 47 10000 6.7 290 16:18 12.07.2020
17 Clouds 27 1016 47 10000 7.2 290 15:41 12.07.2020
18 Clouds 27 1016 47 10000 7.7 280 15:21 12.07.2020
19 Clouds 27 1016 47 10000 6.7 280 14:42 12.07.2020
20 Clouds 27 1016 47 10000 6.7 280 14:23 12.07.2020
21 Clouds 27 1017 47 10000 7.7 280 13:41 12.07.2020
22 Clouds 27 1017 47 10000 7.7 280 13:22 12.07.2020
23 Clouds 27 1017 44 10000 7.2 280 12:58 12.07.2020
24 Clouds 26 1017 47 10000 7.7 270 12:40 12.07.2020
25 Clouds 25 1017 50 10000 7.2 280 12:19 12.07.2020
26 Clouds 25 1017 50 10000 7.2 280 11:55 12.07.2020
27 Clouds 25 1017 50 10000 7.7 280 11:36 12.07.2020
28 Clouds 24 1017 50 10000 8.2 280 11:18 12.07.2020
29 Clear 24 1017 53 10000 7.7 280 10:41 12.07.2020
30 Clear 24 1017 53 10000 6.7 280 10:19 12.07.2020
31 Clear 23 1017 53 10000 4.6 270 09:43 12.07.2020
32 Clear 23 1017 53 10000 4.6 270 09:22 12.07.2020
33 Clear 21 1017 60 10000 3.6 280 08:57 12.07.2020
34 Clouds 20 1017 64 10000 2.6 300 08:38 12.07.2020
35 Clouds 19 1017 68 10000 2.6 280 08:19 12.07.2020
36 Clouds 18 1016 72 10000 2.6 290 07:47 12.07.2020
37 Clouds 18 1016 72 10000 2.6 290 07:28 12.07.2020
38 Clear 16 1016 77 10000 1.5 120 06:53 12.07.2020
39 Clear 16 1016 77 10000 3.1 90 06:22 12.07.2020
40 Clear 16 1016 77 10000 3.1 90 05:59 12.07.2020
41 Clear 17 1016 72 10000 2.1 170 04:58 12.07.2020
42 Clear 17 1016 72 10000 2.1 170 04:29 12.07.2020
43 Clear 18 1016 68 10000 2.6 140 03:45 12.07.2020
44 Clear 18 1016 68 10000 2.6 140 03:24 12.07.2020
45 Clear 19 1016 68 10000 4.1 130 01:52 12.07.2020
46 Clear 18 1016 77 10000 3.6 110 00:59 12.07.2020
47 Clear 19 1016 72 10000 3.1 120 00:39 12.07.2020
48 Clear 20 1016 68 10000 3.1 120 00:20 12.07.2020
49 Clear 20 1016 60 10000 3.1 140 23:40 11.07.2020
50 Clear 21 1016 60 10000 2.6 160 23:20 11.07.2020
51 Clear 21 1016 60 10000 2.6 160 22:56 11.07.2020
52 Clear 21 1016 56 10000 3.1 100 22:37 11.07.2020
53 Clear 21 1016 52 10000 3.6 100 22:19 11.07.2020
54 Clear 22 1016 49 10000 3.1 100 21:43 11.07.2020
55 Clear 22 1016 49 10000 3.1 100 21:24 11.07.2020
56 Clear 23 1016 49 10000 3.6 100 20:59 11.07.2020
57 Clear 25 1016 44 10000 3.1 100 20:40 11.07.2020
58 Clear 25 1016 39 10000 4.1 150 20:21 11.07.2020
59 Clear 25 1016 39 10000 4.1 150 20:21 11.07.2020
60 Clear 26 1016 39 10000 4.1 150 19:58 11.07.2020
61 Clear 27 1015 32 10000 4.6 150 19:40 11.07.2020
62 Clouds 28 1015 34 10000 4.6 150 19:22 11.07.2020
63 Clouds 28 1015 34 10000 4.6 150 18:56 11.07.2020
64 Clouds 29 1015 32 10000 4.6 160 18:38 11.07.2020
65 Clear 29 1015 32 10000 5.7 140 18:19 11.07.2020
66 Clear 29 1015 32 10000 5.1 110 17:49 11.07.2020
67 Clear 29 1015 32 10000 4.6 110 17:22 11.07.2020
68 Clear 29 1015 32 10000 4.6 110 16:59 11.07.2020
69 Clear 30 1016 32 10000 4.1 130 16:40 11.07.2020
70 Clear 29 1016 32 10000 5.7 110 16:21 11.07.2020
71 Clear 29 1016 32 10000 5.7 110 15:57 11.07.2020
72 Clear 29 1016 32 10000 2.6 130 15:38 11.07.2020
73 Clear 29 1016 35 10000 5.7 110 15:20 11.07.2020
74 Clear 29 1016 35 10000 5.7 110 14:55 11.07.2020
75 Clear 29 1016 37 10000 5.1 120 14:36 11.07.2020
76 Clear 28 1016 39 10000 5.7 100 14:18 11.07.2020
77 Clear 28 1017 42 10000 5.1 120 13:41 11.07.2020
78 Clear 27 1017 42 10000 5.7 110 13:21 11.07.2020
79 Clear 27 1017 42 10000 5.1 100 12:45 11.07.2020
80 Clear 27 1017 42 10000 5.1 100 12:45 11.07.2020
81 Clear 26 1017 44 10000 4.6 90 12:23 11.07.2020
82 Clear 26 1017 44 10000 4.6 90 12:23 11.07.2020
83 Clear 26 1017 44 10000 4.6 90 11:59 11.07.2020
84 Clear 26 1018 44 10000 5.1 100 11:41 11.07.2020
85 Clear 24 1018 50 10000 4.1 110 11:20 11.07.2020
86 Clear 23 1018 49 10000 4.1 100 10:46 11.07.2020
87 Clear 23 1018 49 10000 4.1 100 10:28 11.07.2020
88 Clear 22 1018 53 10000 4.1 90 09:59 11.07.2020
89 Clear 22 1018 53 10000 4.1 90 09:37 11.07.2020
90 Clear 20 1019 60 10000 4.1 110 09:19 11.07.2020
91 Clear 20 1019 64 10000 4.1 110 08:43 11.07.2020
92 Clear 20 1019 64 10000 4.1 110 08:25 11.07.2020
93 Clear 18 1019 68 10000 3.1 100 07:55 11.07.2020
94 Clear 18 1019 68 10000 3.1 100 07:36 11.07.2020
95 Clear 17 1019 72 10000 2.6 150 07:18 11.07.2020
96 Clear 16 1019 77 10000 3.1 130 06:25 11.07.2020
97 Clear 15 1019 82 10000 3.1 140 05:54 11.07.2020
98 Clear 15 1019 82 10000 4.6 110 05:19 11.07.2020
99 Clear 16 1019 82 10000 5.7 90 04:39 11.07.2020
100 Clear 17 1019 77 10000 5.7 100 04:19 11.07.2020
101 Clear 17 1019 67 10000 6.2 100 02:53 11.07.2020
102 Clear 17 1019 72 10000 5.7 100 01:57 11.07.2020
103 Clear 19 1019 68 10000 5.1 110 01:21 11.07.2020
104 Clear 18 1019 68 10000 5.1 110 00:55 11.07.2020
105 Clear 18 1019 68 10000 5.1 110 00:36 11.07.2020
106 Clear 19 1019 68 10000 5.1 110 00:18 11.07.2020
107 Clear 20 1019 60 10000 6.7 110 23:44 10.07.2020
108 Clear 21 1019 60 10000 6.7 110 23:26 10.07.2020
109 Clear 19 1019 68 10000 3.1 100 22:50 10.07.2020
110 Clear 21 1019 60 10000 3.1 130 22:25 10.07.2020
111 Clear 21 1019 60 10000 3.1 130 21:59 10.07.2020
112 Clear 21 1019 56 10000 3.1 120 21:38 10.07.2020
113 Clear 23 1018 49 10000 4.1 120 21:20 10.07.2020
114 Clear 23 1018 49 10000 4.1 120 20:54 10.07.2020
115 Clear 23 1018 49 10000 4.1 120 20:54 10.07.2020
116 Clear 24 1018 44 10000 4.6 130 20:36 10.07.2020
117 Clear 25 1018 44 10000 4.6 130 20:36 10.07.2020
118 Clear 25 1018 44 10000 5.1 130 20:18 10.07.2020
119 Clear 27 1018 42 10000 6.2 130 19:42 10.07.2020
120 Clear 28 1018 39 10000 5.7 130 19:21 10.07.2020
121 Clear 28 1018 39 10000 5.7 130 18:55 10.07.2020
122 Clear 28 1018 39 10000 5.7 120 18:37 10.07.2020
123 Clouds 29 1018 37 10000 4.6 110 18:18 10.07.2020
124 Clouds 29 1018 35 10000 4.1 100 17:42 10.07.2020
125 Clouds 29 1018 35 10000 5.7 110 17:23 10.07.2020
126 Clouds 29 1018 35 10000 5.7 110 16:57 10.07.2020
127 Clouds 29 1018 35 10000 5.7 110 16:39 10.07.2020
128 Clouds 29 1018 37 10000 4.1 130 16:18 10.07.2020
129 Clouds 28 1018 42 10000 3.1 120 15:43 10.07.2020
130 Clear 28 1019 39 10000 3.1 70 15:21 10.07.2020
131 Clear 29 1019 37 10000 5.7 120 14:44 10.07.2020
132 Clear 28 1019 37 10000 5.7 120 14:24 10.07.2020
133 Clear 28 1019 42 10000 4.6 120 13:58 10.07.2020
134 Clear 28 1019 39 10000 5.1 120 13:40 10.07.2020
135 Clear 28 1019 39 10000 5.1 110 13:22 10.07.2020
136 Clear 28 1019 39 10000 5.1 110 12:59 10.07.2020
137 Clear 27 1020 44 10000 5.1 130 12:41 10.07.2020
138 Clear 26 1020 41 10000 6.2 140 12:22 10.07.2020
139 Clear 26 1020 41 10000 6.2 140 11:57 10.07.2020
140 Clear 25 1020 41 10000 3.6 130 11:38 10.07.2020
141 Clear 25 1020 41 10000 3.6 130 11:18 10.07.2020
142 Clear 25 1020 44 10000 3.6 100 10:41 10.07.2020
143 Clear 23 1020 49 10000 3.1 100 10:21 10.07.2020
144 Clear 22 1021 49 10000 2.1 0 09:55 10.07.2020
145 Clear 22 1021 49 10000 2.1 0 09:36 10.07.2020
146 Clear 21 1021 56 10000 2.6 80 09:18 10.07.2020
147 Clear 20 1021 60 10000 1.5 110 08:46 10.07.2020
148 Clear 20 1021 60 10000 1.5 110 08:28 10.07.2020
149 Clear 19 1021 63 10000 1.5 0 07:59 10.07.2020
150 Clear 17 1021 72 10000 1.5 120 07:41 10.07.2020
151 Clear 16 1021 72 10000 2.1 150 07:20 10.07.2020
152 Clear 17 1021 77 10000 2.1 180 06:45 10.07.2020
153 Clear 14 1020 82 10000 2.1 110 05:53 10.07.2020
154 Clear 15 1020 82 10000 2.6 160 04:31 10.07.2020
155 Clear 15 1020 87 10000 2.6 100 03:22 10.07.2020
156 Clear 16 1020 82 10000 2.6 130 02:41 10.07.2020
157 Clear 17 1020 77 10000 3.1 130 01:33 10.07.2020
158 Clear 18 1020 72 10000 2.1 140 00:40 10.07.2020
159 Clear 18 1020 72 10000 2.1 130 00:18 10.07.2020
160 Clear 19 1020 68 10000 2.1 120 23:39 09.07.2020
161 Clear 19 1020 68 10000 2.1 150 23:19 09.07.2020
162 Clear 19 1020 68 10000 2.6 100 22:57 09.07.2020
163 Clear 19 1020 68 10000 2.6 100 22:39 09.07.2020
164 Clear 21 1020 60 10000 4.1 90 22:20 09.07.2020
165 Clear 21 1020 60 10000 4.1 90 21:55 09.07.2020
166 Clear 20 1020 60 10000 2.6 150 21:36 09.07.2020
167 Clear 21 1019 46 10000 2.6 100 21:18 09.07.2020
168 Clear 23 1019 43 10000 2.6 50 20:41 09.07.2020
169 Clear 23 1019 43 10000 2.6 50 20:23 09.07.2020
170 Clear 25 1019 38 10000 4.1 40 19:55 09.07.2020
171 Clear 25 1019 36 10000 4.1 40 19:37 09.07.2020
172 Clear 26 1019 31 10000 5.1 50 19:18 09.07.2020
173 Clear 27 1019 32 10000 4.6 60 18:41 09.07.2020
174 Clear 27 1019 34 10000 3.6 30 18:19 09.07.2020
175 Clear 27 1019 34 10000 3.1 0 17:43 09.07.2020
176 Clear 27 1019 34 10000 3.1 0 17:25 09.07.2020
177 Clear 27 1019 34 10000 3.1 130 16:59 09.07.2020
178 Clear 27 1019 36 10000 3.1 90 16:39 09.07.2020
179 Clear 27 1019 39 10000 4.1 120 16:19 09.07.2020
180 Clear 27 1019 39 10000 4.1 120 16:19 09.07.2020
181 Clear 27 1019 39 10000 4.1 120 15:59 09.07.2020
182 Clouds 27 1019 39 10000 3.6 0 15:38 09.07.2020
183 Clouds 27 1019 39 10000 3.6 0 15:38 09.07.2020
184 Clouds 27 1020 41 10000 4.1 130 15:20 09.07.2020
185 Clouds 26 1020 41 10000 4.1 130 14:58 09.07.2020
186 Clouds 27 1020 41 10000 3.1 130 14:40 09.07.2020
187 Clouds 26 1020 41 10000 3.1 0 14:21 09.07.2020
188 Clouds 27 1020 41 10000 3.1 0 13:56 09.07.2020
189 Clear 26 1020 44 10000 2.6 140 13:56 09.07.2020
190 Clear 25 1020 44 10000 2.6 140 13:38 09.07.2020
191 Clear 25 1020 44 10000 2.6 0 13:19 09.07.2020
192 Clear 24 1021 47 10000 2.6 0 12:42 09.07.2020
193 Clear 24 1021 47 10000 2.6 0 12:23 09.07.2020
194 Clear 24 1021 47 10000 2.1 0 11:57 09.07.2020
195 Clear 23 1020 46 10000 2.1 0 11:39 09.07.2020
196 Clouds 23 1021 49 10000 2.6 160 11:19 09.07.2020
197 Clouds 23 1021 49 10000 2.6 160 10:56 09.07.2020
198 Clouds 22 1021 56 10000 2.1 100 10:37 09.07.2020
199 Clear 21 1021 56 10000 1.5 0 10:19 09.07.2020
200 Clear 20 1021 64 10000 2.1 0 09:43 09.07.2020
201 Clear 20 1021 64 10000 2.1 0 09:22 09.07.2020
202 Clear 17 1021 72 10000 1.5 80 08:49 09.07.2020
203 Clear 17 1021 72 10000 1.5 80 08:26 09.07.2020
204 Clear 17 1021 82 10000 2.1 100 07:50 09.07.2020
205 Clear 16 1021 82 10000 2.1 100 07:30 09.07.2020
206 Clear 15 1021 87 10000 2.1 110 06:58 09.07.2020
207 Clear 12 1021 87 10000 1.5 70 06:20 09.07.2020
208 Clear 12 1020 93 10000 0.5 0 05:47 09.07.2020
209 Clear 13 1020 87 10000 1 340 04:28 09.07.2020
210 Clear 15 1020 77 10000 0.35 79 02:37 09.07.2020
211 Clear 14 1020 82 10000 1 0 01:40 09.07.2020
212 Clear 14 1020 82 10000 1 0 00:56 09.07.2020
213 Clear 16 1019 72 10000 0.5 0 00:25 09.07.2020
214 Clear 16 1019 72 10000 0.5 0 23:58 08.07.2020
215 Clear 16 1019 72 10000 1 190 23:39 08.07.2020
216 Clear 17 1019 67 10000 1.5 170 23:21 08.07.2020
217 Clear 17 1019 67 10000 1.5 180 22:42 08.07.2020
218 Clear 17 1019 67 10000 1.5 180 22:23 08.07.2020
219 Clear 18 1019 68 10000 1.5 0 21:58 08.07.2020
220 Clear 19 1018 59 10000 2.1 160 21:39 08.07.2020
221 Clear 19 1018 59 10000 2.6 60 21:21 08.07.2020
222 Clear 19 1018 59 10000 2.6 60 20:56 08.07.2020
223 Clear 21 1018 49 10000 2.6 20 20:38 08.07.2020
224 Clear 21 1018 49 10000 4.6 40 20:20 08.07.2020
225 Clear 23 1018 46 10000 4.1 40 19:43 08.07.2020
226 Clear 23 1018 43 10000 3.6 40 19:24 08.07.2020
227 Clear 23 1018 43 10000 3.6 40 18:57 08.07.2020
228 Clear 24 1017 41 10000 2.6 40 18:39 08.07.2020
229 Clear 24 1017 41 10000 2.6 30 18:20 08.07.2020
230 Clear 24 1017 41 10000 2.6 30 17:56 08.07.2020
231 Clear 24 1017 38 10000 3.1 40 17:37 08.07.2020
232 Clear 24 1018 41 10000 3.1 40 17:19 08.07.2020
233 Clear 24 1018 41 10000 3.1 0 16:43 08.07.2020
234 Clear 24 1018 41 10000 3.1 0 16:24 08.07.2020
235 Clear 24 1018 41 10000 2.1 0 15:59 08.07.2020
236 Clear 24 1018 41 10000 2.1 0 15:41 08.07.2020
237 Clouds 25 1018 41 10000 4.1 0 15:20 08.07.2020
238 Clouds 24 1018 41 10000 4.1 0 14:57 08.07.2020
239 Clouds 22 1018 43 10000 3.1 0 14:39 08.07.2020
240 Clouds 23 1018 40 10000 2.6 0 14:18 08.07.2020
241 Clouds 22 1018 43 10000 2.1 0 13:42 08.07.2020
242 Clouds 21 1018 46 10000 1.5 0 13:22 08.07.2020
243 Clouds 21 1018 46 10000 2.6 0 12:45 08.07.2020
244 Clouds 21 1018 46 10000 2.6 330 12:21 08.07.2020
245 Clouds 21 1018 46 10000 2.6 330 11:57 08.07.2020
246 Clear 19 1019 48 10000 3.1 290 11:38 08.07.2020
247 Clear 19 1019 45 10000 3.6 310 11:20 08.07.2020
248 Clear 18 1018 52 10000 3.6 290 10:45 08.07.2020
249 Clear 18 1018 52 10000 3.6 290 10:45 08.07.2020
250 Clear 18 1018 52 10000 3.6 290 10:26 08.07.2020
251 Clear 16 1019 63 10000 3.6 300 09:47 08.07.2020
252 Clear 16 1019 63 10000 3.6 310 09:26 08.07.2020
253 Clear 16 1019 63 10000 3.6 310 08:58 08.07.2020
254 Clear 15 1019 67 10000 4.1 280 08:39 08.07.2020
255 Clouds 14 1019 71 10000 3.6 280 08:20 08.07.2020
256 Clouds 14 1019 71 10000 3.6 280 08:20 08.07.2020
257 Clouds 14 1018 71 10000 3.6 300 07:46 08.07.2020
258 Clouds 13 1018 82 10000 2.6 290 07:22 08.07.2020
259 Clouds 13 1018 82 10000 2.6 290 06:53 08.07.2020
260 Clouds 11 1018 93 10000 2.1 300 06:32 08.07.2020
261 Clouds 12 1017 81 10000 2.6 280 05:50 08.07.2020
262 Clouds 13 1017 76 10000 3.6 280 04:58 08.07.2020
263 Clouds 13 1017 76 10000 4.1 280 04:20 08.07.2020
264 Clouds 14 1016 76 10000 6.2 280 02:20 08.07.2020
265 Clouds 14 1017 76 10000 6.2 280 01:39 08.07.2020
266 Clouds 14 1016 76 10000 6.7 280 00:56 08.07.2020
267 Clouds 15 1016 72 10000 5.7 280 00:22 08.07.2020
268 Clouds 15 1017 77 10000 5.7 280 23:44 07.07.2020
269 Clouds 15 1017 77 10000 5.7 280 23:22 07.07.2020
270 Clouds 15 1016 77 10000 5.7 280 22:57 07.07.2020
271 Clouds 15 1016 77 10000 5.7 280 22:57 07.07.2020
272 Clouds 15 1016 72 10000 6.7 280 22:38 07.07.2020
273 Clouds 16 1016 72 10000 6.7 280 22:20 07.07.2020
274 Clouds 16 1016 72 10000 6.7 280 21:57 07.07.2020
275 Clouds 16 1016 72 10000 6.7 280 21:38 07.07.2020
276 Clouds 16 1016 72 10000 7.7 280 21:19 07.07.2020
277 Clouds 16 1016 72 10000 8.2 280 20:43 07.07.2020
278 Clouds 16 1016 72 10000 8.2 280 20:23 07.07.2020
279 Clouds 16 1015 72 10000 8.7 280 19:59 07.07.2020
280 Clouds 16 1015 72 10000 10.3 280 19:39 07.07.2020
281 Clouds 17 1015 67 10000 9.3 290 19:20 07.07.2020
282 Clouds 17 1015 67 10000 9.3 290 19:20 07.07.2020
283 Clouds 17 1015 67 10000 9.3 290 18:55 07.07.2020
284 Clouds 17 1014 67 10000 9.8 280 18:37 07.07.2020
285 Clouds 18 1014 68 10000 9.8 290 18:18 07.07.2020
286 Clouds 17 1014 72 10000 9.3 290 17:44 07.07.2020
287 Clouds 17 1014 72 10000 9.3 290 17:44 07.07.2020
288 Clouds 19 1013 63 10000 10.3 290 17:23 07.07.2020
289 Clouds 18 1013 63 10000 10.3 290 16:59 07.07.2020
290 Clouds 18 1013 63 10000 10.3 290 16:59 07.07.2020
291 Clouds 19 1013 68 10000 10.3 290 16:40 07.07.2020
292 Clouds 20 1013 68 10000 10.3 290 16:21 07.07.2020
293 Clouds 19 1013 68 10000 10.3 290 15:55 07.07.2020
294 Clouds 18 1013 68 10000 10.3 290 15:36 07.07.2020
295 Clouds 18 1012 68 10000 12.9 280 15:18 07.07.2020
296 Clouds 19 1012 63 10000 11.8 280 14:42 07.07.2020
297 Clouds 19 1012 63 10000 11.8 280 14:23 07.07.2020
298 Clouds 20 1012 64 10000 12.9 290 13:43 07.07.2020
299 Thunderstorm 19 1012 68 10000 13.4 280 13:20 07.07.2020
300 Thunderstorm 20 1012 68 10000 13.4 280 12:56 07.07.2020
301 Clouds 21 1012 64 10000 12.9 280 12:36 07.07.2020
302 Clouds 21 1012 64 10000 12.9 280 12:36 07.07.2020
303 Clouds 21 1012 64 10000 12.9 280 12:36 07.07.2020
304 Clouds 22 1011 64 10000 11.3 280 12:18 07.07.2020
305 Clouds 21 1011 68 10000 10.8 280 11:42 07.07.2020
306 Clouds 20 1011 68 10000 10.8 280 11:21 07.07.2020
307 Clouds 20 1011 73 10000 10.3 280 10:58 07.07.2020
308 Clouds 22 1010 73 10000 8.7 280 10:39 07.07.2020
309 Clouds 22 1010 73 10000 6.7 280 10:20 07.07.2020
310 Clouds 22 1010 78 10000 3.1 300 09:42 07.07.2020
311 Clouds 22 1010 78 10000 3.1 300 09:21 07.07.2020
312 Clouds 18 1009 82 10000 3.1 300 08:43 07.07.2020
313 Clouds 18 1009 82 10000 3.1 300 08:25 07.07.2020
314 Clouds 18 1009 82 10000 2.1 300 07:58 07.07.2020
315 Clouds 17 1009 88 10000 2.1 300 07:37 07.07.2020
316 Clouds 18 1009 93 10000 2.1 320 07:19 07.07.2020
317 Clouds 16 1009 87 10000 2.1 320 06:40 07.07.2020
318 Clouds 15 1009 87 10000 2.1 300 06:22 07.07.2020
319 Clouds 16 1008 93 10000 1 320 05:24 07.07.2020
320 Clear 16 1008 93 10000 1.5 350 04:43 07.07.2020
321 Clear 16 1008 93 10000 3.6 270 03:42 07.07.2020
322 Clear 17 1009 88 10000 2.6 260 02:41 07.07.2020
323 Clouds 17 1009 93 10000 2.1 360 01:28 07.07.2020
324 Clouds 17 1009 88 10000 3.6 170 00:56 07.07.2020
325 Clouds 17 1009 88 10000 3.6 170 00:38 07.07.2020
326 Rain 17 1009 88 10000 5.7 150 00:19 07.07.2020
327 Rain 17 1010 88 10000 3.1 150 23:42 06.07.2020
328 Rain 17 1010 88 10000 3.1 150 23:23 06.07.2020
329 Rain 17 1011 82 10000 2.1 260 22:55 06.07.2020
330 Rain 17 1011 82 10000 2.1 260 22:37 06.07.2020
331 Thunderstorm 17 1010 93 1500 11.3 290 22:18 06.07.2020
332 Thunderstorm 17 1010 93 1500 11.3 290 21:55 06.07.2020
333 Thunderstorm 20 1010 72 10000 11.8 250 21:36 06.07.2020
334 Thunderstorm 22 1009 68 10000 8.7 260 21:18 06.07.2020
335 Thunderstorm 22 1009 64 10000 8.2 270 20:40 06.07.2020
336 Rain 26 1008 54 10000 1.5 350 20:20 06.07.2020
337 Rain 26 1008 54 10000 1.5 350 19:58 06.07.2020
338 Rain 26 1008 54 10000 1.5 350 19:58 06.07.2020
339 Clouds 27 1008 51 10000 2.6 20 19:39 06.07.2020
340 Clouds 27 1008 51 10000 3.1 30 19:21 06.07.2020
341 Clouds 27 1008 51 10000 3.1 30 18:56 06.07.2020
342 Clouds 27 1008 51 10000 3.1 30 18:56 06.07.2020
343 Clouds 28 1007 48 10000 4.1 50 18:38 06.07.2020
344 Clouds 28 1007 48 10000 4.6 40 18:19 06.07.2020
345 Clouds 28 1008 48 10000 3.6 90 17:42 06.07.2020
346 Clouds 28 1008 48 10000 3.6 90 17:24 06.07.2020
347 Clouds 29 1008 45 10000 4.1 90 16:58 06.07.2020
348 Clouds 29 1008 45 10000 4.6 120 16:40 06.07.2020
349 Clouds 29 1008 48 10000 4.6 90 16:21 06.07.2020
350 Clouds 29 1008 45 10000 6.2 100 15:42 06.07.2020
351 Clouds 29 1008 45 10000 6.2 100 15:42 06.07.2020
352 Clouds 29 1008 45 10000 6.2 100 15:24 06.07.2020
353 Clouds 29 1008 45 10000 6.2 100 15:24 06.07.2020
354 Clouds 27 1009 54 10000 5.7 70 14:57 06.07.2020
355 Clouds 28 1009 48 10000 4.6 50 14:38 06.07.2020
356 Clouds 28 1009 51 10000 5.1 80 14:19 06.07.2020
357 Clouds 28 1010 48 10000 4.1 50 13:51 06.07.2020
358 Clouds 28 1010 48 10000 4.1 50 13:28 06.07.2020
359 Clouds 27 1010 51 10000 5.7 100 12:58 06.07.2020
360 Clouds 27 1010 51 10000 5.7 100 12:39 06.07.2020
361 Clouds 27 1010 51 10000 4.6 100 12:18 06.07.2020
362 Clouds 27 1010 51 10000 4.6 100 11:57 06.07.2020
363 Clouds 27 1011 51 10000 3.6 120 11:37 06.07.2020
364 Clouds 26 1011 57 10000 3.1 0 11:19 06.07.2020
365 Clouds 26 1011 57 10000 4.1 110 10:42 06.07.2020
366 Rain 25 1011 61 10000 2.6 0 10:22 06.07.2020
367 Rain 24 1011 64 10000 1 0 09:57 06.07.2020
368 Rain 24 1011 64 10000 1 0 09:39 06.07.2020
369 Rain 22 1012 73 8000 1 0 09:21 06.07.2020
370 Rain 21 1012 77 8000 0.5 0 08:42 06.07.2020
371 Clouds 21 1012 77 8000 0.5 0 08:24 06.07.2020
372 Clouds 19 1012 88 7000 1 0 07:54 06.07.2020
373 Clouds 19 1012 88 7000 1 0 07:36 06.07.2020
374 Clouds 18 1012 93 7000 1.5 80 06:57 06.07.2020
375 Clouds 17 1012 93 6000 1.5 120 06:39 06.07.2020
376 Clouds 16 1012 93 6000 0.5 0 06:19 06.07.2020
377 Clouds 17 1012 93 8000 1.5 140 05:29 06.07.2020
378 Clouds 17 1013 100 8000 1 0 04:36 06.07.2020
379 Clouds 18 1013 93 8000 0.5 60 02:50 06.07.2020
380 Clouds 18 1013 93 10000 0.5 0 02:19 06.07.2020
381 Clouds 20 1014 88 10000 1.5 90 00:52 06.07.2020
382 Clouds 20 1014 88 10000 1.24 32 00:28 06.07.2020
383 Clouds 20 1014 88 10000 1.24 32 23:58 05.07.2020
384 Clouds 20 1014 82 10000 2.1 330 23:40 05.07.2020
385 Clouds 20 1014 82 10000 2.1 330 23:21 05.07.2020
386 Clouds 20 1014 82 10000 1 0 22:58 05.07.2020
387 Clouds 20 1014 82 10000 2.1 250 22:37 05.07.2020
388 Clouds 20 1013 83 10000 1.5 210 22:19 05.07.2020
389 Clouds 20 1013 83 10000 1.5 210 21:56 05.07.2020
390 Clouds 20 1013 82 10000 1 0 21:37 05.07.2020
391 Clouds 20 1013 82 10000 1 0 21:37 05.07.2020
392 Clouds 21 1013 77 10000 2.1 310 21:18 05.07.2020
393 Clouds 22 1013 73 10000 1 0 20:41 05.07.2020
394 Clouds 23 1013 73 10000 1 0 20:23 05.07.2020
395 Clouds 23 1013 69 10000 2.1 230 19:58 05.07.2020
396 Clouds 24 1013 69 10000 3.1 230 19:40 05.07.2020
397 Clouds 24 1013 69 10000 3.1 200 19:19 05.07.2020
398 Clouds 23 1013 69 10000 3.6 210 18:42 05.07.2020
399 Clouds 24 1013 69 10000 3.6 210 18:23 05.07.2020
400 Rain 25 1013 61 10000 3.1 0 17:58 05.07.2020
401 Rain 26 1013 54 10000 5.1 180 17:39 05.07.2020
402 Rain 26 1013 51 10000 4.1 40 17:19 05.07.2020
403 Rain 26 1013 51 10000 4.1 40 17:19 05.07.2020
404 Rain 27 1013 44 10000 2.6 10 16:44 05.07.2020
405 Rain 26 1013 44 10000 2.6 10 16:25 05.07.2020
406 Rain 27 1013 47 10000 2.1 360 15:58 05.07.2020
407 Clouds 27 1013 51 10000 2.6 360 15:38 05.07.2020
408 Clouds 28 1014 48 10000 2.6 350 15:19 05.07.2020
409 Clouds 28 1014 48 10000 3.6 350 14:42 05.07.2020
410 Clouds 28 1014 48 10000 3.6 350 14:23 05.07.2020
411 Clouds 27 1014 50 10000 2.6 300 14:23 05.07.2020
412 Clouds 27 1014 50 10000 2.6 300 13:55 05.07.2020
413 Clouds 26 1014 54 10000 3.6 310 13:37 05.07.2020
414 Clouds 26 1015 54 10000 2.1 300 13:19 05.07.2020
415 Clouds 25 1015 53 10000 2.1 310 12:39 05.07.2020
416 Clouds 25 1015 53 10000 2.6 330 12:20 05.07.2020
417 Clouds 26 1015 53 10000 2.6 330 11:55 05.07.2020
418 Clouds 26 1015 57 10000 2.6 0 11:55 05.07.2020
419 Clouds 25 1015 57 10000 2.6 0 11:36 05.07.2020
420 Clouds 25 1015 57 10000 3.1 0 11:18 05.07.2020
421 Clouds 23 1015 64 10000 3.6 270 10:42 05.07.2020
422 Clouds 22 1015 68 10000 4.1 280 10:20 05.07.2020
423 Clouds 22 1015 68 10000 4.1 280 09:58 05.07.2020
424 Clouds 23 1015 68 10000 4.1 280 09:40 05.07.2020
425 Clouds 21 1015 73 10000 4.1 300 09:20 05.07.2020
426 Clouds 21 1015 73 10000 3.6 300 08:47 05.07.2020
427 Clouds 21 1015 73 10000 3.6 300 08:29 05.07.2020
428 Clouds 19 1015 82 10000 2.6 280 07:48 05.07.2020
429 Clouds 19 1015 82 10000 2.6 280 07:29 05.07.2020
430 Clouds 20 1015 77 10000 2.1 310 06:52 05.07.2020
431 Clouds 19 1015 82 10000 2.6 280 05:42 05.07.2020
432 Clouds 20 1015 77 10000 1.5 320 03:32 05.07.2020
433 Clouds 20 1015 77 10000 1 320 02:43 05.07.2020
434 Clouds 20 1015 77 10000 1 320 02:25 05.07.2020
435 Clouds 20 1015 72 10000 1.05 294 01:33 05.07.2020
436 Clouds 20 1015 72 10000 1.21 302 00:59 05.07.2020
437 Clouds 20 1015 72 10000 1.5 0 00:40 05.07.2020
438 Clouds 21 1015 68 10000 2.6 290 00:20 05.07.2020
439 Clouds 21 1015 68 10000 3.6 280 23:47 04.07.2020
440 Clouds 22 1015 64 10000 4.6 280 23:28 04.07.2020
441 Clouds 22 1015 64 10000 4.6 280 22:57 04.07.2020
442 Clouds 22 1015 68 10000 3.6 300 22:37 04.07.2020
443 Clouds 22 1015 68 10000 3.6 300 22:37 04.07.2020
444 Clouds 23 1015 60 10000 5.1 270 22:19 04.07.2020
445 Clouds 24 1015 57 10000 3.6 280 21:42 04.07.2020
446 Clouds 24 1015 57 10000 3.6 280 21:23 04.07.2020
447 Clouds 24 1015 57 10000 3.6 270 20:58 04.07.2020
448 Rain 25 1014 53 7000 3.6 0 20:39 04.07.2020
449 Rain 26 1014 54 8000 3.1 0 20:19 04.07.2020
450 Clouds 27 1014 54 10000 7.2 30 19:45 04.07.2020
451 Clouds 27 1014 54 10000 3.6 290 19:22 04.07.2020
452 Clouds 28 1014 51 10000 3.1 310 18:55 04.07.2020
453 Clouds 28 1014 51 10000 3.1 310 18:37 04.07.2020
454 Clouds 28 1013 48 10000 4.1 290 18:19 04.07.2020
455 Clouds 28 1014 45 10000 3.6 300 17:42 04.07.2020
456 Clouds 28 1014 45 10000 3.6 300 17:23 04.07.2020
457 Clouds 28 1014 45 10000 4.1 300 16:57 04.07.2020
458 Clouds 28 1014 45 10000 4.1 300 16:57 04.07.2020
459 Clouds 28 1014 48 10000 4.1 310 16:38 04.07.2020
460 Clouds 28 1014 48 10000 4.1 310 16:19 04.07.2020
461 Clouds 28 1014 48 10000 4.1 310 16:19 04.07.2020
462 Clouds 29 1014 45 10000 3.6 300 15:46 04.07.2020
463 Clouds 27 1015 51 10000 4.1 260 15:27 04.07.2020
464 Clouds 27 1015 51 10000 4.1 260 14:59 04.07.2020
465 Clouds 28 1015 48 10000 3.6 290 14:38 04.07.2020
466 Clouds 27 1015 47 10000 2.1 0 14:19 04.07.2020
467 Clouds 27 1015 47 10000 2.1 0 13:57 04.07.2020
468 Clouds 27 1016 51 10000 3.6 320 13:39 04.07.2020
469 Clouds 26 1016 54 10000 3.6 310 13:18 04.07.2020
470 Clouds 26 1016 54 10000 3.1 340 12:42 04.07.2020
471 Clouds 25 1016 57 10000 3.1 300 12:20 04.07.2020
472 Clouds 25 1016 57 10000 3.6 280 11:46 04.07.2020
473 Clouds 25 1016 57 10000 3.6 280 11:25 04.07.2020
474 Clouds 24 1016 60 10000 3.1 310 11:00 04.07.2020
475 Clouds 24 1016 60 10000 3.1 300 10:41 04.07.2020
476 Clouds 23 1016 69 10000 3.1 310 10:21 04.07.2020
477 Clouds 23 1016 69 10000 3.1 310 09:56 04.07.2020
478 Clouds 23 1016 69 10000 4.1 290 09:36 04.07.2020
479 Clouds 22 1016 73 8000 4.1 290 09:18 04.07.2020
480 Clouds 21 1016 77 8000 3.6 290 08:46 04.07.2020
481 Clouds 21 1016 77 8000 3.6 290 08:27 04.07.2020
482 Clouds 20 1016 82 8000 3.6 290 07:44 04.07.2020
483 Clouds 20 1016 82 8000 3.6 290 07:26 04.07.2020
484 Clouds 19 1016 88 10000 3.1 280 06:51 04.07.2020
485 Clouds 19 1016 88 10000 3.6 280 06:20 04.07.2020
486 Clouds 19 1016 88 10000 4.1 280 05:34 04.07.2020
487 Clouds 19 1015 93 10000 3.1 280 04:31 04.07.2020
488 Clouds 19 1015 93 10000 2.6 90 02:49 04.07.2020
489 Rain 19 1016 88 10000 2.6 100 01:54 04.07.2020
490 Thunderstorm 20 1016 88 8000 3.6 210 01:24 04.07.2020
491 Thunderstorm 21 1016 77 10000 5.7 160 00:40 04.07.2020
492 Thunderstorm 21 1016 77 10000 4.6 270 00:21 04.07.2020
493 Thunderstorm 22 1015 78 10000 5.1 290 23:39 03.07.2020
494 Thunderstorm 25 1014 65 10000 2.1 280 23:19 03.07.2020
495 Thunderstorm 25 1014 65 10000 2.1 280 22:54 03.07.2020
496 Clouds 25 1014 61 10000 2.6 140 22:36 03.07.2020
497 Clouds 24 1013 69 10000 1.5 130 22:18 03.07.2020
498 Clouds 25 1013 65 10000 1 0 21:39 03.07.2020
499 Clouds 26 1012 61 10000 2.1 180 21:19 03.07.2020
500 Rain 27 1012 54 10000 1.5 10 20:46 03.07.2020
501 Rain 27 1012 54 10000 1.5 10 20:27 03.07.2020
502 Rain 28 1012 54 10000 2.1 80 19:59 03.07.2020
503 Rain 28 1011 51 10000 3.1 40 19:40 03.07.2020
504 Rain 29 1011 48 10000 4.1 10 19:19 03.07.2020
505 Clouds 30 1011 45 10000 3.6 10 18:45 03.07.2020
506 Clouds 29 1011 48 10000 3.1 10 18:24 03.07.2020
507 Clouds 29 1011 48 10000 3.1 10 17:59 03.07.2020
508 Clouds 31 1011 40 10000 2.1 0 17:41 03.07.2020
509 Clouds 31 1011 35 10000 3.1 300 17:20 03.07.2020
510 Clouds 31 1011 38 10000 2.6 0 16:41 03.07.2020
511 Clouds 31 1011 38 10000 3.6 350 16:23 03.07.2020
512 Clouds 31 1011 38 10000 3.6 320 15:46 03.07.2020
513 Clouds 31 1011 40 10000 4.1 310 15:24 03.07.2020
514 Clouds 31 1011 40 10000 4.1 310 14:57 03.07.2020
515 Clouds 31 1011 37 10000 3.1 320 14:39 03.07.2020
516 Clouds 30 1012 42 10000 3.1 340 14:20 03.07.2020
517 Clouds 30 1012 45 10000 2.6 260 13:47 03.07.2020
518 Clouds 28 1012 45 10000 2.6 260 13:29 03.07.2020
519 Clouds 28 1013 54 10000 1.5 0 12:54 03.07.2020
520 Clouds 26 1013 54 10000 1.5 0 12:36 03.07.2020
521 Clouds 25 1013 61 10000 1.5 0 12:18 03.07.2020
522 Clouds 24 1013 60 10000 2.1 0 11:42 03.07.2020
523 Clouds 24 1013 60 10000 2.1 0 11:23 03.07.2020
524 Clouds 23 1013 64 10000 2.1 0 10:56 03.07.2020
525 Clouds 22 1013 73 10000 2.6 290 10:37 03.07.2020
526 Clouds 22 1013 73 10000 1.5 350 10:19 03.07.2020
527 Clouds 22 1013 73 10000 1.5 350 09:54 03.07.2020
528 Clouds 22 1013 73 10000 0.5 0 09:36 03.07.2020
529 Clouds 20 1013 88 10000 2.6 170 09:18 03.07.2020
530 Clouds 19 1013 93 10000 3.6 190 08:39 03.07.2020
531 Rain 20 1013 93 8000 3.6 180 08:18 03.07.2020
532 Rain 18 1013 93 8000 4.1 70 07:47 03.07.2020
533 Rain 18 1013 93 8000 4.1 70 07:26 03.07.2020
534 Thunderstorm 21 1014 77 8000 5.1 280 06:47 03.07.2020
535 Clouds 20 1013 77 10000 1.5 330 05:57 03.07.2020
536 Clouds 20 1012 77 10000 1.5 110 04:40 03.07.2020
537 Rain 21 1012 73 10000 2.6 140 02:58 03.07.2020
538 Rain 21 1012 73 10000 3.1 140 02:39 03.07.2020
539 Clouds 21 1012 73 10000 6.2 110 02:18 03.07.2020
540 Clouds 22 1012 68 10000 4.6 100 01:27 03.07.2020
541 Clouds 22 1012 68 10000 4.1 100 00:44 03.07.2020
542 Rain 22 1012 68 10000 4.1 100 00:21 03.07.2020
543 Rain 23 1013 69 10000 3.1 100 23:43 02.07.2020
544 Clouds 22 1012 73 10000 3.6 100 23:20 02.07.2020
545 Clouds 22 1012 73 10000 3.6 100 22:57 02.07.2020
546 Clouds 23 1012 69 10000 3.1 120 22:39 02.07.2020
547 Rain 24 1012 69 10000 3.6 110 22:20 02.07.2020
548 Rain 24 1012 69 10000 3.6 110 22:20 02.07.2020
549 Rain 24 1012 69 10000 3.6 110 21:54 02.07.2020
550 Rain 27 1012 54 10000 2.6 160 21:36 02.07.2020
551 Clouds 27 1012 57 10000 2.6 150 21:18 02.07.2020
552 Clouds 28 1012 51 10000 3.6 90 20:42 02.07.2020
553 Clouds 29 1012 48 10000 3.6 60 20:21 02.07.2020
554 Clouds 29 1012 48 10000 3.6 60 20:21 02.07.2020
555 Clouds 29 1012 48 10000 3.6 60 19:57 02.07.2020
556 Clouds 30 1012 48 10000 4.1 90 19:38 02.07.2020
557 Clouds 31 1012 42 10000 4.1 110 19:20 02.07.2020
558 Clouds 31 1012 42 10000 4.1 110 18:57 02.07.2020
559 Clouds 31 1012 40 10000 4.1 130 18:38 02.07.2020
560 Rain 31 1011 40 10000 5.7 120 18:20 02.07.2020
561 Rain 31 1011 40 10000 4.6 120 17:39 02.07.2020
562 Rain 31 1012 38 10000 4.6 120 17:20 02.07.2020
563 Rain 32 1012 38 10000 4.6 120 16:56 02.07.2020
564 Rain 32 1012 38 10000 4.1 140 16:38 02.07.2020
565 Rain 32 1012 40 10000 4.6 140 16:19 02.07.2020
566 Rain 32 1012 40 10000 4.6 140 15:54 02.07.2020
567 Clouds 31 1012 38 10000 5.1 0 15:36 02.07.2020
568 Clouds 32 1012 29 10000 2.1 0 15:18 02.07.2020
569 Clouds 32 1013 33 10000 3.6 110 14:42 02.07.2020
570 Clear 31 1013 38 10000 4.1 110 14:19 02.07.2020
571 Clear 31 1013 38 10000 3.6 120 13:40 02.07.2020
572 Clear 30 1013 42 10000 3.6 90 13:21 02.07.2020
573 Clear 30 1013 42 10000 3.6 90 12:59 02.07.2020
574 Clear 29 1013 48 10000 3.6 100 12:39 02.07.2020
575 Clear 29 1014 45 10000 3.6 120 12:21 02.07.2020
576 Clear 28 1014 48 10000 3.1 120 11:44 02.07.2020
577 Clear 27 1014 54 10000 3.6 100 11:26 02.07.2020
578 Clear 27 1014 54 10000 3.6 100 10:55 02.07.2020
579 Clear 26 1014 57 10000 3.6 100 10:37 02.07.2020
580 Clear 26 1014 61 10000 4.6 90 10:19 02.07.2020
581 Clear 25 1014 65 10000 4.6 100 09:42 02.07.2020
582 Clear 24 1014 64 10000 5.7 100 09:21 02.07.2020
583 Clear 24 1014 64 10000 5.7 100 08:57 02.07.2020
584 Clear 24 1015 64 9000 5.1 100 08:38 02.07.2020
585 Clear 22 1015 73 10000 4.1 100 08:18 02.07.2020
586 Clear 21 1015 77 10000 3.1 120 07:41 02.07.2020
587 Clear 20 1015 77 10000 3.6 110 07:20 02.07.2020
588 Clear 18 1015 82 10000 3.6 100 06:41 02.07.2020
589 Clear 18 1015 82 10000 3.1 110 06:20 02.07.2020
590 Clear 18 1015 77 10000 2.1 140 05:45 02.07.2020
591 Clear 18 1015 72 10000 2.1 140 04:21 02.07.2020
592 Clear 17 1015 72 10000 3.1 130 03:32 02.07.2020
593 Clear 19 1015 68 10000 2.6 110 01:23 02.07.2020
594 Clear 20 1015 68 10000 2.6 130 00:25 02.07.2020
595 Clear 20 1015 68 10000 2.6 150 23:51 01.07.2020
596 Clear 20 1015 68 10000 2.6 150 23:30 01.07.2020
597 Clear 21 1015 64 10000 3.1 120 22:57 01.07.2020
598 Clear 21 1015 60 10000 3.1 120 22:38 01.07.2020
599 Clear 21 1015 60 10000 3.1 120 22:38 01.07.2020
600 Clear 24 1015 50 10000 2.6 140 22:19 01.07.2020
601 Clear 24 1015 50 10000 2.6 140 22:19 01.07.2020
602 Clear 24 1015 50 10000 2.6 140 21:59 01.07.2020
603 Clear 23 1014 53 10000 2.6 150 21:40 01.07.2020
604 Clear 25 1014 44 10000 2.1 140 21:22 01.07.2020
605 Clear 25 1014 44 10000 2.1 140 20:57 01.07.2020
606 Clear 26 1014 44 10000 1.5 120 20:39 01.07.2020
607 Clear 28 1014 37 10000 3.6 50 20:20 01.07.2020
608 Clear 28 1014 37 10000 3.6 50 19:54 01.07.2020
609 Clear 29 1014 37 10000 3.6 70 19:36 01.07.2020
610 Clear 29 1014 35 10000 3.6 50 19:18 01.07.2020
611 Clear 30 1014 33 10000 4.1 40 18:42 01.07.2020
612 Clear 31 1014 29 10000 3.6 50 18:21 01.07.2020
613 Clear 31 1014 29 10000 3.6 50 17:57 01.07.2020
614 Clear 31 1014 31 10000 3.6 40 17:38 01.07.2020
615 Clear 32 1014 27 10000 4.1 50 17:19 01.07.2020
616 Clear 31 1014 27 10000 3.6 50 16:46 01.07.2020
617 Clear 31 1014 27 10000 3.6 50 16:26 01.07.2020
618 Clear 31 1014 29 10000 3.1 140 15:55 01.07.2020
619 Clear 31 1014 29 10000 3.1 140 15:37 01.07.2020
620 Clear 31 1014 29 10000 3.6 130 15:18 01.07.2020
621 Clear 31 1015 29 10000 3.1 100 14:42 01.07.2020
622 Clear 31 1015 30 10000 2.1 0 14:21 01.07.2020
623 Clear 30 1015 30 10000 2.1 0 13:57 01.07.2020
624 Clear 29 1015 30 10000 2.6 0 13:38 01.07.2020
625 Clear 29 1015 30 10000 3.6 100 13:20 01.07.2020
626 Clear 29 1015 30 10000 3.6 100 12:56 01.07.2020
627 Clear 29 1015 32 10000 2.1 0 12:38 01.07.2020
628 Clear 28 1016 32 10000 1.5 0 12:19 01.07.2020
629 Clear 27 1016 34 10000 1.5 0 11:40 01.07.2020
630 Clear 26 1016 41 10000 2.1 250 11:21 01.07.2020
631 Clear 25 1016 47 10000 1.5 0 10:57 01.07.2020
632 Clear 25 1016 47 10000 1.5 0 10:39 01.07.2020
633 Clear 23 1017 53 10000 1.5 0 10:20 01.07.2020
634 Clear 22 1017 56 10000 2.1 100 09:39 01.07.2020
635 Clear 21 1017 56 10000 1 0 09:20 01.07.2020
636 Clear 21 1017 56 10000 1 0 08:59 01.07.2020
637 Clear 20 1017 60 10000 1.5 290 08:40 01.07.2020
638 Clear 19 1017 63 10000 1.5 260 08:20 01.07.2020
639 Clear 20 1017 72 10000 0.5 0 07:42 01.07.2020
640 Clear 20 1017 72 10000 0.5 0 07:24 01.07.2020
641 Clear 16 1017 77 10000 1 0 06:57 01.07.2020
642 Clear 14 1016 82 10000 1.5 150 06:38 01.07.2020
643 Clear 12 1016 93 10000 1 0 06:20 01.07.2020
644 Clear 14 1016 87 10000 1 0 04:30 01.07.2020
645 Clear 15 1016 82 10000 1.5 130 03:42 01.07.2020
646 Clear 14 1016 87 10000 1.04 294 03:22 01.07.2020
647 Clear 16 1016 77 10000 0.5 0 02:19 01.07.2020
648 Clear 18 1016 72 10000 2.6 300 00:49 01.07.2020
649 Clear 18 1016 72 10000 2.6 300 00:29 01.07.2020
650 Clear 19 1016 68 10000 2.1 340 00:00 01.07.2020
651 Clear 21 1016 60 10000 2.6 330 23:39 30.06.2020
652 Clear 22 1015 56 10000 4.6 260 23:19 30.06.2020
653 Clear 21 1016 60 10000 3.1 280 22:42 30.06.2020
654 Clear 22 1015 56 10000 2.6 300 22:19 30.06.2020
655 Clear 23 1015 56 10000 3.6 290 21:43 30.06.2020
656 Clear 25 1014 50 10000 4.1 290 21:20 30.06.2020
657 Clear 25 1014 50 10000 4.1 290 20:59 30.06.2020
658 Clear 26 1014 44 10000 4.6 290 20:41 30.06.2020
659 Clear 26 1014 47 10000 5.7 290 20:20 30.06.2020
660 Clear 27 1014 42 10000 6.2 290 19:44 30.06.2020
661 Clear 28 1014 39 10000 5.7 290 19:21 30.06.2020
662 Clear 28 1014 39 10000 5.7 290 19:21 30.06.2020
663 Clear 28 1014 39 10000 5.7 290 19:21 30.06.2020
664 Clear 28 1014 39 10000 5.7 290 18:57 30.06.2020
665 Clear 28 1014 39 10000 5.7 290 18:38 30.06.2020
666 Clear 29 1013 39 10000 4.6 300 18:20 30.06.2020
667 Clear 29 1014 39 10000 6.2 300 17:39 30.06.2020
668 Clear 29 1014 42 10000 5.7 300 17:20 30.06.2020
669 Clear 29 1014 42 10000 5.7 300 16:57 30.06.2020
670 Clear 30 1014 37 10000 6.2 290 16:38 30.06.2020
671 Clouds 29 1014 39 10000 6.2 280 16:19 30.06.2020
672 Clouds 29 1014 37 10000 7.2 270 15:54 30.06.2020
673 Clouds 29 1014 37 10000 7.2 270 15:36 30.06.2020
674 Clouds 29 1014 35 10000 6.2 280 15:18 30.06.2020
675 Clouds 29 1014 37 10000 7.2 280 14:41 30.06.2020
676 Clouds 28 1014 39 10000 6.7 280 14:21 30.06.2020
677 Clouds 28 1015 42 10000 6.7 300 13:42 30.06.2020
678 Clouds 27 1015 47 10000 5.7 290 13:21 30.06.2020
679 Clouds 27 1015 47 10000 5.7 290 12:59 30.06.2020
680 Clouds 26 1015 50 10000 5.1 280 12:41 30.06.2020
681 Clouds 26 1015 54 10000 6.7 280 12:23 30.06.2020
682 Clouds 26 1015 54 10000 6.7 280 11:59 30.06.2020
683 Clouds 25 1015 57 10000 6.7 280 11:39 30.06.2020
684 Clouds 24 1015 60 10000 8.7 280 11:20 30.06.2020
685 Clouds 24 1015 60 10000 8.7 280 11:20 30.06.2020
686 Clouds 24 1015 60 10000 8.7 280 10:59 30.06.2020
687 Clear 29 1015 32 10000 3.6 140 16:44 28.06.2020
688 Clear 29 1015 32 10000 3.6 140 16:26 28.06.2020
689 Clear 30 1016 25 10000 3.6 110 15:58 28.06.2020
690 Clear 30 1016 30 10000 3.1 0 15:39 28.06.2020
691 Clear 30 1016 30 10000 2.1 0 15:19 28.06.2020
692 Clear 30 1017 30 10000 3.6 100 14:46 28.06.2020
693 Clear 29 1017 30 10000 3.6 100 14:28 28.06.2020
694 Clear 29 1017 30 10000 3.1 70 13:58 28.06.2020
695 Clear 30 1017 32 10000 1.5 0 13:38 28.06.2020
696 Clear 28 1017 32 10000 1.5 0 13:19 28.06.2020
697 Clear 28 1017 32 10000 1.5 0 12:56 28.06.2020
698 Clear 27 1018 39 10000 2.6 0 12:37 28.06.2020
699 Clear 27 1018 42 10000 3.1 0 12:18 28.06.2020
700 Clear 27 1018 42 10000 3.1 0 11:56 28.06.2020
701 Clear 26 1018 47 10000 2.1 0 11:37 28.06.2020
702 Clear 25 1018 47 10000 1 0 11:19 28.06.2020
703 Clear 24 1018 50 10000 1.5 0 10:42 28.06.2020
704 Clear 24 1018 50 10000 1.5 0 10:23 28.06.2020
705 Clear 23 1019 49 10000 1 0 09:59 28.06.2020
706 Clear 22 1019 53 10000 1.5 0 09:39 28.06.2020
707 Clear 20 1019 60 10000 0.5 0 09:20 28.06.2020
708 Clear 19 1019 63 10000 1 0 08:44 28.06.2020
709 Clear 19 1019 63 10000 1 0 08:24 28.06.2020
710 Clear 17 1019 67 10000 1.5 10 07:45 28.06.2020
711 Clear 19 1019 67 10000 1.5 10 07:27 28.06.2020
712 Clear 17 1019 82 10000 1.5 340 06:34 28.06.2020
713 Clear 15 1019 82 10000 1.5 130 05:55 28.06.2020
714 Clear 14 1019 82 10000 1.5 130 05:25 28.06.2020
715 Clear 15 1019 72 10000 2.1 130 03:23 28.06.2020
716 Clear 15 1019 77 10000 2.1 150 02:36 28.06.2020
717 Clear 15 1019 77 10000 2.6 130 01:48 28.06.2020
718 Clear 15 1019 77 10000 2.6 130 01:25 28.06.2020
719 Clear 17 1018 72 10000 2.6 150 00:43 28.06.2020
720 Clear 18 1018 68 10000 2.6 140 00:22 28.06.2020
721 Clear 18 1018 68 10000 2.1 150 23:40 27.06.2020
722 Clear 18 1018 68 10000 2.1 150 23:22 27.06.2020
723 Clear 18 1018 68 10000 2.6 120 22:56 27.06.2020
724 Clear 20 1018 60 10000 3.6 130 22:38 27.06.2020
725 Clear 20 1018 64 10000 2.6 130 22:19 27.06.2020
726 Clear 20 1018 64 10000 3.1 130 21:42 27.06.2020
727 Clear 21 1018 60 10000 2.1 100 21:20 27.06.2020
728 Clouds 21 1018 60 10000 2.1 100 20:56 27.06.2020
729 Clouds 24 1018 47 10000 2.1 60 20:37 27.06.2020
730 Clouds 25 1018 44 10000 3.1 30 20:18 27.06.2020
731 Clouds 26 1018 39 10000 3.6 40 19:38 27.06.2020
732 Clouds 27 1018 34 10000 3.6 30 19:19 27.06.2020
733 Clouds 27 1018 34 10000 3.6 30 18:59 27.06.2020
734 Clouds 28 1018 28 10000 4.6 30 18:40 27.06.2020
735 Clear 28 1018 28 10000 4.6 30 18:20 27.06.2020
736 Clear 28 1018 28 10000 5.1 40 17:41 27.06.2020
737 Clear 28 1018 28 10000 5.1 40 17:21 27.06.2020
738 Clear 28 1018 28 10000 5.1 40 16:57 27.06.2020
739 Clouds 29 1018 28 10000 5.1 50 16:39 27.06.2020
740 Clouds 29 1018 28 10000 5.1 60 16:19 27.06.2020
741 Clear 29 1019 30 10000 3.6 40 15:43 27.06.2020
742 Clear 29 1019 30 10000 3.6 40 15:24 27.06.2020
743 Clear 29 1019 30 10000 3.6 90 14:57 27.06.2020
744 Clear 28 1019 34 10000 2.1 0 14:38 27.06.2020
745 Clear 28 1019 32 10000 3.6 0 14:19 27.06.2020
746 Clear 27 1019 34 10000 4.1 110 13:42 27.06.2020
747 Clear 27 1020 36 10000 3.1 140 13:20 27.06.2020
748 Clear 27 1020 36 10000 3.1 140 12:58 27.06.2020
749 Clear 27 1020 36 10000 2.1 0 12:40 27.06.2020
750 Clear 26 1020 36 10000 2.6 0 12:21 27.06.2020
751 Clear 26 1020 36 10000 2.6 0 12:21 27.06.2020
752 Clear 26 1020 36 10000 2.6 0 11:57 27.06.2020
753 Clear 26 1020 36 10000 2.1 0 11:37 27.06.2020
754 Clear 25 1020 36 10000 2.1 0 11:18 27.06.2020
755 Clear 25 1020 41 10000 1.5 50 10:39 27.06.2020
756 Clear 23 1021 53 10000 1.5 90 10:19 27.06.2020
757 Clear 23 1021 53 10000 1.5 90 10:19 27.06.2020
758 Clear 23 1021 53 10000 1.5 90 09:54 27.06.2020
759 Clear 22 1021 56 10000 1.5 50 09:36 27.06.2020
760 Clear 21 1021 60 10000 1.5 0 09:18 27.06.2020
761 Clear 19 1021 72 10000 1 0 08:41 27.06.2020
762 Clear 19 1021 72 10000 1 0 08:22 27.06.2020
763 Clear 17 1021 77 10000 1.5 100 07:46 27.06.2020
764 Clear 17 1021 77 10000 1.5 100 07:24 27.06.2020
765 Clear 16 1021 82 10000 1.5 150 06:50 27.06.2020
766 -273 0 0 0 0 0 06:29 27.06.2020
767 Clear 15 1021 87 10000 2.1 130 04:24 27.06.2020
768 Clear 16 1021 87 10000 4.1 90 03:53 27.06.2020
769 Clear 16 1021 82 10000 4.1 90 03:23 27.06.2020
770 Clear 17 1021 87 10000 4.6 100 02:36 27.06.2020
771 Clouds 17 1021 88 10000 4.1 110 01:45 27.06.2020
772 Clouds 18 1021 88 10000 3.6 120 01:22 27.06.2020
773 Clouds 17 1021 93 10000 3.6 110 00:36 27.06.2020
774 Clouds 18 1021 82 10000 2.6 120 23:45 26.06.2020
775 Clouds 19 1021 82 10000 2.6 120 23:25 26.06.2020
776 Clouds 19 1021 82 10000 3.1 120 22:56 26.06.2020
777 Clouds 19 1021 82 10000 3.6 110 22:38 26.06.2020
778 Clouds 19 1021 77 10000 3.6 120 22:19 26.06.2020
779 Clouds 20 1021 77 10000 3.6 120 21:57 26.06.2020
780 Clouds 20 1021 77 10000 3.6 130 21:37 26.06.2020
781 Clouds 21 1020 73 10000 4.1 110 21:19 26.06.2020
782 Clouds 21 1020 73 10000 5.1 100 20:43 26.06.2020
783 Clouds 22 1020 64 10000 6.2 100 20:20 26.06.2020
784 Clouds 23 1021 64 10000 7.2 110 19:44 26.06.2020
785 Clouds 25 1020 53 10000 7.2 90 19:23 26.06.2020
786 Clouds 24 1020 53 10000 7.2 90 18:57 26.06.2020
787 Clouds 25 1020 53 10000 7.2 100 18:37 26.06.2020
788 Clouds 25 1020 60 10000 8.2 110 18:18 26.06.2020
789 Clouds 26 1020 50 10000 8.2 110 17:43 26.06.2020
790 Clouds 26 1020 50 10000 8.2 110 17:24 26.06.2020
791 Clouds 26 1020 50 10000 4.6 100 16:49 26.06.2020
792 Clouds 27 1020 47 10000 4.1 80 16:26 26.06.2020
793 Clouds 26 1020 47 10000 4.1 50 15:55 26.06.2020
794 Clouds 27 1020 47 10000 4.1 50 15:37 26.06.2020
795 Clouds 27 1021 47 10000 3.6 90 15:18 26.06.2020
796 Clouds 27 1021 47 10000 3.6 90 14:55 26.06.2020
797 Clouds 26 1021 50 10000 3.6 70 14:37 26.06.2020
798 Clouds 28 1021 45 10000 3.1 60 14:19 26.06.2020
799 Clouds 26 1021 47 10000 4.1 90 13:43 26.06.2020
800 Clouds 27 1021 47 10000 3.1 60 13:18 26.06.2020
801 Clouds 27 1021 47 10000 3.1 60 13:18 26.06.2020
802 Clouds 26 1022 47 10000 3.6 90 12:41 26.06.2020
803 Clouds 26 1022 47 10000 3.6 90 12:23 26.06.2020
804 Clouds 26 1022 47 10000 3.6 90 11:59 26.06.2020
805 Clouds 25 1022 50 10000 4.6 120 11:40 26.06.2020
806 Clouds 25 1022 50 10000 4.6 120 11:22 26.06.2020
807 Clouds 25 1022 53 10000 3.6 100 10:58 26.06.2020
808 Clouds 24 1022 60 10000 3.1 110 10:39 26.06.2020
809 Clear 23 1022 64 10000 2.6 100 10:19 26.06.2020
810 Clear 22 1022 68 10000 2.1 110 09:44 26.06.2020
811 Clear 22 1022 68 10000 2.1 110 09:26 26.06.2020
812 Clear 21 1022 73 10000 2.6 100 08:57 26.06.2020
813 Clear 20 1022 77 10000 1.5 120 08:37 26.06.2020
814 Clear 19 1022 82 10000 1 0 08:19 26.06.2020
815 Clear 18 1022 82 10000 1.5 140 07:44 26.06.2020
816 Clear 18 1022 82 10000 0.5 0 07:21 26.06.2020
817 Clear 18 1022 93 10000 0.92 65 06:44 26.06.2020
818 Clear 16 1022 93 10000 0.84 67 06:26 26.06.2020
819 Clear 16 1022 93 10000 1.5 90 05:48 26.06.2020
820 Clear 15 1021 100 10000 0.78 52 04:39 26.06.2020
821 Clouds 17 1022 88 10000 2.1 140 02:22 26.06.2020
822 Clouds 17 1022 88 10000 3.1 110 01:21 26.06.2020
823 Clouds 18 1022 82 10000 3.6 90 00:41 26.06.2020
824 Clouds 18 1022 88 10000 3.6 100 00:20 26.06.2020
825 Clouds 18 1022 88 10000 3.6 110 23:43 25.06.2020
826 Rain 18 1022 88 10000 2.1 120 23:19 25.06.2020
827 Rain 18 1022 88 10000 2.1 120 22:56 25.06.2020
828 Rain 19 1022 82 10000 1.32 70 22:37 25.06.2020
829 Clouds 20 1022 82 10000 1.5 270 22:19 25.06.2020
830 Clouds 19 1022 82 10000 1.5 270 21:56 25.06.2020
831 Clouds 21 1021 77 10000 1.5 310 21:38 25.06.2020
832 Clouds 20 1021 77 10000 0.5 0 21:19 25.06.2020
833 Clouds 22 1021 68 10000 1 0 20:45 25.06.2020
834 Clouds 22 1021 69 10000 1 0 20:24 25.06.2020
835 Clouds 23 1021 69 10000 1 0 19:58 25.06.2020
836 Clouds 24 1021 64 10000 1.5 20 19:40 25.06.2020
837 Clouds 24 1021 64 10000 1.5 20 19:40 25.06.2020
838 Clouds 24 1021 64 10000 1.5 20 19:19 25.06.2020
839 Clouds 24 1021 60 10000 2.1 30 18:56 25.06.2020
840 Clouds 24 1021 60 10000 2.1 30 18:37 25.06.2020
841 Clouds 24 1021 57 10000 2.1 30 18:19 25.06.2020
842 Clouds 24 1021 60 10000 2.6 40 17:41 25.06.2020
843 Clouds 23 1021 60 10000 3.6 40 17:19 25.06.2020
844 Clouds 24 1021 60 10000 3.6 40 16:55 25.06.2020
845 Rain 25 1021 57 10000 3.6 50 16:36 25.06.2020
846 Thunderstorm 26 1021 57 8000 2.6 20 16:18 25.06.2020
847 Rain 27 1021 47 10000 4.1 130 15:41 25.06.2020
848 Rain 27 1021 44 10000 2.6 140 15:19 25.06.2020
849 Clouds 26 1021 44 10000 3.1 110 14:43 25.06.2020
850 Clouds 26 1021 44 10000 3.1 110 14:23 25.06.2020
851 Clouds 26 1021 50 10000 4.1 100 13:56 25.06.2020
852 Clouds 25 1021 53 10000 3.1 50 13:37 25.06.2020
853 Clouds 25 1022 57 10000 4.1 30 13:19 25.06.2020
854 Clouds 25 1022 53 10000 5.1 60 12:44 25.06.2020
855 Clouds 24 1022 57 10000 2.6 80 12:20 25.06.2020
856 Clouds 24 1022 57 10000 2.6 80 11:58 25.06.2020
857 Clouds 24 1022 57 10000 2.1 90 11:38 25.06.2020
858 Clouds 23 1022 64 10000 1.5 0 11:20 25.06.2020
859 Clouds 23 1022 64 10000 1 0 10:42 25.06.2020
860 Clouds 23 1022 64 10000 1 0 10:23 25.06.2020
861 Clouds 20 1022 72 10000 2.1 250 09:41 25.06.2020
862 Clouds 19 1023 82 8000 0.78 37 09:23 25.06.2020
863 Clouds 18 1023 82 7000 1 0 08:47 25.06.2020
864 Mist 17 1022 82 5000 1 0 08:21 25.06.2020
865 Mist 15 1022 93 5000 1.5 360 07:56 25.06.2020
866 Mist 15 1022 93 5000 1.5 360 07:38 25.06.2020
867 Mist 15 1022 93 8000 2.6 320 07:19 25.06.2020
868 Clear 15 1022 93 6000 2.1 280 06:28 25.06.2020
869 Mist 15 1022 93 4700 2.1 290 05:53 25.06.2020
870 Clear 15 1022 93 6000 1 0 04:56 25.06.2020
871 Clear 16 1022 87 10000 1 0 03:35 25.06.2020
872 Clouds 16 1022 87 10000 2.1 300 02:44 25.06.2020
873 Clear 17 1022 88 10000 1.5 290 02:18 25.06.2020
874 Clear 17 1022 88 10000 2.1 300 01:29 25.06.2020
875 Clouds 18 1022 82 10000 1.5 290 00:47 25.06.2020
876 Clouds 17 1022 88 10000 3.1 270 00:22 25.06.2020
877 Clouds 18 1022 77 10000 3.1 280 23:45 24.06.2020
878 Clouds 18 1022 77 10000 3.1 280 23:26 24.06.2020
879 Clouds 18 1022 77 10000 3.1 280 22:59 24.06.2020
880 Clouds 19 1022 77 10000 4.1 270 22:41 24.06.2020
881 Clouds 19 1022 77 10000 4.1 280 22:20 24.06.2020
882 Clouds 19 1022 77 10000 4.1 280 21:56 24.06.2020
883 Clouds 20 1021 68 10000 5.7 280 21:37 24.06.2020
884 Clouds 20 1021 72 10000 5.7 280 21:19 24.06.2020
885 Clouds 20 1021 72 10000 5.7 280 20:58 24.06.2020
886 Clouds 21 1021 68 10000 5.7 280 20:39 24.06.2020
887 Clouds 21 1020 64 10000 6.2 280 20:20 24.06.2020
888 Clouds 21 1020 64 10000 6.2 280 19:57 24.06.2020
889 Clouds 22 1020 60 10000 5.7 290 19:38 24.06.2020
890 Clouds 23 1020 56 10000 5.1 290 19:18 24.06.2020
891 Rain 24 1019 56 10000 5.1 280 18:58 24.06.2020
892 Rain 24 1019 56 10000 5.1 280 18:39 24.06.2020
893 Clouds 23 1019 60 10000 4.6 290 18:20 24.06.2020
894 Clouds 24 1019 53 10000 4.6 280 17:44 24.06.2020
895 Clouds 25 1019 53 10000 4.6 280 17:21 24.06.2020
896 Clouds 25 1019 57 10000 4.6 280 17:00 24.06.2020
897 Clouds 24 1019 56 10000 5.7 280 16:41 24.06.2020
898 Clouds 24 1019 56 10000 5.7 280 16:23 24.06.2020
899 Clouds 25 1019 57 10000 5.7 290 15:59 24.06.2020
900 Clouds 25 1019 57 10000 4.6 290 15:39 24.06.2020
901 Clouds 24 1019 57 10000 5.1 290 15:20 24.06.2020
902 Clouds 24 1019 57 10000 5.1 290 14:54 24.06.2020
903 Clouds 23 1019 60 10000 4.6 300 14:36 24.06.2020
904 Clouds 24 1019 60 10000 3.6 320 14:18 24.06.2020
905 Clouds 22 1019 64 10000 3.1 360 13:42 24.06.2020
906 Clouds 23 1019 56 10000 2.1 0 13:21 24.06.2020
907 Clouds 22 1019 64 10000 1.5 340 12:42 24.06.2020
908 Clouds 22 1019 56 10000 1.5 340 12:21 24.06.2020
909 Clouds 22 1019 56 10000 1.5 340 11:57 24.06.2020
910 Clouds 21 1019 60 10000 0.5 0 11:39 24.06.2020
911 Clouds 22 1019 60 10000 1.5 0 11:21 24.06.2020
912 Clouds 21 1019 64 10000 0.5 0 10:45 24.06.2020
913 Clouds 20 1019 72 10000 3.1 250 10:19 24.06.2020
914 Clouds 19 1018 72 10000 2.1 310 09:46 24.06.2020
915 Clouds 19 1018 72 10000 2.1 310 09:24 24.06.2020
916 Clouds 18 1018 82 10000 2.6 300 08:59 24.06.2020
917 Clouds 18 1018 82 10000 2.6 290 08:39 24.06.2020
918 Clouds 16 1018 93 8000 1.5 310 08:18 24.06.2020
919 Clouds 15 1018 100 6000 3.1 300 07:44 24.06.2020
920 Mist 15 1018 93 1800 1.08 312 07:24 24.06.2020
921 Fog 14 1018 93 400 0.5 0 06:44 24.06.2020
922 Fog 14 1017 93 300 0.85 302 06:24 24.06.2020
923 Fog 14 1017 93 7000 2.6 290 05:38 24.06.2020
924 Clouds 15 1017 93 10000 2.6 290 04:38 24.06.2020
925 Clouds 15 1016 93 10000 2.1 290 03:38 24.06.2020
926 Clouds 15 1016 93 7000 1.5 250 02:53 24.06.2020
927 Mist 15 1016 100 5000 1.5 280 02:18 24.06.2020
928 Clouds 15 1016 100 7000 1.5 290 00:52 24.06.2020
929 Clouds 15 1016 100 7000 1.5 290 00:33 24.06.2020
930 Clouds 16 1015 93 10000 2.1 300 23:48 23.06.2020
931 Clouds 16 1015 93 10000 1.5 270 23:21 23.06.2020
932 Clouds 16 1015 93 10000 1.5 270 22:58 23.06.2020
933 Clouds 16 1015 93 10000 1 0 22:40 23.06.2020
934 Rain 16 1015 93 10000 1.5 160 22:18 23.06.2020
935 Rain 16 1014 93 4400 2.1 110 21:43 23.06.2020
936 Rain 16 1014 93 5000 2.6 100 21:20 23.06.2020
937 Rain 16 1014 93 5000 2.6 100 20:57 23.06.2020
938 Rain 16 1014 93 5000 2.1 110 20:39 23.06.2020
939 Rain 16 1013 93 8000 1.5 130 20:19 23.06.2020
940 Rain 16 1013 93 8000 1.5 130 20:19 23.06.2020
941 Rain 16 1013 93 8000 1.5 130 19:59 23.06.2020
942 Rain 17 1013 88 10000 2.6 120 19:40 23.06.2020
943 Rain 16 1013 93 8000 1 0 19:22 23.06.2020
944 Rain 16 1012 93 5000 2.1 70 18:38 23.06.2020
945 Rain 17 1012 88 4500 2.6 50 18:18 23.06.2020
946 Rain 17 1012 88 4500 2.6 50 18:18 23.06.2020
947 Rain 18 1012 82 7000 2.1 70 17:42 23.06.2020
948 Rain 18 1012 82 10000 2.1 80 17:23 23.06.2020
949 Rain 18 1012 82 10000 2.1 80 16:57 23.06.2020
950 Rain 18 1012 88 10000 2.1 100 16:38 23.06.2020
951 Rain 18 1011 82 7000 1 0 16:20 23.06.2020
952 Rain 18 1011 82 7000 1 0 16:20 23.06.2020
953 Rain 18 1012 88 5000 1 0 15:55 23.06.2020
954 Rain 18 1012 88 5000 1 0 15:37 23.06.2020
955 Rain 19 1011 77 10000 2.1 40 15:18 23.06.2020
956 Rain 19 1011 82 10000 1.5 60 14:42 23.06.2020
957 Rain 19 1011 77 10000 0.5 0 14:19 23.06.2020
958 Rain 19 1011 77 10000 0.5 0 13:56 23.06.2020
959 Rain 19 1012 77 10000 1 0 13:38 23.06.2020
960 Rain 18 1012 82 10000 1.5 140 13:20 23.06.2020
961 Rain 18 1012 88 10000 1.5 120 12:41 23.06.2020
962 Rain 18 1012 88 8000 1.5 90 12:22 23.06.2020
963 Rain 17 1012 88 8000 1.5 90 11:55 23.06.2020
964 Rain 18 1012 77 10000 1.5 70 11:37 23.06.2020
965 Rain 18 1011 88 10000 2.1 110 11:19 23.06.2020
966 Rain 18 1011 88 10000 2.1 110 10:55 23.06.2020
967 Rain 17 1011 88 10000 2.1 90 10:37 23.06.2020
968 Rain 17 1011 82 10000 1.5 70 10:19 23.06.2020
969 Rain 19 1011 77 10000 1.5 80 09:41 23.06.2020
970 Rain 18 1011 77 10000 1.5 60 09:20 23.06.2020
971 Clouds 18 1011 77 10000 1.5 50 08:47 23.06.2020
972 Clouds 18 1011 77 10000 1.5 50 08:28 23.06.2020
973 Clouds 17 1011 82 10000 1 0 07:58 23.06.2020
974 Clouds 17 1011 82 10000 1.18 287 07:39 23.06.2020
975 Clouds 17 1011 87 10000 1 0 07:21 23.06.2020
976 Clouds 16 1011 87 10000 1 90 06:48 23.06.2020
977 Clouds 16 1011 87 10000 1 90 06:30 23.06.2020
978 Clouds 15 1011 93 10000 0.5 0 05:39 23.06.2020
979 Clouds 15 1011 87 10000 1 0 03:29 23.06.2020
980 Clouds 15 1011 93 10000 1 0 02:55 23.06.2020
981 Clouds 15 1011 93 10000 1 0 02:36 23.06.2020
982 Clouds 15 1011 93 10000 1.5 290 01:47 23.06.2020
983 Clouds 15 1011 93 10000 1.5 290 01:29 23.06.2020
984 Clouds 16 1011 87 10000 2.6 300 00:56 23.06.2020
985 Clouds 17 1011 82 10000 3.1 300 00:24 23.06.2020
986 Clouds 17 1011 82 10000 3.6 290 23:55 22.06.2020
987 Clouds 17 1011 82 10000 3.6 290 23:55 22.06.2020
988 Clouds 17 1011 82 10000 3.6 290 23:55 22.06.2020
989 Clouds 17 1011 82 10000 3.6 290 23:55 22.06.2020
990 Clouds 17 1011 82 10000 3.6 290 23:37 22.06.2020
991 Clouds 17 1011 77 10000 3.1 290 23:19 22.06.2020
992 Clouds 17 1011 77 10000 3.1 290 22:55 22.06.2020
993 Clouds 18 1011 72 10000 4.6 280 22:37 22.06.2020
994 Clouds 18 1011 72 10000 4.1 290 22:19 22.06.2020
995 Clouds 18 1011 72 10000 4.1 290 21:54 22.06.2020
996 Clouds 18 1011 72 10000 5.1 280 21:36 22.06.2020
997 Clouds 18 1011 72 10000 5.1 280 21:18 22.06.2020
998 Clouds 18 1010 72 10000 5.1 280 20:41 22.06.2020
999 Clouds 19 1010 68 10000 4.6 290 20:22 22.06.2020
1000 Clouds 19 1010 68 10000 6.7 280 19:45 22.06.2020
1001 Rain 20 1009 56 10000 5.1 310 19:20 22.06.2020
1002 Rain 22 1009 56 10000 5.1 310 18:59 22.06.2020
1003 Rain 22 1009 56 10000 5.1 310 18:39 22.06.2020
1004 Rain 22 1009 56 10000 5.1 310 18:21 22.06.2020
1005 Clouds 21 1009 56 10000 6.7 300 17:56 22.06.2020
1006 Clouds 22 1009 49 10000 6.7 310 17:37 22.06.2020
1007 Clouds 22 1009 49 10000 6.7 310 17:19 22.06.2020
1008 Clouds 21 1010 56 10000 6.7 300 16:43 22.06.2020
1009 Clouds 21 1010 60 10000 6.2 310 16:24 22.06.2020
1010 Rain 23 1009 49 10000 7.7 290 15:59 22.06.2020
1011 Clouds 22 1009 53 10000 6.7 300 15:40 22.06.2020
1012 Clouds 22 1009 53 10000 6.7 300 15:22 22.06.2020
1013 Clouds 22 1009 53 10000 5.7 290 14:41 22.06.2020
1014 Clouds 22 1009 53 10000 5.7 290 14:22 22.06.2020
1015 Clouds 23 1009 49 10000 5.1 280 13:59 22.06.2020
1016 Clouds 22 1010 53 10000 5.7 300 13:39 22.06.2020
1017 Clouds 22 1010 53 10000 5.7 300 13:21 22.06.2020
1018 Rain 22 1010 56 10000 4.6 300 12:55 22.06.2020
1019 Clouds 21 1010 60 10000 4.1 300 12:37 22.06.2020
1020 Clouds 21 1010 60 10000 4.1 300 12:19 22.06.2020
1021 Clouds 21 1010 56 10000 2.6 10 11:37 22.06.2020
1022 Clouds 21 1010 56 10000 2.6 10 11:19 22.06.2020
1023 Clouds 20 1010 60 10000 3.1 270 10:55 22.06.2020
1024 Clouds 20 1010 60 10000 2.6 280 10:37 22.06.2020
1025 Clouds 20 1010 60 10000 2.6 280 10:18 22.06.2020
1026 Clouds 19 1010 68 10000 1.5 0 09:56 22.06.2020
1027 Clouds 18 1010 68 10000 2.6 330 09:37 22.06.2020
1028 Clouds 18 1010 68 10000 2.6 330 09:18 22.06.2020
1029 Clouds 17 1010 77 10000 1 0 08:40 22.06.2020
1030 Clouds 17 1010 77 10000 1 0 08:21 22.06.2020
1031 Clouds 15 1011 82 10000 1 0 07:53 22.06.2020
1032 Clouds 14 1010 87 10000 1 0 07:34 22.06.2020
1033 Clouds 14 1010 87 10000 1 0 06:56 22.06.2020
1034 Clouds 13 1010 93 10000 1.36 290 06:36 22.06.2020
1035 Clouds 13 1010 93 10000 1.36 290 06:36 22.06.2020
1036 Clouds 13 1010 93 10000 1.08 296 06:18 22.06.2020
1037 Clouds 13 1010 87 8000 2.1 350 05:41 22.06.2020
1038 Clouds 15 1010 82 10000 3.6 280 02:59 22.06.2020
1039 Clouds 15 1010 82 10000 3.6 280 02:59 22.06.2020
1040 Clouds 15 1010 77 10000 4.6 280 01:38 22.06.2020
1041 Clouds 16 1011 72 10000 4.1 280 00:41 22.06.2020
1042 Clouds 16 1011 72 10000 4.1 280 00:19 22.06.2020
1043 Clouds 16 1011 72 10000 4.1 290 23:55 21.06.2020
1044 Clouds 17 1010 67 10000 5.7 280 23:36 21.06.2020
1045 Clouds 17 1010 67 10000 5.7 280 23:18 21.06.2020
1046 Clouds 17 1010 67 10000 5.1 280 22:54 21.06.2020
1047 Clouds 17 1010 67 10000 5.1 280 22:36 21.06.2020
1048 Clouds 17 1010 67 10000 5.1 280 22:18 21.06.2020
1049 Clouds 17 1010 67 10000 7.2 280 21:42 21.06.2020
1050 Clouds 17 1010 67 10000 7.2 280 21:21 21.06.2020
1051 Clouds 18 1009 63 10000 7.2 280 20:59 21.06.2020
1052 Clouds 19 1009 59 10000 7.2 280 20:38 21.06.2020
1053 Clouds 19 1009 59 10000 7.2 280 20:19 21.06.2020
1054 Clouds 19 1009 59 10000 6.7 280 19:57 21.06.2020
1055 Clouds 19 1009 59 10000 6.7 280 19:57 21.06.2020
1056 Clouds 20 1008 56 10000 7.7 280 19:38 21.06.2020
1057 Clouds 20 1008 56 10000 7.7 280 19:19 21.06.2020
1058 Clouds 21 1008 49 10000 6.7 290 18:55 21.06.2020
1059 Clouds 21 1008 49 10000 7.2 290 18:36 21.06.2020
1060 Clouds 21 1008 49 10000 7.2 290 18:36 21.06.2020
1061 Clouds 21 1008 52 10000 7.2 290 18:18 21.06.2020
1062 Clouds 22 1008 46 10000 6.7 300 17:40 21.06.2020
1063 Clouds 22 1008 46 10000 6.7 300 17:20 21.06.2020
1064 Clouds 22 1008 46 10000 6.7 300 16:56 21.06.2020
1065 Clouds 22 1008 43 10000 6.2 310 16:37 21.06.2020
1066 Clouds 22 1008 43 10000 6.2 310 16:19 21.06.2020
1067 Clouds 23 1009 40 10000 6.2 310 15:38 21.06.2020
1068 Clouds 23 1009 40 10000 6.2 310 15:20 21.06.2020
1069 Clouds 22 1009 43 10000 6.7 300 14:39 21.06.2020
1070 Clouds 22 1009 43 10000 6.7 300 14:21 21.06.2020
1071 Clouds 22 1010 43 10000 7.2 280 13:59 21.06.2020
1072 Clouds 22 1010 43 10000 7.2 280 13:59 21.06.2020
1073 Clouds 21 1010 49 10000 7.2 290 13:41 21.06.2020
1074 Clouds 21 1010 49 10000 7.2 290 13:22 21.06.2020
1075 Clouds 21 1010 49 10000 7.2 300 12:55 21.06.2020
1076 Clouds 21 1010 49 10000 7.2 290 12:36 21.06.2020
1077 Clouds 21 1010 49 10000 7.2 290 12:18 21.06.2020
1078 Clouds 20 1010 52 10000 7.7 280 11:41 21.06.2020
1079 Clouds 20 1010 52 10000 7.7 280 11:23 21.06.2020
1080 Clouds 19 1010 55 10000 6.7 290 10:58 21.06.2020
1081 Clouds 19 1010 55 10000 8.2 290 10:39 21.06.2020
1082 Clouds 19 1010 55 10000 8.2 290 10:20 21.06.2020
1083 Clouds 20 1010 55 10000 8.2 290 09:44 21.06.2020
1084 Clouds 18 1010 59 10000 8.2 280 09:22 21.06.2020
1085 Clouds 18 1011 59 10000 7.7 290 08:57 21.06.2020
1086 Clouds 17 1011 67 10000 6.7 280 08:39 21.06.2020
1087 Clouds 17 1011 67 10000 6.7 280 08:19 21.06.2020
1088 Clouds 16 1011 72 10000 6.2 280 07:42 21.06.2020
1089 Clouds 16 1011 72 10000 6.2 280 07:23 21.06.2020
1090 Clouds 15 1011 77 10000 5.1 280 06:50 21.06.2020
1091 Rain 15 1011 82 10000 5.1 280 06:28 21.06.2020
1092 Rain 15 1011 82 10000 4.6 280 05:57 21.06.2020
1093 Rain 15 1011 72 10000 3.6 300 04:34 21.06.2020
1094 Clouds 16 1012 72 10000 4.1 280 03:19 21.06.2020
1095 Clouds 16 1012 72 10000 4.6 280 02:33 21.06.2020
1096 Clouds 17 1012 67 10000 5.7 290 01:37 21.06.2020
1097 Clouds 17 1012 67 10000 5.7 290 01:18 21.06.2020
1098 Clouds 17 1012 72 10000 6.2 280 00:42 21.06.2020
1099 Clouds 17 1012 72 10000 6.2 280 00:23 21.06.2020
1100 Clouds 18 1012 68 10000 6.2 280 23:45 20.06.2020
1101 Clouds 18 1012 68 10000 5.1 280 23:22 20.06.2020
1102 Clouds 18 1012 68 10000 5.7 290 22:57 20.06.2020
1103 Clouds 18 1012 63 10000 1.5 330 22:39 20.06.2020
1104 Clouds 18 1012 63 10000 1.5 330 22:19 20.06.2020
1105 Clouds 19 1012 68 10000 4.1 290 21:57 20.06.2020
1106 Clouds 19 1011 60 10000 1.5 310 21:39 20.06.2020
1107 Clouds 19 1011 60 10000 1.5 310 21:20 20.06.2020
1108 Clouds 19 1011 60 10000 1.5 310 21:20 20.06.2020
1109 Clouds 20 1011 68 10000 1.5 360 20:57 20.06.2020
1110 Clouds 20 1011 56 10000 3.6 300 20:39 20.06.2020
1111 Clouds 21 1011 56 10000 3.6 300 20:20 20.06.2020
1112 Thunderstorm 22 1011 53 10000 2.1 330 19:44 20.06.2020
1113 Clouds 22 1011 53 10000 0.5 0 19:25 20.06.2020
1114 Clouds 22 1011 53 10000 1 0 18:58 20.06.2020
1115 Clouds 21 1011 56 10000 2.1 360 18:40 20.06.2020
1116 Clouds 21 1011 56 10000 2.1 360 18:19 20.06.2020
1117 Thunderstorm 22 1011 53 10000 4.6 340 17:56 20.06.2020
1118 Clouds 24 1010 44 10000 2.6 320 17:38 20.06.2020
1119 Clouds 24 1010 44 10000 2.6 320 17:19 20.06.2020
1120 Clouds 25 1010 47 10000 3.6 10 16:41 20.06.2020
1121 Clouds 25 1010 47 10000 3.6 10 16:19 20.06.2020
1122 Clouds 24 1011 44 10000 4.1 290 15:57 20.06.2020
1123 Clouds 24 1011 44 10000 5.1 270 15:38 20.06.2020
1124 Clouds 24 1011 44 10000 5.1 270 15:18 20.06.2020
1125 Clouds 25 1011 41 10000 6.7 300 14:42 20.06.2020
1126 Clouds 26 1011 41 10000 6.7 300 14:20 20.06.2020
1127 Clouds 24 1012 44 10000 6.7 270 13:42 20.06.2020
1128 Clouds 24 1012 44 10000 6.7 270 13:20 20.06.2020
1129 Clouds 23 1012 46 10000 5.7 280 12:56 20.06.2020
1130 Clouds 25 1012 44 10000 6.7 290 12:38 20.06.2020
1131 Clouds 25 1012 44 10000 6.7 290 12:19 20.06.2020
1132 Clouds 24 1013 44 10000 5.7 290 11:40 20.06.2020
1133 Clouds 24 1013 44 10000 5.7 290 11:21 20.06.2020
1134 Clouds 23 1013 49 10000 6.2 300 10:58 20.06.2020
1135 Clear 23 1013 49 10000 6.2 300 10:40 20.06.2020
1136 Clear 23 1013 49 10000 6.2 300 10:20 20.06.2020
1137 Clear 21 1014 60 10000 5.1 310 09:43 20.06.2020
1138 Clear 21 1014 60 10000 5.1 310 09:25 20.06.2020
1139 Clouds 21 1014 56 10000 3.1 320 08:58 20.06.2020
1140 Clouds 19 1014 68 10000 3.1 320 08:39 20.06.2020
1141 Clear 18 1014 68 10000 1.5 320 08:21 20.06.2020
1142 Clear 18 1014 68 10000 1.5 320 07:50 20.06.2020
1143 Clear 17 1014 72 10000 2.6 290 07:25 20.06.2020
1144 Clear 15 1014 82 10000 1.92 284 06:44 20.06.2020
1145 Clear 14 1014 82 10000 1.5 200 06:20 20.06.2020
1146 Clear 14 1014 93 10000 2.1 100 05:47 20.06.2020
1147 Clouds 14 1014 93 10000 1 0 03:53 20.06.2020
1148 Clouds 15 1014 82 10000 1 30 01:54 20.06.2020
1149 Clouds 15 1014 82 10000 0.5 0 01:36 20.06.2020
1150 Clear 16 1014 77 10000 1 0 00:45 20.06.2020
1151 Clear 16 1014 77 10000 1.5 10 00:20 20.06.2020
1152 Clear 17 1014 72 10000 0.5 0 23:41 19.06.2020
1153 Clear 18 1014 68 10000 1 0 23:19 19.06.2020
1154 Clear 18 1014 68 10000 1 0 22:55 19.06.2020
1155 Clear 19 1014 63 10000 2.6 310 22:37 19.06.2020
1156 Clear 19 1014 63 10000 2.6 310 22:19 19.06.2020
1157 Clear 19 1014 59 10000 2.6 290 21:54 19.06.2020
1158 Clear 20 1014 56 10000 3.1 300 21:36 19.06.2020
1159 Clear 20 1014 56 10000 3.1 300 21:18 19.06.2020
1160 Clear 21 1013 46 10000 2.6 310 20:55 19.06.2020
1161 Clouds 22 1013 43 10000 4.1 300 20:37 19.06.2020
1162 Clouds 22 1013 43 10000 4.1 300 20:18 19.06.2020
1163 Clouds 24 1013 41 10000 6.2 300 19:42 19.06.2020
1164 Clouds 24 1013 41 10000 6.2 300 19:42 19.06.2020
1165 Clouds 24 1013 41 10000 6.2 300 19:23 19.06.2020
1166 Clouds 25 1012 41 10000 6.2 310 18:59 19.06.2020
1167 Clouds 25 1012 38 10000 5.1 300 18:39 19.06.2020
1168 Clouds 25 1012 38 10000 5.1 300 18:20 19.06.2020
1169 Clouds 26 1013 36 10000 6.7 300 17:42 19.06.2020
1170 Clouds 26 1013 36 10000 6.7 300 17:23 19.06.2020
1171 Clouds 26 1012 36 10000 6.7 320 16:57 19.06.2020
1172 Clouds 25 1013 38 10000 6.7 300 16:39 19.06.2020
1173 Clouds 25 1013 38 10000 6.7 300 16:21 19.06.2020
1174 Clouds 26 1013 39 10000 6.7 300 15:45 19.06.2020
1175 Clouds 26 1013 41 10000 5.7 310 15:25 19.06.2020
1176 Clouds 26 1013 41 10000 6.7 300 14:58 19.06.2020
1177 Clouds 26 1013 41 10000 6.2 300 14:39 19.06.2020
1178 Clouds 26 1013 41 10000 6.2 300 14:21 19.06.2020
1179 Clouds 25 1013 41 10000 7.2 300 13:58 19.06.2020
1180 Clouds 26 1014 39 10000 6.7 290 13:39 19.06.2020
1181 Clouds 26 1014 39 10000 6.7 290 13:21 19.06.2020
1182 Clouds 25 1014 44 10000 7.7 280 12:44 19.06.2020
1183 Clouds 24 1014 44 10000 6.7 290 12:20 19.06.2020
1184 Clouds 23 1014 49 10000 7.2 290 11:41 19.06.2020
1185 Clouds 23 1014 49 10000 7.2 290 11:19 19.06.2020
1186 Clouds 23 1014 49 10000 7.2 300 10:59 19.06.2020
1187 Clouds 22 1014 53 10000 8.2 280 10:41 19.06.2020
1188 Clouds 22 1014 53 10000 8.2 280 10:41 19.06.2020
1189 Clouds 22 1014 53 10000 8.2 280 10:41 19.06.2020
1190 Clouds 22 1014 53 10000 8.2 280 10:20 19.06.2020
1191 Clouds 21 1014 56 10000 6.2 290 09:44 19.06.2020
1192 Clouds 21 1014 56 10000 6.2 290 09:25 19.06.2020
1193 Clouds 21 1015 56 10000 6.7 280 08:58 19.06.2020
1194 Clouds 21 1015 56 10000 6.7 280 08:38 19.06.2020
1195 Clouds 21 1015 56 10000 6.7 280 08:20 19.06.2020
1196 Clouds 19 1014 68 10000 2.6 0 07:41 19.06.2020
1197 Clouds 19 1014 68 10000 2.6 0 07:21 19.06.2020
1198 Clouds 16 1014 82 10000 3.6 290 06:44 19.06.2020
1199 Clouds 16 1014 82 10000 3.6 290 06:20 19.06.2020
1200 Clear 16 1013 87 10000 3.1 350 04:30 19.06.2020
1201 Clear 17 1013 77 10000 2.6 350 03:29 19.06.2020
1202 Clouds 18 1014 68 10000 4.1 310 01:23 19.06.2020
1203 Clouds 18 1013 68 10000 3.1 310 00:42 19.06.2020
1204 Clouds 18 1013 68 10000 3.1 310 00:22 19.06.2020
1205 Clouds 19 1013 63 10000 3.1 290 23:55 18.06.2020
1206 Clouds 19 1013 64 10000 4.6 280 23:36 18.06.2020
1207 Clouds 19 1013 64 10000 4.6 280 23:36 18.06.2020
1208 Clouds 19 1013 64 10000 4.6 280 23:18 18.06.2020
1209 Clouds 19 1013 64 10000 4.6 280 23:18 18.06.2020
1210 Clouds 19 1012 68 10000 2.6 280 22:39 18.06.2020
1211 Clouds 19 1012 68 10000 2.6 280 22:19 18.06.2020
1212 Clouds 19 1012 64 10000 3.1 290 21:55 18.06.2020
1213 Clouds 19 1012 64 10000 3.1 290 21:36 18.06.2020
1214 Clouds 20 1012 64 10000 3.1 290 21:18 18.06.2020
1215 Clouds 20 1011 60 10000 2.6 290 20:40 18.06.2020
1216 Clouds 21 1011 60 10000 2.6 290 20:20 18.06.2020
1217 Clouds 22 1011 49 10000 3.1 300 19:56 18.06.2020
1218 Clouds 23 1011 53 10000 3.1 320 19:38 18.06.2020
1219 Clouds 23 1011 53 10000 3.1 320 19:19 18.06.2020
1220 Clouds 24 1011 50 10000 5.1 310 18:38 18.06.2020
1221 Clouds 24 1011 50 10000 5.1 310 18:19 18.06.2020
1222 Clouds 24 1011 53 10000 5.1 300 17:45 18.06.2020
1223 Clouds 24 1011 53 10000 5.1 300 17:26 18.06.2020
1224 Clouds 24 1011 53 10000 5.1 300 17:26 18.06.2020
1225 Clouds 24 1011 50 10000 5.7 300 16:57 18.06.2020
1226 Clouds 24 1011 50 10000 6.7 280 16:39 18.06.2020
1227 Clouds 24 1011 50 10000 6.7 280 16:20 18.06.2020
1228 Clouds 24 1010 50 10000 4.1 290 15:57 18.06.2020
1229 Clouds 24 1011 50 10000 5.7 270 15:38 18.06.2020
1230 Clouds 25 1011 50 10000 5.7 270 15:19 18.06.2020
1231 Clouds 24 1011 53 10000 5.7 280 14:55 18.06.2020
1232 Clouds 23 1011 60 10000 6.2 260 14:37 18.06.2020
1233 Rain 24 1011 60 10000 6.2 260 14:18 18.06.2020
1234 Rain 22 1012 60 10000 7.7 260 13:41 18.06.2020
1235 Rain 20 1012 60 10000 7.7 260 13:23 18.06.2020
1236 Rain 21 1012 60 10000 6.2 300 12:56 18.06.2020
1237 Rain 22 1012 60 10000 6.2 300 12:56 18.06.2020
1238 Rain 23 1012 56 10000 5.7 310 12:38 18.06.2020
1239 Rain 23 1012 56 10000 5.7 310 12:19 18.06.2020
1240 Clouds 20 1012 68 10000 4.6 280 11:47 18.06.2020
1241 Clouds 20 1012 68 10000 4.6 280 11:21 18.06.2020
1242 Clouds 20 1012 68 10000 3.1 290 10:56 18.06.2020
1243 Clouds 20 1012 77 10000 1.5 0 10:38 18.06.2020
1244 Clouds 20 1012 77 10000 1.5 0 10:18 18.06.2020
1245 Clouds 20 1012 88 10000 1.5 300 09:42 18.06.2020
1246 Rain 19 1012 88 10000 1.5 300 09:23 18.06.2020
1247 Rain 17 1011 88 10000 1 0 08:41 18.06.2020
1248 Clouds 17 1011 88 10000 1 0 08:23 18.06.2020
1249 Clouds 17 1011 88 10000 1.5 220 07:59 18.06.2020
1250 Clouds 17 1011 93 10000 1.5 230 07:40 18.06.2020
1251 Clouds 17 1011 93 10000 1.5 230 07:21 18.06.2020
1252 Clouds 15 1011 93 10000 1.38 282 06:28 18.06.2020
1253 Clouds 15 1010 93 8000 0.5 0 04:27 18.06.2020
1254 Clouds 15 1010 93 10000 1.5 200 03:26 18.06.2020
1255 Clouds 15 1010 93 8000 1.5 220 01:39 18.06.2020
1256 Clouds 16 1010 93 8000 1.5 220 01:18 18.06.2020
1257 Clouds 16 1011 93 10000 0.5 0 00:48 18.06.2020
1258 Clouds 15 1011 93 8000 1 50 00:24 18.06.2020
1259 Clouds 16 1011 93 10000 0.5 0 23:46 17.06.2020
1260 Clouds 16 1011 93 10000 1 0 23:22 17.06.2020
1261 Clouds 16 1010 93 10000 0.5 0 22:59 17.06.2020
1262 Rain 16 1010 93 6000 2.1 340 22:40 17.06.2020
1263 Rain 16 1010 93 6000 2.1 340 22:21 17.06.2020
1264 Rain 16 1010 87 10000 1 0 21:57 17.06.2020
1265 Rain 16 1010 87 10000 3.1 150 21:39 17.06.2020
1266 Rain 16 1010 87 10000 3.1 150 21:20 17.06.2020
1267 Rain 17 1010 82 10000 3.6 130 20:39 17.06.2020
1268 Rain 17 1010 82 10000 3.6 130 20:20 17.06.2020
1269 Rain 17 1010 82 10000 3.6 130 20:20 17.06.2020
1270 Clouds 18 1009 82 10000 4.1 90 19:59 17.06.2020
1271 Thunderstorm 19 1009 77 10000 4.1 60 19:39 17.06.2020
1272 Thunderstorm 21 1009 77 10000 4.1 60 19:19 17.06.2020
1273 Thunderstorm 20 1008 68 10000 3.6 90 18:45 17.06.2020
1274 Thunderstorm 21 1008 64 10000 3.6 60 18:27 17.06.2020
1275 Thunderstorm 21 1008 53 10000 7.2 250 17:46 17.06.2020
1276 Clouds 22 1008 53 10000 4.1 230 17:23 17.06.2020
1277 Clouds 23 1008 53 10000 3.6 240 16:58 17.06.2020
1278 Clouds 23 1008 56 10000 4.6 260 16:39 17.06.2020
1279 Clouds 23 1008 56 10000 4.6 260 16:21 17.06.2020
1280 Clouds 22 1008 56 10000 5.1 250 15:58 17.06.2020
1281 Clouds 23 1008 53 10000 5.1 260 15:39 17.06.2020
1282 Clouds 24 1008 53 10000 5.1 260 15:19 17.06.2020
1283 Clouds 23 1008 60 10000 5.7 260 14:57 17.06.2020
1284 Clouds 22 1008 64 10000 7.2 260 14:39 17.06.2020
1285 Clouds 21 1008 64 10000 7.2 260 14:19 17.06.2020
1286 Clouds 20 1008 52 10000 9.3 250 13:56 17.06.2020
1287 Clouds 20 1008 49 10000 4.1 290 13:37 17.06.2020
1288 Clouds 20 1008 49 10000 4.1 290 13:18 17.06.2020
1289 Clouds 21 1009 60 10000 3.6 260 12:42 17.06.2020
1290 Clouds 21 1009 60 10000 3.6 260 12:22 17.06.2020
1291 Clouds 21 1009 60 10000 3.6 280 11:45 17.06.2020
1292 Clouds 20 1009 64 10000 3.6 300 11:26 17.06.2020
1293 Clouds 20 1009 68 10000 4.1 270 10:59 17.06.2020
1294 Clouds 19 1010 72 10000 3.1 290 10:38 17.06.2020
1295 Clouds 19 1010 72 10000 3.1 290 10:19 17.06.2020
1296 Clouds 18 1010 77 10000 3.6 290 09:56 17.06.2020
1297 Clouds 17 1010 77 10000 4.1 280 09:37 17.06.2020
1298 Clouds 17 1010 77 10000 4.1 280 09:19 17.06.2020
1299 Clouds 18 1010 82 10000 3.6 280 08:44 17.06.2020
1300 Clouds 16 1010 87 10000 3.1 280 08:20 17.06.2020
1301 Clouds 17 1010 82 10000 3.6 280 07:44 17.06.2020
1302 Clouds 17 1010 82 10000 4.1 280 07:24 17.06.2020
1303 Clouds 17 1010 87 10000 2.6 280 06:59 17.06.2020
1304 Clouds 16 1009 93 10000 2.6 270 06:41 17.06.2020
1305 Clouds 16 1009 93 10000 2.6 270 06:22 17.06.2020
1306 Clouds 15 1009 93 10000 2.6 280 05:49 17.06.2020
1307 Rain 16 1009 82 10000 4.6 300 04:38 17.06.2020
1308 Clouds 16 1010 87 10000 2.6 300 02:21 17.06.2020
1309 Rain 16 1010 87 10000 1 0 00:53 17.06.2020
1310 Rain 16 1010 87 10000 1 0 00:30 17.06.2020
1311 Rain 16 1010 93 10000 0.5 110 23:59 16.06.2020
1312 Rain 16 1010 82 10000 1.5 220 23:41 16.06.2020
1313 Rain 16 1010 82 10000 1.5 220 23:22 16.06.2020
1314 Rain 16 1010 82 10000 2.1 220 22:57 16.06.2020
1315 Rain 17 1010 88 10000 1 0 22:38 16.06.2020
1316 Clouds 17 1010 88 10000 1 0 22:19 16.06.2020
1317 Clouds 17 1010 88 10000 1 0 22:19 16.06.2020
1318 Clouds 17 1010 88 10000 2.1 360 21:57 16.06.2020
1319 Clouds 16 1010 82 10000 1.5 40 21:39 16.06.2020
1320 Rain 17 1010 82 10000 1.5 40 21:20 16.06.2020
1321 Rain 16 1009 82 10000 2.6 120 20:43 16.06.2020
1322 Rain 16 1009 88 10000 3.1 190 20:22 16.06.2020
1323 Rain 17 1010 82 10000 2.1 200 19:58 16.06.2020
1324 Rain 17 1010 88 10000 3.1 180 19:40 16.06.2020
1325 Rain 17 1010 88 10000 3.1 180 19:22 16.06.2020
1326 Rain 19 1010 82 10000 3.1 180 18:56 16.06.2020
1327 Rain 19 1010 82 10000 3.1 180 18:56 16.06.2020
1328 Rain 20 1009 72 10000 4.1 120 18:38 16.06.2020
1329 Rain 19 1009 72 10000 4.1 120 18:20 16.06.2020
1330 Clouds 19 1009 72 10000 4.1 130 17:56 16.06.2020
1331 Rain 20 1009 72 10000 3.1 170 17:37 16.06.2020
1332 Rain 20 1009 72 10000 3.1 170 17:19 16.06.2020
1333 Rain 20 1009 68 10000 1 0 16:55 16.06.2020
1334 Rain 21 1009 60 10000 2.1 350 16:37 16.06.2020
1335 Rain 20 1009 60 10000 2.1 350 16:18 16.06.2020
1336 Clouds 21 1009 60 10000 2.6 10 15:55 16.06.2020
1337 Clouds 23 1009 60 10000 2.6 320 15:37 16.06.2020
1338 Clouds 22 1009 60 10000 2.6 320 15:19 16.06.2020
1339 Clouds 22 1009 60 10000 3.1 300 14:41 16.06.2020
1340 Clouds 22 1009 60 10000 3.1 300 14:23 16.06.2020
1341 Clouds 21 1010 64 10000 3.6 290 13:49 16.06.2020
1342 Clouds 23 1010 60 10000 3.6 300 13:26 16.06.2020
1343 Clouds 22 1010 60 10000 3.1 300 12:57 16.06.2020
1344 Clouds 23 1010 60 10000 3.1 280 12:39 16.06.2020
1345 Clouds 21 1010 60 10000 3.1 280 12:20 16.06.2020
1346 Clouds 22 1010 60 10000 2.1 270 11:55 16.06.2020
1347 Clouds 22 1010 64 10000 2.6 260 11:37 16.06.2020
1348 Clouds 22 1010 64 10000 2.6 260 11:37 16.06.2020
1349 Clouds 21 1010 64 10000 2.6 260 11:19 16.06.2020
1350 Clouds 20 1011 68 10000 2.1 280 10:42 16.06.2020
1351 Clouds 20 1011 68 10000 2.1 280 10:21 16.06.2020
1352 Clouds 19 1011 68 10000 2.6 280 09:57 16.06.2020
1353 Clouds 19 1011 72 10000 2.6 290 09:39 16.06.2020
1354 Clouds 19 1011 72 10000 2.6 290 09:21 16.06.2020
1355 Clouds 17 1011 82 10000 2.6 310 08:43 16.06.2020
1356 Clouds 17 1011 82 10000 2.6 310 08:25 16.06.2020
1357 Clouds 17 1011 82 10000 1.5 350 07:47 16.06.2020
1358 Clouds 16 1011 87 10000 2.1 310 07:26 16.06.2020
1359 Clouds 16 1011 82 10000 2.6 290 06:48 16.06.2020
1360 Clouds 15 1011 93 10000 0.5 0 06:26 16.06.2020
1361 Clouds 16 1010 93 10000 2.1 330 05:38 16.06.2020
1362 Clouds 16 1010 87 10000 2.1 240 04:31 16.06.2020
1363 Clouds 16 1011 87 10000 1.5 10 02:58 16.06.2020
1364 Clouds 16 1011 87 10000 2.6 130 01:58 16.06.2020
1365 Clouds 16 1011 87 10000 2.1 90 01:23 16.06.2020
1366 Clouds 17 1011 88 10000 2.6 70 00:43 16.06.2020
1367 Clouds 17 1011 88 10000 2.6 70 00:19 16.06.2020
1368 Clouds 17 1011 88 10000 3.1 100 23:41 15.06.2020
1369 Clouds 17 1011 88 10000 3.1 100 23:22 15.06.2020
1370 Clouds 17 1010 88 10000 1.5 170 22:55 15.06.2020
1371 Clouds 18 1011 77 10000 1 0 22:36 15.06.2020
1372 Clouds 18 1011 77 10000 1 0 22:18 15.06.2020
1373 Clouds 18 1010 82 10000 1.5 240 21:55 15.06.2020
1374 Clouds 18 1010 82 10000 2.1 230 21:36 15.06.2020
1375 Clouds 18 1010 82 10000 2.1 230 21:36 15.06.2020
1376 Clouds 19 1010 82 10000 2.1 230 21:18 15.06.2020
1377 Clouds 19 1010 82 10000 2.1 230 21:18 15.06.2020
1378 Clouds 19 1009 82 10000 2.1 240 20:54 15.06.2020
1379 Rain 19 1010 77 10000 3.6 220 20:36 15.06.2020
1380 Rain 20 1010 77 10000 3.6 220 20:18 15.06.2020
1381 Thunderstorm 20 1010 77 7000 3.1 300 19:41 15.06.2020
1382 Thunderstorm 20 1010 77 7000 3.1 300 19:22 15.06.2020
1383 Thunderstorm 21 1010 64 10000 4.1 320 18:58 15.06.2020
1384 Thunderstorm 22 1009 64 10000 3.1 80 18:40 15.06.2020
1385 Thunderstorm 23 1009 64 10000 3.1 80 18:21 15.06.2020
1386 Thunderstorm 23 1008 56 10000 4.6 120 17:58 15.06.2020
1387 Thunderstorm 21 1009 60 10000 8.2 130 17:40 15.06.2020
1388 Thunderstorm 21 1009 60 10000 8.2 130 17:19 15.06.2020
1389 Clouds 26 1008 50 10000 4.6 360 16:54 15.06.2020
1390 Clouds 25 1008 50 10000 3.1 10 16:36 15.06.2020
1391 Clouds 25 1008 50 10000 3.1 10 16:18 15.06.2020
1392 Clouds 26 1009 41 10000 4.6 270 15:40 15.06.2020
1393 Clouds 26 1009 41 10000 4.6 270 15:20 15.06.2020
1394 Clouds 26 1009 44 10000 4.1 300 14:57 15.06.2020
1395 Clouds 26 1009 41 10000 4.1 300 14:39 15.06.2020
1396 Clouds 26 1009 41 10000 4.1 300 14:18 15.06.2020
1397 Clouds 25 1010 47 10000 5.1 290 13:43 15.06.2020
1398 Clouds 25 1010 47 10000 5.1 290 13:24 15.06.2020
1399 Clouds 25 1010 47 10000 5.1 290 12:59 15.06.2020
1400 Clouds 24 1011 50 10000 5.1 300 12:41 15.06.2020
1401 Clouds 24 1011 50 10000 5.1 300 12:21 15.06.2020
1402 Clouds 24 1011 50 10000 5.7 300 11:46 15.06.2020
1403 Clouds 23 1011 53 10000 6.7 300 11:26 15.06.2020
1404 Clouds 23 1011 53 10000 5.1 300 10:57 15.06.2020
1405 Clouds 22 1011 56 10000 5.7 300 10:38 15.06.2020
1406 Clouds 22 1011 56 10000 5.7 300 10:19 15.06.2020
1407 Clouds 20 1011 64 10000 5.7 300 09:42 15.06.2020
1408 Clouds 20 1011 64 10000 5.7 300 09:22 15.06.2020
1409 Clouds 19 1011 68 10000 4.6 290 08:45 15.06.2020
1410 Clear 18 1011 72 10000 4.1 310 08:26 15.06.2020
1411 Clear 17 1011 77 10000 3.6 310 07:52 15.06.2020
1412 Clear 17 1011 82 10000 2.1 10 07:34 15.06.2020
1413 Clear 15 1010 87 10000 1.5 20 06:57 15.06.2020
1414 Clear 15 1010 87 10000 1.5 20 06:57 15.06.2020
1415 Clear 15 1010 87 10000 1.5 20 06:57 15.06.2020
1416 Clouds 17 1010 72 10000 3.1 310 06:27 15.06.2020
1417 Clouds 18 1010 72 10000 4.6 280 05:50 15.06.2020
1418 Clouds 16 1010 82 10000 1.5 0 05:28 15.06.2020
1419 Clouds 15 1010 87 10000 1.5 280 04:22 15.06.2020
1420 Clouds 16 1010 82 10000 2.6 280 03:48 15.06.2020
1421 Clouds 16 1010 82 10000 2.6 280 03:48 15.06.2020
1422 Clear 16 1009 82 10000 2.6 300 02:56 15.06.2020
1423 Clouds 16 1009 87 10000 1.5 250 02:20 15.06.2020
1424 Clouds 16 1009 93 10000 1.5 320 01:40 15.06.2020
1425 Clouds 16 1009 93 10000 1.5 320 01:40 15.06.2020
1426 Clouds 16 1009 93 10000 1.5 320 01:40 15.06.2020
1427 Clouds 18 1009 93 10000 1.5 320 01:22 15.06.2020
1428 Clouds 17 1009 88 10000 0.5 0 00:41 15.06.2020
1429 Clouds 17 1009 88 10000 0.5 0 00:22 15.06.2020
1430 Clouds 19 1009 77 10000 2.1 330 23:55 14.06.2020
1431 Clouds 19 1009 77 10000 3.1 260 23:36 14.06.2020
1432 Clouds 20 1009 77 10000 3.1 260 23:18 14.06.2020
1433 Clouds 18 1009 77 10000 3.1 260 22:55 14.06.2020
1434 Clouds 20 1009 77 10000 2.1 290 22:37 14.06.2020
1435 Clouds 20 1009 77 10000 2.1 290 22:18 14.06.2020
1436 Clouds 20 1009 72 10000 4.1 270 21:55 14.06.2020
1437 Clouds 21 1008 68 10000 2.1 340 21:36 14.06.2020
1438 Clouds 21 1008 68 10000 2.1 340 21:18 14.06.2020
1439 Clouds 23 1008 56 10000 2.6 300 20:40 14.06.2020
1440 Clouds 23 1008 56 10000 2.6 300 20:21 14.06.2020
1441 Rain 24 1008 53 10000 2.6 300 19:59 14.06.2020
1442 Rain 24 1008 53 10000 2.6 300 19:59 14.06.2020
1443 Rain 24 1008 53 10000 2.6 300 19:59 14.06.2020
1444 Rain 25 1007 47 10000 4.1 290 19:40 14.06.2020
1445 Rain 25 1007 47 10000 4.1 290 19:40 14.06.2020
1446 Rain 25 1007 47 10000 4.1 290 19:20 14.06.2020
1447 Clouds 25 1007 47 10000 4.1 290 18:58 14.06.2020
1448 Clouds 25 1007 47 10000 4.1 290 18:58 14.06.2020
1449 Clouds 26 1007 44 10000 4.1 300 18:40 14.06.2020
1450 Clouds 26 1007 44 10000 4.1 300 18:21 14.06.2020
1451 Clouds 26 1007 44 10000 5.1 300 17:58 14.06.2020
1452 Clouds 26 1007 44 10000 4.1 300 17:39 14.06.2020
1453 Clouds 26 1007 44 10000 4.1 300 17:20 14.06.2020
1454 Clouds 26 1008 50 10000 3.1 320 16:55 14.06.2020
1455 Clouds 25 1008 53 10000 5.1 290 16:37 14.06.2020
1456 Clouds 25 1008 53 10000 5.1 290 16:18 14.06.2020
1457 Clouds 24 1009 60 10000 3.6 320 15:41 14.06.2020
1458 Clouds 24 1009 60 10000 3.6 320 15:20 14.06.2020
1459 Clouds 23 1009 64 10000 3.1 350 14:59 14.06.2020
1460 Clouds 24 1009 68 10000 4.6 310 14:40 14.06.2020
1461 Clouds 22 1009 68 10000 4.6 310 14:21 14.06.2020
1462 Clouds 22 1009 68 10000 4.6 320 13:57 14.06.2020
1463 Clouds 23 1009 60 10000 6.7 310 13:39 14.06.2020
1464 Clouds 23 1009 60 10000 6.7 310 13:21 14.06.2020
1465 Clouds 23 1009 60 10000 6.7 300 12:55 14.06.2020
1466 Clouds 22 1009 68 10000 4.1 300 12:37 14.06.2020
1467 Clouds 22 1009 68 10000 4.1 300 12:18 14.06.2020
1468 Clouds 21 1009 68 10000 5.7 300 11:56 14.06.2020
1469 Clouds 23 1009 73 10000 5.1 300 11:37 14.06.2020
1470 Clouds 22 1009 73 10000 5.1 300 11:18 14.06.2020
1471 Clouds 23 1009 73 10000 5.1 300 10:41 14.06.2020
1472 Clouds 22 1009 68 10000 6.2 290 10:19 14.06.2020
1473 Clouds 22 1009 68 10000 6.2 290 09:45 14.06.2020
1474 Clouds 18 1009 82 10000 2.1 290 09:25 14.06.2020
1475 Clouds 18 1009 82 10000 2.1 290 08:47 14.06.2020
1476 Clouds 18 1009 82 10000 3.6 320 08:22 14.06.2020
1477 Clouds 18 1008 82 10000 3.6 320 08:00 14.06.2020
1478 Clouds 18 1008 82 10000 5.1 300 07:41 14.06.2020
1479 Clouds 18 1008 82 10000 5.1 300 07:23 14.06.2020
1480 Clouds 17 1008 82 10000 3.6 290 06:25 14.06.2020
1481 Mist 15 1008 93 3500 1.4 278 05:39 14.06.2020
1482 Clouds 15 1008 93 7000 2.1 310 04:51 14.06.2020
1483 Mist 15 1008 93 5000 1 0 04:25 14.06.2020
1484 Rain 15 1009 93 5000 0.5 0 02:53 14.06.2020
1485 Rain 17 1009 93 6000 0.5 0 02:23 14.06.2020
1486 Mist 16 1009 100 4600 1 0 01:36 14.06.2020
1487 Mist 16 1009 93 4000 1.5 300 00:50 14.06.2020
1488 Mist 16 1009 100 3300 0.5 0 00:31 14.06.2020
1489 Mist 15 1009 100 4500 0.5 230 23:59 13.06.2020
1490 Mist 15 1010 100 4800 1 160 23:41 13.06.2020
1491 Mist 15 1010 100 4800 1 160 23:22 13.06.2020
1492 Clouds 16 1009 93 7000 1.5 210 22:54 13.06.2020
1493 Clouds 16 1009 93 7000 1.5 210 22:54 13.06.2020
1494 Clouds 16 1009 100 8000 2.1 350 22:36 13.06.2020
1495 Clouds 16 1009 100 8000 2.1 350 22:18 13.06.2020
1496 Clouds 17 1009 93 10000 2.1 40 21:42 13.06.2020
1497 Clouds 17 1009 93 10000 2.1 40 21:24 13.06.2020
1498 Clouds 17 1009 88 10000 1.5 340 20:57 13.06.2020
1499 Clouds 18 1009 82 10000 3.6 290 20:39 13.06.2020
1500 Clouds 18 1009 82 10000 3.6 290 20:18 13.06.2020
1501 Clouds 18 1010 82 10000 4.6 280 19:40 13.06.2020
1502 Clouds 18 1010 82 10000 4.6 280 19:20 13.06.2020
1503 Clouds 17 1010 82 10000 3.6 300 18:59 13.06.2020
1504 Clouds 17 1010 82 10000 4.1 300 18:40 13.06.2020
1505 Clouds 17 1010 82 10000 4.1 300 18:20 13.06.2020
1506 Clouds 19 1010 82 10000 4.6 300 17:57 13.06.2020
1507 Clouds 19 1010 77 10000 4.1 300 17:39 13.06.2020
1508 Clouds 19 1010 77 10000 4.1 300 17:20 13.06.2020
1509 Rain 19 1010 82 10000 3.6 300 16:54 13.06.2020
1510 Rain 19 1010 82 10000 4.6 290 16:36 13.06.2020
1511 Rain 18 1010 82 10000 4.6 290 16:18 13.06.2020
1512 Rain 18 1010 88 10000 5.1 290 15:42 13.06.2020
1513 Rain 17 1010 88 10000 5.1 290 15:21 13.06.2020
1514 Rain 18 1010 82 10000 4.6 290 14:44 13.06.2020
1515 Rain 18 1010 82 10000 5.7 290 14:24 13.06.2020
1516 Rain 19 1010 77 10000 7.7 290 13:57 13.06.2020
1517 Clouds 20 1010 64 10000 7.2 290 13:38 13.06.2020
1518 Clouds 22 1010 64 10000 7.2 290 13:19 13.06.2020
1519 Clouds 21 1010 64 10000 6.7 280 12:43 13.06.2020
1520 Clouds 20 1010 64 10000 6.7 290 12:25 13.06.2020
1521 Clouds 20 1010 60 10000 7.2 290 11:57 13.06.2020
1522 Clouds 19 1010 68 10000 6.2 280 11:37 13.06.2020
1523 Clouds 19 1010 68 10000 6.2 280 11:19 13.06.2020
1524 Clouds 19 1010 63 10000 6.2 290 10:54 13.06.2020
1525 Clouds 20 1010 64 10000 6.2 290 10:36 13.06.2020
1526 Clouds 20 1010 64 10000 6.2 290 10:18 13.06.2020
1527 Clouds 19 1010 63 10000 6.2 290 09:42 13.06.2020
1528 Clouds 19 1010 63 10000 6.2 290 09:20 13.06.2020
1529 Clouds 19 1010 63 10000 5.7 300 08:46 13.06.2020
1530 Clouds 18 1010 72 10000 4.6 300 08:26 13.06.2020
1531 Clouds 18 1010 68 10000 5.1 290 07:45 13.06.2020
1532 Clouds 17 1009 72 10000 3.6 300 07:27 13.06.2020
1533 Clouds 17 1009 77 10000 2.6 300 06:45 13.06.2020
1534 Clouds 16 1009 77 10000 2.6 290 06:26 13.06.2020
1535 Clouds 15 1009 82 10000 3.1 310 05:33 13.06.2020
1536 Clouds 16 1009 72 10000 5.1 280 04:46 13.06.2020
1537 Clouds 15 1009 82 10000 4.1 290 03:44 13.06.2020
1538 Clouds 14 1009 87 10000 1.5 340 02:53 13.06.2020
1539 Clouds 14 1010 87 10000 1.5 340 02:18 13.06.2020
1540 Clouds 15 1010 87 10000 1.5 360 01:25 13.06.2020
1541 Rain 15 1010 82 10000 3.1 290 00:56 13.06.2020
1542 Rain 14 1010 93 10000 2.6 270 00:37 13.06.2020
1543 Rain 14 1010 93 10000 2.6 270 00:19 13.06.2020
1544 Rain 15 1010 77 10000 3.1 300 23:39 12.06.2020
1545 Rain 15 1010 77 10000 3.1 300 23:18 12.06.2020
1546 Clouds 16 1010 72 10000 3.6 290 22:55 12.06.2020
1547 Clouds 16 1010 77 10000 4.1 280 22:36 12.06.2020
1548 Clouds 16 1010 77 10000 4.1 280 22:18 12.06.2020
1549 Clouds 16 1010 82 10000 3.1 300 21:42 12.06.2020
1550 Clouds 16 1010 82 10000 3.1 300 21:23 12.06.2020
1551 Clouds 16 1010 77 10000 2.6 290 20:57 12.06.2020
1552 Rain 16 1010 82 10000 2.6 280 20:37 12.06.2020
1553 Rain 15 1010 82 10000 2.6 280 20:19 12.06.2020
1554 Rain 15 1010 77 10000 3.6 280 19:42 12.06.2020
1555 Rain 15 1010 77 10000 3.6 280 19:21 12.06.2020
1556 Rain 16 1010 77 10000 4.1 290 18:58 12.06.2020
1557 Rain 16 1010 77 10000 5.1 280 18:37 12.06.2020
1558 Rain 16 1010 77 10000 5.1 280 18:18 12.06.2020
1559 Rain 17 1010 67 10000 5.1 280 17:43 12.06.2020
1560 Rain 17 1010 67 10000 5.1 280 17:25 12.06.2020
1561 Clouds 18 1010 63 10000 6.7 290 16:47 12.06.2020
1562 Clouds 17 1010 67 10000 6.7 290 16:22 12.06.2020
1563 Clouds 17 1010 72 10000 6.2 290 15:53 12.06.2020
1564 Clouds 17 1010 72 10000 6.2 300 15:29 12.06.2020
1565 Rain 16 1010 82 10000 4.6 280 14:59 12.06.2020
1566 Rain 16 1010 82 10000 4.6 290 14:41 12.06.2020
1567 Rain 16 1010 82 10000 4.6 290 14:21 12.06.2020
1568 Rain 16 1011 82 10000 4.6 280 13:44 12.06.2020
1569 Rain 15 1011 87 10000 4.6 290 13:22 12.06.2020
1570 Rain 15 1010 87 10000 5.7 290 12:57 12.06.2020
1571 Rain 15 1010 87 10000 6.2 290 12:39 12.06.2020
1572 Rain 15 1010 87 10000 6.2 290 12:18 12.06.2020
1573 Rain 16 1010 72 10000 8.7 290 11:44 12.06.2020
1574 Rain 16 1010 72 10000 8.7 290 11:23 12.06.2020
1575 Clouds 17 1010 67 10000 6.7 290 10:54 12.06.2020
1576 Clouds 16 1010 72 10000 5.7 290 10:36 12.06.2020
1577 Clouds 16 1010 72 10000 5.7 290 10:18 12.06.2020
1578 Clouds 16 1009 72 10000 7.7 280 09:43 12.06.2020
1579 Clouds 16 1009 72 10000 5.7 280 09:19 12.06.2020
1580 Clouds 15 1009 77 10000 4.6 290 08:41 12.06.2020
1581 Clouds 15 1009 77 10000 4.6 290 08:23 12.06.2020
1582 Clouds 15 1009 82 10000 3.1 290 07:42 12.06.2020
1583 Clouds 15 1009 82 10000 3.1 290 07:24 12.06.2020
1584 Clouds 14 1009 82 10000 4.1 300 06:41 12.06.2020
1585 Clouds 14 1009 82 10000 4.1 300 06:21 12.06.2020
1586 Clouds 14 1009 77 10000 3.6 290 05:49 12.06.2020
1587 Rain 14 1009 82 10000 4.6 290 05:23 12.06.2020
1588 Rain 14 1009 82 10000 2.1 330 03:53 12.06.2020
1589 Rain 16 1009 72 10000 3.6 300 02:42 12.06.2020
1590 Clouds 16 1009 72 10000 4.1 290 01:47 12.06.2020
1591 Clouds 16 1009 72 10000 4.1 290 01:19 12.06.2020
1592 Clouds 16 1009 72 10000 5.1 280 00:39 12.06.2020
1593 Clouds 16 1009 72 10000 5.1 280 00:20 12.06.2020
1594 Clouds 16 1009 72 10000 2.6 290 23:57 11.06.2020
1595 Clouds 16 1009 72 10000 2.6 310 23:38 11.06.2020
1596 Clouds 16 1009 72 10000 2.6 310 23:19 11.06.2020
1597 Clouds 16 1009 72 10000 2.6 290 22:54 11.06.2020
1598 Clouds 16 1009 72 10000 3.6 290 22:36 11.06.2020
1599 Clouds 16 1009 72 10000 3.6 290 22:18 11.06.2020
1600 Clouds 16 1009 72 10000 2.1 300 21:42 11.06.2020
1601 Clouds 16 1009 72 10000 2.1 300 21:20 11.06.2020
1602 Clouds 16 1009 87 10000 1.5 320 20:56 11.06.2020
1603 Clouds 16 1009 87 10000 2.1 360 20:38 11.06.2020
1604 Clouds 16 1009 87 10000 2.1 360 20:20 11.06.2020
1605 Clouds 17 1009 82 10000 2.6 280 19:42 11.06.2020
1606 Clouds 17 1009 82 10000 2.6 280 19:22 11.06.2020
1607 Clouds 17 1009 87 10000 2.6 250 18:43 11.06.2020
1608 Clouds 17 1010 87 10000 2.1 280 18:25 11.06.2020
1609 Clouds 17 1010 87 10000 2.1 280 17:57 11.06.2020
1610 Rain 15 1010 93 8000 3.6 310 17:38 11.06.2020
1611 Rain 15 1010 87 10000 3.6 300 17:20 11.06.2020
1612 Rain 15 1010 87 10000 3.6 300 17:20 11.06.2020
1613 Rain 16 1010 87 10000 3.6 300 16:58 11.06.2020
1614 Rain 16 1010 87 10000 6.2 300 16:40 11.06.2020
1615 Rain 16 1010 82 10000 5.7 300 16:22 11.06.2020
1616 Rain 16 1010 82 10000 5.7 300 15:55 11.06.2020
1617 Rain 16 1010 82 10000 6.7 280 15:37 11.06.2020
1618 Rain 17 1010 82 10000 7.2 280 15:18 11.06.2020
1619 Rain 16 1010 82 10000 8.7 270 14:42 11.06.2020
1620 Thunderstorm 17 1009 77 10000 8.7 260 14:20 11.06.2020
1621 Rain 16 1009 77 10000 8.7 260 13:56 11.06.2020
1622 Rain 17 1009 72 10000 6.7 250 13:37 11.06.2020
1623 Rain 17 1009 72 10000 4.6 280 13:18 11.06.2020
1624 Thunderstorm 17 1009 77 10000 3.1 290 12:55 11.06.2020
1625 Thunderstorm 18 1009 77 10000 3.1 290 12:37 11.06.2020
1626 Rain 17 1010 88 10000 3.6 300 12:18 11.06.2020
1627 Rain 17 1010 88 10000 3.6 300 11:56 11.06.2020
1628 Rain 17 1010 88 6000 2.6 290 11:37 11.06.2020
1629 Rain 18 1010 93 10000 3.6 270 11:18 11.06.2020
1630 Rain 17 1010 87 10000 2.6 300 10:43 11.06.2020
1631 Rain 16 1010 82 10000 3.1 290 10:20 11.06.2020
1632 Rain 16 1010 82 10000 3.1 290 09:56 11.06.2020
1633 Clouds 16 1010 82 10000 2.1 310 09:38 11.06.2020
1634 Clouds 16 1010 82 10000 2.1 310 09:38 11.06.2020
1635 Clouds 17 1010 82 10000 2.1 310 09:20 11.06.2020
1636 Clouds 15 1010 87 10000 2.1 310 08:39 11.06.2020
1637 Clouds 15 1011 87 10000 1.5 320 08:19 11.06.2020
1638 Clouds 14 1011 93 10000 1.5 190 07:42 11.06.2020
1639 Clouds 15 1011 93 10000 1.5 190 07:23 11.06.2020
1640 Clouds 14 1011 93 10000 2.1 230 06:35 11.06.2020
1641 Clouds 13 1011 93 10000 2.1 310 05:57 11.06.2020
1642 Clouds 13 1011 93 10000 1 0 04:41 11.06.2020
1643 Clouds 14 1011 93 10000 2.1 340 03:25 11.06.2020
1644 Rain 14 1012 93 10000 2.1 30 02:46 11.06.2020
1645 Rain 14 1011 93 10000 2.1 60 01:56 11.06.2020
1646 Rain 15 1011 82 10000 1 0 01:35 11.06.2020
1647 Clouds 17 1011 77 10000 0.5 0 00:57 11.06.2020
1648 Clouds 17 1011 77 10000 0.5 0 00:38 11.06.2020
1649 Clouds 16 1011 87 10000 1.5 160 00:19 11.06.2020
1650 Clouds 16 1011 82 10000 1.5 260 23:40 10.06.2020
1651 Rain 15 1011 93 10000 2.6 330 23:21 10.06.2020
1652 Rain 15 1011 93 10000 1 0 22:41 10.06.2020
1653 Rain 16 1011 87 10000 2.6 150 22:23 10.06.2020
1654 Rain 16 1011 87 10000 2.6 150 21:59 10.06.2020
1655 Rain 16 1010 87 10000 2.6 130 21:41 10.06.2020
1656 Rain 16 1010 87 10000 3.6 100 21:19 10.06.2020
1657 Rain 16 1010 87 10000 3.6 100 20:59 10.06.2020
1658 Rain 17 1010 82 10000 4.1 100 20:40 10.06.2020
1659 Rain 19 1010 77 10000 4.1 100 20:22 10.06.2020
1660 Rain 19 1010 77 10000 4.1 100 19:59 10.06.2020
1661 Rain 19 1010 77 10000 4.6 110 19:38 10.06.2020
1662 Rain 20 1010 68 10000 5.1 110 19:18 10.06.2020
1663 Rain 21 1010 68 10000 4.6 110 18:42 10.06.2020
1664 Rain 20 1010 72 10000 3.1 120 18:22 10.06.2020
1665 Rain 21 1010 72 10000 3.1 120 17:59 10.06.2020
1666 Clouds 22 1011 77 10000 3.1 130 17:41 10.06.2020
1667 Clouds 22 1011 77 10000 2.1 110 17:21 10.06.2020
1668 Clouds 22 1011 77 10000 2.1 110 16:59 10.06.2020
1669 Clouds 22 1011 77 10000 2.1 110 16:59 10.06.2020
1670 Clouds 20 1011 77 10000 2.1 80 16:41 10.06.2020
1671 Thunderstorm 20 1011 77 10000 2.1 70 16:22 10.06.2020
1672 Thunderstorm 18 1011 77 10000 2.1 70 15:57 10.06.2020
1673 Rain 18 1011 82 10000 2.1 0 15:37 10.06.2020
1674 Rain 17 1011 77 10000 3.6 170 15:19 10.06.2020
1675 Rain 17 1010 82 10000 5.1 200 14:41 10.06.2020
1676 Rain 19 1010 64 10000 5.1 250 14:21 10.06.2020
1677 Rain 19 1010 64 10000 5.1 250 13:56 10.06.2020
1678 Rain 20 1011 56 10000 6.2 260 13:38 10.06.2020
1679 Rain 20 1011 56 10000 6.2 260 13:38 10.06.2020
1680 Rain 21 1011 50 10000 3.6 290 13:20 10.06.2020
1681 Rain 22 1011 53 10000 3.6 300 12:41 10.06.2020
1682 Clouds 22 1011 56 10000 3.6 290 12:18 10.06.2020
1683 Rain 24 1012 60 10000 3.1 300 11:46 10.06.2020
1684 Rain 23 1012 68 10000 2.1 310 11:20 10.06.2020
1685 Rain 21 1012 68 10000 2.1 310 10:59 10.06.2020
1686 Clouds 19 1012 77 10000 2.1 300 10:41 10.06.2020
1687 Clouds 19 1012 77 10000 2.6 310 10:22 10.06.2020
1688 Clouds 17 1012 88 10000 3.1 270 09:44 10.06.2020
1689 Clouds 17 1012 88 10000 3.1 270 09:26 10.06.2020
1690 Clouds 18 1012 82 10000 1 0 08:59 10.06.2020
1691 Clouds 18 1012 82 10000 1 0 08:59 10.06.2020
1692 Rain 18 1012 87 10000 2.6 40 08:41 10.06.2020
1693 Clouds 17 1012 87 10000 1 0 08:22 10.06.2020
1694 Clouds 16 1012 87 10000 1.5 170 07:42 10.06.2020
1695 Rain 16 1011 93 10000 1.5 140 07:23 10.06.2020
1696 Clouds 15 1012 87 10000 2.1 120 06:52 10.06.2020
1697 Clouds 14 1012 87 10000 2.1 120 06:33 10.06.2020
1698 Clouds 14 1012 93 10000 2.6 120 06:00 10.06.2020
1699 Clouds 14 1012 93 10000 2.1 140 05:31 10.06.2020
1700 Clouds 14 1011 93 10000 2.1 90 04:48 10.06.2020
1701 Clouds 14 1011 93 10000 2.1 90 04:28 10.06.2020
1702 Clouds 16 1012 87 10000 1.5 230 02:24 10.06.2020
1703 Rain 16 1012 82 10000 2.1 230 01:40 10.06.2020
1704 Rain 15 1012 87 10000 2.6 90 00:42 10.06.2020
1705 Rain 16 1011 77 10000 2.6 130 00:23 10.06.2020
1706 Rain 16 1011 77 10000 2.6 130 23:59 09.06.2020
1707 Rain 16 1012 82 10000 3.1 140 23:41 09.06.2020
1708 Clouds 16 1011 77 10000 3.6 130 23:22 09.06.2020
1709 Clouds 16 1011 77 10000 3.6 130 22:56 09.06.2020
1710 Rain 17 1011 77 10000 4.6 110 22:38 09.06.2020
1711 Clouds 17 1012 72 10000 5.7 110 22:20 09.06.2020
1712 Clouds 18 1012 72 10000 5.7 110 21:57 09.06.2020
1713 Clouds 18 1012 72 10000 5.7 110 21:57 09.06.2020
1714 Thunderstorm 18 1012 77 10000 4.1 100 21:38 09.06.2020
1715 Thunderstorm 18 1012 77 10000 4.1 100 21:38 09.06.2020
1716 Clouds 18 1011 77 10000 6.2 100 21:20 09.06.2020
1717 Clouds 18 1011 77 10000 6.2 100 21:20 09.06.2020
1718 Clouds 19 1011 77 10000 6.2 100 20:57 09.06.2020
1719 Clouds 19 1011 72 10000 6.2 100 20:38 09.06.2020
1720 Clouds 20 1011 72 10000 7.2 100 20:19 09.06.2020
1721 Clouds 21 1011 72 10000 7.2 100 19:57 09.06.2020
1722 Clouds 21 1010 68 10000 7.7 110 19:38 09.06.2020
1723 Clouds 21 1010 68 10000 7.7 100 19:20 09.06.2020
1724 Clouds 21 1010 68 10000 7.7 100 19:20 09.06.2020
1725 Clouds 22 1010 60 10000 7.2 100 18:46 09.06.2020
1726 Clouds 23 1010 60 10000 7.2 100 18:28 09.06.2020
1727 Clouds 23 1010 56 10000 2.6 60 17:59 09.06.2020
1728 Thunderstorm 24 1010 47 10000 2.1 180 17:41 09.06.2020
1729 Thunderstorm 24 1010 53 10000 5.1 180 17:22 09.06.2020
1730 Thunderstorm 24 1010 53 10000 5.1 180 17:00 09.06.2020
1731 Thunderstorm 23 1010 53 10000 6.7 170 16:40 09.06.2020
1732 Clouds 24 1009 50 10000 6.2 150 16:21 09.06.2020
1733 Thunderstorm 25 1010 47 10000 4.6 130 15:41 09.06.2020
1734 Thunderstorm 25 1010 47 10000 4.6 130 15:23 09.06.2020
1735 Clouds 27 1010 44 10000 3.1 90 14:59 09.06.2020
1736 Clouds 27 1009 44 10000 1.5 0 14:39 09.06.2020
1737 Clouds 26 1010 41 10000 2.6 120 14:19 09.06.2020
1738 Clouds 26 1010 41 10000 2.6 120 13:55 09.06.2020
1739 Clouds 27 1010 44 10000 1.5 0 13:37 09.06.2020
1740 Clouds 25 1010 47 10000 2.6 90 13:19 09.06.2020
1741 Clouds 26 1011 53 10000 2.6 180 12:42 09.06.2020
1742 Clouds 24 1011 53 10000 1.5 0 12:20 09.06.2020
1743 Clouds 25 1011 53 10000 1.5 0 11:58 09.06.2020
1744 Clouds 23 1011 56 10000 1.5 0 11:39 09.06.2020
1745 Clouds 22 1011 60 10000 2.1 0 11:20 09.06.2020
1746 Clouds 21 1011 64 10000 1.5 0 10:55 09.06.2020
1747 Clouds 21 1011 64 10000 1.5 0 10:36 09.06.2020
1748 Clouds 21 1011 68 10000 1.5 310 10:18 09.06.2020
1749 Clouds 21 1011 68 10000 1.5 310 10:18 09.06.2020
1750 Clouds 20 1011 68 10000 1 0 09:40 09.06.2020
1751 Clouds 19 1011 72 10000 1 0 09:19 09.06.2020
1752 Clouds 18 1011 82 10000 1.5 210 08:40 09.06.2020
1753 Clouds 17 1011 88 10000 2.1 270 08:21 09.06.2020
1754 Clouds 17 1011 88 10000 2.1 270 07:59 09.06.2020
1755 Clouds 16 1011 87 10000 1 0 07:36 09.06.2020
1756 Clouds 17 1011 88 10000 1.5 10 07:18 09.06.2020
1757 Clouds 15 1011 93 8000 1 0 06:51 09.06.2020
1758 Clouds 15 1011 93 8000 1 0 06:27 09.06.2020
1759 Clouds 16 1011 93 10000 1.5 130 04:35 09.06.2020
1760 Clouds 17 1011 88 10000 1.5 280 02:50 09.06.2020
1761 Clouds 16 1011 93 10000 3.1 260 01:39 09.06.2020
1762 Clouds 16 1011 93 10000 2.1 270 01:19 09.06.2020
1763 Clouds 17 1011 88 10000 2.1 0 00:44 09.06.2020
1764 Rain 17 1011 88 10000 0.5 0 00:20 09.06.2020
1765 Clouds 17 1011 82 10000 2.1 140 23:43 08.06.2020
1766 Clouds 17 1010 82 10000 0.5 0 23:22 08.06.2020
1767 Clouds 18 1010 82 10000 0.5 0 22:59 08.06.2020
1768 Clouds 18 1011 82 10000 1.5 80 22:39 08.06.2020
1769 Clouds 18 1010 82 10000 2.1 100 22:20 08.06.2020
1770 Clouds 18 1010 82 10000 2.1 100 21:56 08.06.2020
1771 Clouds 18 1010 77 10000 2.1 110 21:38 08.06.2020
1772 Clouds 18 1010 77 10000 3.6 140 21:19 08.06.2020
1773 Clouds 18 1010 77 10000 3.6 140 20:55 08.06.2020
1774 Clouds 19 1010 72 10000 4.1 110 20:37 08.06.2020
1775 Clouds 19 1010 72 10000 5.1 80 20:18 08.06.2020
1776 Clouds 21 1010 72 10000 4.1 70 19:43 08.06.2020
1777 Clouds 21 1010 56 10000 2.1 150 19:22 08.06.2020
1778 Clouds 22 1010 49 10000 3.1 270 18:44 08.06.2020
1779 Clouds 23 1009 49 10000 5.7 290 18:23 08.06.2020
1780 Clouds 24 1009 49 10000 5.7 290 17:58 08.06.2020
1781 Clouds 23 1009 49 10000 6.7 290 17:40 08.06.2020
1782 Clouds 23 1009 56 10000 8.2 300 17:22 08.06.2020
1783 Clouds 25 1009 56 10000 8.2 300 16:59 08.06.2020
1784 Clouds 25 1009 47 10000 6.2 280 16:41 08.06.2020
1785 Clouds 25 1009 41 10000 2.1 350 16:22 08.06.2020
1786 Clouds 25 1009 41 10000 2.1 300 15:44 08.06.2020
1787 Clouds 27 1009 39 10000 2.1 0 15:22 08.06.2020
1788 Clouds 26 1009 39 10000 2.1 0 14:59 08.06.2020
1789 Clouds 27 1009 36 10000 2.6 230 14:40 08.06.2020
1790 Clouds 26 1010 41 10000 2.1 0 14:20 08.06.2020
1791 Clouds 25 1010 44 10000 2.1 40 13:44 08.06.2020
1792 Clouds 25 1010 47 10000 3.1 290 13:24 08.06.2020
1793 Clouds 24 1011 47 10000 1.5 0 12:44 08.06.2020
1794 Clouds 23 1011 53 10000 3.1 290 12:21 08.06.2020
1795 Clouds 23 1011 53 10000 3.1 290 11:59 08.06.2020
1796 Clouds 23 1011 56 10000 1.5 0 11:41 08.06.2020
1797 Clouds 21 1011 60 10000 1 0 11:22 08.06.2020
1798 Clouds 21 1011 60 10000 1 0 10:58 08.06.2020
1799 Clouds 20 1011 64 10000 1 0 10:38 08.06.2020
1800 Clouds 20 1011 68 10000 1.5 0 10:20 08.06.2020
1801 Clouds 20 1011 68 10000 1.5 0 09:58 08.06.2020
1802 Clouds 23 1011 68 10000 1.5 320 09:39 08.06.2020
1803 Clouds 18 1011 68 10000 1.5 270 09:21 08.06.2020
1804 Clouds 17 1011 72 10000 1.5 270 08:46 08.06.2020
1805 Clear 15 1011 82 8000 1.5 290 08:22 08.06.2020
1806 Clear 14 1011 87 7000 0.5 0 07:46 08.06.2020
1807 Mist 12 1011 100 4000 1.5 140 07:22 08.06.2020
1808 Fog 11 1010 100 800 1.5 80 06:50 08.06.2020
1809 Fog 11 1010 100 800 1.5 80 06:28 08.06.2020
1810 Fog 12 1010 93 700 0.5 0 05:47 08.06.2020
1811 Fog 11 1010 100 300 1 0 04:29 08.06.2020
1812 Clear 13 1010 87 10000 0.5 0 02:32 08.06.2020
1813 Clear 14 1010 87 10000 1.5 290 01:46 08.06.2020
1814 Clouds 14 1010 87 10000 1.5 290 01:26 08.06.2020
1815 Clear 14 1011 87 10000 1.5 300 00:30 08.06.2020
1816 Clear 15 1011 87 10000 2.6 260 23:42 07.06.2020
1817 Clear 15 1011 87 10000 2.6 270 23:20 07.06.2020
1818 Clear 15 1011 87 10000 2.6 270 22:59 07.06.2020
1819 Clear 16 1011 87 10000 2.1 280 22:39 07.06.2020
1820 Clear 16 1011 87 10000 1.5 310 22:19 07.06.2020
1821 Clear 16 1011 87 10000 1.5 310 21:59 07.06.2020
1822 Clear 17 1010 77 10000 1.5 330 21:38 07.06.2020
1823 Clear 17 1010 77 10000 1.5 330 21:38 07.06.2020
1824 Clouds 18 1010 72 10000 2.1 340 21:20 07.06.2020
1825 Clouds 18 1010 72 10000 2.1 340 20:55 07.06.2020
1826 Clouds 19 1010 68 10000 1.5 310 20:37 07.06.2020
1827 Clouds 21 1010 64 10000 2.1 310 20:18 07.06.2020
1828 Clouds 21 1010 64 10000 2.1 310 19:55 07.06.2020
1829 Clouds 20 1010 64 10000 3.1 280 19:37 07.06.2020
1830 Rain 21 1010 68 10000 3.6 300 19:18 07.06.2020
1831 Rain 21 1010 68 10000 3.6 300 18:40 07.06.2020
1832 Rain 22 1009 60 10000 3.6 20 18:22 07.06.2020
1833 Rain 23 1009 60 10000 3.6 20 17:59 07.06.2020
1834 Clouds 23 1009 56 10000 5.1 30 17:40 07.06.2020
1835 Rain 23 1009 56 10000 3.6 10 17:21 07.06.2020
1836 Rain 24 1009 56 10000 5.1 20 16:44 07.06.2020
1837 Rain 22 1009 56 10000 5.1 20 16:22 07.06.2020
1838 Rain 26 1008 39 10000 6.2 200 15:44 07.06.2020
1839 Clouds 24 1009 38 10000 3.1 220 15:23 07.06.2020
1840 Clouds 24 1009 38 10000 3.1 220 14:59 07.06.2020
1841 Clouds 24 1009 38 10000 3.1 220 14:59 07.06.2020
1842 Clouds 25 1009 33 10000 3.1 220 14:36 07.06.2020
1843 Clouds 24 1009 33 10000 3.1 0 14:18 07.06.2020
1844 Clouds 25 1009 36 10000 2.1 0 13:43 07.06.2020
1845 Clouds 25 1009 36 10000 2.1 0 13:43 07.06.2020
1846 Clouds 25 1009 36 10000 2.1 0 13:43 07.06.2020
1847 Clouds 25 1009 36 10000 2.1 0 13:43 07.06.2020
1848 Clouds 24 1009 38 10000 2.6 260 13:19 07.06.2020
1849 Clouds 24 1009 38 10000 2.6 260 12:43 07.06.2020
1850 Clouds 23 1010 43 10000 2.1 150 12:25 07.06.2020
1851 Clouds 23 1010 43 10000 2.1 150 11:55 07.06.2020
1852 Clouds 23 1010 43 10000 2.1 150 11:55 07.06.2020
1853 Clouds 22 1010 43 10000 1 0 11:37 07.06.2020
1854 Rain 21 1010 46 10000 1 0 11:19 07.06.2020
1855 Rain 21 1010 49 10000 1.5 260 10:54 07.06.2020
1856 Rain 21 1010 49 10000 1.5 260 10:36 07.06.2020
1857 Clouds 20 1010 56 10000 2.1 290 10:18 07.06.2020
1858 Clouds 18 1010 63 10000 1.5 300 09:41 07.06.2020
1859 Clouds 17 1010 63 10000 2.1 310 09:22 07.06.2020
1860 Clouds 17 1010 63 10000 2.1 310 08:59 07.06.2020
1861 Clouds 16 1010 72 10000 2.1 330 08:41 07.06.2020
1862 Clouds 16 1010 72 10000 2.1 330 08:22 07.06.2020
1863 Clouds 15 1010 77 10000 1.5 280 07:43 07.06.2020
1864 Clouds 14 1010 76 10000 1.5 120 07:24 07.06.2020
1865 Clouds 14 1010 87 10000 2.1 130 06:22 07.06.2020
1866 Clouds 12 1009 81 10000 2.1 340 04:49 07.06.2020
1867 Clouds 12 1009 81 10000 0.5 0 04:18 07.06.2020
1868 Clouds 12 1009 81 10000 2.1 250 02:26 07.06.2020
1869 Clouds 13 1009 81 10000 1.5 20 01:39 07.06.2020
1870 Clouds 13 1009 82 10000 0.16 129 01:21 07.06.2020
1871 Clouds 13 1009 76 10000 1 0 00:39 07.06.2020
1872 Clouds 14 1009 71 10000 2.1 130 00:18 07.06.2020
1873 Clouds 15 1009 72 10000 2.1 120 23:38 06.06.2020
1874 Clouds 15 1009 63 10000 2.6 100 23:20 06.06.2020
1875 Clouds 16 1009 63 10000 2.6 100 22:58 06.06.2020
1876 Clouds 16 1010 63 10000 2.1 130 22:39 06.06.2020
1877 Clouds 17 1009 59 10000 3.1 150 22:20 06.06.2020
1878 Clouds 17 1009 59 10000 3.1 150 21:56 06.06.2020
1879 Clouds 18 1009 55 10000 4.1 140 21:38 06.06.2020
1880 Clouds 18 1009 48 10000 4.1 130 21:20 06.06.2020
1881 Clouds 19 1009 52 10000 5.1 120 20:40 06.06.2020
1882 Clouds 19 1009 52 10000 5.1 120 20:40 06.06.2020
1883 Clouds 20 1009 45 10000 7.2 120 20:20 06.06.2020
1884 Clouds 20 1009 45 10000 7.2 120 19:58 06.06.2020
1885 Clouds 21 1009 40 10000 6.7 130 19:40 06.06.2020
1886 Clouds 21 1009 43 10000 7.7 120 19:21 06.06.2020
1887 Clouds 22 1009 43 10000 7.7 120 18:56 06.06.2020
1888 Clouds 22 1008 43 10000 6.2 130 18:37 06.06.2020
1889 Clouds 22 1008 43 10000 7.2 150 18:18 06.06.2020
1890 Clouds 23 1008 46 10000 6.7 140 17:43 06.06.2020
1891 Clouds 24 1008 43 10000 5.7 140 17:20 06.06.2020
1892 Clouds 24 1008 43 10000 5.7 140 16:56 06.06.2020
1893 Clouds 23 1008 46 10000 5.1 140 16:38 06.06.2020
1894 Clouds 23 1009 46 10000 6.7 130 16:19 06.06.2020
1895 Clouds 24 1009 41 10000 5.7 90 15:44 06.06.2020
1896 Clouds 25 1009 38 10000 3.6 140 15:20 06.06.2020
1897 Clouds 25 1009 38 10000 3.6 140 15:20 06.06.2020
1898 Clouds 25 1009 38 10000 3.6 140 14:57 06.06.2020
1899 Clouds 25 1009 36 10000 5.1 0 14:37 06.06.2020
1900 Clouds 24 1010 46 10000 1.5 0 14:19 06.06.2020
1901 Rain 24 1010 43 10000 5.1 90 13:46 06.06.2020
1902 Rain 21 1010 52 10000 3.6 120 13:19 06.06.2020
1903 Rain 23 1010 52 10000 3.6 120 12:56 06.06.2020
1904 Rain 20 1011 52 10000 4.1 110 12:38 06.06.2020
1905 Clouds 22 1011 60 10000 2.1 80 12:18 06.06.2020
1906 Rain 18 1011 68 10000 3.1 90 11:40 06.06.2020
1907 Rain 18 1012 68 10000 3.1 100 11:21 06.06.2020
1908 Rain 20 1012 68 10000 3.1 100 11:21 06.06.2020
1909 Rain 18 1012 68 10000 3.1 100 10:59 06.06.2020
1910 Rain 18 1011 68 10000 2.1 110 10:40 06.06.2020
1911 Rain 18 1011 68 10000 2.1 110 10:22 06.06.2020
1912 Clouds 19 1011 63 10000 2.6 120 09:59 06.06.2020
1913 Rain 19 1011 67 10000 3.1 130 09:41 06.06.2020
1914 Rain 19 1011 67 10000 3.1 130 09:22 06.06.2020
1915 Clouds 17 1010 77 10000 4.6 160 08:45 06.06.2020
1916 Clouds 16 1010 77 10000 4.6 160 08:24 06.06.2020
1917 Rain 15 1012 72 10000 2.1 110 07:49 06.06.2020
1918 Rain 15 1012 72 10000 2.1 110 07:23 06.06.2020
1919 Rain 15 1010 82 10000 1.5 120 06:53 06.06.2020
1920 Rain 15 1010 82 10000 1.5 120 06:34 06.06.2020
1921 Clouds 15 1010 82 10000 2.6 110 05:59 06.06.2020
1922 Clouds 14 1010 87 10000 2.1 110 05:31 06.06.2020
1923 Clouds 14 1010 82 10000 1.5 220 04:47 06.06.2020
1924 Clouds 14 1010 82 10000 2.6 150 03:21 06.06.2020
1925 Clouds 15 1010 72 10000 0.5 0 01:58 06.06.2020
1926 Clouds 16 1010 67 10000 1.5 230 01:20 06.06.2020
1927 Clouds 16 1010 72 10000 1.5 350 00:46 06.06.2020
1928 Clouds 17 1010 72 10000 1.5 350 00:27 06.06.2020
1929 Clouds 17 1010 72 10000 1 0 23:58 05.06.2020
1930 Clouds 17 1010 72 10000 2.1 210 23:39 05.06.2020
1931 Clouds 17 1010 72 10000 2.1 210 23:39 05.06.2020
1932 Clouds 17 1010 67 10000 1.5 60 23:18 05.06.2020
1933 Clouds 17 1010 67 10000 1.5 60 22:55 05.06.2020
1934 Clouds 18 1010 59 10000 1.5 260 22:37 05.06.2020
1935 Clouds 18 1010 63 10000 1 0 22:18 05.06.2020
1936 Clouds 19 1009 56 10000 0.5 0 21:42 05.06.2020
1937 Clouds 19 1009 56 10000 0.5 0 21:22 05.06.2020
1938 Clouds 19 1009 56 10000 1 0 20:58 05.06.2020
1939 Clouds 20 1008 52 10000 2.1 140 20:39 05.06.2020
1940 Clouds 21 1008 43 10000 2.6 170 20:20 05.06.2020
1941 Clouds 24 1008 38 10000 2.6 170 19:42 05.06.2020
1942 Clouds 24 1008 53 10000 1.5 110 19:23 05.06.2020
1943 Clouds 24 1008 53 10000 1.5 110 18:56 05.06.2020
1944 Clouds 25 1008 36 10000 2.6 80 18:38 05.06.2020
1945 Clouds 25 1008 33 10000 2.6 210 18:19 05.06.2020
1946 Clouds 25 1008 33 10000 2.6 210 17:57 05.06.2020
1947 Rain 25 1008 31 10000 2.1 190 17:38 05.06.2020
1948 Clouds 26 1008 29 10000 4.1 190 17:18 05.06.2020
1949 Clouds 26 1008 29 10000 2.1 190 16:39 05.06.2020
1950 Clouds 27 1008 32 10000 2.6 250 16:20 05.06.2020
1951 Clouds 26 1009 31 10000 2.6 40 15:43 05.06.2020
1952 Clouds 26 1009 31 10000 2.6 40 15:43 05.06.2020
1953 Clouds 26 1009 31 10000 2.6 40 15:22 05.06.2020
1954 Clouds 25 1009 33 10000 3.1 10 14:58 05.06.2020
1955 Clouds 26 1009 31 10000 3.1 190 14:40 05.06.2020
1956 Clouds 26 1009 31 10000 3.6 350 14:22 05.06.2020
1957 Clouds 26 1009 31 10000 3.6 350 13:57 05.06.2020
1958 Clouds 25 1009 33 10000 3.1 30 13:38 05.06.2020
1959 Clouds 24 1009 41 10000 2.6 50 13:19 05.06.2020
1960 Clouds 23 1010 43 10000 3.1 50 12:41 05.06.2020
1961 Clouds 23 1010 46 10000 3.1 40 12:19 05.06.2020
1962 Clouds 23 1010 46 10000 3.6 10 11:55 05.06.2020
1963 Clouds 23 1010 46 10000 3.6 10 11:37 05.06.2020
1964 Clouds 22 1010 46 10000 2.6 60 11:18 05.06.2020
1965 Clouds 22 1010 49 10000 3.6 80 10:42 05.06.2020
1966 Clouds 21 1010 52 10000 2.6 110 10:21 05.06.2020
1967 Clouds 21 1010 52 10000 2.6 110 09:57 05.06.2020
1968 Clouds 20 1010 52 10000 3.6 50 09:39 05.06.2020
1969 Clear 20 1011 56 10000 2.6 360 09:20 05.06.2020
1970 Clear 20 1011 56 10000 2.6 360 08:58 05.06.2020
1971 Clear 18 1011 63 10000 3.1 40 08:40 05.06.2020
1972 Clouds 17 1011 67 10000 2.6 80 08:18 05.06.2020
1973 Clouds 16 1011 67 10000 1.5 160 07:52 05.06.2020
1974 Clouds 16 1011 67 10000 1.5 160 07:32 05.06.2020
1975 Clouds 16 1011 76 10000 3.6 130 06:49 05.06.2020
1976 Clouds 14 1011 71 10000 1.5 0 05:23 05.06.2020
1977 Clouds 15 1010 63 10000 4.6 60 04:28 05.06.2020
1978 Clouds 16 1010 59 10000 5.1 60 03:32 05.06.2020
1979 Clouds 16 1010 59 10000 5.1 70 02:30 05.06.2020
1980 Clouds 16 1010 59 10000 5.1 40 01:59 05.06.2020
1981 Clouds 15 1011 62 10000 3.1 30 01:33 05.06.2020
1982 Clouds 15 1011 67 10000 2.6 360 00:46 05.06.2020
1983 Clouds 16 1011 63 10000 2.1 360 00:22 05.06.2020
1984 Clouds 16 1011 63 10000 2.1 360 23:55 04.06.2020
1985 Clouds 19 1010 45 10000 3.1 150 23:36 04.06.2020
1986 Clouds 20 1010 42 10000 5.1 160 23:18 04.06.2020
1987 Clouds 19 1010 48 10000 3.6 160 22:42 04.06.2020
1988 Clouds 20 1010 42 10000 3.1 200 22:21 04.06.2020
1989 Clouds 21 1010 40 10000 2.1 170 21:58 04.06.2020
1990 Clouds 20 1010 40 10000 2.1 170 21:38 04.06.2020
1991 Clear 20 1010 40 10000 4.6 210 21:20 04.06.2020
1992 Clear 20 1010 40 10000 4.6 210 20:56 04.06.2020
1993 Clouds 21 1009 37 10000 5.1 200 20:38 04.06.2020
1994 Clouds 21 1009 35 10000 3.6 220 20:19 04.06.2020
1995 Clouds 21 1009 35 10000 3.6 220 20:19 04.06.2020
1996 Clouds 22 1009 35 10000 3.6 220 19:43 04.06.2020
1997 Clouds 24 1009 31 10000 5.1 260 19:21 04.06.2020
1998 Clouds 24 1009 31 10000 5.1 260 18:58 04.06.2020
1999 Clouds 24 1009 33 10000 2.6 280 18:38 04.06.2020
2000 Clouds 23 1009 33 10000 6.2 270 18:20 04.06.2020
2001 Clouds 23 1009 33 10000 6.2 270 18:20 04.06.2020
2002 Clouds 25 1009 31 10000 5.1 250 17:43 04.06.2020
2003 Clouds 25 1009 31 10000 5.1 250 17:22 04.06.2020
2004 Clouds 25 1009 31 10000 4.6 220 16:57 04.06.2020
2005 Clouds 25 1010 31 10000 7.2 250 16:39 04.06.2020
2006 Clouds 25 1010 31 10000 5.7 260 16:19 04.06.2020
2007 Clouds 24 1010 33 10000 6.7 280 15:43 04.06.2020
2008 Clouds 24 1010 33 10000 6.7 280 15:43 04.06.2020
2009 Clouds 24 1010 33 10000 6.7 280 15:24 04.06.2020
2010 Clouds 24 1010 33 10000 7.2 240 14:41 04.06.2020
2011 Clouds 22 1010 40 10000 7.2 270 14:22 04.06.2020
2012 Clouds 23 1010 40 10000 7.2 270 13:57 04.06.2020
2013 Clouds 24 1010 35 10000 7.2 250 13:39 04.06.2020
2014 Clouds 23 1010 38 10000 6.7 250 13:20 04.06.2020
2015 Clouds 23 1010 38 10000 6.7 250 12:58 04.06.2020
2016 Clouds 23 1010 38 10000 6.7 250 12:58 04.06.2020
2017 Clouds 21 1011 43 10000 3.1 250 12:40 04.06.2020
2018 Clouds 20 1011 49 10000 1 0 12:21 04.06.2020
2019 Clouds 20 1011 49 10000 1 0 11:54 04.06.2020
2020 Clouds 20 1011 49 10000 2.1 0 11:36 04.06.2020
2021 Clouds 19 1011 52 10000 1.5 0 11:18 04.06.2020
2022 Clouds 17 1011 63 10000 1.5 330 10:39 04.06.2020
2023 Clouds 16 1011 67 10000 2.1 40 10:21 04.06.2020
2024 Clouds 16 1011 63 10000 1.5 30 09:46 04.06.2020
2025 Clouds 16 1011 63 10000 1.5 30 09:28 04.06.2020
2026 Clouds 15 1011 62 10000 1.66 263 08:57 04.06.2020
2027 Clouds 13 1010 71 10000 1 0 08:38 04.06.2020
2028 Clear 13 1010 71 10000 1 0 08:20 04.06.2020
2029 Clouds 11 1010 81 10000 1.5 110 07:31 04.06.2020
2030 Clouds 10 1010 87 10000 0.5 0 06:47 04.06.2020
2031 Clouds 9 1010 93 10000 0.44 256 06:28 04.06.2020
2032 Clouds 10 1009 93 10000 1.5 80 05:52 04.06.2020
2033 Clouds 10 1009 93 10000 1.5 80 05:32 04.06.2020
2034 Clouds 10 1010 81 10000 1.5 150 03:34 04.06.2020
2035 Clouds 10 1010 87 10000 2.1 100 02:21 04.06.2020
2036 Rain 10 1010 87 10000 1 190 01:21 04.06.2020
2037 Rain 10 1010 81 10000 1.5 60 00:59 04.06.2020
2038 Rain 11 1010 76 10000 1 0 00:18 04.06.2020
2039 Rain 11 1010 76 10000 1 0 00:18 04.06.2020
2040 Clouds 11 1010 81 10000 1.5 160 23:37 03.06.2020
2041 Clouds 11 1010 71 10000 1 300 23:19 03.06.2020
2042 Clouds 11 1010 71 10000 1 300 23:19 03.06.2020
2043 Clouds 11 1010 71 10000 1.5 290 22:40 03.06.2020
2044 Clouds 12 1010 62 10000 2.1 230 22:19 03.06.2020
2045 Clouds 11 1010 62 10000 2.1 230 21:59 03.06.2020
2046 Clouds 11 1009 66 10000 1.5 300 21:41 03.06.2020
2047 Clouds 12 1009 66 10000 1.5 300 21:22 03.06.2020
2048 Clouds 13 1009 58 10000 2.1 310 20:58 03.06.2020
2049 Clouds 13 1009 58 10000 2.1 310 20:58 03.06.2020
2050 Clouds 13 1009 58 10000 2.1 310 20:40 03.06.2020
2051 Clouds 14 1009 51 10000 2.1 330 20:20 03.06.2020
2052 Clouds 15 1009 51 10000 2.1 330 19:57 03.06.2020
2053 Clouds 15 1009 51 10000 3.6 310 19:38 03.06.2020
2054 Clouds 17 1009 48 10000 3.6 320 19:19 03.06.2020
2055 Clouds 16 1009 48 10000 3.6 320 18:56 03.06.2020
2056 Clouds 16 1009 48 10000 5.1 310 18:38 03.06.2020
2057 Clouds 16 1009 55 10000 4.6 310 18:18 03.06.2020
2058 Clouds 17 1009 51 10000 5.7 290 17:42 03.06.2020
2059 Clouds 17 1009 51 10000 5.7 290 17:22 03.06.2020
2060 Clouds 17 1009 48 10000 6.7 280 16:56 03.06.2020
2061 Rain 17 1008 45 10000 7.7 250 16:38 03.06.2020
2062 Rain 17 1008 45 10000 7.7 250 16:38 03.06.2020
2063 Clouds 17 1008 42 10000 4.6 280 16:18 03.06.2020
2064 Clouds 17 1008 42 10000 4.6 280 16:18 03.06.2020
2065 Clouds 18 1008 36 10000 6.2 260 15:41 03.06.2020
2066 Clouds 18 1008 42 10000 5.1 280 15:21 03.06.2020
2067 Clouds 19 1008 42 10000 5.1 280 14:57 03.06.2020
2068 Clouds 19 1008 37 10000 5.7 280 14:38 03.06.2020
2069 Clouds 19 1009 36 10000 5.7 230 14:20 03.06.2020
2070 Clouds 17 1009 45 10000 6.7 260 13:38 03.06.2020
2071 Clouds 17 1009 42 10000 7.7 270 13:19 03.06.2020
2072 Clouds 18 1009 36 10000 6.2 270 12:43 03.06.2020
2073 Clouds 17 1009 39 10000 6.7 270 12:22 03.06.2020
2074 Clouds 17 1009 39 10000 6.7 270 11:57 03.06.2020
2075 Clouds 17 1009 42 10000 4.1 280 11:38 03.06.2020
2076 Clouds 16 1009 48 10000 3.6 290 11:20 03.06.2020
2077 Clouds 15 1010 58 10000 1.5 0 10:41 03.06.2020
2078 Clouds 15 1010 58 10000 1.5 0 10:22 03.06.2020
2079 Clouds 13 1010 66 10000 1.5 0 09:45 03.06.2020
2080 Clouds 12 1010 76 10000 1.5 40 09:20 03.06.2020
2081 Clouds 12 1010 76 10000 1.5 40 08:58 03.06.2020
2082 Clouds 12 1010 76 10000 1.5 40 08:58 03.06.2020
2083 Clouds 12 1010 76 10000 1.5 40 08:58 03.06.2020
2084 -273 0 0 0 0 0 08:58 03.06.2020
2085 Clouds 12 1010 76 10000 1.5 40 08:58 03.06.2020
2086 Clouds 12 1010 71 10000 1.5 60 08:40 03.06.2020
2087 Clouds 10 1010 76 10000 1 0 08:19 03.06.2020
2088 Clouds 9 1010 81 10000 0.5 0 07:42 03.06.2020
2089 Clouds 8 1010 81 10000 0.5 0 07:20 03.06.2020
2090 Clouds 7 1010 93 10000 0.5 0 06:52 03.06.2020
2091 Clouds 7 1010 93 10000 0.5 0 06:30 03.06.2020
2092 Clouds 7 1010 93 10000 1.5 140 05:47 03.06.2020
2093 Clouds 7 1010 93 10000 1 0 04:56 03.06.2020
2094 Clear 7 1010 93 10000 0.5 0 03:50 03.06.2020
2095 Clear 7 1010 93 10000 0.5 0 02:57 03.06.2020
2096 Clouds 8 1011 93 10000 1.5 120 01:52 03.06.2020
2097 Clouds 10 1011 81 10000 2.1 300 00:43 03.06.2020
2098 Clouds 10 1011 81 10000 2.1 300 00:25 03.06.2020
2099 Clouds 10 1011 81 10000 3.1 290 23:51 02.06.2020
2100 Rain 10 1011 81 10000 3.1 290 23:28 02.06.2020
2101 Rain 10 1011 81 10000 3.1 290 23:28 02.06.2020
2102 Rain 10 1011 76 10000 3.1 280 22:57 02.06.2020
2103 Clouds 11 1011 71 10000 4.6 280 22:38 02.06.2020
2104 Rain 11 1011 71 10000 2.6 290 22:19 02.06.2020
2105 Rain 11 1011 71 10000 2.6 290 21:56 02.06.2020
2106 Clouds 11 1011 71 10000 4.1 280 21:37 02.06.2020
2107 Clouds 12 1010 71 10000 4.1 280 21:19 02.06.2020
2108 Clouds 12 1010 71 10000 4.1 280 20:55 02.06.2020
2109 Clouds 13 1010 66 10000 4.6 280 20:36 02.06.2020
2110 Clouds 12 1010 66 10000 4.6 280 20:36 02.06.2020
2111 Clouds 13 1010 66 10000 4.6 280 20:18 02.06.2020
2112 Clouds 14 1010 66 10000 5.1 280 19:42 02.06.2020
2113 Clouds 13 1010 66 10000 5.7 270 19:23 02.06.2020
2114 Clouds 13 1010 66 10000 5.7 270 18:57 02.06.2020
2115 Clouds 13 1010 71 10000 5.1 270 18:38 02.06.2020
2116 Clouds 13 1010 71 10000 4.6 280 18:19 02.06.2020
2117 Rain 13 1010 76 10000 4.6 300 17:43 02.06.2020
2118 Rain 13 1010 76 10000 4.6 300 17:23 02.06.2020
2119 Clouds 14 1010 67 10000 4.6 300 16:59 02.06.2020
2120 Clouds 14 1010 67 10000 5.1 330 16:40 02.06.2020
2121 Clouds 15 1009 62 10000 4.1 20 16:21 02.06.2020
2122 Clouds 16 1009 62 10000 4.1 20 15:57 02.06.2020
2123 Rain 16 1009 62 10000 4.1 360 15:37 02.06.2020
2124 Rain 17 1009 51 10000 4.6 280 15:18 02.06.2020
2125 Clouds 17 1009 48 10000 1.5 0 14:42 02.06.2020
2126 Clouds 19 1009 48 10000 1.5 0 14:23 02.06.2020
2127 Clouds 17 1009 48 10000 1.5 0 13:54 02.06.2020
2128 Clouds 17 1009 51 10000 3.1 40 13:36 02.06.2020
2129 Clouds 16 1010 55 10000 3.6 360 13:18 02.06.2020
2130 Clouds 16 1010 55 10000 3.6 310 12:40 02.06.2020
2131 Clouds 17 1010 55 10000 3.6 280 12:21 02.06.2020
2132 Clouds 17 1010 55 10000 3.6 280 11:59 02.06.2020
2133 Rain 14 1011 67 10000 4.6 300 11:39 02.06.2020
2134 Clouds 15 1010 62 10000 5.1 300 11:20 02.06.2020
2135 Clouds 14 1011 67 10000 5.1 300 10:48 02.06.2020
2136 Clouds 14 1011 67 10000 5.1 300 10:28 02.06.2020
2137 Clouds 15 1011 67 10000 4.6 300 09:58 02.06.2020
2138 Clouds 15 1011 67 10000 5.7 280 09:39 02.06.2020
2139 Clouds 14 1011 71 10000 5.1 290 09:20 02.06.2020
2140 Clouds 14 1011 71 10000 5.1 290 09:20 02.06.2020
2141 Clouds 13 1011 76 10000 4.6 300 08:48 02.06.2020
2142 Clouds 13 1011 71 10000 3.6 300 08:21 02.06.2020
2143 Clouds 11 1011 81 10000 3.6 300 07:52 02.06.2020
2144 Clouds 11 1011 81 10000 2.6 320 07:26 02.06.2020
2145 Clouds 10 1011 87 10000 2.6 360 06:45 02.06.2020
2146 Clouds 9 1011 93 10000 2.1 350 06:18 02.06.2020
2147 Clouds 10 1011 87 10000 1 0 05:21 02.06.2020
2148 Clouds 9 1012 93 10000 1.55 275 03:25 02.06.2020
2149 Clouds 9 1012 87 10000 1.5 10 02:26 02.06.2020
2150 Clouds 11 1013 87 10000 3.1 290 01:22 02.06.2020
2151 Clouds 11 1013 87 10000 2.6 280 00:25 02.06.2020
2152 Clouds 11 1013 81 10000 3.6 280 23:56 01.06.2020
2153 Clouds 12 1013 81 10000 4.1 280 23:37 01.06.2020
2154 Clouds 12 1013 81 10000 4.1 280 23:18 01.06.2020
2155 Clouds 12 1013 76 10000 4.6 280 22:41 01.06.2020
2156 Clouds 12 1013 76 10000 3.6 280 22:21 01.06.2020
2157 Clouds 12 1013 76 10000 3.6 280 21:58 01.06.2020
2158 Clouds 12 1013 66 10000 4.1 280 21:40 01.06.2020
2159 Clouds 12 1013 66 10000 4.1 290 21:19 01.06.2020
2160 Clouds 13 1013 66 10000 4.1 290 20:56 01.06.2020
2161 Clouds 13 1013 66 10000 4.1 290 20:38 01.06.2020
2162 Clouds 14 1013 62 10000 5.1 280 20:19 01.06.2020
2163 Clouds 14 1013 62 10000 5.1 280 19:43 01.06.2020
2164 Clouds 14 1013 62 10000 5.1 290 19:21 01.06.2020
2165 Clouds 14 1013 62 10000 5.7 300 18:59 01.06.2020
2166 Clouds 14 1013 62 10000 5.7 300 18:39 01.06.2020
2167 Clouds 14 1013 58 10000 4.6 300 18:20 01.06.2020
2168 Clouds 15 1013 58 10000 4.6 300 17:56 01.06.2020
2169 Clouds 15 1013 58 10000 5.7 300 17:38 01.06.2020
2170 Clouds 15 1013 54 10000 7.2 300 17:18 01.06.2020
2171 Clouds 16 1013 58 10000 6.7 300 16:40 01.06.2020
2172 Clouds 16 1013 51 10000 8.2 280 16:22 01.06.2020
2173 Clouds 16 1012 54 10000 7.7 280 15:56 01.06.2020
2174 Clouds 17 1012 54 10000 7.7 280 15:37 01.06.2020
2175 Clouds 16 1013 54 10000 8.7 300 15:19 01.06.2020
2176 Clouds 16 1013 54 10000 8.7 300 14:57 01.06.2020
2177 Clouds 16 1013 51 10000 8.7 300 14:38 01.06.2020
2178 Clouds 17 1013 51 10000 8.2 300 14:20 01.06.2020
2179 Clouds 17 1013 54 10000 7.7 300 13:43 01.06.2020
2180 Clouds 16 1013 54 10000 7.7 300 13:22 01.06.2020
2181 Clouds 15 1013 51 10000 8.2 290 12:58 01.06.2020
2182 Clouds 14 1013 54 10000 7.7 300 12:40 01.06.2020
2183 Clouds 14 1013 54 10000 7.7 300 12:40 01.06.2020
2184 Clouds 14 1013 54 10000 7.7 300 12:40 01.06.2020
2185 Clouds 15 1013 50 10000 8.2 300 12:21 01.06.2020
2186 Clouds 15 1013 50 10000 8.2 300 11:58 01.06.2020
2187 Clouds 15 1013 50 10000 7.7 290 11:37 01.06.2020
2188 Clouds 14 1013 50 10000 7.7 290 11:18 01.06.2020
2189 Clouds 15 1013 50 10000 7.2 290 10:55 01.06.2020
2190 Clouds 15 1013 54 10000 7.7 300 10:36 01.06.2020
2191 Clouds 15 1013 54 10000 7.7 300 10:18 01.06.2020
2192 Clouds 14 1013 54 10000 7.7 290 09:44 01.06.2020
2193 Clouds 13 1014 58 10000 6.7 280 09:25 01.06.2020
2194 Clouds 12 1014 62 10000 6.2 280 08:55 01.06.2020
2195 Clouds 12 1014 66 10000 6.2 280 08:33 01.06.2020
2196 Clouds 11 1014 71 10000 6.2 270 07:58 01.06.2020
2197 Clouds 11 1013 66 10000 7.2 280 07:39 01.06.2020
2198 Clouds 11 1013 66 10000 7.2 280 07:21 01.06.2020
2199 Clouds 11 1013 66 10000 6.7 280 06:49 01.06.2020
2200 Clouds 11 1013 71 10000 5.1 280 05:56 01.06.2020
2201 Clouds 11 1013 71 10000 5.1 270 04:56 01.06.2020
2202 Clouds 11 1013 76 10000 3.6 280 03:55 01.06.2020
2203 Clouds 12 1013 71 10000 4.6 280 03:35 01.06.2020
2204 Clouds 12 1014 71 10000 2.6 280 02:34 01.06.2020
2205 Clouds 12 1014 71 10000 2.6 290 01:35 01.06.2020
2206 Clouds 12 1014 71 10000 3.6 280 00:59 01.06.2020
2207 Clouds 12 1014 71 10000 4.1 270 00:40 01.06.2020
2208 Clouds 12 1014 71 10000 4.1 270 00:21 01.06.2020
2209 Clouds 13 1014 66 10000 5.1 280 23:58 31.05.2020
2210 Clouds 13 1014 62 10000 4.6 280 23:39 31.05.2020
2211 Clouds 13 1014 62 10000 4.6 280 23:21 31.05.2020
2212 Clouds 13 1014 62 10000 4.6 280 22:54 31.05.2020
2213 Clouds 13 1014 58 10000 5.1 280 22:36 31.05.2020
2214 Clouds 13 1014 58 10000 5.1 280 22:18 31.05.2020
2215 Clouds 14 1013 58 10000 3.1 280 21:42 31.05.2020
2216 Clouds 14 1013 58 10000 3.1 280 21:23 31.05.2020
2217 Clouds 14 1013 54 10000 3.1 280 20:58 31.05.2020
2218 Clouds 14 1013 54 10000 4.1 260 20:40 31.05.2020
2219 Clouds 14 1013 54 10000 4.1 260 20:40 31.05.2020
2220 Clouds 14 1013 54 10000 4.1 260 20:21 31.05.2020
2221 Clouds 15 1013 51 10000 4.6 260 19:56 31.05.2020
2222 Clouds 16 1013 51 10000 4.6 280 19:37 31.05.2020
2223 Clouds 16 1013 51 10000 4.6 280 19:19 31.05.2020
2224 Clouds 15 1013 51 10000 5.7 280 18:44 31.05.2020
2225 Clouds 15 1012 51 10000 6.2 280 18:25 31.05.2020
2226 Clouds 16 1012 48 10000 6.2 280 17:46 31.05.2020
2227 Clouds 16 1012 48 10000 7.2 290 17:26 31.05.2020
2228 Clouds 17 1012 48 10000 7.2 290 17:00 31.05.2020
2229 Clouds 17 1012 55 10000 7.2 290 16:40 31.05.2020
2230 Clouds 17 1012 55 10000 7.2 290 16:21 31.05.2020
2231 Clouds 17 1012 51 10000 6.7 280 15:40 31.05.2020
2232 Clouds 17 1012 51 10000 6.7 280 15:40 31.05.2020
2233 Clouds 17 1012 51 10000 6.7 280 15:21 31.05.2020
2234 Clouds 17 1012 51 10000 6.7 280 15:21 31.05.2020
2235 Clouds 18 1012 51 10000 6.7 280 14:47 31.05.2020
2236 Clouds 18 1012 52 10000 5.1 300 14:23 31.05.2020
2237 Clouds 17 1013 59 10000 4.1 300 13:57 31.05.2020
2238 Clouds 17 1013 63 10000 5.1 270 13:38 31.05.2020
2239 Clouds 17 1013 63 10000 5.1 270 13:20 31.05.2020
2240 Rain 16 1013 55 10000 5.7 300 12:58 31.05.2020
2241 Rain 16 1013 59 10000 5.1 300 12:38 31.05.2020
2242 Rain 16 1013 59 10000 5.1 300 12:19 31.05.2020
2243 Clouds 16 1014 59 10000 3.6 300 11:49 31.05.2020
2244 Clouds 17 1014 62 10000 3.6 330 11:24 31.05.2020
2245 Clouds 17 1014 62 10000 3.6 310 10:57 31.05.2020
2246 Clouds 15 1014 67 10000 3.1 0 10:39 31.05.2020
2247 Clouds 15 1014 67 10000 3.1 0 10:20 31.05.2020
2248 Clouds 13 1014 76 10000 2.1 300 09:42 31.05.2020
2249 Clouds 13 1014 76 10000 2.1 300 09:42 31.05.2020
2250 Clouds 13 1014 76 10000 2.1 300 09:23 31.05.2020
2251 Clouds 12 1015 81 10000 1 0 08:58 31.05.2020
2252 Clouds 12 1015 76 10000 1 0 08:38 31.05.2020
2253 Clouds 12 1015 76 10000 1 0 08:20 31.05.2020
2254 Clouds 12 1014 76 10000 1.5 320 07:44 31.05.2020
2255 Clouds 12 1015 76 10000 1.5 10 07:21 31.05.2020
2256 Clouds 12 1015 76 10000 1.5 280 06:54 31.05.2020
2257 Clouds 11 1015 81 10000 1.5 290 06:32 31.05.2020
2258 Clouds 10 1015 93 10000 1.26 299 05:44 31.05.2020
2259 Clouds 10 1015 87 10000 1 90 04:31 31.05.2020
2260 Clouds 10 1015 93 10000 1 90 03:51 31.05.2020
2261 Clouds 10 1015 87 10000 1.5 40 02:59 31.05.2020
2262 Clouds 11 1016 81 10000 2.6 280 01:50 31.05.2020
2263 Clouds 11 1016 76 10000 3.1 240 01:28 31.05.2020
2264 Clouds 12 1016 81 10000 2.1 300 00:31 31.05.2020
2265 Clouds 12 1016 76 10000 2.6 290 23:59 30.05.2020
2266 Clouds 12 1016 81 10000 2.6 300 23:39 30.05.2020
2267 Clouds 12 1016 81 10000 2.6 300 23:21 30.05.2020
2268 Clouds 12 1016 76 10000 4.6 260 22:41 30.05.2020
2269 Clouds 12 1016 76 10000 4.6 260 22:23 30.05.2020
2270 Clouds 12 1016 87 10000 2.6 270 21:56 30.05.2020
2271 Rain 12 1015 87 10000 2.1 260 21:38 30.05.2020
2272 Rain 12 1015 87 10000 2.1 260 21:20 30.05.2020
2273 Rain 12 1015 82 10000 2.6 280 20:57 30.05.2020
2274 Rain 12 1015 82 10000 3.1 260 20:38 30.05.2020
2275 Rain 13 1015 82 10000 3.1 260 20:20 30.05.2020
2276 Rain 13 1015 82 10000 4.1 310 19:43 30.05.2020
2277 Clouds 14 1014 71 8000 2.6 340 19:22 30.05.2020
2278 Clouds 15 1014 71 8000 3.1 320 18:46 30.05.2020
2279 Rain 15 1014 66 5000 7.2 300 18:25 30.05.2020
2280 Rain 15 1014 66 5000 7.2 300 18:25 30.05.2020
2281 Rain 16 1013 55 10000 4.6 240 17:56 30.05.2020
2282 Rain 18 1013 45 10000 3.1 310 17:38 30.05.2020
2283 Rain 18 1013 45 10000 3.1 310 17:19 30.05.2020
2284 Clouds 19 1013 42 10000 3.6 290 16:43 30.05.2020
2285 Clouds 20 1013 37 10000 5.1 280 16:23 30.05.2020
2286 Clouds 20 1014 42 10000 5.1 290 15:56 30.05.2020
2287 Clouds 19 1014 42 10000 5.7 290 15:37 30.05.2020
2288 Clouds 18 1014 42 10000 5.7 290 15:19 30.05.2020
2289 Clouds 19 1014 45 10000 5.7 290 14:42 30.05.2020
2290 Clouds 18 1014 45 10000 4.6 290 14:20 30.05.2020
2291 Clouds 18 1015 48 10000 4.1 290 13:41 30.05.2020
2292 Clouds 16 1015 55 10000 5.1 310 13:18 30.05.2020
2293 Clouds 16 1016 63 10000 5.1 300 12:40 30.05.2020
2294 Clouds 16 1016 63 10000 5.1 300 12:20 30.05.2020
2295 Clouds 15 1016 58 10000 5.7 300 11:55 30.05.2020
2296 Clouds 15 1016 58 10000 5.1 300 11:37 30.05.2020
2297 Clouds 15 1016 58 10000 5.1 300 11:19 30.05.2020
2298 Clouds 14 1016 62 10000 5.7 280 10:39 30.05.2020
2299 Clouds 14 1016 62 10000 5.7 280 10:20 30.05.2020
2300 Clouds 14 1016 71 10000 5.7 280 09:46 30.05.2020
2301 Clouds 14 1017 71 10000 4.6 290 09:28 30.05.2020
2302 Clouds 12 1017 71 10000 4.6 300 08:46 30.05.2020
2303 Clouds 13 1016 71 10000 2.1 320 08:27 30.05.2020
2304 Clouds 13 1016 76 10000 2.1 330 07:43 30.05.2020
2305 Clouds 11 1016 81 10000 1.5 330 07:20 30.05.2020
2306 Clouds 10 1016 81 10000 3.1 300 06:31 30.05.2020
2307 Clouds 9 1016 87 10000 2.1 360 05:52 30.05.2020
2308 Clouds 10 1016 87 10000 3.1 350 05:20 30.05.2020
2309 Clouds 11 1016 81 10000 4.1 290 03:35 30.05.2020
2310 Clouds 11 1016 81 10000 4.1 310 02:29 30.05.2020
2311 Clouds 11 1016 81 10000 4.6 310 01:30 30.05.2020
2312 Clouds 11 1016 81 10000 2.1 300 00:36 30.05.2020
2313 Clouds 11 1016 81 10000 2.1 300 00:18 30.05.2020
2314 Clouds 12 1016 76 10000 2.6 310 23:41 29.05.2020
2315 Clouds 12 1016 76 10000 2.6 310 23:20 29.05.2020
2316 Clouds 12 1016 71 10000 3.6 270 22:56 29.05.2020
2317 Clouds 12 1017 71 10000 4.6 280 22:38 29.05.2020
2318 Clouds 12 1017 71 10000 4.6 280 22:18 29.05.2020
2319 Clouds 13 1016 66 10000 3.1 300 21:41 29.05.2020
2320 Clouds 13 1016 66 10000 3.1 300 21:21 29.05.2020
2321 Clouds 12 1016 81 10000 3.1 300 20:59 29.05.2020
2322 Rain 14 1016 71 10000 2.1 310 20:40 29.05.2020
2323 Rain 14 1016 71 10000 2.1 310 20:19 29.05.2020
2324 Rain 14 1016 71 10000 2.6 290 19:44 29.05.2020
2325 Clouds 14 1015 71 10000 2.6 280 19:26 29.05.2020
2326 Clouds 15 1015 67 10000 3.1 230 18:49 29.05.2020
2327 Clouds 15 1015 62 10000 3.6 260 18:24 29.05.2020
2328 Rain 17 1015 67 10000 3.1 280 17:59 29.05.2020
2329 Rain 15 1016 71 8000 5.7 310 17:39 29.05.2020
2330 Rain 14 1016 71 8000 5.7 310 17:21 29.05.2020
2331 Clouds 15 1015 67 10000 2.6 280 16:55 29.05.2020
2332 Clouds 17 1015 63 10000 2.6 280 16:37 29.05.2020
2333 Clouds 16 1015 63 10000 2.6 280 16:19 29.05.2020
2334 Rain 15 1016 71 10000 3.6 240 15:42 29.05.2020
2335 Clouds 15 1015 71 10000 3.1 210 15:21 29.05.2020
2336 Rain 15 1016 62 8000 3.1 230 14:58 29.05.2020
2337 Rain 16 1016 71 10000 2.1 30 14:38 29.05.2020
2338 Rain 16 1016 71 10000 2.1 30 14:19 29.05.2020
2339 Rain 13 1016 76 10000 2.1 20 13:43 29.05.2020
2340 Rain 14 1016 81 8000 4.1 350 13:23 29.05.2020
2341 Clouds 16 1016 55 10000 4.1 330 12:57 29.05.2020
2342 Clouds 15 1016 67 10000 4.1 300 12:39 29.05.2020
2343 Clouds 15 1016 67 10000 4.1 300 12:19 29.05.2020
2344 Rain 13 1017 71 10000 5.7 280 11:42 29.05.2020
2345 Rain 15 1017 67 10000 6.2 290 11:24 29.05.2020
2346 Clouds 15 1017 62 10000 4.6 280 10:46 29.05.2020
2347 Clouds 15 1017 62 10000 4.1 290 10:25 29.05.2020
2348 Clouds 14 1017 62 10000 4.6 300 09:58 29.05.2020
2349 Clouds 13 1017 71 10000 4.6 310 09:40 29.05.2020
2350 Clouds 13 1017 71 10000 4.6 310 09:19 29.05.2020
2351 Clouds 13 1017 76 10000 5.1 290 08:47 29.05.2020
2352 Clouds 12 1017 76 10000 5.1 290 08:24 29.05.2020
2353 Clouds 12 1017 76 10000 4.1 290 07:48 29.05.2020
2354 Clouds 11 1017 87 10000 5.1 280 07:30 29.05.2020
2355 Clouds 10 1017 87 10000 4.1 280 06:58 29.05.2020
2356 Clouds 10 1017 87 10000 4.1 280 06:39 29.05.2020
2357 Clouds 10 1017 87 10000 4.1 280 06:21 29.05.2020
2358 Clouds 10 1017 87 10000 3.6 280 05:40 29.05.2020
2359 Clouds 10 1017 87 10000 3.6 280 01:53 29.05.2020
2360 Clouds 10 1017 93 10000 1 0 01:27 29.05.2020
2361 Clouds 10 1017 93 10000 1 0 00:51 29.05.2020
2362 Clouds 11 1017 93 10000 0.5 0 00:29 29.05.2020
2363 Rain 10 1017 93 10000 1 0 23:56 28.05.2020
2364 Clouds 10 1017 100 10000 1 60 23:38 28.05.2020
2365 Clouds 10 1017 100 10000 1 60 23:18 28.05.2020
2366 Clouds 10 1018 87 10000 0.5 0 22:41 28.05.2020
2367 Clouds 10 1018 87 10000 0.5 0 22:21 28.05.2020
2368 Rain 10 1018 87 10000 1.5 200 21:55 28.05.2020
2369 Rain 10 1018 93 10000 3.1 200 21:37 28.05.2020
2370 Rain 10 1018 93 10000 3.1 200 21:18 28.05.2020
2371 Rain 10 1018 93 7000 3.1 210 20:55 28.05.2020
2372 Rain 10 1018 93 7000 3.1 210 20:55 28.05.2020
2373 Rain 10 1018 93 7000 1.5 200 20:36 28.05.2020
2374 Rain 10 1018 93 7000 1.5 200 20:18 28.05.2020
2375 Rain 10 1018 87 4500 2.1 80 19:43 28.05.2020
2376 Rain 11 1017 87 10000 2.6 170 19:20 28.05.2020
2377 Clouds 11 1017 87 10000 2.6 150 18:57 28.05.2020
2378 Rain 12 1017 87 10000 4.6 110 18:39 28.05.2020
2379 Rain 12 1017 87 10000 4.6 110 18:20 28.05.2020
2380 Clouds 14 1017 76 10000 3.6 80 17:40 28.05.2020
2381 Clouds 15 1017 76 10000 3.6 80 17:22 28.05.2020
2382 Clouds 15 1017 71 10000 2.6 60 16:55 28.05.2020
2383 Clouds 15 1017 66 10000 3.6 30 16:36 28.05.2020
2384 Clouds 15 1017 66 10000 3.6 30 16:18 28.05.2020
2385 Rain 15 1017 81 10000 3.1 310 15:40 28.05.2020
2386 Rain 15 1017 81 10000 3.1 310 15:22 28.05.2020
2387 Clouds 14 1017 67 10000 3.6 330 14:43 28.05.2020
2388 Clouds 16 1017 67 10000 3.6 330 14:23 28.05.2020
2389 Clouds 15 1017 67 10000 5.7 300 13:47 28.05.2020
2390 Clouds 15 1017 67 10000 5.7 300 13:47 28.05.2020
2391 Rain 13 1017 76 10000 5.1 310 13:29 28.05.2020
2392 Rain 14 1018 62 10000 3.6 330 12:57 28.05.2020
2393 Clouds 14 1018 71 10000 3.1 360 12:38 28.05.2020
2394 Clouds 14 1018 71 10000 3.1 360 12:18 28.05.2020
2395 Rain 12 1018 81 10000 6.7 290 11:41 28.05.2020
2396 Rain 12 1018 81 10000 6.7 290 11:23 28.05.2020
2397 Rain 14 1019 76 10000 7.7 290 10:50 28.05.2020
2398 Clouds 14 1019 71 10000 6.2 300 10:28 28.05.2020
2399 Clouds 13 1019 71 10000 5.7 290 09:59 28.05.2020
2400 Clouds 13 1019 71 10000 4.6 290 09:39 28.05.2020
2401 Clouds 13 1019 71 10000 4.6 290 09:19 28.05.2020
2402 Clouds 12 1019 81 10000 3.6 290 08:44 28.05.2020
2403 Clouds 12 1020 81 10000 4.1 300 08:25 28.05.2020
2404 Clouds 11 1020 93 10000 2.6 300 07:45 28.05.2020
2405 Clouds 10 1020 93 10000 2.1 300 07:24 28.05.2020
2406 Clouds 10 1020 93 10000 2.1 310 06:51 28.05.2020
2407 Clouds 9 1020 93 10000 2.1 300 06:31 28.05.2020
2408 Clouds 10 1020 93 8000 0.5 0 05:40 28.05.2020
2409 Mist 10 1020 93 5000 2.1 340 04:46 28.05.2020
2410 Clouds 9 1020 93 7000 1.5 330 04:22 28.05.2020
2411 Clouds 9 1020 93 10000 1.5 350 03:42 28.05.2020
2412 Rain 9 1021 93 10000 2.1 270 02:45 28.05.2020
2413 Rain 10 1021 87 10000 2.6 290 01:46 28.05.2020
2414 Clouds 10 1021 93 8000 1.5 330 00:50 28.05.2020
2415 Clouds 10 1021 93 8000 1.5 330 00:22 28.05.2020
2416 Clouds 10 1022 93 7000 1.5 70 23:56 27.05.2020
2417 Clouds 10 1022 93 10000 1 240 23:38 27.05.2020
2418 Clouds 10 1022 93 10000 1 240 23:19 27.05.2020
2419 Clouds 10 1022 93 10000 1.5 50 22:43 27.05.2020
2420 Clouds 10 1022 93 10000 1.5 50 22:24 27.05.2020
2421 Clouds 11 1022 87 10000 1.07 314 21:57 27.05.2020
2422 Rain 11 1022 87 10000 2.6 220 21:39 27.05.2020
2423 Rain 11 1022 87 10000 2.6 220 21:21 27.05.2020
2424 Rain 11 1022 87 10000 2.1 240 20:58 27.05.2020
2425 Rain 10 1022 81 8000 2.1 260 20:39 27.05.2020
2426 Rain 10 1022 81 8000 2.1 260 20:39 27.05.2020
2427 Rain 10 1022 81 8000 2.1 260 20:20 27.05.2020
2428 Rain 11 1022 81 8000 3.1 260 19:46 27.05.2020
2429 Rain 11 1022 87 7000 3.1 290 19:21 27.05.2020
2430 Rain 12 1021 76 10000 4.6 310 18:56 27.05.2020
2431 Rain 12 1021 87 7000 7.7 260 18:37 27.05.2020
2432 Rain 12 1021 87 7000 7.7 260 18:18 27.05.2020
2433 Clouds 14 1020 58 10000 3.6 300 17:42 27.05.2020
2434 Clouds 14 1020 58 10000 3.6 300 17:24 27.05.2020
2435 Clouds 15 1020 54 10000 2.6 280 16:57 27.05.2020
2436 Clouds 16 1021 54 10000 3.6 290 16:38 27.05.2020
2437 Clouds 16 1021 54 10000 3.6 290 16:20 27.05.2020
2438 Clouds 15 1021 62 10000 4.1 290 15:49 27.05.2020
2439 Clouds 15 1021 62 10000 2.1 290 15:23 27.05.2020
2440 Clouds 15 1021 66 10000 3.1 320 14:57 27.05.2020
2441 Rain 15 1021 66 10000 4.6 350 14:39 27.05.2020
2442 Rain 13 1021 66 10000 4.6 350 14:19 27.05.2020
2443 Rain 13 1021 66 10000 4.6 350 14:19 27.05.2020
2444 Clouds 16 1021 51 10000 3.1 310 13:41 27.05.2020
2445 Clouds 16 1021 51 10000 3.1 310 13:23 27.05.2020
2446 Clouds 16 1021 59 10000 1 0 12:42 27.05.2020
2447 Clouds 15 1022 54 10000 2.1 30 12:24 27.05.2020
2448 Clouds 14 1022 58 10000 1.5 10 11:58 27.05.2020
2449 Clouds 14 1022 62 10000 1.5 330 11:37 27.05.2020
2450 Clouds 14 1022 62 10000 1.5 330 11:19 27.05.2020
2451 Clouds 13 1022 66 10000 1 0 10:43 27.05.2020
2452 Clouds 13 1022 66 10000 2.1 290 10:24 27.05.2020
2453 Clouds 12 1022 76 10000 2.1 270 09:57 27.05.2020
2454 Clouds 11 1022 81 10000 3.1 290 09:39 27.05.2020
2455 Clouds 11 1022 81 10000 3.1 290 09:20 27.05.2020
2456 Clouds 11 1022 76 10000 3.6 280 08:42 27.05.2020
2457 Clouds 11 1022 76 10000 3.6 280 08:42 27.05.2020
2458 Clouds 11 1022 81 10000 4.1 280 08:24 27.05.2020
2459 Clouds 10 1022 81 10000 4.1 280 07:53 27.05.2020
2460 Clouds 10 1022 87 10000 3.6 280 07:34 27.05.2020
2461 Clouds 10 1022 81 10000 3.6 280 06:56 27.05.2020
2462 Clouds 10 1022 93 10000 2.6 280 06:30 27.05.2020
2463 Clouds 10 1022 93 10000 3.6 280 05:50 27.05.2020
2464 Clouds 9 1021 93 10000 3.1 280 05:28 27.05.2020
2465 Clouds 9 1021 87 10000 3.6 270 04:18 27.05.2020
2466 Clouds 9 1021 87 10000 3.1 280 02:30 27.05.2020
2467 Clouds 9 1022 81 10000 3.1 290 01:34 27.05.2020
2468 Clouds 9 1022 87 10000 3.6 280 00:58 27.05.2020
2469 Clouds 9 1022 81 10000 3.6 280 00:40 27.05.2020
2470 Clouds 9 1022 81 10000 3.6 280 00:18 27.05.2020
2471 Clouds 9 1021 81 10000 2.6 320 23:41 26.05.2020
2472 Clouds 9 1021 81 10000 2.6 320 23:23 26.05.2020
2473 Clouds 9 1021 76 10000 3.1 310 22:58 26.05.2020
2474 Clouds 10 1021 81 10000 3.1 290 22:38 26.05.2020
2475 Clouds 10 1021 81 10000 3.1 290 22:19 26.05.2020
2476 Clouds 10 1021 81 10000 4.1 280 21:56 26.05.2020
2477 Clouds 10 1021 81 10000 2.6 270 21:38 26.05.2020
2478 Clouds 10 1021 81 10000 2.6 270 21:19 26.05.2020
2479 Rain 9 1021 81 10000 1 0 20:42 26.05.2020
2480 Rain 10 1021 81 10000 2.6 40 20:20 26.05.2020
2481 Rain 11 1021 81 10000 4.1 20 19:55 26.05.2020
2482 Rain 11 1021 81 10000 4.1 20 19:55 26.05.2020
2483 Rain 12 1020 71 10000 3.6 10 19:36 26.05.2020
2484 Rain 12 1020 71 10000 3.6 10 19:18 26.05.2020
2485 Rain 13 1020 66 10000 3.6 110 18:40 26.05.2020
2486 Rain 14 1020 66 10000 3.6 110 18:21 26.05.2020
2487 Rain 15 1020 62 10000 4.6 20 17:42 26.05.2020
2488 Rain 14 1020 62 10000 4.6 20 17:24 26.05.2020
2489 Clouds 15 1020 58 10000 4.1 300 16:55 26.05.2020
2490 Clouds 14 1020 67 10000 1.5 310 16:36 26.05.2020
2491 Clouds 14 1020 67 10000 1.5 310 16:18 26.05.2020
2492 Rain 15 1020 76 10000 4.1 270 15:41 26.05.2020
2493 Rain 12 1020 76 10000 4.1 270 15:20 26.05.2020
2494 Clouds 14 1020 76 10000 4.1 270 14:56 26.05.2020
2495 Rain 13 1020 62 10000 4.6 220 14:37 26.05.2020
2496 Rain 12 1020 62 10000 4.6 220 14:18 26.05.2020
2497 Clouds 12 1020 58 10000 2.6 0 13:41 26.05.2020
2498 Clouds 12 1020 58 10000 2.6 0 13:41 26.05.2020
2499 Clouds 13 1020 58 10000 2.6 0 13:23 26.05.2020
2500 Rain 13 1020 66 10000 3.6 40 12:44 26.05.2020
2501 Rain 14 1021 67 10000 3.1 340 12:23 26.05.2020
2502 Rain 13 1021 76 8000 4.1 340 11:59 26.05.2020
2503 Rain 13 1021 66 8000 1.5 0 11:41 26.05.2020
2504 Rain 13 1021 66 8000 1.5 0 11:20 26.05.2020
2505 Clouds 14 1021 67 10000 0.5 0 10:47 26.05.2020
2506 Clouds 12 1021 71 10000 1 0 10:19 26.05.2020
2507 Clouds 11 1021 81 10000 1.5 300 09:57 26.05.2020
2508 Clouds 11 1021 81 10000 1.5 300 09:57 26.05.2020
2509 Clouds 11 1022 81 10000 1 0 09:37 26.05.2020
2510 Clouds 11 1022 81 10000 1 0 09:18 26.05.2020
2511 Rain 10 1022 93 10000 1 0 08:40 26.05.2020
2512 Rain 10 1022 93 10000 1 0 08:21 26.05.2020
2513 Rain 10 1022 87 8000 1.5 310 07:42 26.05.2020
2514 Rain 10 1022 87 8000 1.5 310 07:22 26.05.2020
2515 Rain 9 1021 93 8000 3.1 260 06:52 26.05.2020
2516 Rain 8 1021 93 6000 1 0 06:23 26.05.2020
2517 Clouds 8 1021 100 7000 1 0 05:41 26.05.2020
2518 Clouds 9 1021 93 10000 1 0 04:59 26.05.2020
2519 Clouds 9 1021 93 10000 2.1 360 04:41 26.05.2020
2520 Clouds 9 1021 93 10000 2.1 360 04:22 26.05.2020
2521 Clouds 9 1021 93 10000 2.1 240 03:28 26.05.2020
2522 Clouds 9 1022 93 10000 2.1 340 02:34 26.05.2020
2523 Clouds 9 1022 93 10000 1.5 10 01:42 26.05.2020
2524 Clouds 10 1022 87 10000 1.5 270 00:39 26.05.2020
2525 Clouds 10 1022 87 10000 1.5 270 00:20 26.05.2020
2526 Clouds 10 1023 87 10000 2.6 330 23:58 25.05.2020
2527 Clouds 10 1023 93 10000 2.1 30 23:38 25.05.2020
2528 Clouds 10 1023 93 10000 2.1 30 23:38 25.05.2020
2529 Clouds 9 1023 93 10000 2.1 30 23:19 25.05.2020
2530 Clouds 8 1022 93 10000 2.1 310 22:56 25.05.2020
2531 Clouds 8 1022 93 10000 1.5 40 22:37 25.05.2020
2532 Clouds 8 1022 93 10000 1.5 40 22:19 25.05.2020
2533 Clouds 9 1022 87 10000 1.5 250 21:58 25.05.2020
2534 Clouds 9 1022 87 10000 3.1 360 21:37 25.05.2020
2535 Clouds 9 1022 87 10000 3.1 360 21:18 25.05.2020
2536 Clouds 9 1022 87 10000 3.1 360 21:18 25.05.2020
2537 Clouds 10 1022 87 10000 1.5 250 20:57 25.05.2020
2538 Clouds 11 1022 81 10000 2.6 240 20:38 25.05.2020
2539 Clouds 11 1022 81 10000 2.6 240 20:19 25.05.2020
2540 Rain 13 1022 76 9000 5.1 340 19:41 25.05.2020
2541 Rain 12 1022 76 9000 5.1 340 19:19 25.05.2020
2542 Rain 14 1021 51 10000 2.1 310 18:58 25.05.2020
2543 Clouds 15 1021 51 10000 3.1 280 18:40 25.05.2020
2544 Clouds 15 1021 51 10000 3.1 280 18:40 25.05.2020
2545 Clouds 15 1021 51 10000 3.1 280 18:20 25.05.2020
2546 Clouds 15 1021 47 10000 4.6 280 17:44 25.05.2020
2547 Clouds 15 1022 51 10000 2.1 290 17:24 25.05.2020
2548 Clouds 15 1022 51 10000 2.1 340 16:58 25.05.2020
2549 Clouds 15 1022 58 10000 4.6 280 16:40 25.05.2020
2550 Clouds 15 1022 58 10000 4.6 280 16:20 25.05.2020
2551 Clouds 15 1022 62 10000 4.1 260 15:45 25.05.2020
2552 Clouds 13 1022 71 10000 4.1 230 15:20 25.05.2020
2553 Rain 13 1022 66 10000 5.1 280 14:59 25.05.2020
2554 Rain 15 1022 51 10000 3.1 220 14:39 25.05.2020
2555 Rain 15 1022 51 10000 3.1 220 14:21 25.05.2020
2556 Rain 12 1023 66 10000 2.6 120 13:40 25.05.2020
2557 Rain 12 1023 66 10000 2.6 120 13:21 25.05.2020
2558 Rain 12 1023 66 10000 4.6 50 12:59 25.05.2020
2559 Rain 11 1023 76 6000 4.6 360 12:39 25.05.2020
2560 Clouds 14 1023 62 10000 3.6 30 12:20 25.05.2020
2561 Clouds 15 1023 51 10000 4.1 0 11:40 25.05.2020
2562 Clouds 15 1023 51 10000 4.1 0 11:21 25.05.2020
2563 Clouds 14 1023 62 10000 3.1 270 10:59 25.05.2020
2564 Clouds 14 1024 62 10000 4.1 290 10:41 25.05.2020
2565 Clouds 14 1024 62 10000 4.1 290 10:20 25.05.2020
2566 Clouds 14 1024 62 10000 4.1 290 10:20 25.05.2020
2567 Clouds 13 1024 66 10000 4.6 270 09:54 25.05.2020
2568 Clouds 13 1024 71 10000 4.6 270 09:36 25.05.2020
2569 Clouds 13 1024 71 10000 4.6 270 09:18 25.05.2020
2570 Clouds 12 1024 76 10000 2.1 0 08:40 25.05.2020
2571 Clouds 12 1024 76 10000 2.1 0 08:21 25.05.2020
2572 Clouds 10 1024 87 10000 2.6 300 07:50 25.05.2020
2573 Clouds 10 1024 87 10000 2.6 300 07:32 25.05.2020
2574 Clouds 9 1024 87 10000 1.5 320 06:57 25.05.2020
2575 Clouds 8 1025 93 7000 2.1 350 06:37 25.05.2020
2576 Clear 7 1024 100 8000 1 0 05:25 25.05.2020
2577 Clouds 10 1024 87 10000 3.6 30 03:28 25.05.2020
2578 Clouds 9 1024 93 10000 4.6 270 02:47 25.05.2020
2579 Clouds 9 1025 87 10000 4.6 270 02:20 25.05.2020
2580 Clouds 10 1025 81 10000 3.6 280 01:42 25.05.2020
2581 Clouds 11 1025 76 10000 3.6 290 00:47 25.05.2020
2582 Clouds 10 1025 87 10000 3.6 290 00:26 25.05.2020
2583 Clouds 11 1025 81 10000 4.6 280 23:58 24.05.2020
2584 Clouds 10 1025 87 10000 4.1 280 23:39 24.05.2020
2585 Clouds 10 1025 87 10000 4.1 280 23:39 24.05.2020
2586 Clouds 10 1025 87 10000 4.1 280 23:20 24.05.2020
2587 Clouds 11 1025 81 10000 5.1 280 22:55 24.05.2020
2588 Clouds 11 1025 81 10000 5.1 280 22:55 24.05.2020
2589 Clouds 11 1025 81 10000 5.1 280 22:37 24.05.2020
2590 Clouds 10 1026 87 10000 5.1 280 22:18 24.05.2020
2591 Clouds 10 1026 87 10000 5.1 280 21:54 24.05.2020
2592 Clouds 11 1025 81 10000 4.6 280 21:36 24.05.2020
2593 Clouds 11 1025 81 10000 4.6 280 21:18 24.05.2020
2594 Clouds 11 1025 81 10000 5.1 280 20:41 24.05.2020
2595 Clouds 11 1025 81 10000 5.1 280 20:19 24.05.2020
2596 Rain 11 1025 87 10000 6.7 280 19:56 24.05.2020
2597 Rain 11 1024 87 8000 8.7 270 19:36 24.05.2020
2598 Rain 11 1024 87 8000 8.7 270 19:18 24.05.2020
2599 Rain 11 1024 87 8000 8.7 270 19:18 24.05.2020
2600 Rain 11 1024 87 9000 7.2 260 18:42 24.05.2020
2601 Rain 11 1024 87 9000 7.2 260 18:23 24.05.2020
2602 Rain 12 1024 81 8000 8.7 270 17:57 24.05.2020
2603 Rain 12 1024 81 8000 8.7 280 17:38 24.05.2020
2604 Rain 12 1024 81 8000 8.7 280 17:19 24.05.2020
2605 Rain 13 1023 82 10000 8.2 280 16:54 24.05.2020
2606 Rain 14 1023 76 10000 9.3 280 16:36 24.05.2020
2607 Rain 14 1023 76 10000 9.3 280 16:18 24.05.2020
2608 Clouds 16 1022 63 10000 9.3 290 15:40 24.05.2020
2609 Clouds 16 1022 63 10000 9.3 290 15:40 24.05.2020
2610 Clouds 16 1022 63 10000 9.3 290 15:20 24.05.2020
2611 Clouds 16 1022 63 10000 9.3 290 15:20 24.05.2020
2612 Clouds 18 1022 59 10000 9.8 280 14:58 24.05.2020
2613 Clouds 20 1021 56 10000 10.3 280 14:40 24.05.2020
2614 Clouds 20 1021 56 10000 10.3 280 14:21 24.05.2020
2615 Clouds 21 1021 49 10000 5.1 300 13:55 24.05.2020
2616 Clouds 21 1020 43 10000 1 0 13:36 24.05.2020
2617 Clouds 21 1020 43 10000 1 0 13:18 24.05.2020
2618 Clouds 21 1021 43 10000 2.6 330 12:55 24.05.2020
2619 Clouds 21 1021 40 10000 2.6 280 12:37 24.05.2020
2620 Clouds 21 1021 40 10000 2.6 280 12:18 24.05.2020
2621 Clouds 20 1021 45 10000 1.5 70 11:45 24.05.2020
2622 Clouds 20 1021 42 10000 1.5 0 11:26 24.05.2020
2623 Clouds 19 1021 45 10000 1.5 0 10:59 24.05.2020
2624 Clouds 18 1022 45 10000 2.1 140 10:41 24.05.2020
2625 Clouds 18 1022 45 10000 2.1 140 10:23 24.05.2020
2626 Clouds 16 1022 48 10000 2.1 110 09:55 24.05.2020
2627 Clouds 16 1022 48 10000 1.5 120 09:37 24.05.2020
2628 Clear 16 1022 48 10000 1.5 120 09:18 24.05.2020
2629 Clear 13 1023 62 10000 1.5 130 08:41 24.05.2020
2630 Clear 13 1023 62 10000 1.5 130 08:41 24.05.2020
2631 Clouds 13 1023 62 10000 1.5 130 08:22 24.05.2020
2632 Clouds 12 1022 66 10000 0.4 312 07:57 24.05.2020
2633 Clouds 9 1023 81 10000 1.5 320 07:39 24.05.2020
2634 Clouds 9 1023 81 10000 1.5 320 07:19 24.05.2020
2635 Clouds 9 1023 76 10000 2.1 360 06:38 24.05.2020
2636 Clouds 7 1023 87 10000 1 280 05:49 24.05.2020
2637 Clouds 8 1023 75 10000 1.5 60 03:49 24.05.2020
2638 Clear 10 1023 66 10000 2.1 120 03:26 24.05.2020
2639 Clear 9 1024 76 10000 2.1 190 02:23 24.05.2020
2640 Clear 9 1024 76 10000 2.1 110 00:49 24.05.2020
2641 Clear 10 1024 71 10000 2.6 130 00:27 24.05.2020
2642 Clear 10 1024 71 10000 2.6 130 00:27 24.05.2020
2643 Clear 10 1024 71 10000 2.6 100 23:59 23.05.2020
2644 Clear 10 1024 71 10000 3.1 90 23:37 23.05.2020
2645 Clear 10 1024 71 10000 3.1 90 23:19 23.05.2020
2646 Clear 12 1024 66 10000 0.54 143 22:55 23.05.2020
2647 Clear 14 1024 58 10000 0.54 143 22:37 23.05.2020
2648 Clear 14 1024 58 10000 0.63 149 22:18 23.05.2020
2649 Clear 14 1024 58 10000 2.1 310 21:54 23.05.2020
2650 Clear 15 1023 54 10000 1.5 300 21:36 23.05.2020
2651 Clouds 15 1023 54 10000 1.5 300 21:18 23.05.2020
2652 Clear 16 1023 51 10000 2.6 300 20:39 23.05.2020
2653 Clouds 16 1023 51 10000 2.6 300 20:20 23.05.2020
2654 Clouds 18 1023 45 10000 3.6 290 19:58 23.05.2020
2655 Clouds 19 1023 42 10000 5.1 290 19:40 23.05.2020
2656 Clouds 19 1023 42 10000 5.1 290 19:18 23.05.2020
2657 Clouds 20 1023 37 10000 4.1 290 18:41 23.05.2020
2658 Clouds 20 1023 37 10000 4.1 290 18:22 23.05.2020
2659 Clouds 20 1023 37 10000 3.6 290 17:58 23.05.2020
2660 Clouds 20 1023 37 10000 2.1 350 17:40 23.05.2020
2661 Clouds 20 1023 37 10000 2.1 350 17:20 23.05.2020
2662 Clouds 19 1023 39 10000 4.6 300 16:59 23.05.2020
2663 Clouds 19 1023 37 10000 2.6 320 16:40 23.05.2020
2664 Clouds 19 1023 37 10000 2.6 320 16:20 23.05.2020
2665 Clouds 19 1023 39 10000 3.6 280 15:56 23.05.2020
2666 Clouds 19 1023 37 10000 3.6 0 15:38 23.05.2020
2667 Clouds 19 1023 37 10000 3.6 0 15:19 23.05.2020
2668 Clouds 18 1024 39 10000 3.1 280 14:41 23.05.2020
2669 Clouds 18 1024 39 10000 3.1 280 14:23 23.05.2020
2670 Clouds 18 1024 36 10000 4.1 310 13:42 23.05.2020
2671 Clouds 18 1024 36 10000 4.1 310 13:19 23.05.2020
2672 Clouds 18 1024 36 10000 2.6 0 12:58 23.05.2020
2673 Clouds 17 1025 33 10000 3.1 320 12:40 23.05.2020
2674 Clouds 17 1025 33 10000 3.1 320 12:19 23.05.2020
2675 Clouds 16 1025 36 10000 3.6 300 11:43 23.05.2020
2676 Clouds 16 1025 36 10000 2.6 290 11:22 23.05.2020
2677 Clouds 16 1025 31 10000 3.6 270 10:58 23.05.2020
2678 Clouds 14 1025 45 10000 3.1 280 10:39 23.05.2020
2679 Clouds 14 1025 46 10000 3.1 280 10:20 23.05.2020
2680 Clouds 12 1025 54 10000 2.6 250 09:59 23.05.2020
2681 Clouds 12 1025 54 10000 2.6 250 09:59 23.05.2020
2682 Clouds 11 1025 53 10000 1 0 09:40 23.05.2020
2683 Clouds 11 1025 53 10000 1 0 09:21 23.05.2020
2684 Clouds 8 1025 70 10000 1.5 180 08:44 23.05.2020
2685 Clouds 8 1025 65 10000 1 0 08:20 23.05.2020
2686 Clouds 10 1024 75 10000 2.1 30 07:59 23.05.2020
2687 Clouds 10 1024 70 10000 1.5 290 07:39 23.05.2020
2688 Clouds 10 1024 70 10000 1.5 290 07:21 23.05.2020
2689 Clouds 7 1024 80 10000 1 310 06:39 23.05.2020
2690 Clouds 6 1023 80 10000 1.5 330 05:34 23.05.2020
2691 Clear 7 1023 75 10000 2.1 330 03:43 23.05.2020
2692 Clear 8 1023 81 10000 1.5 340 02:59 23.05.2020
2693 Clear 7 1023 75 10000 2.1 340 01:58 23.05.2020
2694 Clear 9 1023 70 10000 0.5 0 01:26 23.05.2020
2695 Clear 9 1023 65 10000 1.5 300 00:47 23.05.2020
2696 Clear 10 1024 66 10000 2.6 290 00:26 23.05.2020
2697 Clear 10 1024 57 10000 2.1 330 23:57 22.05.2020
2698 Clear 12 1023 64 10000 3.1 290 23:39 22.05.2020
2699 Clear 12 1023 63 10000 3.1 290 23:19 22.05.2020
2700 Clear 12 1023 63 10000 3.1 290 23:19 22.05.2020
2701 Clear 11 1023 50 10000 3.6 280 22:44 22.05.2020
2702 Clear 13 1023 62 10000 4.1 270 22:22 22.05.2020
2703 Clear 13 1023 47 10000 2.6 310 21:57 22.05.2020
2704 Clear 13 1023 43 10000 2.1 300 21:39 22.05.2020
2705 Clear 13 1023 43 10000 2.1 300 21:20 22.05.2020
2706 Clear 14 1023 38 10000 4.1 300 20:46 22.05.2020
2707 Clouds 15 1022 36 10000 4.1 290 20:21 22.05.2020
2708 Clouds 15 1022 36 10000 4.6 310 19:59 22.05.2020
2709 Clouds 17 1021 61 10000 5.7 290 19:37 22.05.2020
2710 Clouds 17 1021 59 10000 5.7 290 19:18 22.05.2020
2711 Clouds 18 1021 31 10000 6.7 300 18:39 22.05.2020
2712 Clouds 18 1021 31 10000 6.7 300 18:20 22.05.2020
2713 Clouds 17 1021 36 10000 6.2 310 17:56 22.05.2020
2714 Clouds 18 1021 36 10000 2.6 340 17:36 22.05.2020
2715 Clouds 18 1021 36 10000 2.6 340 17:18 22.05.2020
2716 Clouds 17 1021 36 10000 3.1 340 16:43 22.05.2020
2717 Clouds 17 1021 36 10000 3.1 340 16:20 22.05.2020
2718 Clouds 19 1021 32 10000 5.7 290 15:57 22.05.2020
2719 Clouds 19 1021 32 10000 5.7 290 15:57 22.05.2020
2720 Clouds 17 1021 36 10000 4.1 300 15:39 22.05.2020
2721 Clouds 17 1021 36 10000 4.1 300 15:19 22.05.2020
2722 Clouds 19 1021 34 10000 3.6 340 14:43 22.05.2020
2723 Clouds 19 1021 34 10000 3.6 320 14:43 22.05.2020
2724 Clouds 18 1021 34 10000 3.6 320 14:24 22.05.2020
2725 Clouds 18 1021 34 10000 3.1 310 13:45 22.05.2020
2726 Clouds 18 1021 34 10000 3.1 310 13:20 22.05.2020
2727 Clouds 17 1021 42 10000 4.1 10 12:45 22.05.2020
2728 Clouds 17 1021 42 10000 4.1 10 12:26 22.05.2020
2729 Clouds 16 1021 41 10000 4.6 340 11:59 22.05.2020
2730 Clouds 15 1021 47 10000 4.1 10 11:40 22.05.2020
2731 Clouds 15 1021 47 10000 4.1 10 11:20 22.05.2020
2732 Clouds 15 1021 51 10000 3.1 320 10:55 22.05.2020
2733 Clouds 13 1021 66 10000 3.6 300 10:36 22.05.2020
2734 Clouds 13 1021 66 10000 3.6 300 10:18 22.05.2020
2735 Clouds 12 1021 71 10000 3.1 0 09:41 22.05.2020
2736 Clouds 12 1021 71 10000 3.1 0 09:19 22.05.2020
2737 Clouds 12 1021 71 10000 3.1 0 09:19 22.05.2020
2738 Clouds 12 1020 76 10000 2.6 300 08:43 22.05.2020
2739 Clouds 12 1020 87 10000 2.1 310 08:43 22.05.2020
2740 Clouds 12 1020 87 10000 2.1 310 08:21 22.05.2020
2741 Clouds 11 1020 81 10000 2.1 330 07:56 22.05.2020
2742 Clouds 11 1020 87 10000 2.1 340 07:27 22.05.2020
2743 Clouds 10 1019 87 10000 2.6 330 06:57 22.05.2020
2744 Rain 10 1019 87 10000 1.5 300 06:36 22.05.2020
2745 Clouds 10 1019 93 10000 2.1 260 05:39 22.05.2020
2746 Rain 10 1019 93 10000 2.6 290 04:51 22.05.2020
2747 Rain 9 1018 93 10000 3.1 300 04:20 22.05.2020
2748 Rain 10 1018 87 10000 3.1 300 03:47 22.05.2020
2749 Clouds 10 1018 87 10000 2.1 290 02:59 22.05.2020
2750 Clouds 10 1018 87 10000 1.5 340 01:53 22.05.2020
2751 Clouds 10 1018 87 10000 1.5 290 01:25 22.05.2020
2752 Clouds 10 1018 87 10000 1 0 00:40 22.05.2020
2753 Clouds 10 1018 87 10000 1 0 00:22 22.05.2020
2754 Clouds 10 1018 93 10000 2.1 320 23:42 21.05.2020
2755 Clouds 10 1018 93 10000 2.1 320 23:24 21.05.2020
2756 Clouds 10 1018 93 10000 1.5 290 22:58 21.05.2020
2757 Clouds 11 1018 87 10000 2.1 270 22:38 21.05.2020
2758 Clouds 11 1018 87 10000 2.1 270 22:19 21.05.2020
2759 Clouds 11 1018 87 10000 2.6 290 21:55 21.05.2020
2760 Clouds 11 1017 87 10000 2.6 280 21:37 21.05.2020
2761 Clouds 11 1017 87 10000 2.6 280 21:18 21.05.2020
2762 Rain 11 1017 87 10000 2.1 280 20:42 21.05.2020
2763 Rain 11 1017 87 10000 2.1 280 20:22 21.05.2020
2764 Rain 11 1016 87 10000 2.1 280 19:40 21.05.2020
2765 Rain 11 1016 87 10000 2.1 280 19:20 21.05.2020
2766 Rain 11 1016 87 8000 1.5 330 18:59 21.05.2020
2767 Rain 11 1015 81 8000 2.1 10 18:37 21.05.2020
2768 Rain 11 1015 81 8000 2.1 10 18:19 21.05.2020
2769 Rain 11 1015 76 10000 3.1 20 17:56 21.05.2020
2770 Clouds 11 1015 71 10000 4.1 30 17:37 21.05.2020
2771 Clouds 11 1015 71 10000 4.1 30 17:19 21.05.2020
2772 Clouds 12 1014 71 10000 2.6 20 16:44 21.05.2020
2773 Clouds 13 1014 66 10000 4.6 10 16:22 21.05.2020
2774 Clouds 13 1014 71 10000 3.1 320 15:44 21.05.2020
2775 Clouds 13 1014 71 10000 3.1 320 15:23 21.05.2020
2776 Rain 12 1014 81 10000 3.1 320 14:43 21.05.2020
2777 Clouds 12 1013 66 10000 2.6 330 14:23 21.05.2020
2778 Clouds 13 1013 66 10000 4.1 360 13:58 21.05.2020
2779 Clouds 13 1013 66 10000 5.7 360 13:38 21.05.2020
2780 Clouds 13 1013 66 10000 5.7 360 13:19 21.05.2020
2781 Clouds 14 1012 67 10000 4.6 350 12:40 21.05.2020
2782 Clouds 15 1012 67 10000 4.6 350 12:22 21.05.2020
2783 Clouds 16 1011 63 10000 4.1 10 11:58 21.05.2020
2784 Clouds 16 1011 63 10000 3.6 360 11:39 21.05.2020
2785 Clouds 16 1011 63 10000 3.6 360 11:21 21.05.2020
2786 Clouds 16 1011 63 10000 3.6 340 10:45 21.05.2020
2787 Clouds 16 1011 67 10000 3.1 350 10:23 21.05.2020
2788 Clouds 17 1011 63 10000 3.1 20 09:59 21.05.2020
2789 Clouds 16 1010 67 10000 3.1 340 09:40 21.05.2020
2790 Clouds 16 1010 67 10000 3.1 340 09:40 21.05.2020
2791 Clouds 16 1010 67 10000 3.1 340 09:22 21.05.2020
2792 Clouds 16 1010 67 10000 4.1 350 08:56 21.05.2020
2793 Clouds 16 1010 72 10000 4.1 10 08:37 21.05.2020
2794 Clouds 16 1010 72 10000 4.1 10 08:19 21.05.2020
2795 Clouds 16 1010 72 10000 4.1 10 07:41 21.05.2020
2796 Clouds 16 1010 72 10000 4.1 10 07:22 21.05.2020
2797 Clouds 15 1009 82 10000 2.6 320 06:37 21.05.2020
2798 Clouds 14 1009 87 10000 3.1 310 05:50 21.05.2020
2799 Clouds 13 1009 87 10000 3.1 290 03:49 21.05.2020
2800 Clouds 13 1009 87 10000 2.1 310 03:21 21.05.2020
2801 Clouds 13 1009 87 10000 2.1 310 03:21 21.05.2020
2802 Clouds 14 1009 87 10000 0.5 0 02:31 21.05.2020
2803 Rain 15 1009 77 10000 2.1 90 01:51 21.05.2020
2804 Clouds 15 1010 77 10000 1 0 01:24 21.05.2020
2805 Clouds 16 1010 77 10000 2.1 30 00:54 21.05.2020
2806 Clouds 16 1011 77 10000 1 0 00:26 21.05.2020
2807 Clouds 17 1010 72 10000 2.6 360 23:58 20.05.2020
2808 Clouds 17 1011 72 10000 6.2 300 23:38 20.05.2020
2809 Clouds 18 1011 72 10000 6.2 300 23:18 20.05.2020
2810 Clouds 18 1010 77 10000 5.7 280 22:42 20.05.2020
2811 Clouds 18 1010 77 10000 5.7 280 22:42 20.05.2020
2812 Clouds 18 1009 68 10000 6.2 280 22:24 20.05.2020
2813 Clouds 19 1008 63 10000 6.2 280 21:42 20.05.2020
2814 Clouds 19 1008 63 10000 6.2 280 21:23 20.05.2020
2815 Clouds 19 1007 72 10000 7.7 290 20:59 20.05.2020
2816 Clouds 22 1007 64 10000 2.6 0 20:41 20.05.2020
2817 Clouds 21 1007 64 10000 2.6 0 20:22 20.05.2020
2818 Rain 23 1005 57 10000 6.2 80 19:42 20.05.2020
2819 Rain 24 1005 57 10000 6.2 80 19:23 20.05.2020
2820 Rain 24 1005 53 10000 8.2 90 18:58 20.05.2020
2821 Rain 26 1005 50 10000 8.2 90 18:38 20.05.2020
2822 Rain 26 1005 50 10000 8.2 90 18:20 20.05.2020
2823 Rain 26 1005 50 10000 7.2 90 17:39 20.05.2020
2824 Clouds 26 1005 50 10000 7.2 90 17:21 20.05.2020
2825 Clouds 27 1005 47 10000 8.2 100 16:43 20.05.2020
2826 Clouds 26 1006 47 10000 7.2 90 16:24 20.05.2020
2827 Clouds 26 1006 47 10000 8.7 100 15:59 20.05.2020
2828 Clouds 28 1006 37 10000 8.2 110 15:40 20.05.2020
2829 Clouds 28 1006 37 10000 8.2 110 15:22 20.05.2020
2830 Clouds 29 1007 39 10000 5.7 110 14:43 20.05.2020
2831 Clouds 28 1007 47 10000 8.7 100 14:21 20.05.2020
2832 Clouds 27 1008 47 10000 11.3 110 13:41 20.05.2020
2833 Clouds 26 1008 47 10000 11.3 110 13:20 20.05.2020
2834 Clouds 24 1008 53 10000 7.2 90 12:58 20.05.2020
2835 Clouds 24 1008 57 10000 8.2 100 12:37 20.05.2020
2836 Clouds 24 1008 57 10000 8.2 100 12:19 20.05.2020
2837 Clouds 24 1009 53 10000 8.2 110 11:36 20.05.2020
2838 Clouds 24 1009 53 10000 8.2 110 11:18 20.05.2020
2839 Clouds 24 1009 53 10000 8.2 110 11:18 20.05.2020
2840 Clouds 23 1009 56 10000 7.2 100 10:42 20.05.2020
2841 Clouds 23 1009 64 10000 4.6 110 10:20 20.05.2020
2842 Clouds 23 1010 64 10000 5.1 110 09:45 20.05.2020
2843 Clouds 21 1010 68 10000 9.3 110 09:21 20.05.2020
2844 Clouds 21 1010 68 10000 9.3 110 09:21 20.05.2020
2845 Clouds 20 1010 72 10000 4.1 100 08:57 20.05.2020
2846 Clouds 19 1011 77 10000 4.6 110 08:39 20.05.2020
2847 Clouds 18 1011 77 10000 4.6 110 08:18 20.05.2020
2848 Rain 18 1012 82 10000 2.6 120 07:46 20.05.2020
2849 Clouds 17 1012 82 10000 2.6 240 07:20 20.05.2020
2850 Clouds 17 1012 82 10000 2.1 140 06:36 20.05.2020
2851 Clouds 16 1012 87 10000 2.6 150 05:24 20.05.2020
2852 Clouds 16 1013 87 10000 3.1 140 04:27 20.05.2020
2853 Clouds 16 1014 87 10000 2.1 120 03:42 20.05.2020
2854 Clouds 17 1015 82 10000 2.6 110 02:25 20.05.2020
2855 Clouds 17 1015 77 10000 2.6 100 01:28 20.05.2020
2856 Clouds 17 1016 82 10000 2.6 110 00:44 20.05.2020
2857 Clouds 17 1016 77 10000 3.1 90 00:23 20.05.2020
2858 Clouds 18 1016 72 10000 3.6 80 23:42 19.05.2020
2859 Clouds 18 1016 72 10000 3.6 80 23:19 19.05.2020
2860 Clouds 18 1016 72 10000 5.1 90 22:56 19.05.2020
2861 Clouds 18 1016 72 10000 5.1 100 22:38 19.05.2020
2862 Clouds 19 1016 72 10000 5.1 100 22:18 19.05.2020
2863 Clouds 19 1016 68 10000 4.6 90 21:57 19.05.2020
2864 Clouds 20 1016 64 10000 5.1 90 21:37 19.05.2020
2865 Clouds 20 1016 64 10000 5.1 90 21:37 19.05.2020
2866 Clouds 20 1016 64 10000 5.1 120 21:19 19.05.2020
2867 Clouds 20 1016 64 10000 5.1 120 21:19 19.05.2020
2868 Clouds 20 1016 64 10000 5.1 120 20:57 19.05.2020
2869 Clouds 21 1016 60 10000 6.7 120 20:38 19.05.2020
2870 Rain 21 1016 60 10000 6.7 120 20:19 19.05.2020
2871 Rain 22 1016 56 10000 6.7 120 19:39 19.05.2020
2872 Rain 22 1016 56 10000 6.7 120 19:21 19.05.2020
2873 Rain 23 1016 53 10000 8.2 120 18:57 19.05.2020
2874 Rain 23 1016 50 10000 7.7 120 18:38 19.05.2020
2875 Clouds 24 1016 50 10000 7.7 120 18:20 19.05.2020
2876 Clouds 25 1017 50 10000 7.7 110 17:41 19.05.2020
2877 Clouds 25 1017 50 10000 7.7 110 17:21 19.05.2020
2878 Clouds 26 1017 47 10000 7.7 130 16:58 19.05.2020
2879 Clouds 26 1017 53 10000 7.7 110 16:38 19.05.2020
2880 Clouds 25 1017 53 10000 7.7 110 16:19 19.05.2020
2881 Clouds 26 1017 53 10000 7.7 120 15:44 19.05.2020
2882 Clouds 26 1018 53 10000 8.7 120 15:21 19.05.2020
2883 Clouds 26 1018 53 10000 9.3 120 14:56 19.05.2020
2884 Clouds 26 1018 53 10000 9.3 110 14:38 19.05.2020
2885 Clouds 26 1018 53 10000 9.3 110 14:20 19.05.2020
2886 Clouds 26 1018 50 10000 9.3 110 13:57 19.05.2020
2887 Clouds 26 1018 50 10000 9.3 110 13:57 19.05.2020
2888 Clouds 25 1019 53 10000 9.3 110 13:38 19.05.2020
2889 Clouds 25 1019 53 10000 9.3 110 13:38 19.05.2020
2890 Clouds 25 1019 53 10000 9.3 110 13:20 19.05.2020
2891 Clouds 26 1019 53 10000 8.2 120 12:56 19.05.2020
2892 Clouds 26 1019 53 10000 8.7 110 12:36 19.05.2020
2893 Clouds 25 1019 53 10000 8.7 110 12:18 19.05.2020
2894 Clouds 25 1019 53 10000 8.7 110 12:18 19.05.2020
2895 Clouds 22 1020 64 10000 7.7 100 11:42 19.05.2020
2896 Clouds 24 1020 64 10000 7.7 100 11:22 19.05.2020
2897 Clouds 24 1020 60 10000 7.7 110 10:57 19.05.2020
2898 Clouds 24 1020 60 10000 7.7 110 10:57 19.05.2020
2899 Clouds 23 1020 60 10000 6.7 110 10:39 19.05.2020
2900 Clouds 23 1020 60 10000 6.7 110 10:21 19.05.2020
2901 Clouds 21 1020 68 10000 5.7 90 09:44 19.05.2020
2902 Clouds 19 1021 68 10000 3.6 90 09:25 19.05.2020
2903 Clouds 19 1021 63 10000 3.1 110 08:47 19.05.2020
2904 Clouds 18 1021 68 10000 3.6 130 08:25 19.05.2020
2905 Clouds 18 1021 68 10000 3.6 130 07:49 19.05.2020
2906 Clouds 18 1021 72 10000 3.1 120 07:28 19.05.2020
2907 Clouds 18 1021 72 10000 2.1 120 06:56 19.05.2020
2908 Clouds 18 1021 72 10000 2.1 120 06:56 19.05.2020
2909 Clouds 17 1021 72 10000 2.6 130 06:32 19.05.2020
2910 Clouds 17 1021 67 10000 2.6 150 05:53 19.05.2020
2911 Clouds 17 1021 67 10000 2.1 120 05:35 19.05.2020
2912 Clouds 17 1021 67 10000 0.5 0 04:50 19.05.2020
2913 Clouds 18 1021 68 10000 3.6 110 02:50 19.05.2020
2914 Clouds 19 1021 68 10000 4.6 100 00:49 19.05.2020
2915 Clouds 19 1021 68 10000 4.6 100 00:49 19.05.2020
2916 Clouds 20 1021 64 10000 6.2 110 00:31 19.05.2020
2917 Clouds 20 1021 64 10000 7.7 110 23:59 18.05.2020
2918 Clouds 20 1021 64 10000 7.2 110 23:40 18.05.2020
2919 Clouds 20 1021 64 10000 7.2 110 23:20 18.05.2020
2920 Clouds 21 1021 64 10000 7.7 110 22:55 18.05.2020
2921 Clouds 21 1022 64 10000 5.1 120 22:37 18.05.2020
2922 Clouds 21 1022 64 10000 5.1 120 22:19 18.05.2020
2923 Clouds 22 1021 60 10000 7.7 110 21:42 18.05.2020
2924 Rain 22 1021 60 10000 7.7 110 21:21 18.05.2020
2925 Clouds 22 1022 60 10000 6.7 100 20:57 18.05.2020
2926 Clouds 22 1021 64 10000 5.7 100 20:37 18.05.2020
2927 Clouds 23 1021 56 10000 5.7 120 20:19 18.05.2020
2928 Clouds 23 1020 53 10000 7.2 110 19:42 18.05.2020
2929 Clouds 24 1020 53 10000 7.2 110 19:20 18.05.2020
2930 Clouds 24 1020 53 10000 8.2 110 18:59 18.05.2020
2931 Clouds 24 1021 50 10000 7.7 120 18:41 18.05.2020
2932 Clouds 25 1021 50 10000 7.7 120 18:20 18.05.2020
2933 Clouds 25 1021 57 10000 5.7 100 17:38 18.05.2020
2934 Clouds 25 1021 50 10000 6.7 120 17:18 18.05.2020
2935 Clouds 25 1021 57 10000 5.7 100 17:18 18.05.2020
2936 Clouds 26 1021 50 10000 6.7 120 16:56 18.05.2020
2937 Clouds 26 1021 50 10000 6.7 120 16:37 18.05.2020
2938 Clouds 26 1021 50 10000 6.7 120 16:18 18.05.2020
2939 Clouds 26 1021 50 10000 6.7 120 16:18 18.05.2020
2940 Clouds 26 1021 50 10000 7.2 110 15:46 18.05.2020
2941 Clouds 27 1021 44 10000 7.7 120 15:25 18.05.2020
2942 Clouds 27 1021 47 10000 6.7 120 14:59 18.05.2020
2943 Clouds 27 1021 47 10000 7.2 120 14:39 18.05.2020
2944 Clouds 28 1021 47 10000 7.2 120 14:21 18.05.2020
2945 Clouds 28 1021 47 10000 6.7 120 13:54 18.05.2020
2946 Clouds 27 1021 44 10000 6.2 120 13:36 18.05.2020
2947 Clouds 27 1021 44 10000 6.2 120 13:18 18.05.2020
2948 Clouds 27 1021 47 10000 4.1 100 12:54 18.05.2020
2949 Clouds 27 1021 44 10000 4.1 100 12:36 18.05.2020
2950 Clouds 27 1021 44 10000 4.1 100 12:36 18.05.2020
2951 Clouds 27 1021 44 10000 4.1 100 12:18 18.05.2020
2952 Clouds 25 1022 47 10000 2.1 0 11:42 18.05.2020
2953 Clouds 25 1022 47 10000 2.1 0 11:23 18.05.2020
2954 Clouds 25 1022 47 10000 1.5 120 10:47 18.05.2020
2955 Clouds 24 1022 50 10000 1 0 10:25 18.05.2020
2956 Clouds 23 1022 56 10000 1 0 09:46 18.05.2020
2957 Clouds 22 1022 60 10000 0.5 0 09:28 18.05.2020
2958 Clouds 21 1022 64 10000 1.5 0 08:59 18.05.2020
2959 Clouds 20 1022 68 10000 1 0 08:39 18.05.2020
2960 Clouds 20 1022 68 10000 1 0 08:21 18.05.2020
2961 Clouds 18 1022 72 10000 1.5 270 07:43 18.05.2020
2962 Clouds 18 1022 72 10000 1.5 270 07:23 18.05.2020
2963 Clouds 18 1022 77 10000 2.1 290 06:47 18.05.2020
2964 Clouds 17 1022 82 10000 2.6 310 06:23 18.05.2020
2965 Clouds 17 1021 77 10000 1.5 320 05:43 18.05.2020
2966 Clouds 17 1021 72 10000 1.5 130 03:39 18.05.2020
2967 Clouds 17 1021 77 10000 2.1 180 02:57 18.05.2020
2968 Clouds 18 1021 77 10000 1.5 150 01:45 18.05.2020
2969 Clouds 18 1021 72 10000 3.6 110 00:41 18.05.2020
2970 Clouds 18 1021 72 10000 3.6 110 00:18 18.05.2020
2971 Clouds 18 1021 72 10000 3.6 110 00:18 18.05.2020
2972 Clouds 19 1022 72 10000 2.1 170 23:42 17.05.2020
2973 Clouds 19 1022 72 10000 2.1 170 23:42 17.05.2020
2974 Rain 19 1022 72 10000 2.1 170 23:21 17.05.2020
2975 Rain 20 1021 77 10000 2.6 140 22:59 17.05.2020
2976 Rain 20 1021 64 10000 1 0 22:39 17.05.2020
2977 Rain 21 1021 64 10000 1 0 22:21 17.05.2020
2978 Rain 21 1021 68 10000 2.6 170 21:59 17.05.2020
2979 Clouds 22 1021 56 10000 2.1 190 21:41 17.05.2020
2980 Clouds 22 1021 56 10000 4.1 0 21:19 17.05.2020
2981 Clouds 23 1021 56 10000 4.1 0 20:55 17.05.2020
2982 Clouds 23 1021 56 10000 4.1 0 20:55 17.05.2020
2983 Clouds 23 1020 60 10000 7.2 30 20:36 17.05.2020
2984 Clouds 23 1020 60 10000 7.2 30 20:18 17.05.2020
2985 Clouds 26 1019 37 10000 2.1 340 19:42 17.05.2020
2986 Clouds 27 1019 37 10000 2.1 340 19:23 17.05.2020
2987 Rain 30 1018 35 10000 1 0 18:55 17.05.2020
2988 Rain 29 1018 35 10000 1.5 320 18:37 17.05.2020
2989 Clouds 31 1018 35 10000 1.5 320 18:19 17.05.2020
2990 Clouds 29 1018 37 10000 1.5 60 17:40 17.05.2020
2991 Clouds 29 1018 37 10000 1.5 60 17:21 17.05.2020
2992 Clouds 29 1018 37 10000 1.5 60 17:21 17.05.2020
2993 Clouds 29 1018 37 10000 2.1 330 16:56 17.05.2020
2994 Clouds 29 1018 37 10000 1.5 0 16:37 17.05.2020
2995 Clouds 29 1018 37 10000 1.5 0 16:19 17.05.2020
2996 Clouds 30 1018 37 10000 2.6 280 15:41 17.05.2020
2997 Clouds 30 1018 37 10000 2.6 280 15:23 17.05.2020
2998 Clouds 29 1019 37 10000 2.6 310 14:56 17.05.2020
2999 Clouds 30 1019 37 10000 2.1 0 14:37 17.05.2020
3000 Clouds 30 1019 37 10000 2.1 0 14:19 17.05.2020
3001 Clouds 29 1019 42 10000 3.6 70 13:41 17.05.2020
3002 Clouds 29 1019 42 10000 3.6 70 13:20 17.05.2020
3003 Clouds 15 1020 82 10000 3.1 100 04:54 17.05.2020
3004 Clouds 16 1020 82 10000 2.1 0 03:30 17.05.2020
3005 Clouds 16 1021 82 10000 1 0 02:24 17.05.2020
3006 Clouds 17 1021 77 10000 3.1 130 01:50 17.05.2020
3007 Clouds 18 1021 68 10000 5.1 110 00:45 17.05.2020
3008 Clouds 18 1021 68 10000 4.6 110 00:24 17.05.2020
3009 Clouds 19 1022 68 10000 3.6 140 23:42 16.05.2020
3010 Clouds 19 1022 72 10000 3.1 130 23:21 16.05.2020
3011 Clouds 18 1022 77 10000 3.1 150 22:59 16.05.2020
3012 Clouds 19 1022 72 10000 2.1 100 22:41 16.05.2020
3013 Clouds 19 1022 72 10000 2.1 100 22:21 16.05.2020
3014 Clouds 20 1022 68 10000 2.1 150 21:55 16.05.2020
3015 Clouds 19 1022 68 10000 2.6 100 21:37 16.05.2020
3016 Clouds 20 1022 68 10000 2.6 100 21:19 16.05.2020
3017 Clouds 20 1022 68 10000 2.6 100 20:55 16.05.2020
3018 Clouds 22 1021 60 10000 2.1 160 20:36 16.05.2020
3019 Clouds 22 1021 60 10000 2.1 160 20:18 16.05.2020
3020 Clouds 23 1021 50 10000 1.5 130 19:40 16.05.2020
3021 Clouds 23 1021 50 10000 1.5 130 19:22 16.05.2020
3022 Clouds 24 1021 47 10000 2.1 110 18:57 16.05.2020
3023 Clouds 25 1021 44 10000 2.1 120 18:36 16.05.2020
3024 Clouds 25 1021 44 10000 2.1 120 18:18 16.05.2020
3025 Clouds 25 1021 44 10000 2.1 120 18:18 16.05.2020
3026 Clouds 26 1021 41 10000 0.5 0 17:40 16.05.2020
3027 Clouds 26 1021 41 10000 0.5 0 17:20 16.05.2020
3028 Clouds 26 1021 39 10000 1 0 16:42 16.05.2020
3029 Clouds 26 1021 39 10000 1 0 16:23 16.05.2020
3030 Clouds 27 1021 39 10000 1.5 0 15:59 16.05.2020
3031 Clouds 27 1021 39 10000 1 0 15:40 16.05.2020
3032 Clouds 26 1021 39 10000 1 0 15:20 16.05.2020
3033 Clouds 25 1022 44 10000 2.1 260 14:51 16.05.2020
3034 Clouds 27 1022 44 10000 2.1 0 14:21 16.05.2020
3035 Clouds 25 1022 47 10000 2.1 310 13:59 16.05.2020
3036 Clouds 27 1022 44 10000 2.6 270 13:41 16.05.2020
3037 Clouds 27 1022 44 10000 2.6 270 13:41 16.05.2020
3038 Clouds 27 1022 44 10000 2.6 270 13:22 16.05.2020
3039 Clouds 26 1022 47 10000 2.6 270 12:55 16.05.2020
3040 Clouds 26 1022 47 10000 2.6 290 12:37 16.05.2020
3041 Clouds 24 1022 47 10000 2.6 290 12:18 16.05.2020
3042 Clouds 23 1022 49 10000 4.1 280 11:39 16.05.2020
3043 Clouds 23 1022 49 10000 4.1 280 11:20 16.05.2020
3044 Clouds 23 1022 53 10000 3.6 300 10:56 16.05.2020
3045 Clouds 22 1021 53 10000 3.1 290 10:37 16.05.2020
3046 Clouds 22 1021 53 10000 3.1 290 10:19 16.05.2020
3047 Clouds 21 1021 56 10000 4.6 280 09:45 16.05.2020
3048 Clouds 21 1021 56 10000 4.6 280 09:27 16.05.2020
3049 Clouds 19 1020 68 10000 4.1 280 08:45 16.05.2020
3050 Clouds 19 1020 68 10000 4.1 280 08:22 16.05.2020
3051 Clouds 19 1020 63 10000 4.6 290 07:55 16.05.2020
3052 Clouds 18 1020 68 10000 3.6 290 07:37 16.05.2020
3053 Clouds 18 1019 63 10000 4.1 280 07:19 16.05.2020
3054 Clouds 19 1019 63 10000 4.1 280 06:44 16.05.2020
3055 Clouds 19 1019 55 10000 4.6 280 06:18 16.05.2020
3056 Clouds 18 1018 59 10000 4.1 280 05:40 16.05.2020
3057 Clouds 20 1017 49 10000 4.6 280 04:31 16.05.2020
3058 Clouds 21 1016 46 10000 5.1 290 03:21 16.05.2020
3059 Clouds 22 1016 35 10000 4.6 300 02:27 16.05.2020
3060 Clouds 22 1015 28 10000 3.1 310 01:56 16.05.2020
3061 Clouds 22 1015 28 10000 3.6 310 01:33 16.05.2020
3062 Clouds 23 1015 27 10000 3.6 350 00:54 16.05.2020
3063 Clouds 26 1015 21 10000 2.1 340 00:24 16.05.2020
3064 Clouds 28 1014 18 10000 3.1 0 23:56 15.05.2020
3065 Clouds 28 1014 18 10000 6.7 280 23:37 15.05.2020
3066 Clouds 28 1014 18 10000 6.7 280 23:18 15.05.2020
3067 Clouds 30 1013 15 10000 10.8 240 22:40 15.05.2020
3068 Clouds 29 1013 15 10000 10.8 240 22:20 15.05.2020
3069 Clouds 30 1013 15 10000 11.8 250 21:40 15.05.2020
3070 Clouds 30 1013 15 10000 11.8 250 21:22 15.05.2020
3071 Clouds 30 1013 15 10000 11.3 250 20:59 15.05.2020
3072 Clouds 30 1013 15 10000 11.3 250 20:59 15.05.2020
3073 Clouds 29 1013 17 10000 7.7 250 20:41 15.05.2020
3074 Clouds 29 1013 17 10000 7.7 250 20:23 15.05.2020
3075 Clouds 30 1014 16 10000 6.2 250 19:58 15.05.2020
3076 Clouds 30 1014 17 10000 6.7 260 19:40 15.05.2020
3077 Clouds 29 1014 17 10000 6.7 260 19:22 15.05.2020
3078 Clouds 31 1013 19 10000 7.7 270 18:46 15.05.2020
3079 Clouds 31 1013 19 10000 7.2 280 18:27 15.05.2020
3080 Clouds 32 1012 22 10000 6.7 260 17:41 15.05.2020
3081 Clouds 32 1012 22 10000 6.7 260 17:20 15.05.2020
3082 Clouds 33 1012 19 10000 8.2 260 16:58 15.05.2020
3083 Clouds 33 1012 19 10000 6.7 280 16:39 15.05.2020
3084 Clouds 33 1012 19 10000 6.7 280 16:20 15.05.2020
3085 Clouds 34 1012 17 10000 8.2 270 15:59 15.05.2020
3086 Clouds 34 1013 18 10000 7.7 260 15:39 15.05.2020
3087 Clouds 34 1013 18 10000 7.7 260 15:20 15.05.2020
3088 Clouds 34 1013 18 10000 8.7 240 14:54 15.05.2020
3089 Clouds 34 1013 18 10000 7.7 230 14:36 15.05.2020
3090 Clouds 34 1013 18 10000 7.7 230 14:18 15.05.2020
3091 Clouds 34 1013 18 10000 9.8 230 13:40 15.05.2020
3092 Clouds 34 1013 18 10000 9.8 230 13:20 15.05.2020
3093 Clouds 33 1013 18 10000 8.7 220 12:40 15.05.2020
3094 Clouds 33 1013 18 10000 8.7 220 12:19 15.05.2020
3095 Clouds 33 1013 17 10000 10.8 210 11:57 15.05.2020
3096 Clouds 33 1013 17 10000 8.2 210 11:39 15.05.2020
3097 Clouds 33 1013 17 10000 8.2 210 11:21 15.05.2020
3098 Clouds 33 1013 17 10000 6.7 230 10:59 15.05.2020
3099 Clouds 30 1013 25 10000 3.1 200 10:40 15.05.2020
3100 Clouds 30 1013 25 10000 3.1 200 10:40 15.05.2020
3101 Clouds 30 1013 25 10000 3.1 200 10:40 15.05.2020
3102 Clouds 30 1013 25 10000 3.1 200 10:21 15.05.2020
3103 Clouds 29 1013 30 10000 2.6 30 09:58 15.05.2020
3104 Clouds 27 1014 34 10000 2.6 10 09:37 15.05.2020
3105 Clouds 26 1014 34 10000 2.6 300 09:18 15.05.2020
3106 Clouds 26 1014 34 10000 2.6 300 08:55 15.05.2020
3107 Clouds 25 1014 38 10000 2.1 360 08:37 15.05.2020
3108 Clouds 25 1014 38 10000 2.1 360 08:18 15.05.2020
3109 Clouds 23 1013 49 10000 2.6 350 07:42 15.05.2020
3110 Clouds 23 1013 49 10000 2.6 350 07:24 15.05.2020
3111 Clouds 20 1013 67 10000 3.1 40 06:35 15.05.2020
3112 Clouds 18 1014 68 10000 2.1 0 05:40 15.05.2020
3113 Clouds 19 1013 72 10000 2.6 80 04:25 15.05.2020
3114 Clouds 19 1013 68 10000 2.1 70 03:40 15.05.2020
3115 Clouds 20 1014 68 10000 4.6 80 01:38 15.05.2020
3116 Clouds 20 1014 68 10000 4.6 80 01:19 15.05.2020
3117 Clouds 20 1014 68 10000 5.7 100 00:44 15.05.2020
3118 Clouds 21 1014 60 10000 6.7 90 00:23 15.05.2020
3119 Clouds 22 1014 53 10000 6.7 110 23:42 14.05.2020
3120 Clouds 22 1014 53 10000 6.7 110 23:20 14.05.2020
3121 Clouds 22 1015 49 10000 3.6 50 22:55 14.05.2020
3122 Clouds 22 1014 49 10000 7.7 100 22:37 14.05.2020
3123 Clouds 23 1015 43 10000 7.2 120 22:18 14.05.2020
3124 Clouds 22 1015 49 10000 4.6 120 21:42 14.05.2020
3125 Clouds 22 1015 49 10000 4.6 120 21:42 14.05.2020
3126 Clouds 22 1015 49 10000 4.6 120 21:20 14.05.2020
3127 Clouds 23 1014 53 10000 6.2 100 20:58 14.05.2020
3128 Clouds 23 1014 49 10000 7.7 100 20:39 14.05.2020
3129 Clouds 24 1014 49 10000 7.7 100 20:20 14.05.2020
3130 Clouds 25 1014 53 10000 5.7 90 19:57 14.05.2020
3131 Clouds 26 1014 47 10000 4.1 100 19:38 14.05.2020
3132 Clouds 27 1014 47 10000 4.1 100 19:20 14.05.2020
3133 Clouds 28 1014 39 10000 4.1 100 18:57 14.05.2020
3134 Clouds 29 1014 30 10000 3.6 90 18:38 14.05.2020
3135 Clouds 30 1014 30 10000 3.6 90 18:19 14.05.2020
3136 Clouds 30 1014 30 10000 1.5 60 17:56 14.05.2020
3137 Clouds 30 1014 30 10000 1.5 60 17:56 14.05.2020
3138 Clouds 30 1014 25 10000 3.1 310 17:37 14.05.2020
3139 Clouds 30 1014 25 10000 3.1 310 17:18 14.05.2020
3140 Clouds 31 1013 22 10000 5.7 140 16:39 14.05.2020
3141 Clear 31 1013 22 10000 5.7 140 16:21 14.05.2020
3142 Clear 30 1013 27 10000 3.6 80 15:58 14.05.2020
3143 Clear 29 1014 32 10000 3.6 70 15:40 14.05.2020
3144 Clear 29 1014 32 10000 3.6 70 15:20 14.05.2020
3145 Clear 29 1014 32 10000 1.5 0 14:56 14.05.2020
3146 Clear 29 1014 30 10000 2.1 290 14:38 14.05.2020
3147 Clouds 29 1014 30 10000 2.1 290 14:19 14.05.2020
3148 Clouds 29 1014 30 10000 2.1 290 14:19 14.05.2020
3149 Clouds 28 1015 34 10000 2.6 40 13:55 14.05.2020
3150 Clouds 27 1016 39 10000 2.1 50 13:37 14.05.2020
3151 Clouds 27 1016 44 10000 2.1 50 13:18 14.05.2020
3152 Clouds 25 1016 44 10000 2.1 50 12:57 14.05.2020
3153 Clouds 27 1016 50 10000 3.1 80 12:37 14.05.2020
3154 Clouds 26 1016 50 10000 3.1 80 12:18 14.05.2020
3155 Clouds 25 1017 56 10000 2.1 0 11:55 14.05.2020
3156 Clouds 24 1017 60 10000 1.5 210 11:37 14.05.2020
3157 Clouds 23 1017 60 10000 1.5 210 11:19 14.05.2020
3158 Clouds 21 1017 68 10000 2.1 250 10:41 14.05.2020
3159 Clouds 21 1017 68 10000 2.1 250 10:41 14.05.2020
3160 Clouds 20 1017 68 10000 2.1 250 10:22 14.05.2020
3161 Clouds 20 1017 68 10000 1.5 170 09:43 14.05.2020
3162 Clouds 18 1017 72 10000 3.6 70 09:24 14.05.2020
3163 Clouds 17 1017 77 10000 2.1 130 08:56 14.05.2020
3164 Clouds 16 1018 82 10000 2.1 170 08:37 14.05.2020
3165 Clouds 16 1018 82 10000 2.1 170 08:18 14.05.2020
3166 Clouds 16 1018 82 10000 2.1 90 07:44 14.05.2020
3167 Clouds 15 1017 82 10000 2.1 110 07:21 14.05.2020
3168 Clouds 14 1017 87 10000 1.5 140 06:43 14.05.2020
3169 Clouds 14 1017 87 10000 1.5 140 06:23 14.05.2020
3170 Clouds 13 1017 82 10000 0.5 0 05:37 14.05.2020
3171 Clouds 14 1017 82 10000 3.1 120 04:45 14.05.2020
3172 Clouds 14 1017 77 10000 3.6 120 03:37 14.05.2020
3173 Clouds 15 1017 77 10000 6.2 100 02:57 14.05.2020
3174 Clouds 15 1018 72 10000 6.2 100 02:34 14.05.2020
3175 Clouds 15 1017 72 10000 7.2 100 01:48 14.05.2020
3176 Clouds 16 1018 72 10000 8.2 110 00:53 14.05.2020
3177 Clouds 17 1018 67 10000 7.7 110 00:27 14.05.2020
3178 Clouds 18 1018 63 10000 8.2 110 23:45 13.05.2020
3179 Clouds 18 1018 63 10000 8.2 120 23:23 13.05.2020
3180 Clouds 18 1018 68 10000 8.7 110 22:59 13.05.2020
3181 Clouds 18 1018 68 10000 7.2 110 22:40 13.05.2020
3182 Clear 18 1018 68 10000 7.2 110 22:21 13.05.2020
3183 Clear 18 1018 68 10000 7.2 110 22:21 13.05.2020
3184 Clear 19 1018 63 10000 7.2 110 21:57 13.05.2020
3185 Clear 19 1018 60 10000 8.2 120 21:39 13.05.2020
3186 Clouds 19 1018 60 10000 8.2 120 21:19 13.05.2020
3187 Clouds 20 1017 60 10000 8.7 120 20:42 13.05.2020
3188 Clouds 20 1017 60 10000 8.7 120 20:23 13.05.2020
3189 Clouds 21 1017 60 10000 9.3 100 19:57 13.05.2020
3190 Clouds 22 1017 53 10000 9.3 100 19:39 13.05.2020
3191 Clouds 22 1017 53 10000 9.3 100 19:21 13.05.2020
3192 Clouds 24 1017 47 10000 8.7 110 18:42 13.05.2020
3193 Clouds 25 1017 47 10000 8.7 110 18:21 13.05.2020
3194 Clouds 25 1017 44 10000 9.3 110 17:57 13.05.2020
3195 Clouds 25 1017 41 10000 7.7 110 17:37 13.05.2020
3196 Clouds 25 1017 41 10000 7.7 110 17:18 13.05.2020
3197 Clouds 25 1017 41 10000 7.7 110 17:18 13.05.2020
3198 Clouds 25 1017 41 10000 6.7 100 16:40 13.05.2020
3199 Clouds 26 1017 41 10000 6.7 100 16:19 13.05.2020
3200 Clouds 26 1017 41 10000 6.2 120 15:54 13.05.2020
3201 Clouds 26 1017 41 10000 5.7 130 15:36 13.05.2020
3202 Clouds 25 1017 41 10000 5.7 130 15:18 13.05.2020
3203 Clouds 26 1018 41 10000 2.1 0 14:41 13.05.2020
3204 Clouds 25 1018 41 10000 2.1 0 14:22 13.05.2020
3205 Clouds 24 1018 41 10000 2.6 0 13:58 13.05.2020
3206 Clouds 24 1019 41 10000 2.6 0 13:39 13.05.2020
3207 Clouds 24 1019 41 10000 2.6 0 13:39 13.05.2020
3208 Clouds 24 1019 41 10000 2.6 0 13:21 13.05.2020
3209 Clouds 23 1019 40 10000 1.5 0 12:57 13.05.2020
3210 Clouds 22 1019 46 10000 1.5 0 12:39 13.05.2020
3211 Clouds 22 1019 46 10000 1.5 0 12:18 13.05.2020
3212 Clouds 22 1020 43 10000 1 0 11:55 13.05.2020
3213 Clouds 21 1020 49 10000 2.1 20 11:36 13.05.2020
3214 Clouds 19 1020 55 10000 2.1 0 11:18 13.05.2020
3215 Clouds 19 1020 55 10000 2.1 0 10:56 13.05.2020
3216 Clouds 18 1020 63 10000 2.6 80 10:37 13.05.2020
3217 Clouds 18 1020 63 10000 2.6 80 10:18 13.05.2020
3218 Clear 17 1020 63 10000 1 0 09:41 13.05.2020
3219 Clear 17 1020 63 10000 1 0 09:23 13.05.2020
3220 Clouds 17 1020 63 10000 1 0 09:23 13.05.2020
3221 Clear 16 1020 67 10000 1 0 08:54 13.05.2020
3222 Clear 15 1020 72 10000 1.5 260 08:36 13.05.2020
3223 Clear 15 1020 72 10000 1.5 260 08:18 13.05.2020
3224 Clear 14 1020 71 10000 1 0 07:43 13.05.2020
3225 Clear 12 1020 81 10000 0.5 0 07:24 13.05.2020
3226 Clear 12 1020 81 10000 2.1 330 06:47 13.05.2020
3227 Clear 12 1019 87 10000 0.94 308 05:59 13.05.2020
3228 Clear 11 1018 87 10000 1 0 04:49 13.05.2020
3229 Clear 13 1018 76 10000 4.1 290 03:27 13.05.2020
3230 Clear 13 1018 87 10000 4.1 280 02:32 13.05.2020
3231 Clouds 14 1018 82 10000 3.1 280 01:36 13.05.2020
3232 Clouds 14 1018 82 10000 3.1 280 00:47 13.05.2020
3233 Clouds 15 1018 77 10000 2.6 290 00:20 13.05.2020
3234 Clouds 15 1017 72 10000 4.1 280 23:40 12.05.2020
3235 Clouds 15 1017 72 10000 4.1 280 23:40 12.05.2020
3236 Clouds 15 1017 72 10000 4.1 280 23:40 12.05.2020
3237 Clouds 15 1017 72 10000 4.1 280 23:21 12.05.2020
3238 Clouds 16 1017 67 10000 4.6 280 22:58 12.05.2020
3239 Clouds 15 1016 67 10000 3.6 270 22:39 12.05.2020
3240 Clear 15 1016 67 10000 3.6 270 22:20 12.05.2020
3241 Clear 16 1016 63 10000 3.1 250 21:55 12.05.2020
3242 Clear 16 1016 63 10000 4.6 270 21:37 12.05.2020
3243 Clear 16 1016 63 10000 4.6 270 21:18 12.05.2020
3244 Clouds 17 1015 59 10000 5.1 280 20:56 12.05.2020
3245 Clouds 17 1015 55 10000 4.6 280 20:38 12.05.2020
3246 Rain 17 1015 55 10000 4.6 280 20:20 12.05.2020
3247 Rain 18 1014 52 10000 7.7 290 19:56 12.05.2020
3248 Rain 18 1013 52 10000 9.3 280 19:37 12.05.2020
3249 Rain 19 1013 52 10000 9.3 280 19:18 12.05.2020
3250 Rain 22 1011 33 10000 5.1 310 18:42 12.05.2020
3251 Rain 23 1011 33 10000 5.1 310 18:23 12.05.2020
3252 Clouds 25 1010 31 10000 5.1 320 17:57 12.05.2020
3253 Clouds 26 1010 27 10000 5.1 300 17:38 12.05.2020
3254 Clouds 26 1010 27 10000 5.1 300 17:20 12.05.2020
3255 Clouds 26 1010 29 10000 6.2 310 16:42 12.05.2020
3256 Clouds 26 1010 31 10000 5.1 310 16:22 12.05.2020
3257 Clouds 26 1010 31 10000 5.7 310 15:56 12.05.2020
3258 Clouds 26 1010 21 10000 6.2 290 15:36 12.05.2020
3259 Clouds 26 1010 21 10000 6.2 290 15:18 12.05.2020
3260 Clouds 27 1009 21 10000 5.7 300 14:55 12.05.2020
3261 Clouds 26 1009 29 10000 5.7 300 14:36 12.05.2020
3262 Clouds 26 1009 29 10000 5.7 300 14:18 12.05.2020
3263 Clouds 26 1009 31 10000 6.2 310 13:55 12.05.2020
3264 Clouds 26 1009 24 10000 7.2 280 13:36 12.05.2020
3265 Clouds 26 1009 24 10000 7.2 280 13:18 12.05.2020
3266 Clouds 25 1009 27 10000 6.2 270 12:55 12.05.2020
3267 Clouds 24 1009 31 10000 7.2 280 12:37 12.05.2020
3268 Clouds 24 1009 31 10000 7.2 280 12:37 12.05.2020
3269 Clouds 24 1009 31 10000 7.2 280 12:18 12.05.2020
3270 Clouds 25 1009 31 10000 7.7 270 11:56 12.05.2020
3271 Clouds 25 1009 33 10000 5.7 290 11:37 12.05.2020
3272 Clouds 25 1009 33 10000 5.7 290 11:19 12.05.2020
3273 Clouds 24 1009 36 10000 5.1 300 10:54 12.05.2020
3274 Clear 22 1009 46 10000 4.1 330 10:36 12.05.2020
3275 Clear 22 1009 46 10000 4.1 330 10:18 12.05.2020
3276 Clear 22 1009 46 10000 4.1 330 10:18 12.05.2020
3277 Clear 22 1009 43 10000 4.6 320 09:54 12.05.2020
3278 Clear 22 1009 43 10000 5.7 320 09:36 12.05.2020
3279 Clear 22 1009 43 10000 5.7 320 09:18 12.05.2020
3280 Clear 20 1009 45 10000 5.7 310 08:39 12.05.2020
3281 Clear 20 1009 45 10000 5.7 310 08:19 12.05.2020
3282 Clear 19 1008 52 10000 6.2 300 07:44 12.05.2020
3283 Clear 19 1008 52 10000 6.2 300 07:25 12.05.2020
3284 Clear 18 1008 52 10000 5.1 310 06:50 12.05.2020
3285 Clear 17 1007 55 10000 2.1 250 06:29 12.05.2020
3286 Clear 17 1007 51 10000 1 0 05:59 12.05.2020
3287 Clear 16 1007 63 10000 3.1 10 05:41 12.05.2020
3288 Clear 17 1006 59 10000 2.6 0 03:43 12.05.2020
3289 Clear 18 1007 63 10000 2.6 0 02:53 12.05.2020
3290 Clouds 18 1007 63 10000 3.1 30 02:25 12.05.2020
3291 Clouds 19 1007 59 10000 2.6 0 01:27 12.05.2020
3292 Clouds 20 1008 60 10000 4.6 120 00:37 12.05.2020
3293 Clouds 19 1008 60 10000 4.6 120 00:18 12.05.2020
3294 Clouds 20 1008 56 10000 5.1 100 23:42 11.05.2020
3295 Clouds 20 1008 56 10000 5.1 100 23:21 11.05.2020
3296 Clouds 21 1008 52 10000 5.1 90 22:59 11.05.2020
3297 Clouds 20 1008 52 10000 5.1 110 22:41 11.05.2020
3298 Clouds 21 1008 52 10000 5.1 110 22:20 11.05.2020
3299 Clouds 21 1008 52 10000 6.7 110 21:59 11.05.2020
3300 Clouds 22 1008 43 10000 3.6 100 21:40 11.05.2020
3301 Clouds 22 1008 43 10000 3.6 100 21:19 11.05.2020
3302 Clouds 23 1008 35 10000 5.1 80 20:59 11.05.2020
3303 Clouds 25 1008 27 10000 4.1 180 20:40 11.05.2020
3304 Clouds 25 1008 27 10000 4.1 180 20:21 11.05.2020
3305 Clouds 25 1008 29 10000 3.6 160 19:56 11.05.2020
3306 Clouds 27 1009 28 10000 3.6 160 19:38 11.05.2020
3307 Clouds 27 1009 28 10000 3.6 160 19:20 11.05.2020
3308 Clouds 28 1009 24 10000 2.1 190 18:56 11.05.2020
3309 Clouds 29 1009 20 10000 4.1 230 18:37 11.05.2020
3310 Clouds 29 1009 20 10000 4.1 230 18:18 11.05.2020
3311 Clouds 29 1009 21 10000 4.1 220 17:55 11.05.2020
3312 Clouds 29 1010 20 10000 3.1 180 17:36 11.05.2020
3313 Clouds 29 1010 20 10000 3.1 180 17:36 11.05.2020
3314 Clouds 29 1010 20 10000 3.1 180 17:18 11.05.2020
3315 Clouds 30 1009 19 10000 5.1 210 16:42 11.05.2020
3316 Clouds 30 1009 19 10000 5.1 210 16:22 11.05.2020
3317 Clouds 30 1010 19 10000 7.2 260 15:58 11.05.2020
3318 Clouds 29 1010 20 10000 4.6 290 15:39 11.05.2020
3319 Clouds 29 1010 20 10000 4.6 290 15:19 11.05.2020
3320 Clouds 30 1010 20 10000 4.1 260 14:55 11.05.2020
3321 Clouds 29 1010 23 10000 1.5 0 14:37 11.05.2020
3322 Clouds 29 1010 23 10000 1.5 0 14:18 11.05.2020
3323 Clouds 28 1011 23 10000 2.1 0 13:41 11.05.2020
3324 Clouds 28 1011 23 10000 2.1 0 13:19 11.05.2020
3325 Clouds 27 1011 26 10000 2.6 310 12:58 11.05.2020
3326 Clouds 26 1011 31 10000 1.5 0 12:40 11.05.2020
3327 Clouds 26 1011 31 10000 1.5 0 12:21 11.05.2020
3328 Clouds 25 1012 33 10000 1.5 0 11:56 11.05.2020
3329 Clouds 25 1012 38 10000 2.1 10 11:38 11.05.2020
3330 Clouds 25 1012 38 10000 2.1 10 11:19 11.05.2020
3331 Clouds 23 1012 43 10000 1.5 360 10:55 11.05.2020
3332 Clouds 23 1013 46 10000 2.6 50 10:37 11.05.2020
3333 Clouds 23 1013 46 10000 2.6 50 10:18 11.05.2020
3334 Clouds 22 1013 49 10000 1.5 0 09:54 11.05.2020
3335 Clouds 21 1013 56 10000 1 0 09:36 11.05.2020
3336 Clear 21 1013 56 10000 1 0 09:18 11.05.2020
3337 Clear 19 1014 59 10000 1 0 08:39 11.05.2020
3338 Clouds 19 1014 59 10000 1 0 08:19 11.05.2020
3339 Clouds 18 1014 68 10000 0.5 0 07:50 11.05.2020
3340 Clouds 16 1013 77 10000 1.5 130 07:32 11.05.2020
3341 Clouds 14 1013 87 10000 1.5 90 06:54 11.05.2020
3342 Clouds 15 1014 82 10000 0.5 0 06:31 11.05.2020
3343 Clouds 15 1013 77 10000 1 0 05:31 11.05.2020
3344 Clouds 15 1013 77 10000 2.1 130 04:58 11.05.2020
3345 Clouds 16 1014 77 10000 2.1 310 03:46 11.05.2020
3346 Clouds 16 1014 72 10000 2.1 200 02:35 11.05.2020
3347 Clouds 16 1014 72 10000 1.5 70 01:47 11.05.2020
3348 Rain 16 1015 72 10000 2.1 190 00:54 11.05.2020
3349 Clouds 16 1015 67 10000 1 0 00:24 11.05.2020
3350 Clouds 17 1015 72 10000 1.5 60 23:46 10.05.2020
3351 Clouds 17 1014 67 10000 1.5 80 23:27 10.05.2020
3352 Clouds 17 1014 67 10000 1.5 90 22:59 10.05.2020
3353 Clouds 18 1014 59 10000 1.5 130 22:41 10.05.2020
3354 Clouds 18 1014 59 10000 1.5 130 22:23 10.05.2020
3355 Clouds 19 1014 55 10000 4.1 90 21:44 10.05.2020
3356 Clouds 19 1014 59 10000 4.1 80 21:21 10.05.2020
3357 Clouds 19 1014 59 10000 4.1 80 21:21 10.05.2020
3358 Clouds 20 1013 56 10000 4.6 80 20:56 10.05.2020
3359 Clouds 20 1013 56 10000 4.6 70 20:38 10.05.2020
3360 Clouds 20 1013 56 10000 4.6 70 20:20 10.05.2020
3361 Clouds 22 1013 49 10000 4.6 60 19:54 10.05.2020
3362 Clouds 23 1013 46 10000 5.1 50 19:36 10.05.2020
3363 Clouds 23 1013 46 10000 5.1 50 19:18 10.05.2020
3364 Clouds 24 1012 36 10000 2.6 30 18:54 10.05.2020
3365 Clouds 25 1012 27 10000 4.1 240 18:36 10.05.2020
3366 Clouds 25 1012 27 10000 4.1 240 18:18 10.05.2020
3367 Clouds 26 1012 29 10000 6.2 270 17:41 10.05.2020
3368 Clouds 27 1012 29 10000 6.2 270 17:22 10.05.2020
3369 Clouds 27 1012 26 10000 4.1 250 16:59 10.05.2020
3370 Clouds 27 1012 26 10000 3.6 0 16:41 10.05.2020
3371 Clouds 27 1012 26 10000 3.6 0 16:19 10.05.2020
3372 Clouds 27 1013 26 10000 1 0 15:55 10.05.2020
3373 Clouds 28 1013 24 10000 2.1 0 15:36 10.05.2020
3374 Clouds 28 1013 24 10000 2.1 0 15:18 10.05.2020
3375 Clouds 27 1013 27 10000 1.5 0 14:39 10.05.2020
3376 Clear 26 1013 29 10000 2.1 0 14:20 10.05.2020
3377 Clear 27 1013 27 10000 1.5 0 14:20 10.05.2020
3378 Clear 27 1013 29 10000 2.1 0 13:59 10.05.2020
3379 Clear 27 1013 29 10000 2.1 0 13:59 10.05.2020
3380 Clear 27 1013 29 10000 2.1 0 13:59 10.05.2020
3381 Clear 26 1014 29 10000 1.5 0 13:39 10.05.2020
3382 Clear 25 1014 29 10000 1.5 0 13:21 10.05.2020
3383 Clear 24 1014 36 10000 1.5 0 12:58 10.05.2020
3384 Clear 23 1015 35 10000 2.1 10 12:40 10.05.2020
3385 Clear 23 1015 35 10000 2.1 10 12:21 10.05.2020
3386 Clear 22 1015 35 10000 1.5 0 11:58 10.05.2020
3387 Clear 21 1015 43 10000 1 0 11:39 10.05.2020
3388 Clear 21 1015 43 10000 1 0 11:20 10.05.2020
3389 Clear 21 1015 43 10000 1 0 11:20 10.05.2020
3390 Clear 20 1016 45 10000 1 0 10:47 10.05.2020
3391 Clear 19 1016 45 10000 0.5 0 10:29 10.05.2020
3392 Clear 17 1016 51 10000 1 0 09:59 10.05.2020
3393 Clear 21 1016 59 10000 1 0 09:40 10.05.2020
3394 Clear 16 1016 59 10000 1 0 09:21 10.05.2020
3395 Clear 15 1016 58 10000 1 0 08:51 10.05.2020
3396 Clear 14 1016 58 10000 0.5 0 08:24 10.05.2020
3397 Clear 12 1016 66 10000 0.54 293 07:45 10.05.2020
3398 Clear 12 1016 66 10000 0.25 279 07:21 10.05.2020
3399 Clear 9 1016 81 10000 1 90 06:58 10.05.2020
3400 Clear 7 1016 87 10000 1 0 06:35 10.05.2020
3401 Clear 8 1016 93 10000 1 320 05:52 10.05.2020
3402 Clear 7 1015 87 10000 1 320 04:58 10.05.2020
3403 Clear 8 1015 87 10000 1 0 04:38 10.05.2020
3404 Clear 8 1015 87 10000 1 0 04:20 10.05.2020
3405 Clear 9 1015 87 10000 1.5 280 03:39 10.05.2020
3406 Clear 9 1015 81 10000 0.37 149 02:50 10.05.2020
3407 Clear 9 1015 81 10000 1 0 02:22 10.05.2020
3408 Clear 11 1015 71 10000 1.5 170 01:42 10.05.2020
3409 Clear 11 1015 71 10000 1.5 170 01:20 10.05.2020
3410 Clear 11 1015 66 10000 2.1 180 00:55 10.05.2020
3411 Clear 10 1015 71 10000 1.5 170 00:26 10.05.2020
3412 Clear 11 1015 71 10000 1.5 140 23:59 09.05.2020
3413 Clear 12 1015 66 10000 2.1 160 23:39 09.05.2020
3414 Clear 12 1015 66 10000 2.1 160 23:20 09.05.2020
3415 Clear 13 1015 62 10000 2.1 110 22:43 09.05.2020
3416 Clear 14 1015 58 10000 1 110 22:24 09.05.2020
3417 Clear 14 1015 54 10000 1 170 21:58 09.05.2020
3418 Clear 14 1015 54 10000 1 170 21:58 09.05.2020
3419 Clear 15 1014 51 10000 1 0 21:40 09.05.2020
3420 Clear 15 1014 51 10000 1 0 21:21 09.05.2020
3421 Clear 17 1014 45 10000 2.1 190 20:58 09.05.2020
3422 Clear 18 1014 45 10000 1.5 180 20:38 09.05.2020
3423 Clouds 18 1014 45 10000 1.5 180 20:20 09.05.2020
3424 Clouds 20 1014 35 10000 2.1 30 19:56 09.05.2020
3425 Clouds 22 1014 33 10000 2.6 30 19:38 09.05.2020
3426 Clouds 22 1014 33 10000 2.6 30 19:18 09.05.2020
3427 Clouds 23 1014 31 10000 3.1 340 18:43 09.05.2020
3428 Clouds 24 1013 25 10000 4.1 300 18:24 09.05.2020
3429 Clouds 25 1014 23 10000 3.6 310 17:46 09.05.2020
3430 Clouds 25 1014 23 10000 3.6 310 17:23 09.05.2020
3431 Clouds 25 1014 23 10000 4.1 310 16:57 09.05.2020
3432 Clouds 25 1014 22 10000 4.6 310 16:38 09.05.2020
3433 Clouds 25 1014 22 10000 4.6 310 16:19 09.05.2020
3434 Clouds 25 1014 17 10000 4.6 290 15:43 09.05.2020
3435 Clouds 25 1014 17 10000 4.6 290 15:22 09.05.2020
3436 Clouds 25 1015 22 10000 4.1 320 14:56 09.05.2020
3437 Clouds 24 1015 25 10000 3.1 320 14:37 09.05.2020
3438 Clouds 24 1015 25 10000 3.1 320 14:18 09.05.2020
3439 Clouds 23 1016 28 10000 5.1 260 13:55 09.05.2020
3440 Clouds 22 1016 33 10000 4.6 290 13:37 09.05.2020
3441 Clear 22 1016 33 10000 4.6 290 13:18 09.05.2020
3442 Clear 21 1017 40 10000 2.1 0 12:39 09.05.2020
3443 Clear 21 1017 40 10000 2.1 0 12:21 09.05.2020
3444 Clear 18 1018 45 10000 1.5 0 11:45 09.05.2020
3445 Clear 18 1018 45 10000 1.5 0 11:20 09.05.2020
3446 Clear 17 1018 42 10000 1.5 330 10:55 09.05.2020
3447 Clear 16 1018 44 10000 1 0 10:37 09.05.2020
3448 Clear 16 1018 44 10000 1 0 10:19 09.05.2020
3449 Clear 14 1019 47 10000 1 0 09:44 09.05.2020
3450 Clear 13 1019 50 10000 1 0 09:20 09.05.2020
3451 Clear 12 1019 58 10000 1 0 08:57 09.05.2020
3452 Clear 11 1019 62 10000 1 0 08:38 09.05.2020
3453 Clear 11 1019 62 10000 1 0 08:20 09.05.2020
3454 Clear 9 1019 66 10000 1 0 07:44 09.05.2020
3455 Clear 8 1019 70 10000 0.51 279 07:25 09.05.2020
3456 Clear 5 1019 86 10000 1 0 06:40 09.05.2020
3457 Clear 5 1019 86 10000 1 0 06:18 09.05.2020
3458 Clear 5 1019 86 10000 0.5 0 05:39 09.05.2020
3459 Clear 6 1019 75 10000 1 0 03:40 09.05.2020
3460 Clear 7 1019 81 10000 1 0 02:54 09.05.2020
3461 Clear 7 1019 81 10000 2.1 160 02:30 09.05.2020
3462 Clouds 7 1019 81 10000 3.1 140 01:50 09.05.2020
3463 Clouds 8 1019 75 10000 2.6 170 01:22 09.05.2020
3464 Clouds 9 1019 70 10000 3.1 140 00:43 09.05.2020
3465 Clouds 9 1019 70 10000 1.5 120 00:19 09.05.2020
3466 Clouds 9 1019 70 10000 1.5 120 23:44 08.05.2020
3467 Clouds 11 1019 62 10000 2.6 110 23:25 08.05.2020
3468 Clouds 12 1019 54 10000 1.5 30 22:56 08.05.2020
3469 Clouds 13 1019 44 10000 3.6 280 22:38 08.05.2020
3470 Clouds 13 1019 44 10000 3.6 280 22:19 08.05.2020
3471 Clouds 13 1019 54 10000 3.1 280 21:55 08.05.2020
3472 Clouds 14 1019 44 10000 2.6 280 21:36 08.05.2020
3473 Clouds 14 1019 44 10000 2.6 280 21:18 08.05.2020
3474 Clouds 15 1019 47 10000 2.6 290 20:55 08.05.2020
3475 Clouds 17 1019 33 10000 4.1 290 20:37 08.05.2020
3476 Clouds 16 1019 33 10000 4.1 290 20:19 08.05.2020
3477 Clouds 18 1018 34 10000 4.1 300 19:42 08.05.2020
3478 Clouds 19 1018 34 10000 4.1 300 19:21 08.05.2020
3479 Clouds 19 1018 34 10000 4.6 300 18:46 08.05.2020
3480 Clouds 19 1018 34 10000 4.6 300 18:46 08.05.2020
3481 Clouds 20 1018 32 10000 4.6 290 18:28 08.05.2020
3482 Clouds 20 1018 34 10000 4.1 290 17:43 08.05.2020
3483 Clouds 20 1018 34 10000 4.1 290 17:20 08.05.2020
3484 Clouds 20 1018 34 10000 3.6 300 16:56 08.05.2020
3485 Clouds 20 1018 32 10000 4.1 280 16:38 08.05.2020
3486 Clouds 20 1018 32 10000 4.1 280 16:19 08.05.2020
3487 Clouds 20 1018 32 10000 2.6 250 15:43 08.05.2020
3488 Clouds 20 1019 32 10000 5.7 260 15:22 08.05.2020
3489 Clouds 19 1019 34 10000 3.6 280 14:57 08.05.2020
3490 Clouds 19 1019 34 10000 3.1 0 14:39 08.05.2020
3491 Clouds 19 1019 34 10000 3.1 0 14:19 08.05.2020
3492 Clouds 19 1019 34 10000 3.1 270 13:56 08.05.2020
3493 Clouds 18 1019 36 10000 4.6 260 13:37 08.05.2020
3494 Clouds 18 1019 36 10000 4.6 260 13:18 08.05.2020
3495 Clouds 17 1020 39 10000 5.7 270 12:42 08.05.2020
3496 Clouds 17 1020 39 10000 5.7 270 12:23 08.05.2020
3497 Clouds 17 1020 39 10000 4.1 250 11:54 08.05.2020
3498 Clouds 16 1020 38 10000 3.1 280 11:36 08.05.2020
3499 Clouds 16 1020 38 10000 3.1 280 11:18 08.05.2020
3500 Clouds 15 1020 38 10000 3.6 300 10:42 08.05.2020
3501 Clouds 15 1020 38 10000 3.6 300 10:20 08.05.2020
3502 Clouds 14 1021 50 10000 5.1 300 09:58 08.05.2020
3503 Clouds 13 1021 50 10000 6.2 290 09:39 08.05.2020
3504 Clouds 13 1021 50 10000 6.2 290 09:18 08.05.2020
3505 Clouds 13 1021 54 10000 3.1 320 08:45 08.05.2020
3506 Clouds 10 1021 66 10000 2.6 320 08:22 08.05.2020
3507 Clouds 8 1021 70 10000 1.5 330 07:43 08.05.2020
3508 Clouds 6 1021 75 10000 1.5 270 07:25 08.05.2020
3509 Clouds 3 1020 93 10000 1.5 10 06:51 08.05.2020
3510 Clouds 3 1020 93 10000 1.5 10 06:24 08.05.2020
3511 Clouds 3 1020 86 10000 1 0 05:51 08.05.2020
3512 Clouds 7 1020 75 10000 2.1 310 04:38 08.05.2020
3513 Clouds 6 1020 75 10000 2.6 320 02:34 08.05.2020
3514 Clouds 6 1020 75 10000 2.1 330 01:53 08.05.2020
3515 Clouds 6 1020 75 10000 2.1 20 01:28 08.05.2020
3516 Clouds 6 1020 75 10000 2.1 10 00:53 08.05.2020
3517 Clouds 7 1020 75 10000 2.1 360 00:30 08.05.2020
3518 Clouds 8 1020 65 10000 3.1 290 23:59 07.05.2020
3519 Clouds 9 1020 65 10000 3.1 280 23:40 07.05.2020
3520 Clouds 9 1020 65 10000 3.1 280 23:40 07.05.2020
3521 Clouds 9 1020 65 10000 3.1 280 23:40 07.05.2020
3522 Clouds 9 1020 65 10000 3.1 280 23:21 07.05.2020
3523 Clouds 10 1020 57 10000 3.6 290 22:56 07.05.2020
3524 Clouds 11 1020 53 10000 4.6 280 22:38 07.05.2020
3525 Clouds 11 1020 53 10000 4.6 280 22:19 07.05.2020
3526 Clouds 11 1019 50 10000 4.1 290 21:55 07.05.2020
3527 Clouds 12 1019 50 10000 4.6 280 21:36 07.05.2020
3528 Clouds 12 1019 50 10000 4.6 280 21:18 07.05.2020
3529 Clouds 12 1018 50 10000 5.1 290 20:42 07.05.2020
3530 Clouds 12 1018 50 10000 5.1 290 20:22 07.05.2020
3531 Clouds 13 1017 50 10000 6.2 280 19:54 07.05.2020
3532 Clouds 13 1017 47 10000 7.2 290 19:36 07.05.2020
3533 Clouds 14 1017 47 10000 7.2 290 19:18 07.05.2020
3534 Clouds 14 1017 50 10000 7.7 280 18:43 07.05.2020
3535 Clouds 15 1016 47 10000 6.2 290 18:25 07.05.2020
3536 Clouds 15 1016 47 10000 6.2 300 17:43 07.05.2020
3537 Clouds 15 1016 44 10000 6.2 290 17:21 07.05.2020
3538 Clouds 15 1016 51 10000 6.2 280 16:59 07.05.2020
3539 Clouds 14 1016 50 10000 4.6 300 16:40 07.05.2020
3540 Clouds 14 1016 50 10000 4.6 300 16:18 07.05.2020
3541 Clouds 14 1016 50 10000 4.6 300 16:18 07.05.2020
3542 Clouds 15 1016 50 10000 4.6 290 15:55 07.05.2020
3543 Clouds 15 1016 50 10000 6.2 300 15:37 07.05.2020
3544 Clouds 15 1016 50 10000 6.2 300 15:18 07.05.2020
3545 Clouds 14 1016 47 10000 6.2 300 14:43 07.05.2020
3546 Clouds 15 1016 44 10000 5.1 290 14:20 07.05.2020
3547 Clouds 15 1016 50 10000 6.2 280 13:44 07.05.2020
3548 Clouds 14 1016 50 10000 6.2 280 13:25 07.05.2020
3549 Clouds 14 1016 47 10000 7.7 280 12:45 07.05.2020
3550 Clouds 14 1016 50 10000 7.7 280 12:20 07.05.2020
3551 Clouds 13 1015 50 10000 6.2 290 11:59 07.05.2020
3552 Clouds 13 1016 54 10000 7.7 290 11:39 07.05.2020
3553 Clouds 13 1016 54 10000 7.7 290 11:21 07.05.2020
3554 Clouds 13 1016 54 10000 8.2 280 10:43 07.05.2020
3555 Clouds 12 1015 54 10000 8.2 290 10:24 07.05.2020
3556 Clouds 10 1016 61 10000 7.2 290 09:41 07.05.2020
3557 Clouds 10 1016 61 10000 7.2 290 09:20 07.05.2020
3558 Clouds 9 1016 66 10000 6.7 290 08:57 07.05.2020
3559 Clouds 9 1015 61 10000 6.7 290 08:39 07.05.2020
3560 Clouds 9 1015 61 10000 6.7 290 08:20 07.05.2020
3561 Clouds 8 1016 70 10000 3.1 330 07:46 07.05.2020
3562 Clouds 6 1015 75 10000 2.6 320 07:28 07.05.2020
3563 Clouds 4 1015 86 10000 2.6 310 06:52 07.05.2020
3564 Clouds 3 1015 86 10000 3.1 330 06:33 07.05.2020
3565 Clouds 5 1015 75 10000 3.6 290 05:32 07.05.2020
3566 Clouds 5 1016 76 10000 2.1 300 03:55 07.05.2020
3567 Clear 5 1016 75 10000 2.6 320 03:25 07.05.2020
3568 Clear 4 1016 93 10000 2.6 360 02:53 07.05.2020
3569 Clear 6 1016 75 10000 2.6 290 01:45 07.05.2020
3570 Clear 5 1016 80 10000 2.1 320 01:24 07.05.2020
3571 Clear 5 1016 86 10000 2.1 320 00:46 07.05.2020
3572 Clear 5 1016 86 10000 2.6 350 00:27 07.05.2020
3573 Clear 5 1016 86 10000 2.6 350 00:27 07.05.2020
3574 Clear 6 1016 80 10000 1.5 10 23:47 06.05.2020
3575 Clouds 6 1016 80 10000 2.6 360 23:26 06.05.2020
3576 Clouds 7 1015 70 10000 3.1 310 22:58 06.05.2020
3577 Clouds 7 1015 70 10000 4.6 280 22:40 06.05.2020
3578 Clouds 7 1015 70 10000 4.6 280 22:20 06.05.2020
3579 Clouds 7 1015 70 10000 4.6 280 21:57 06.05.2020
3580 Clouds 8 1015 70 10000 4.1 280 21:39 06.05.2020
3581 Clouds 8 1015 70 10000 4.1 280 21:20 06.05.2020
3582 Clouds 8 1015 70 10000 4.6 280 20:43 06.05.2020
3583 Clouds 8 1014 70 10000 5.1 280 20:24 06.05.2020
3584 Clouds 8 1014 70 10000 5.7 260 19:59 06.05.2020
3585 Clouds 8 1014 70 10000 6.7 270 19:39 06.05.2020
3586 Clouds 8 1014 70 10000 6.7 270 19:20 06.05.2020
3587 Clouds 9 1013 70 10000 4.6 270 18:59 06.05.2020
3588 Clouds 9 1013 70 10000 4.6 270 18:59 06.05.2020
3589 Clouds 9 1014 70 10000 5.1 280 18:40 06.05.2020
3590 Clouds 9 1014 70 10000 5.1 280 18:40 06.05.2020
3591 Clouds 9 1014 70 10000 5.1 280 18:21 06.05.2020
3592 Clouds 9 1014 70 10000 4.6 280 17:59 06.05.2020
3593 Clouds 9 1014 70 10000 6.7 270 17:39 06.05.2020
3594 Clouds 9 1014 70 10000 6.7 270 17:21 06.05.2020
3595 Clouds 9 1015 81 10000 6.7 260 16:58 06.05.2020
3596 Rain 8 1015 87 10000 6.2 240 16:40 06.05.2020
3597 Rain 7 1015 87 10000 6.2 240 16:21 06.05.2020
3598 Rain 7 1015 87 7000 6.7 250 15:58 06.05.2020
3599 Rain 7 1015 87 8000 6.2 280 15:40 06.05.2020
3600 Rain 7 1015 87 8000 6.2 280 15:20 06.05.2020
3601 Rain 8 1015 87 8000 5.7 280 14:45 06.05.2020
3602 Rain 9 1015 81 10000 6.2 280 14:20 06.05.2020
3603 Rain 8 1015 87 10000 5.1 280 13:59 06.05.2020
3604 Rain 9 1015 81 10000 5.1 280 13:41 06.05.2020
3605 Rain 8 1015 81 10000 5.1 280 13:22 06.05.2020
3606 Rain 9 1015 81 8000 3.6 280 12:54 06.05.2020
3607 Rain 9 1015 81 10000 3.1 280 12:36 06.05.2020
3608 Rain 9 1015 81 10000 3.1 280 12:18 06.05.2020
3609 Rain 9 1014 76 10000 4.1 310 11:40 06.05.2020
3610 Rain 9 1014 76 10000 4.1 310 11:21 06.05.2020
3611 Rain 10 1014 76 10000 3.1 300 10:56 06.05.2020
3612 Rain 11 1013 81 10000 4.6 310 10:37 06.05.2020
3613 Rain 11 1013 81 10000 4.6 310 10:18 06.05.2020
3614 Clouds 13 1012 62 10000 6.2 320 09:41 06.05.2020
3615 Clouds 14 1012 62 10000 6.2 320 09:22 06.05.2020
3616 Clouds 14 1011 67 10000 5.1 310 08:45 06.05.2020
3617 Clouds 14 1011 67 10000 5.1 310 08:22 06.05.2020
3618 Clouds 14 1011 67 10000 5.7 300 07:58 06.05.2020
3619 Clouds 14 1011 62 10000 4.6 300 07:39 06.05.2020
3620 Clouds 14 1011 62 10000 4.6 300 07:20 06.05.2020
3621 Clouds 13 1011 62 10000 3.6 300 06:49 06.05.2020
3622 Clouds 13 1011 62 10000 3.1 310 06:21 06.05.2020
3623 Clouds 13 1011 66 10000 3.6 310 05:51 06.05.2020
3624 Clouds 13 1010 71 10000 1 0 05:32 06.05.2020
3625 Clouds 12 1011 76 10000 1.53 243 04:22 06.05.2020
3626 Clouds 13 1011 66 10000 2.6 140 03:36 06.05.2020
3627 Clouds 13 1011 71 10000 1 0 02:58 06.05.2020
3628 Clouds 12 1011 76 10000 1 0 02:28 06.05.2020
3629 Clouds 12 1011 71 10000 1.34 273 01:53 06.05.2020
3630 Clouds 12 1012 71 10000 2.1 360 01:27 06.05.2020
3631 Clouds 12 1012 66 10000 1 0 00:45 06.05.2020
3632 Clouds 13 1012 66 10000 0.5 0 00:23 06.05.2020
3633 Clouds 14 1011 58 10000 2.1 160 23:42 05.05.2020
3634 Clouds 14 1011 58 10000 2.1 160 23:20 05.05.2020
3635 Clouds 13 1012 62 10000 1.5 130 22:57 05.05.2020
3636 Clouds 13 1012 62 10000 2.1 140 22:39 05.05.2020
3637 Clouds 14 1012 62 10000 2.1 140 22:19 05.05.2020
3638 Clouds 14 1012 58 10000 3.1 100 21:55 05.05.2020
3639 Clouds 16 1012 39 10000 2.1 200 21:37 05.05.2020
3640 Clouds 16 1012 39 10000 2.1 200 21:19 05.05.2020
3641 Clouds 16 1012 42 10000 1.5 220 20:42 05.05.2020
3642 Clouds 17 1012 42 10000 1.5 220 20:20 05.05.2020
3643 Clouds 17 1012 42 10000 1.5 220 20:20 05.05.2020
3644 Clouds 17 1012 42 10000 2.1 290 20:00 05.05.2020
3645 Clouds 18 1012 39 10000 2.1 290 19:41 05.05.2020
3646 Clouds 18 1012 39 10000 2.1 290 19:23 05.05.2020
3647 Clouds 20 1012 32 10000 3.1 320 18:57 05.05.2020
3648 Clouds 20 1012 32 10000 4.6 310 18:39 05.05.2020
3649 Clear 20 1012 32 10000 4.6 310 18:19 05.05.2020
3650 Clear 20 1013 32 10000 5.1 310 17:57 05.05.2020
3651 Clear 21 1013 30 10000 5.7 310 17:38 05.05.2020
3652 Clear 21 1013 30 10000 5.7 310 17:20 05.05.2020
3653 Clear 21 1013 30 10000 6.2 310 16:39 05.05.2020
3654 Clear 21 1013 30 10000 6.2 310 16:20 05.05.2020
3655 Clear 21 1013 32 10000 4.6 310 15:58 05.05.2020
3656 Clear 21 1013 30 10000 5.1 310 15:39 05.05.2020
3657 Clouds 21 1013 30 10000 5.1 310 15:21 05.05.2020
3658 Clouds 21 1013 30 10000 5.1 310 15:21 05.05.2020
3659 Clouds 20 1013 30 10000 3.6 320 14:55 05.05.2020
3660 Clouds 20 1014 32 10000 4.1 310 14:37 05.05.2020
3661 Clouds 20 1014 32 10000 4.1 310 14:18 05.05.2020
3662 Clouds 19 1014 32 10000 4.6 320 13:55 05.05.2020
3663 Clouds 19 1014 32 10000 5.1 310 13:37 05.05.2020
3664 Clouds 19 1014 32 10000 5.1 310 13:18 05.05.2020
3665 Clouds 18 1015 33 10000 5.1 300 12:54 05.05.2020
3666 Clouds 18 1015 31 10000 3.6 300 12:36 05.05.2020
3667 Clouds 18 1015 31 10000 3.6 300 12:18 05.05.2020
3668 Clouds 15 1016 44 10000 4.1 300 11:40 05.05.2020
3669 Clear 15 1016 44 10000 4.1 300 11:19 05.05.2020
3670 Clear 15 1016 38 10000 5.1 310 10:55 05.05.2020
3671 Clear 15 1016 44 10000 5.1 310 10:37 05.05.2020
3672 Clear 15 1016 44 10000 5.1 310 10:18 05.05.2020
3673 Clear 13 1017 54 10000 1 0 09:44 05.05.2020
3674 Clear 13 1017 54 10000 1 0 09:26 05.05.2020
3675 Clear 11 1017 62 10000 1 0 08:58 05.05.2020
3676 Clear 10 1017 71 10000 1.5 20 08:39 05.05.2020
3677 Clear 10 1017 71 10000 1.5 20 08:18 05.05.2020
3678 Clear 8 1017 70 10000 1.5 340 07:43 05.05.2020
3679 Clear 7 1017 75 10000 1 0 07:21 05.05.2020
3680 Clear 5 1017 86 10000 1 0 06:57 05.05.2020
3681 Clear 3 1017 93 10000 1 300 06:39 05.05.2020
3682 Clear 6 1016 86 10000 1 0 05:53 05.05.2020
3683 Clear 6 1016 80 10000 3.1 340 04:58 05.05.2020
3684 Clear 7 1016 81 10000 2.6 310 02:37 05.05.2020
3685 Clouds 9 1016 66 10000 3.1 290 00:56 05.05.2020
3686 Clouds 9 1016 66 10000 3.1 290 00:56 05.05.2020
3687 Clouds 9 1016 70 10000 4.1 280 00:31 05.05.2020
3688 Clouds 10 1016 66 10000 4.6 280 23:48 04.05.2020
3689 Clouds 11 1016 62 10000 4.1 280 23:26 04.05.2020
3690 Clouds 11 1016 62 10000 4.6 270 22:59 04.05.2020
3691 Clouds 11 1016 62 10000 4.1 280 22:41 04.05.2020
3692 Clouds 11 1016 62 10000 4.1 280 22:22 04.05.2020
3693 Clouds 11 1016 62 10000 4.1 280 22:22 04.05.2020
3694 Clouds 12 1016 58 10000 3.6 280 21:57 04.05.2020
3695 Clouds 12 1016 58 10000 5.1 290 21:37 04.05.2020
3696 Clouds 12 1016 58 10000 5.1 290 21:19 04.05.2020
3697 Clouds 12 1016 58 10000 5.1 290 21:19 04.05.2020
3698 Clouds 12 1015 58 10000 5.1 290 20:41 04.05.2020
3699 Clouds 12 1015 58 10000 5.1 290 20:41 04.05.2020
3700 Clouds 12 1015 58 10000 5.1 290 20:41 04.05.2020
3701 Clouds 12 1015 58 10000 5.1 290 20:41 04.05.2020
3702 Clouds 12 1015 58 10000 5.1 290 20:41 04.05.2020
3703 Clouds 12 1015 58 10000 5.1 290 20:20 04.05.2020
3704 Clouds 12 1015 54 10000 5.1 290 19:55 04.05.2020
3705 Clouds 13 1014 54 10000 5.1 290 19:37 04.05.2020
3706 Clouds 13 1014 54 10000 5.1 290 19:18 04.05.2020
3707 Clouds 13 1014 54 10000 5.1 290 18:39 04.05.2020
3708 Clouds 13 1014 54 10000 5.1 290 18:20 04.05.2020
3709 Clouds 13 1014 54 10000 5.7 290 17:56 04.05.2020
3710 Clouds 13 1014 54 10000 5.7 300 17:37 04.05.2020
3711 Clouds 13 1014 54 10000 5.7 300 17:19 04.05.2020
3712 Clouds 13 1014 54 10000 6.7 290 16:43 04.05.2020
3713 Clouds 13 1013 50 10000 7.2 290 16:23 04.05.2020
3714 Clouds 13 1013 50 10000 7.2 290 15:58 04.05.2020
3715 Clouds 13 1013 54 10000 7.7 290 15:39 04.05.2020
3716 Clouds 13 1013 54 10000 7.7 290 15:20 04.05.2020
3717 Clouds 14 1013 50 10000 6.7 300 14:48 04.05.2020
3718 Clouds 14 1013 50 10000 6.7 300 14:48 04.05.2020
3719 Clouds 14 1013 50 10000 6.7 300 14:48 04.05.2020
3720 Clouds 14 1013 50 10000 6.7 300 14:48 04.05.2020
3721 Clouds 13 1013 54 10000 6.7 300 14:20 04.05.2020
3722 Clouds 13 1013 50 10000 7.7 290 13:20 04.05.2020
3723 Clouds 13 1013 50 10000 7.7 290 13:20 04.05.2020
3724 Clouds 13 1013 50 10000 7.7 290 13:20 04.05.2020
3725 Clouds 13 1013 50 10000 7.7 290 13:20 04.05.2020
3726 Clouds 13 1013 50 10000 7.7 290 13:20 04.05.2020
3727 Clouds 13 1013 54 10000 7.7 290 12:43 04.05.2020
3728 Clouds 13 1013 54 10000 7.7 290 12:43 04.05.2020
3729 Clouds 13 1013 54 10000 7.7 290 12:43 04.05.2020
3730 Clouds 13 1013 54 10000 7.7 290 12:43 04.05.2020
3731 Clouds 13 1013 54 10000 7.7 290 12:43 04.05.2020
3732 Clouds 12 1012 54 10000 8.7 280 10:40 04.05.2020
3733 Clouds 12 1012 54 10000 8.7 280 10:40 04.05.2020
3734 Clouds 12 1012 54 10000 8.7 280 10:40 04.05.2020
3735 Clouds 12 1012 54 10000 8.7 280 10:40 04.05.2020
3736 Clouds 10 1012 66 10000 7.7 290 09:26 04.05.2020
3737 Clouds 10 1012 66 10000 7.7 290 09:26 04.05.2020
3738 Clouds 10 1012 66 10000 7.7 290 09:26 04.05.2020
3739 Clouds 10 1012 66 10000 7.7 290 09:26 04.05.2020
3740 Clouds 9 1012 70 10000 7.7 290 07:53 04.05.2020
3741 Clouds 9 1011 70 10000 5.7 290 07:33 04.05.2020
3742 Clouds 9 1011 70 10000 5.7 290 07:33 04.05.2020
3743 Clouds 9 1011 70 10000 5.7 290 07:33 04.05.2020
3744 Clouds 9 1011 70 10000 5.7 290 07:33 04.05.2020
3745 Clouds 9 1010 70 10000 5.7 280 05:18 04.05.2020
3746 Clouds 9 1010 70 10000 5.1 290 04:10 04.05.2020
3747 Clouds 9 1010 76 10000 6.2 280 02:38 04.05.2020
3748 Clouds 10 1011 71 10000 7.7 280 01:20 04.05.2020
3749 Clouds 10 1011 71 10000 6.7 280 23:58 03.05.2020
3750 Clouds 10 1011 71 10000 7.2 280 23:40 03.05.2020
3751 Clouds 10 1011 71 10000 7.2 280 23:22 03.05.2020
3752 Clouds 10 1012 71 10000 6.7 290 22:43 03.05.2020
3753 Clouds 10 1012 71 10000 6.7 290 22:43 03.05.2020
3754 Clouds 10 1012 71 10000 6.7 290 22:43 03.05.2020
3755 Clouds 10 1012 71 10000 6.7 290 22:22 03.05.2020
3756 Clouds 10 1012 71 10000 6.2 290 21:42 03.05.2020
3757 Clouds 10 1012 71 10000 6.2 290 21:42 03.05.2020
3758 Clouds 10 1012 71 10000 6.2 290 21:42 03.05.2020
3759 Clouds 10 1012 71 10000 6.2 290 21:22 03.05.2020
3760 Rain 10 1012 71 10000 7.2 290 20:54 03.05.2020
3761 Clouds 10 1011 66 10000 6.2 290 20:36 03.05.2020
3762 Clouds 11 1011 66 10000 6.2 290 20:18 03.05.2020
3763 Clouds 11 1011 71 10000 4.6 280 19:46 03.05.2020
3764 Clouds 10 1011 71 10000 6.2 290 19:26 03.05.2020
3765 Clouds 10 1011 71 10000 6.2 290 19:26 03.05.2020
3766 Clouds 11 1010 71 10000 7.2 280 18:40 03.05.2020
3767 Clouds 11 1010 71 10000 7.2 280 18:21 03.05.2020
3768 Clouds 12 1010 71 10000 6.7 280 17:58 03.05.2020
3769 Clouds 11 1010 76 10000 8.2 280 17:40 03.05.2020
3770 Clouds 11 1010 76 10000 8.2 280 17:20 03.05.2020
3771 Clouds 11 1010 76 10000 8.2 280 17:20 03.05.2020
3772 Clouds 12 1010 66 10000 5.7 280 16:44 03.05.2020
3773 Clouds 11 1009 76 10000 7.2 280 16:19 03.05.2020
3774 Rain 11 1009 76 10000 7.7 280 15:58 03.05.2020
3775 Rain 11 1009 76 10000 6.7 280 15:39 03.05.2020
3776 Rain 11 1009 76 10000 6.7 280 15:20 03.05.2020
3777 Rain 11 1009 81 10000 6.7 280 14:57 03.05.2020
3778 Rain 10 1009 87 8000 6.7 280 14:38 03.05.2020
3779 Rain 10 1009 87 8000 6.7 280 14:20 03.05.2020
3780 Rain 11 1009 87 8000 7.2 280 13:39 03.05.2020
3781 Rain 11 1008 87 10000 6.2 280 12:59 03.05.2020
3782 Rain 11 1008 87 10000 6.2 280 12:59 03.05.2020
3783 Rain 11 1008 87 10000 6.2 280 12:59 03.05.2020
3784 Rain 11 1008 87 10000 6.2 280 12:59 03.05.2020
3785 Rain 11 1008 81 8000 6.7 290 12:38 03.05.2020
3786 Clouds 12 1008 76 10000 6.7 290 11:58 03.05.2020
3787 Clouds 12 1008 81 10000 6.2 290 11:40 03.05.2020
3788 Clouds 12 1008 81 10000 6.2 290 11:21 03.05.2020
3789 Rain 12 1007 87 8000 5.1 290 10:55 03.05.2020
3790 Clouds 11 1007 87 10000 6.2 290 10:26 03.05.2020
3791 Clouds 12 1007 81 10000 5.7 280 09:45 03.05.2020
3792 Clouds 11 1007 81 10000 5.1 290 09:26 03.05.2020
3793 Clouds 11 1006 81 10000 5.1 290 08:36 03.05.2020
3794 Clouds 11 1006 81 10000 4.6 290 07:59 03.05.2020
3795 Clouds 11 1006 81 10000 4.6 280 07:38 03.05.2020
3796 Clouds 11 1006 81 10000 4.6 280 07:38 03.05.2020
3797 Clouds 11 1005 81 10000 5.1 290 06:00 03.05.2020
3798 Clouds 11 1005 81 10000 5.1 290 05:41 03.05.2020
3799 Clouds 11 1005 81 10000 6.2 280 04:28 03.05.2020
3800 Clouds 11 1006 81 10000 6.2 280 03:52 03.05.2020
3801 Rain 11 1006 81 10000 5.7 280 02:36 03.05.2020
3802 Rain 11 1006 81 10000 5.7 280 02:18 03.05.2020
3803 Rain 11 1006 81 10000 5.1 280 01:39 03.05.2020
3804 Rain 11 1006 81 10000 5.1 280 01:21 03.05.2020
3805 Clouds 11 1006 87 10000 5.1 280 00:40 03.05.2020
3806 Clouds 11 1006 87 10000 5.1 280 00:20 03.05.2020
3807 Clouds 11 1006 87 10000 5.1 280 00:20 03.05.2020
3808 Clouds 11 1006 87 10000 4.6 280 23:46 02.05.2020
3809 Rain 10 1006 93 8000 5.7 280 23:28 02.05.2020
3810 Rain 11 1006 87 7000 5.7 290 22:57 02.05.2020
3811 Rain 11 1006 87 7000 5.7 290 22:57 02.05.2020
3812 Clouds 12 1006 87 10000 1.5 260 22:39 02.05.2020
3813 Clouds 12 1006 87 10000 1.5 260 22:20 02.05.2020
3814 Clouds 12 1006 76 10000 2.26 293 21:41 02.05.2020
3815 Clouds 13 1006 76 10000 2.27 295 21:20 02.05.2020
3816 Clouds 13 1006 76 10000 2.27 295 20:58 02.05.2020
3817 Clouds 13 1005 76 10000 1 0 20:38 02.05.2020
3818 Clouds 13 1005 76 10000 1 0 20:20 02.05.2020
3819 Clouds 13 1005 76 10000 1.5 40 19:58 02.05.2020
3820 Clouds 14 1005 71 10000 2.1 360 19:39 02.05.2020
3821 Clouds 14 1005 71 10000 2.1 360 19:20 02.05.2020
3822 Clouds 15 1005 71 10000 2.1 360 18:56 02.05.2020
3823 Clouds 14 1005 76 10000 2.6 330 18:37 02.05.2020
3824 Clouds 15 1005 76 10000 2.6 330 18:19 02.05.2020
3825 Clouds 14 1005 76 10000 3.1 320 17:55 02.05.2020
3826 Clouds 14 1005 76 10000 3.1 320 17:55 02.05.2020
3827 Clouds 14 1006 82 10000 3.1 320 17:37 02.05.2020
3828 Clouds 13 1006 82 10000 3.1 320 17:19 02.05.2020
3829 Rain 13 1006 87 10000 4.6 310 16:43 02.05.2020
3830 Rain 12 1006 87 10000 6.2 310 16:25 02.05.2020
3831 Rain 13 1006 76 10000 7.2 300 15:44 02.05.2020
3832 Thunderstorm 14 1006 67 10000 7.7 310 15:21 02.05.2020
3833 Clouds 17 1005 48 10000 8.7 270 14:59 02.05.2020
3834 Clouds 20 1005 40 10000 2.1 0 14:41 02.05.2020
3835 Clouds 19 1005 40 10000 2.1 0 14:22 02.05.2020
3836 Clouds 21 1006 40 10000 2.6 0 13:41 02.05.2020
3837 Clouds 20 1006 40 10000 2.6 0 13:23 02.05.2020
3838 Clouds 20 1006 40 10000 3.6 310 12:56 02.05.2020
3839 Clouds 19 1007 45 10000 2.6 0 12:38 02.05.2020
3840 Clouds 19 1007 45 10000 2.6 0 12:20 02.05.2020
3841 Clouds 18 1007 52 10000 2.6 310 11:55 02.05.2020
3842 Clouds 18 1008 48 10000 2.6 360 11:36 02.05.2020
3843 Clouds 18 1008 48 10000 2.6 360 11:18 02.05.2020
3844 Clouds 16 1008 59 10000 1.5 0 10:39 02.05.2020
3845 Clouds 16 1008 59 10000 1.5 0 10:21 02.05.2020
3846 Clouds 15 1008 67 10000 2.1 300 09:58 02.05.2020
3847 Clouds 14 1009 71 10000 2.1 290 09:39 02.05.2020
3848 Clouds 14 1009 71 10000 2.1 290 09:21 02.05.2020
3849 Clouds 13 1009 76 10000 2.1 320 08:51 02.05.2020
3850 Clouds 12 1009 81 10000 1 0 08:31 02.05.2020
3851 Clouds 12 1009 81 10000 1 0 07:49 02.05.2020
3852 Clouds 11 1009 81 10000 1 120 07:30 02.05.2020
3853 Clouds 9 1009 93 10000 0.65 290 06:53 02.05.2020
3854 Clouds 10 1009 87 10000 1.31 281 06:23 02.05.2020
3855 Clouds 9 1009 93 10000 1.5 200 05:27 02.05.2020
3856 Clouds 11 1010 81 10000 1.5 340 04:26 02.05.2020
3857 Clouds 11 1010 81 10000 1.5 260 03:34 02.05.2020
3858 Clouds 11 1010 87 10000 2.6 350 02:39 02.05.2020
3859 Clouds 11 1010 87 10000 3.6 350 01:51 02.05.2020
3860 Clouds 12 1010 76 10000 2.6 310 00:58 02.05.2020
3861 Clouds 11 1010 87 10000 4.1 270 00:39 02.05.2020
3862 Clouds 11 1010 87 10000 4.1 270 00:18 02.05.2020
3863 Clouds 11 1010 87 10000 4.1 270 00:18 02.05.2020
3864 Clouds 12 1010 81 10000 7.2 270 23:40 01.05.2020
3865 Clouds 12 1010 81 10000 7.2 270 23:20 01.05.2020
3866 Clouds 12 1010 81 10000 5.1 270 22:57 01.05.2020
3867 Rain 12 1011 81 10000 5.1 280 22:38 01.05.2020
3868 Rain 12 1011 81 10000 5.1 280 22:18 01.05.2020
3869 Rain 12 1011 81 10000 6.2 280 21:56 01.05.2020
3870 Clouds 14 1010 58 10000 6.7 290 21:38 01.05.2020
3871 Clouds 14 1010 58 10000 6.7 290 21:38 01.05.2020
3872 Clouds 14 1010 58 10000 6.7 290 21:18 01.05.2020
3873 Clouds 14 1010 58 10000 6.7 290 21:18 01.05.2020
3874 Clouds 14 1010 58 10000 10.3 290 20:56 01.05.2020
3875 Clouds 15 1008 55 10000 3.6 280 20:37 01.05.2020
3876 Clouds 16 1008 45 10000 5.7 280 20:18 01.05.2020
3877 Clouds 17 1008 39 10000 2.6 350 19:42 01.05.2020
3878 Clouds 17 1008 39 10000 2.6 350 19:22 01.05.2020
3879 Clouds 19 1008 39 10000 3.1 300 18:57 01.05.2020
3880 Clouds 19 1008 37 10000 3.1 290 18:39 01.05.2020
3881 Clouds 21 1008 37 10000 3.1 290 18:20 01.05.2020
3882 Clouds 21 1008 35 10000 5.7 250 17:56 01.05.2020
3883 Clouds 21 1008 35 10000 7.2 260 17:38 01.05.2020
3884 Clouds 22 1008 35 10000 7.2 260 17:20 01.05.2020
3885 Clouds 19 1008 48 10000 2.1 340 16:55 01.05.2020
3886 Clouds 19 1008 45 10000 3.1 300 16:37 01.05.2020
3887 Clouds 19 1008 45 10000 3.1 300 16:18 01.05.2020
3888 Clouds 18 1009 48 10000 3.6 300 15:42 01.05.2020
3889 Clouds 20 1009 48 10000 3.6 300 15:24 01.05.2020
3890 Clouds 19 1009 48 10000 3.1 320 14:58 01.05.2020
3891 Rain 19 1010 51 10000 5.1 330 14:39 01.05.2020
3892 Rain 18 1010 51 10000 5.1 330 14:20 01.05.2020
3893 Clouds 21 1009 37 10000 6.7 260 13:40 01.05.2020
3894 Clouds 21 1009 37 10000 6.7 260 13:22 01.05.2020
3895 Clouds 20 1010 42 10000 3.6 300 12:57 01.05.2020
3896 Clouds 20 1010 45 10000 1.5 280 12:39 01.05.2020
3897 Clouds 20 1010 45 10000 1.5 280 12:19 01.05.2020
3898 Clouds 19 1011 52 10000 1.5 240 11:56 01.05.2020
3899 Clouds 18 1011 55 10000 1.5 260 11:38 01.05.2020
3900 Clouds 18 1011 55 10000 1.5 260 11:18 01.05.2020
3901 Clouds 15 1012 62 10000 1 0 10:40 01.05.2020
3902 Clouds 15 1012 62 10000 1 0 10:20 01.05.2020
3903 Clouds 14 1012 67 10000 1.5 0 09:44 01.05.2020
3904 Clouds 13 1012 71 10000 1.5 300 09:21 01.05.2020
3905 Clouds 12 1012 76 10000 1.5 0 08:59 01.05.2020
3906 Clouds 11 1012 81 10000 1 0 08:41 01.05.2020
3907 Clouds 11 1012 81 10000 1 0 08:22 01.05.2020
3908 Clouds 11 1012 81 8000 1.5 120 07:46 01.05.2020
3909 Clouds 8 1011 93 7000 2.1 100 07:23 01.05.2020
3910 Fog 7 1011 93 10000 2.6 120 06:50 01.05.2020
3911 Mist 6 1011 100 8000 1 160 05:36 01.05.2020
3912 Clear 7 1012 93 7000 1.5 360 04:47 01.05.2020
3913 Clear 8 1011 93 10000 1 0 03:24 01.05.2020
3914 Clear 8 1011 87 10000 1.5 140 02:45 01.05.2020
3915 Clear 8 1011 87 10000 1 0 02:19 01.05.2020
3916 Clear 9 1011 87 10000 1 0 01:28 01.05.2020
3917 Clear 10 1012 87 10000 1 0 00:59 01.05.2020
3918 Clear 10 1012 81 10000 1.5 120 00:37 01.05.2020
3919 Clear 10 1012 81 10000 1.5 120 00:37 01.05.2020
3920 Clear 10 1012 81 10000 1.5 120 00:18 01.05.2020
3921 Clear 11 1011 87 10000 1 0 23:54 30.04.2020
3922 Clear 12 1011 81 10000 2.1 150 23:36 30.04.2020
3923 Clear 12 1011 81 10000 2.1 150 23:18 30.04.2020
3924 Clouds 13 1011 71 10000 1 30 22:41 30.04.2020
3925 Clouds 14 1011 67 10000 2.6 280 22:20 30.04.2020
3926 Clouds 14 1011 67 10000 2.6 280 21:55 30.04.2020
3927 Clouds 14 1011 62 10000 5.1 280 21:37 30.04.2020
3928 Clouds 15 1011 62 10000 5.1 280 21:18 30.04.2020
3929 Clouds 15 1010 55 10000 5.7 280 20:42 30.04.2020
3930 Clouds 16 1010 55 10000 5.7 280 20:19 30.04.2020
3931 Rain 17 1009 45 10000 5.7 290 19:58 30.04.2020
3932 Rain 17 1009 55 10000 4.6 270 19:39 30.04.2020
3933 Rain 18 1009 55 10000 4.6 270 19:20 30.04.2020
3934 Thunderstorm 20 1009 52 10000 4.1 230 18:55 30.04.2020
3935 Rain 19 1009 48 10000 1.5 210 18:36 30.04.2020
3936 Rain 19 1009 48 10000 1.5 210 18:18 30.04.2020
3937 Clouds 20 1008 40 10000 1.5 0 17:41 30.04.2020
3938 Clouds 21 1008 40 10000 1.5 0 17:22 30.04.2020
3939 Clouds 20 1008 42 10000 2.6 220 16:59 30.04.2020
3940 Clouds 20 1008 42 10000 1 0 16:40 30.04.2020
3941 Clouds 20 1008 42 10000 1 0 16:20 30.04.2020
3942 Clouds 19 1009 48 10000 3.1 160 15:57 30.04.2020
3943 Clouds 19 1009 48 10000 3.6 170 15:39 30.04.2020
3944 Clouds 19 1009 48 10000 3.6 170 15:21 30.04.2020
3945 Clouds 18 1010 55 10000 4.6 160 14:41 30.04.2020
3946 Clouds 17 1010 55 10000 4.6 160 14:20 30.04.2020
3947 Thunderstorm 18 1010 45 10000 2.6 50 13:57 30.04.2020
3948 Clouds 19 1010 48 10000 4.6 30 13:39 30.04.2020
3949 Clouds 18 1010 48 10000 4.6 30 13:20 30.04.2020
3950 Thunderstorm 20 1009 45 10000 6.7 300 12:42 30.04.2020
3951 Thunderstorm 20 1009 45 10000 6.7 300 12:42 30.04.2020
3952 Thunderstorm 20 1009 45 10000 6.7 300 12:21 30.04.2020
3953 Clouds 19 1010 45 10000 6.7 280 11:59 30.04.2020
3954 Clouds 19 1010 48 10000 6.7 280 11:38 30.04.2020
3955 Clouds 19 1010 48 10000 6.7 280 11:18 30.04.2020
3956 Clouds 18 1010 55 10000 6.2 290 10:54 30.04.2020
3957 Clouds 18 1010 55 10000 6.2 290 10:54 30.04.2020
3958 Clouds 18 1010 55 10000 6.7 290 10:36 30.04.2020
3959 Clouds 18 1010 55 10000 6.7 290 10:18 30.04.2020
3960 Clouds 16 1010 63 10000 5.7 290 09:41 30.04.2020
3961 Clouds 16 1010 63 10000 5.7 290 09:22 30.04.2020
3962 Clouds 16 1010 63 10000 5.1 280 08:49 30.04.2020
3963 Clouds 14 1010 67 10000 0.5 0 08:27 30.04.2020
3964 Clouds 11 1010 81 10000 1 0 07:58 30.04.2020
3965 Clouds 11 1010 81 10000 1 0 07:58 30.04.2020
3966 Clouds 9 1010 93 10000 1 0 07:40 30.04.2020
3967 Clouds 9 1010 93 10000 1 0 07:21 30.04.2020
3968 Clouds 7 1010 93 10000 1 0 06:38 30.04.2020
3969 Clouds 10 1009 87 10000 1.5 240 05:49 30.04.2020
3970 Clouds 10 1009 87 10000 1.5 240 05:26 30.04.2020
3971 Clouds 10 1009 81 10000 1.5 230 04:25 30.04.2020
3972 Clear 10 1009 93 10000 1.5 210 02:56 30.04.2020
3973 Clear 10 1009 87 10000 1 0 02:28 30.04.2020
3974 Clouds 11 1010 81 10000 1.5 190 01:38 30.04.2020
3975 Clouds 12 1009 81 10000 2.1 70 00:53 30.04.2020
3976 Clouds 13 1010 76 10000 2.1 80 00:25 30.04.2020
3977 Clouds 14 1009 76 10000 1.5 90 23:59 29.04.2020
3978 -273 0 0 0 0 0 23:59 29.04.2020
3979 Clouds 14 1009 76 10000 1.5 90 23:59 29.04.2020
3980 Clouds 13 1009 81 10000 1.5 170 23:41 29.04.2020
3981 Clouds 14 1010 76 10000 2.1 130 23:23 29.04.2020
3982 Clouds 13 1010 76 10000 2.1 130 22:58 29.04.2020
3983 Clouds 14 1009 67 10000 2.6 110 22:39 29.04.2020
3984 Clouds 14 1009 67 10000 2.6 110 22:19 29.04.2020
3985 Clouds 15 1009 62 10000 1.5 30 21:38 29.04.2020
3986 Clouds 15 1009 62 10000 1.5 30 21:20 29.04.2020
3987 Clouds 15 1009 62 10000 1.5 0 20:58 29.04.2020
3988 Clouds 16 1008 55 10000 2.6 280 20:39 29.04.2020
3989 Clouds 16 1008 55 10000 2.6 280 20:19 29.04.2020
3990 Clouds 16 1008 59 10000 5.1 270 19:54 29.04.2020
3991 Clouds 17 1008 48 10000 3.6 280 19:36 29.04.2020
3992 Clouds 18 1008 48 10000 3.6 280 19:18 29.04.2020
3993 Clouds 19 1008 48 10000 3.6 300 18:41 29.04.2020
3994 Clouds 19 1008 48 10000 3.6 300 18:20 29.04.2020
3995 Clouds 19 1008 52 10000 4.6 310 17:55 29.04.2020
3996 Clouds 19 1008 52 10000 4.6 310 17:55 29.04.2020
3997 Clouds 19 1008 63 10000 5.1 310 17:37 29.04.2020
3998 Clouds 20 1008 63 10000 5.1 310 17:18 29.04.2020
3999 Thunderstorm 19 1008 48 10000 5.7 280 16:37 29.04.2020
4000 Thunderstorm 19 1008 48 10000 5.7 280 16:18 29.04.2020
4001 Clouds 21 1008 40 10000 3.6 220 15:56 29.04.2020
4002 Clouds 20 1008 42 10000 4.1 280 15:38 29.04.2020
4003 Clouds 21 1009 43 10000 4.1 310 15:19 29.04.2020
4004 Clouds 22 1009 43 10000 4.1 310 14:44 29.04.2020
4005 Clouds 19 1009 45 10000 4.1 320 14:26 29.04.2020
4006 Clouds 20 1010 52 10000 6.2 310 13:58 29.04.2020
4007 Rain 20 1010 55 10000 7.2 300 13:39 29.04.2020
4008 Rain 19 1010 55 10000 7.2 300 13:19 29.04.2020
4009 Rain 19 1010 55 8000 5.7 300 12:55 29.04.2020
4010 Clouds 19 1010 40 10000 2.6 0 12:37 29.04.2020
4011 Clouds 19 1010 40 10000 2.6 0 12:37 29.04.2020
4012 Clouds 20 1010 40 10000 2.6 0 12:18 29.04.2020
4013 Clouds 20 1011 45 10000 1.5 10 11:39 29.04.2020
4014 Clouds 20 1011 45 10000 1.5 10 11:20 29.04.2020
4015 Clouds 20 1011 45 10000 1.5 10 11:20 29.04.2020
4016 Clouds 20 1011 45 10000 1.5 10 11:20 29.04.2020
4017 Clouds 18 1011 55 10000 1.5 70 10:54 29.04.2020
4018 Clouds 19 1011 52 10000 1.5 0 10:36 29.04.2020
4019 Clouds 19 1011 52 10000 1.5 0 10:18 29.04.2020
4020 Clouds 17 1012 59 10000 0.5 0 09:41 29.04.2020
4021 Clouds 17 1012 59 10000 0.5 0 09:41 29.04.2020
4022 Clouds 17 1012 59 10000 0.5 0 09:21 29.04.2020
4023 Clouds 16 1012 67 10000 0.5 0 08:44 29.04.2020
4024 Clouds 16 1012 72 10000 1 0 08:26 29.04.2020
4025 Clouds 13 1012 82 8000 1 0 07:55 29.04.2020
4026 Mist 12 1012 81 5000 0.5 0 07:29 29.04.2020
4027 Clouds 10 1012 87 7000 1.5 120 06:53 29.04.2020
4028 Clouds 10 1012 93 8000 1.5 120 06:32 29.04.2020
4029 Clouds 11 1012 93 8000 2.1 110 05:53 29.04.2020
4030 Clouds 12 1012 93 10000 1.5 90 05:19 29.04.2020
4031 Clouds 12 1012 87 10000 1.5 200 04:20 29.04.2020
4032 Clouds 12 1012 87 10000 1.5 180 03:53 29.04.2020
4033 Clouds 13 1012 71 10000 2.1 110 01:59 29.04.2020
4034 Clouds 13 1012 71 10000 1 210 01:29 29.04.2020
4035 Clouds 13 1012 76 10000 1.5 210 00:59 29.04.2020
4036 Clouds 14 1012 71 10000 2.1 90 00:37 29.04.2020
4037 Clouds 14 1012 71 10000 2.1 90 00:18 29.04.2020
4038 Clouds 13 1013 71 10000 0.5 0 23:43 28.04.2020
4039 Clouds 13 1013 71 10000 0.5 0 23:43 28.04.2020
4040 Clouds 13 1012 71 10000 4.6 120 23:21 28.04.2020
4041 Clouds 14 1012 67 10000 4.6 100 22:39 28.04.2020
4042 Rain 14 1012 67 10000 4.6 100 22:20 28.04.2020
4043 Rain 15 1012 62 10000 6.7 110 21:59 28.04.2020
4044 Clouds 15 1012 62 10000 4.6 120 21:40 28.04.2020
4045 Clouds 15 1012 62 10000 4.6 120 21:40 28.04.2020
4046 Clouds 15 1012 62 10000 4.6 120 21:22 28.04.2020
4047 Clouds 16 1012 59 10000 6.2 110 20:59 28.04.2020
4048 Clouds 16 1012 59 10000 6.2 100 20:40 28.04.2020
4049 Clouds 16 1012 59 10000 6.2 100 20:40 28.04.2020
4050 Clouds 16 1012 59 10000 6.2 100 20:40 28.04.2020
4051 Clouds 17 1012 59 10000 6.2 100 20:20 28.04.2020
4052 Clouds 18 1012 55 10000 5.7 100 19:56 28.04.2020
4053 Clouds 19 1011 45 10000 4.6 120 19:38 28.04.2020
4054 Clouds 20 1011 45 10000 4.6 120 19:19 28.04.2020
4055 Clouds 20 1011 45 10000 4.6 120 19:19 28.04.2020
4056 Clouds 21 1011 30 10000 2.1 230 18:42 28.04.2020
4057 Clouds 21 1011 30 10000 2.1 230 18:20 28.04.2020
4058 Clouds 21 1011 30 10000 5.7 260 17:59 28.04.2020
4059 Clouds 22 1011 32 10000 6.2 250 17:37 28.04.2020
4060 Clouds 21 1011 32 10000 6.2 250 17:19 28.04.2020
4061 Clouds 21 1012 32 10000 1.5 0 16:56 28.04.2020
4062 Clouds 22 1011 24 10000 1.5 320 16:38 28.04.2020
4063 Clouds 22 1011 24 10000 1.5 320 16:20 28.04.2020
4064 Clouds 23 1011 28 10000 1.5 0 15:55 28.04.2020
4065 Clouds 24 1012 23 10000 1.5 0 15:37 28.04.2020
4066 Clouds 24 1012 23 10000 1.5 0 15:18 28.04.2020
4067 Clouds 24 1012 25 10000 1.5 350 14:43 28.04.2020
4068 Clouds 23 1012 27 10000 2.1 0 14:22 28.04.2020
4069 Clouds 23 1013 31 10000 1.5 0 13:59 28.04.2020
4070 Clouds 22 1013 30 10000 2.1 230 13:40 28.04.2020
4071 Clouds 22 1013 30 10000 2.1 230 13:21 28.04.2020
4072 Clouds 21 1013 32 10000 2.1 280 12:58 28.04.2020
4073 Clouds 21 1013 32 10000 2.1 280 12:58 28.04.2020
4074 Clear 20 1014 40 10000 1.5 0 12:38 28.04.2020
4075 Clear 20 1014 40 10000 1.5 0 12:20 28.04.2020
4076 Clear 18 1014 45 10000 1 0 11:42 28.04.2020
4077 Clear 18 1014 45 10000 1 0 11:21 28.04.2020
4078 Clear 18 1014 45 10000 1 0 11:21 28.04.2020
4079 Clear 17 1015 48 10000 1 0 10:57 28.04.2020
4080 Clear 16 1015 51 10000 1.5 0 10:38 28.04.2020
4081 Clear 16 1015 51 10000 1.5 0 10:18 28.04.2020
4082 Clear 16 1015 51 10000 1.5 0 10:18 28.04.2020
4083 Clear 12 1015 66 10000 1 0 09:43 28.04.2020
4084 Clear 12 1015 66 10000 1 0 09:24 28.04.2020
4085 Clear 11 1015 66 10000 1 0 08:54 28.04.2020
4086 Clear 9 1016 70 10000 0.5 0 08:36 28.04.2020
4087 Clear 9 1016 70 10000 0.5 0 08:18 28.04.2020
4088 Clear 7 1016 75 10000 2.1 90 07:41 28.04.2020
4089 Clear 7 1016 75 10000 2.1 90 07:18 28.04.2020
4090 Clear 9 1015 75 10000 0.85 108 06:39 28.04.2020
4091 Clear 5 1015 86 10000 1 10 05:48 28.04.2020
4092 Clear 5 1015 80 10000 1 360 05:30 28.04.2020
4093 Clear 6 1015 86 10000 0.5 250 04:33 28.04.2020
4094 Clear 6 1014 81 10000 1.5 80 02:38 28.04.2020
4095 Clear 7 1015 75 10000 1 240 01:27 28.04.2020
4096 Clear 8 1015 65 10000 1.5 200 00:59 28.04.2020
4097 Clear 8 1014 65 10000 1.5 200 00:29 28.04.2020
4098 Clear 9 1014 61 10000 1.5 120 23:48 27.04.2020
4099 Clear 9 1014 61 10000 2.1 130 23:25 27.04.2020
4100 Clear 10 1014 57 10000 1 150 22:58 27.04.2020
4101 Clear 10 1014 57 10000 1 0 22:40 27.04.2020
4102 Clear 11 1014 57 10000 1 0 22:22 27.04.2020
4103 Clear 11 1014 54 10000 2.1 110 21:56 27.04.2020
4104 Clear 12 1013 50 10000 1 0 21:38 27.04.2020
4105 Clear 12 1013 50 10000 1 0 21:18 27.04.2020
4106 Clear 12 1013 50 10000 1 0 21:18 27.04.2020
4107 Clear 12 1013 50 10000 1 0 21:18 27.04.2020
4108 Clear 13 1013 50 10000 2.1 150 20:54 27.04.2020
4109 Clear 14 1013 44 10000 1.5 50 20:36 27.04.2020
4110 Clear 14 1013 44 10000 1.5 50 20:36 27.04.2020
4111 Clear 15 1013 44 10000 1.5 50 20:18 27.04.2020
4112 Clear 18 1012 36 10000 3.1 20 19:40 27.04.2020
4113 Clear 18 1012 36 10000 3.1 20 19:21 27.04.2020
4114 Clear 19 1012 32 10000 3.1 10 18:59 27.04.2020
4115 Clear 20 1012 22 10000 4.6 300 18:40 27.04.2020
4116 Clear 20 1012 22 10000 4.6 300 18:19 27.04.2020
4117 Clear 21 1012 41 10000 4.6 320 17:57 27.04.2020
4118 Clear 21 1012 22 10000 3.1 300 17:38 27.04.2020
4119 Clear 21 1012 22 10000 3.1 300 17:18 27.04.2020
4120 Clear 21 1012 28 10000 3.1 340 16:40 27.04.2020
4121 Clear 21 1012 28 10000 3.1 340 16:22 27.04.2020
4122 Clear 20 1012 31 10000 3.6 320 15:57 27.04.2020
4123 Clear 20 1012 31 10000 4.1 310 15:38 27.04.2020
4124 Clouds 20 1012 34 10000 4.1 310 15:19 27.04.2020
4125 Clouds 20 1012 24 10000 4.1 300 14:56 27.04.2020
4126 Clouds 20 1013 34 10000 4.1 320 14:38 27.04.2020
4127 Clouds 20 1013 34 10000 4.1 320 14:18 27.04.2020
4128 Clouds 19 1013 32 10000 3.1 310 13:42 27.04.2020
4129 Clouds 19 1013 32 10000 3.1 310 13:21 27.04.2020
4130 Clouds 18 1013 34 10000 4.1 290 12:57 27.04.2020
4131 Clouds 18 1014 42 10000 4.6 300 12:39 27.04.2020
4132 Clouds 18 1014 42 10000 4.6 300 12:20 27.04.2020
4133 Clouds 16 1014 44 10000 2.6 0 11:41 27.04.2020
4134 Clouds 16 1014 44 10000 2.6 0 11:21 27.04.2020
4135 Clouds 16 1014 48 10000 3.1 300 10:57 27.04.2020
4136 Clouds 15 1014 51 10000 3.1 310 10:39 27.04.2020
4137 Clouds 15 1014 51 10000 3.1 310 10:20 27.04.2020
4138 Clouds 14 1014 47 10000 2.1 320 09:44 27.04.2020
4139 Clouds 14 1014 47 10000 2.1 320 09:19 27.04.2020
4140 Clouds 13 1014 50 10000 1.5 0 08:58 27.04.2020
4141 Clouds 12 1014 54 10000 1 0 08:38 27.04.2020
4142 Clouds 12 1014 54 10000 1 0 08:19 27.04.2020
4143 Clouds 11 1014 66 10000 3.1 300 07:44 27.04.2020
4144 Clouds 10 1014 76 10000 1 0 07:20 27.04.2020
4145 Clouds 10 1013 76 10000 1 0 06:47 27.04.2020
4146 Clouds 9 1013 81 10000 2.1 340 06:25 27.04.2020
4147 Clouds 10 1013 76 10000 1.5 350 05:50 27.04.2020
4148 Clouds 10 1012 76 10000 3.1 290 04:41 27.04.2020
4149 Clouds 10 1012 76 10000 1.5 360 03:49 27.04.2020
4150 Rain 10 1012 71 10000 2.6 280 02:48 27.04.2020
4151 Clouds 11 1012 66 10000 1.5 340 01:34 27.04.2020
4152 Clouds 11 1012 66 10000 1 0 00:56 27.04.2020
4153 Clouds 11 1012 57 10000 2.6 120 00:19 27.04.2020
4154 Clouds 10 1012 57 10000 1.5 120 23:56 26.04.2020
4155 Clouds 11 1011 57 10000 2.1 160 23:37 26.04.2020
4156 Clouds 10 1011 57 10000 2.1 160 23:19 26.04.2020
4157 Clouds 12 1011 47 10000 2.1 170 22:56 26.04.2020
4158 Clouds 11 1011 57 10000 2.1 240 22:37 26.04.2020
4159 Clouds 12 1011 57 10000 2.1 240 22:19 26.04.2020
4160 Clouds 13 1011 50 10000 1.5 290 21:56 26.04.2020
4161 Clouds 13 1010 50 10000 1 0 21:37 26.04.2020
4162 Clouds 13 1010 50 10000 1 0 21:18 26.04.2020
4163 Rain 15 1009 41 10000 3.1 60 20:39 26.04.2020
4164 Rain 15 1009 41 10000 3.1 60 20:20 26.04.2020
4165 Clouds 15 1009 47 10000 3.1 50 19:59 26.04.2020
4166 Clouds 16 1008 44 10000 2.1 100 19:38 26.04.2020
4167 Clouds 16 1008 44 10000 2.1 100 19:20 26.04.2020
4168 Rain 18 1008 39 10000 2.1 140 18:45 26.04.2020
4169 Rain 18 1008 39 10000 2.1 170 18:25 26.04.2020
4170 Rain 18 1008 34 10000 2.1 190 17:58 26.04.2020
4171 Rain 18 1008 34 10000 2.1 240 17:39 26.04.2020
4172 Rain 18 1008 34 10000 2.1 240 17:21 26.04.2020
4173 Clouds 17 1009 39 10000 2.6 270 16:42 26.04.2020
4174 Clouds 19 1009 39 10000 2.6 270 16:24 26.04.2020
4175 Clouds 19 1009 39 10000 2.6 280 15:59 26.04.2020
4176 Clouds 19 1009 39 10000 2.6 280 15:59 26.04.2020
4177 Clouds 18 1009 44 10000 2.6 290 15:41 26.04.2020
4178 Clouds 18 1009 44 10000 2.6 290 15:22 26.04.2020
4179 Clouds 18 1010 48 10000 2.6 290 14:57 26.04.2020
4180 Clouds 18 1010 48 10000 1.5 320 14:38 26.04.2020
4181 Clouds 18 1010 48 10000 1.5 320 14:18 26.04.2020
4182 Clouds 18 1010 47 10000 1.5 290 13:55 26.04.2020
4183 Clouds 17 1011 54 10000 2.1 260 13:37 26.04.2020
4184 Clouds 17 1011 54 10000 2.1 260 13:18 26.04.2020
4185 Clouds 12 1011 71 10000 2.1 240 12:40 26.04.2020
4186 Clouds 15 1011 71 10000 2.1 240 12:21 26.04.2020
4187 Clouds 13 1011 76 10000 4.1 280 11:59 26.04.2020
4188 Clouds 12 1011 81 10000 5.1 280 11:40 26.04.2020
4189 Clouds 11 1011 81 10000 5.1 280 11:22 26.04.2020
4190 Rain 12 1011 62 10000 6.2 280 10:56 26.04.2020
4191 Rain 12 1011 62 10000 6.2 280 10:56 26.04.2020
4192 Rain 12 1011 66 10000 6.2 280 10:38 26.04.2020
4193 Rain 11 1011 66 10000 6.2 280 10:20 26.04.2020
4194 Clouds 13 1010 47 10000 8.7 280 09:40 26.04.2020
4195 Clouds 13 1010 47 10000 8.7 280 09:22 26.04.2020
4196 Clouds 13 1010 43 10000 7.2 280 08:58 26.04.2020
4197 Clouds 13 1009 50 10000 2.6 310 08:40 26.04.2020
4198 Clouds 13 1009 50 10000 2.6 310 08:20 26.04.2020
4199 Clouds 12 1009 58 10000 2.6 300 07:46 26.04.2020
4200 Clouds 12 1009 66 10000 1 0 07:21 26.04.2020
4201 Clouds 10 1009 75 10000 1.5 60 06:44 26.04.2020
4202 Clouds 10 1008 75 10000 1 0 05:58 26.04.2020
4203 Clouds 10 1008 75 10000 2.1 120 05:39 26.04.2020
4204 Clouds 8 1008 65 10000 1 0 04:58 26.04.2020
4205 Clouds 10 1008 61 10000 2.6 300 04:22 26.04.2020
4206 Clear 10 1007 70 10000 2.1 10 02:51 26.04.2020
4207 Clouds 11 1007 57 10000 1.5 310 02:31 26.04.2020
4208 Clouds 11 1007 66 10000 2.1 150 01:46 26.04.2020
4209 Clouds 11 1007 66 10000 2.1 180 01:26 26.04.2020
4210 Clouds 11 1006 62 10000 1 100 00:39 26.04.2020
4211 Clear 12 1006 62 10000 1 100 00:19 26.04.2020
4212 Clear 13 1006 50 10000 2.1 50 23:39 25.04.2020
4213 Clear 13 1006 50 10000 2.1 50 23:20 25.04.2020
4214 Clear 14 1006 47 10000 1.5 50 22:58 25.04.2020
4215 Clear 14 1006 41 10000 1.5 240 22:39 25.04.2020
4216 Clear 14 1006 41 10000 1.5 240 22:19 25.04.2020
4217 Clear 14 1006 38 10000 2.6 250 21:40 25.04.2020
4218 Clear 14 1006 38 10000 2.6 250 21:21 25.04.2020
4219 Clear 14 1005 41 10000 2.6 250 20:58 25.04.2020
4220 Clear 15 1005 53 10000 2.1 280 20:40 25.04.2020
4221 Clear 15 1005 53 10000 2.1 280 20:22 25.04.2020
4222 Clear 17 1005 53 10000 3.6 320 19:55 25.04.2020
4223 Clear 17 1005 53 10000 3.6 320 19:55 25.04.2020
4224 Clear 19 1005 53 10000 4.6 320 19:37 25.04.2020
4225 Clear 19 1005 53 10000 4.6 320 19:18 25.04.2020
4226 Clear 21 1004 26 10000 5.7 300 18:39 25.04.2020
4227 Clear 21 1004 26 10000 5.7 300 18:21 25.04.2020
4228 Clear 21 1005 34 10000 5.7 310 17:58 25.04.2020
4229 Clear 22 1005 21 10000 6.2 290 17:38 25.04.2020
4230 Clear 22 1005 21 10000 6.2 290 17:19 25.04.2020
4231 Clear 22 1005 19 10000 5.7 300 16:55 25.04.2020
4232 Clear 22 1005 18 10000 6.7 290 16:37 25.04.2020
4233 Clear 22 1005 18 10000 6.7 290 16:18 25.04.2020
4234 Clear 22 1006 18 10000 7.2 310 15:41 25.04.2020
4235 Clear 22 1006 18 10000 7.2 310 15:41 25.04.2020
4236 Clear 22 1006 18 10000 7.2 310 15:20 25.04.2020
4237 Clear 21 1006 22 10000 5.1 300 14:58 25.04.2020
4238 Clear 21 1007 26 10000 2.6 300 14:39 25.04.2020
4239 Clear 21 1007 26 10000 2.6 300 14:20 25.04.2020
4240 Clear 21 1007 30 10000 2.6 0 13:43 25.04.2020
4241 Clear 20 1008 30 10000 4.6 270 13:20 25.04.2020
4242 Clear 19 1008 34 10000 5.1 310 12:58 25.04.2020
4243 Clear 18 1008 31 10000 4.6 310 12:40 25.04.2020
4244 Clear 16 1009 41 10000 1.5 0 12:21 25.04.2020
4245 Clear 16 1009 41 10000 1.5 0 11:57 25.04.2020
4246 Clear 15 1010 41 10000 1.5 0 11:39 25.04.2020
4247 Clear 15 1010 41 10000 1.5 0 11:20 25.04.2020
4248 Clear 13 1010 43 10000 1 0 10:43 25.04.2020
4249 Clear 13 1010 43 10000 1 0 10:23 25.04.2020
4250 Clear 11 1010 34 10000 1 0 09:48 25.04.2020
4251 Clear 10 1010 33 10000 1 0 09:29 25.04.2020
4252 Clouds 8 1010 45 10000 0.5 0 08:58 25.04.2020
4253 Clouds 8 1010 45 10000 0.5 0 08:58 25.04.2020
4254 Clouds 7 1010 45 10000 1 0 08:40 25.04.2020
4255 Clouds 7 1010 45 10000 1 0 08:21 25.04.2020
4256 Clouds 5 1011 45 10000 1 0 07:58 25.04.2020
4257 Clear 4 1011 45 10000 1.5 310 07:39 25.04.2020
4258 Clear 7 1011 74 10000 0.5 260 06:47 25.04.2020
4259 Clouds 5 1010 80 10000 1 330 06:28 25.04.2020
4260 Clouds 2 1010 80 10000 0.5 10 05:40 25.04.2020
4261 Clouds 2 1010 80 10000 0.5 10 05:18 25.04.2020
4262 Clear 4 1011 64 10000 1.5 190 02:59 25.04.2020
4263 Clear 5 1011 56 10000 1 0 02:21 25.04.2020
4264 Clear 6 1011 48 10000 2.6 150 01:53 25.04.2020
4265 Clear 6 1011 48 10000 2.6 160 01:34 25.04.2020
4266 Clear 5 1011 56 10000 2.1 150 00:55 25.04.2020
4267 Clear 6 1011 52 10000 1.5 130 00:32 25.04.2020
4268 Clear 6 1011 48 10000 1 0 23:45 24.04.2020
4269 Clear 7 1011 45 10000 1.5 150 23:24 24.04.2020
4270 Clear 7 1011 52 10000 2.6 160 22:59 24.04.2020
4271 Clear 7 1011 49 10000 1 150 22:39 24.04.2020
4272 Clear 8 1011 49 10000 1 150 22:19 24.04.2020
4273 Clear 8 1011 49 10000 1 150 22:19 24.04.2020
4274 Clear 9 1011 42 10000 3.6 130 21:55 24.04.2020
4275 Clear 11 1011 32 10000 4.1 120 21:36 24.04.2020
4276 Clouds 12 1011 32 10000 4.1 120 21:18 24.04.2020
4277 Clouds 12 1011 32 10000 3.6 120 20:55 24.04.2020
4278 Clouds 12 1010 52 10000 3.6 70 20:36 24.04.2020
4279 Clouds 12 1010 52 10000 3.6 70 20:18 24.04.2020
4280 Clouds 14 1010 29 10000 2.1 130 19:40 24.04.2020
4281 Clouds 15 1010 29 10000 2.1 130 19:21 24.04.2020
4282 Clouds 18 1010 23 10000 1.5 120 18:44 24.04.2020
4283 Clouds 18 1010 23 10000 1.5 120 18:26 24.04.2020
4284 Clouds 18 1010 20 10000 1.5 40 17:55 24.04.2020
4285 Clouds 18 1010 20 10000 2.1 170 17:37 24.04.2020
4286 Clouds 18 1010 20 10000 2.1 170 17:19 24.04.2020
4287 Clouds 17 1011 20 10000 1 0 16:57 24.04.2020
4288 Clouds 18 1011 20 10000 1 0 16:38 24.04.2020
4289 Clouds 18 1011 20 10000 1 0 16:20 24.04.2020
4290 Clouds 18 1012 21 10000 2.1 0 15:41 24.04.2020
4291 Clear 17 1012 21 10000 2.6 100 15:20 24.04.2020
4292 Clear 18 1013 27 10000 1.5 0 14:41 24.04.2020
4293 Clear 17 1013 27 10000 1.5 0 14:22 24.04.2020
4294 Clear 17 1013 27 10000 2.1 0 13:59 24.04.2020
4295 Clear 17 1013 27 10000 2.1 0 13:59 24.04.2020
4296 Clear 17 1014 29 10000 3.6 130 13:41 24.04.2020
4297 Clear 16 1014 29 10000 3.6 130 13:20 24.04.2020
4298 Clear 16 1014 31 10000 4.6 120 12:57 24.04.2020
4299 Clear 16 1014 31 10000 4.6 120 12:57 24.04.2020
4300 Clear 15 1015 30 10000 3.6 70 12:39 24.04.2020
4301 Clear 15 1015 30 10000 3.6 70 12:19 24.04.2020
4302 Clear 14 1016 35 10000 4.6 80 11:40 24.04.2020
4303 Clear 14 1016 35 10000 4.6 80 11:21 24.04.2020
4304 Clear 13 1016 39 10000 2.1 30 10:57 24.04.2020
4305 Clear 11 1016 50 10000 1.5 290 10:38 24.04.2020
4306 Clear 11 1016 50 10000 1.5 290 10:19 24.04.2020
4307 Clear 10 1017 39 10000 1 0 10:19 24.04.2020
4308 Clear 9 1017 49 10000 1 0 09:47 24.04.2020
4309 Clear 9 1017 49 10000 1 0 09:24 24.04.2020
4310 Clear 8 1017 50 10000 1 0 08:58 24.04.2020
4311 Clear 7 1017 56 10000 0.5 0 08:40 24.04.2020
4312 Clear 7 1017 56 10000 0.5 0 08:40 24.04.2020
4313 Clear 7 1017 56 10000 0.5 0 08:18 24.04.2020
4314 Clear 5 1017 50 10000 2.1 80 07:47 24.04.2020
4315 Clear 4 1017 69 10000 1 0 07:27 24.04.2020
4316 Clear 2 1017 80 10000 2.1 90 06:58 24.04.2020
4317 Clear 5 1017 86 10000 2.1 110 06:38 24.04.2020
4318 Clear 2 1017 74 10000 1 120 05:49 24.04.2020
4319 Clear 3 1017 74 10000 2.1 170 04:33 24.04.2020
4320 Clear 5 1018 69 10000 3.6 80 03:24 24.04.2020
4321 Clear 5 1018 69 10000 4.1 90 02:41 24.04.2020
4322 Clear 5 1018 69 10000 4.1 90 02:20 24.04.2020
4323 Clear 6 1018 80 10000 3.6 90 01:24 24.04.2020
4324 Clouds 7 1019 75 10000 5.1 120 00:39 24.04.2020
4325 Clouds 7 1019 75 10000 5.1 120 00:18 24.04.2020
4326 Clouds 7 1018 65 10000 3.1 140 23:44 23.04.2020
4327 Clouds 7 1018 65 10000 3.1 140 23:26 23.04.2020
4328 Clouds 8 1018 65 10000 2.6 140 22:55 23.04.2020
4329 Clouds 8 1019 61 10000 2.6 130 22:37 23.04.2020
4330 Clouds 8 1019 61 10000 2.6 130 22:18 23.04.2020
4331 Clouds 8 1019 61 10000 2.6 130 22:18 23.04.2020
4332 Clouds 9 1018 61 10000 2.6 120 21:56 23.04.2020
4333 Clouds 9 1018 61 10000 5.1 100 21:38 23.04.2020
4334 Clouds 9 1018 61 10000 5.1 100 21:20 23.04.2020
4335 Clouds 10 1018 53 10000 4.1 90 20:43 23.04.2020
4336 Clouds 10 1018 53 10000 4.1 90 20:22 23.04.2020
4337 Clouds 12 1017 40 10000 5.1 90 19:59 23.04.2020
4338 Clouds 12 1017 37 10000 5.1 60 19:40 23.04.2020
4339 Clouds 13 1017 37 10000 5.1 60 19:22 23.04.2020
4340 Clouds 14 1016 35 10000 4.6 50 18:57 23.04.2020
4341 Clouds 15 1016 33 10000 5.1 50 18:38 23.04.2020
4342 Clouds 15 1016 33 10000 5.1 50 18:20 23.04.2020
4343 Clouds 15 1016 33 10000 5.1 50 17:55 23.04.2020
4344 Clouds 16 1017 31 10000 4.6 60 17:36 23.04.2020
4345 Clouds 16 1017 31 10000 4.6 60 17:18 23.04.2020
4346 Clouds 16 1017 31 10000 4.6 40 16:43 23.04.2020
4347 Clouds 16 1017 31 10000 2.1 120 16:19 23.04.2020
4348 Clouds 16 1017 31 10000 3.1 120 15:43 23.04.2020
4349 Clouds 16 1017 31 10000 3.1 120 15:43 23.04.2020
4350 Clear 15 1018 33 10000 2.6 0 15:23 23.04.2020
4351 Clouds 16 1018 31 10000 1.5 0 14:59 23.04.2020
4352 Clouds 15 1019 30 10000 4.1 140 14:39 23.04.2020
4353 Clouds 16 1019 30 10000 4.1 140 14:39 23.04.2020
4354 Clouds 15 1019 37 10000 3.6 110 14:21 23.04.2020
4355 Clouds 15 1019 37 10000 3.6 110 13:57 23.04.2020
4356 Clear 15 1019 35 10000 2.6 50 13:38 23.04.2020
4357 Clear 14 1019 35 10000 2.6 50 13:19 23.04.2020
4358 Clear 13 1020 35 10000 2.1 0 12:44 23.04.2020
4359 Clear 13 1020 35 10000 2.1 0 12:26 23.04.2020
4360 Clear 13 1020 35 10000 4.6 100 11:59 23.04.2020
4361 Clear 13 1020 35 10000 4.6 100 11:59 23.04.2020
4362 Clear 12 1020 34 10000 4.6 110 11:40 23.04.2020
4363 Clear 12 1020 34 10000 4.6 110 11:22 23.04.2020
4364 Clear 11 1021 43 10000 2.1 0 10:42 23.04.2020
4365 Clear 11 1021 43 10000 2.1 0 10:24 23.04.2020
4366 Clear 10 1021 46 10000 1 0 09:55 23.04.2020
4367 Clear 8 1021 49 10000 1.5 120 09:37 23.04.2020
4368 Clear 8 1021 49 10000 1.5 120 09:18 23.04.2020
4369 Clear 6 1021 56 10000 2.1 130 08:45 23.04.2020
4370 Clear 6 1021 56 10000 2.1 130 08:27 23.04.2020
4371 Clear 3 1021 74 10000 1.5 120 07:43 23.04.2020
4372 Clear 3 1021 74 10000 1.5 120 07:23 23.04.2020
4373 Clear 3 1021 64 10000 2.1 140 06:49 23.04.2020
4374 Clear 4 1021 69 10000 1.5 120 06:27 23.04.2020
4375 Clear 2 1021 74 10000 1.5 140 05:31 23.04.2020
4376 Clear 2 1021 80 10000 3.6 110 04:52 23.04.2020
4377 Clear 4 1021 64 10000 4.6 100 02:25 23.04.2020
4378 Clear 5 1021 64 10000 5.1 90 01:49 23.04.2020
4379 Clear 4 1021 64 10000 4.1 100 01:28 23.04.2020
4380 Clouds 4 1021 86 10000 4.6 110 00:47 23.04.2020
4381 Clear 3 1021 61 10000 3.1 110 00:20 23.04.2020
4382 Clear 5 1020 70 10000 2.6 140 23:48 22.04.2020
4383 Clear 5 1020 70 10000 2.6 140 23:23 22.04.2020
4384 Clear 6 1020 70 10000 2.1 150 22:55 22.04.2020
4385 Clear 6 1020 75 10000 1.5 120 22:36 22.04.2020
4386 Clear 6 1020 75 10000 1.5 120 22:18 22.04.2020
4387 Clear 7 1020 61 10000 3.1 100 21:55 22.04.2020
4388 Clear 8 1020 61 10000 3.6 90 21:37 22.04.2020
4389 Clouds 8 1020 61 10000 3.6 90 21:18 22.04.2020
4390 Clouds 9 1019 46 10000 6.2 70 20:43 22.04.2020
4391 Clouds 9 1019 60 10000 4.6 80 20:19 22.04.2020
4392 Clouds 10 1019 60 10000 4.1 50 19:57 22.04.2020
4393 Clouds 11 1018 43 10000 4.1 40 19:38 22.04.2020
4394 Clouds 11 1018 43 10000 4.1 40 19:19 22.04.2020
4395 Clouds 12 1018 60 10000 3.6 40 18:58 22.04.2020
4396 Clouds 13 1018 43 10000 2.1 110 18:40 22.04.2020
4397 Clouds 13 1018 43 10000 2.1 110 18:22 22.04.2020
4398 Clouds 13 1018 37 10000 2.6 110 17:55 22.04.2020
4399 Clouds 13 1018 45 10000 3.52 86 17:37 22.04.2020
4400 Clouds 12 1019 45 10000 3.1 130 17:18 22.04.2020
4401 Clouds 12 1019 46 10000 2.6 0 16:41 22.04.2020
4402 Clouds 12 1019 46 10000 2.6 0 16:22 22.04.2020
4403 Clouds 13 1020 43 10000 3.6 130 15:43 22.04.2020
4404 Clouds 13 1020 43 10000 3.6 130 15:24 22.04.2020
4405 Clouds 12 1020 50 10000 3.1 130 14:58 22.04.2020
4406 Clouds 11 1020 42 10000 4.1 120 14:38 22.04.2020
4407 Clouds 11 1020 41 10000 4.1 120 14:20 22.04.2020
4408 Clouds 11 1021 41 10000 3.1 120 13:55 22.04.2020
4409 Clouds 11 1021 41 10000 5.1 120 13:37 22.04.2020
4410 Clouds 11 1021 41 10000 5.1 120 13:19 22.04.2020
4411 Clouds 11 1021 41 10000 5.7 130 12:40 22.04.2020
4412 Clouds 11 1021 45 10000 5.7 130 12:22 22.04.2020
4413 Clouds 10 1022 45 10000 6.2 110 11:41 22.04.2020
4414 Clouds 9 1022 45 10000 6.2 110 11:22 22.04.2020
4415 Clouds 9 1022 45 10000 5.1 120 10:59 22.04.2020
4416 Clouds 9 1022 52 10000 5.7 120 10:39 22.04.2020
4417 Clouds 8 1022 52 10000 5.7 120 10:20 22.04.2020
4418 Clouds 7 1021 65 10000 5.1 110 09:39 22.04.2020
4419 Clouds 7 1021 65 10000 5.1 110 09:21 22.04.2020
4420 Clouds 6 1021 70 10000 5.1 110 08:58 22.04.2020
4421 Clouds 7 1021 75 10000 5.1 110 08:40 22.04.2020
4422 Clouds 6 1021 75 10000 5.1 110 08:21 22.04.2020
4423 Clouds 5 1021 80 10000 5.1 110 07:53 22.04.2020
4424 Clouds 4 1021 86 10000 4.6 110 07:28 22.04.2020
4425 Clouds 4 1021 86 10000 4.6 110 07:28 22.04.2020
4426 Clouds 4 1021 86 10000 4.6 110 06:53 22.04.2020
4427 Clouds 4 1021 86 10000 4.6 110 06:53 22.04.2020
4428 Clouds 3 1021 93 10000 5.1 110 06:18 22.04.2020
4429 Clouds 3 1021 86 10000 6.2 100 05:35 22.04.2020
4430 Clouds 3 1021 93 10000 4.1 100 04:20 22.04.2020
4431 Rain 3 1021 93 10000 4.6 110 02:43 22.04.2020
4432 Rain 3 1021 93 10000 4.6 110 01:52 22.04.2020
4433 Rain 3 1021 93 10000 4.1 120 01:25 22.04.2020
4434 Rain 3 1021 93 10000 4.6 90 00:47 22.04.2020
4435 Rain 3 1021 93 10000 5.1 100 00:22 22.04.2020
4436 Rain 3 1021 93 10000 5.7 100 23:59 21.04.2020
4437 Rain 3 1021 93 10000 5.7 100 23:40 21.04.2020
4438 Rain 3 1021 93 10000 5.7 100 23:18 21.04.2020
4439 Rain 3 1021 93 9000 5.7 100 22:40 21.04.2020
4440 Rain 3 1021 93 9000 5.7 100 22:21 21.04.2020
4441 Rain 3 1021 93 8000 5.1 100 21:59 21.04.2020
4442 Rain 3 1021 93 8000 5.1 90 21:40 21.04.2020
4443 Rain 3 1021 93 8000 5.1 90 21:40 21.04.2020
4444 Rain 3 1021 93 8000 5.1 90 21:22 21.04.2020
4445 Rain 3 1020 93 8000 6.7 110 20:54 21.04.2020
4446 Rain 3 1020 93 7000 4.6 120 20:36 21.04.2020
4447 Rain 3 1020 93 7000 4.6 120 20:36 21.04.2020
4448 Rain 3 1020 93 7000 4.6 120 20:18 21.04.2020
4449 Rain 3 1020 93 7000 4.6 130 19:40 21.04.2020
4450 Rain 3 1020 93 7000 4.6 130 19:19 21.04.2020
4451 Rain 3 1020 93 7000 5.1 130 18:56 21.04.2020
4452 Rain 3 1020 86 8000 5.1 130 18:38 21.04.2020
4453 Rain 3 1020 86 8000 5.1 130 18:18 21.04.2020
4454 Rain 4 1019 93 7000 7.2 110 17:41 21.04.2020
4455 Rain 4 1019 93 7000 7.2 110 17:22 21.04.2020
4456 Rain 4 1019 86 6000 7.7 110 16:59 21.04.2020
4457 Rain 4 1019 86 7000 6.7 120 16:38 21.04.2020
4458 Rain 4 1019 86 7000 6.7 120 16:38 21.04.2020
4459 Rain 4 1019 86 7000 6.7 120 16:19 21.04.2020
4460 Rain 5 1019 80 7000 6.7 120 15:56 21.04.2020
4461 Rain 5 1019 86 10000 7.2 130 15:38 21.04.2020
4462 Rain 4 1019 86 10000 7.2 130 15:19 21.04.2020
4463 Rain 4 1019 86 10000 6.7 130 14:45 21.04.2020
4464 Rain 5 1019 86 10000 6.2 130 14:25 21.04.2020
4465 Rain 5 1019 86 10000 6.7 130 13:58 21.04.2020
4466 Rain 5 1019 93 10000 7.2 120 13:38 21.04.2020
4467 Rain 5 1019 93 10000 7.2 120 13:19 21.04.2020
4468 Rain 5 1019 86 10000 8.2 110 12:40 21.04.2020
4469 Rain 5 1019 86 10000 8.2 110 12:20 21.04.2020
4470 Rain 5 1019 86 9000 7.7 110 11:58 21.04.2020
4471 Rain 5 1019 86 10000 8.2 110 11:39 21.04.2020
4472 Rain 5 1019 86 10000 7.7 120 11:20 21.04.2020
4473 Rain 5 1019 86 10000 7.7 120 10:59 21.04.2020
4474 Rain 5 1019 86 9000 7.7 120 10:40 21.04.2020
4475 Rain 5 1019 86 9000 7.7 120 10:22 21.04.2020
4476 Rain 5 1019 86 7000 8.7 120 09:59 21.04.2020
4477 Rain 5 1019 86 7000 8.7 120 09:37 21.04.2020
4478 Rain 5 1019 86 7000 8.7 120 09:18 21.04.2020
4479 Rain 5 1019 86 8000 7.7 130 08:46 21.04.2020
4480 Rain 4 1019 86 8000 6.7 130 08:27 21.04.2020
4481 Rain 5 1019 86 7000 6.7 130 07:55 21.04.2020
4482 Rain 5 1019 86 10000 7.7 130 07:28 21.04.2020
4483 Rain 5 1019 86 10000 7.2 130 06:54 21.04.2020
4484 Rain 5 1018 86 10000 6.7 130 06:36 21.04.2020
4485 Rain 5 1018 86 10000 7.2 140 05:51 21.04.2020
4486 Rain 5 1018 93 8000 6.2 130 05:32 21.04.2020
4487 Rain 6 1018 87 10000 6.7 140 03:47 21.04.2020
4488 Rain 6 1018 87 10000 7.2 130 02:47 21.04.2020
4489 Rain 7 1019 87 10000 7.7 110 01:32 21.04.2020
4490 Rain 7 1019 93 10000 8.2 110 00:39 21.04.2020
4491 Rain 7 1019 93 10000 8.2 110 00:19 21.04.2020
4492 Rain 8 1019 87 10000 9.3 110 23:43 20.04.2020
4493 Rain 8 1019 81 10000 7.2 110 23:21 20.04.2020
4494 Rain 9 1019 87 10000 7.2 120 22:55 20.04.2020
4495 Rain 9 1019 81 10000 7.2 120 22:36 20.04.2020
4496 Rain 9 1019 81 10000 7.2 120 22:18 20.04.2020
4497 Rain 9 1019 81 10000 7.2 120 22:18 20.04.2020
4498 Rain 10 1018 81 10000 8.2 110 21:54 20.04.2020
4499 Rain 10 1018 81 10000 8.7 120 21:36 20.04.2020
4500 Rain 10 1018 81 10000 8.7 120 21:18 20.04.2020
4501 Rain 10 1018 87 10000 3.6 60 20:42 20.04.2020
4502 Rain 10 1018 87 10000 3.6 60 20:20 20.04.2020
4503 Rain 11 1017 81 10000 3.1 60 19:59 20.04.2020
4504 Clouds 11 1017 81 10000 2.6 70 19:40 20.04.2020
4505 Clouds 11 1017 81 10000 2.6 70 19:20 20.04.2020
4506 Clouds 12 1016 76 10000 3.6 120 18:55 20.04.2020
4507 Clouds 12 1016 76 10000 3.1 90 18:37 20.04.2020
4508 Clouds 12 1016 76 10000 3.1 90 18:19 20.04.2020
4509 Clouds 13 1016 71 10000 4.6 50 17:43 20.04.2020
4510 Clouds 13 1016 71 10000 4.6 50 17:23 20.04.2020
4511 Clouds 14 1015 67 10000 4.6 50 16:59 20.04.2020
4512 Rain 14 1015 71 10000 4.1 50 16:40 20.04.2020
4513 Rain 15 1015 71 10000 4.1 50 16:19 20.04.2020
4514 Rain 15 1015 71 10000 5.1 50 15:55 20.04.2020
4515 Rain 15 1015 71 10000 5.1 50 15:55 20.04.2020
4516 Clouds 15 1015 67 10000 6.7 50 15:36 20.04.2020
4517 Clouds 14 1015 67 10000 6.7 50 15:18 20.04.2020
4518 Clouds 16 1015 63 10000 6.7 30 14:41 20.04.2020
4519 Clouds 16 1015 63 10000 6.7 30 14:19 20.04.2020
4520 Clouds 18 1015 55 10000 4.6 20 13:57 20.04.2020
4521 Rain 18 1014 55 10000 3.1 360 13:38 20.04.2020
4522 Rain 18 1014 55 10000 3.1 360 13:20 20.04.2020
4523 Clouds 18 1014 52 10000 3.1 360 12:44 20.04.2020
4524 Clouds 18 1015 52 10000 4.1 20 12:22 20.04.2020
4525 Clouds 19 1015 48 10000 1.5 0 11:54 20.04.2020
4526 Clouds 18 1015 52 10000 2.6 310 11:36 20.04.2020
4527 Clouds 18 1015 52 10000 2.6 310 11:18 20.04.2020
4528 Clouds 18 1015 52 10000 2.1 0 10:54 20.04.2020
4529 Clouds 17 1014 55 10000 2.6 300 10:36 20.04.2020
4530 Clouds 17 1014 55 10000 2.6 300 10:18 20.04.2020
4531 Clouds 16 1014 55 10000 3.1 280 09:40 20.04.2020
4532 Clouds 16 1014 55 10000 3.1 280 09:21 20.04.2020
4533 Rain 12 1014 66 10000 0.5 0 08:43 20.04.2020
4534 Rain 13 1014 66 10000 0.5 0 08:23 20.04.2020
4535 Rain 12 1014 76 10000 1.5 360 07:59 20.04.2020
4536 Rain 13 1013 76 10000 0.5 0 07:39 20.04.2020
4537 Rain 12 1013 76 10000 0.5 0 07:19 20.04.2020
4538 Rain 11 1012 81 10000 1 0 06:37 20.04.2020
4539 Rain 10 1012 81 10000 1 0 05:57 20.04.2020
4540 Rain 11 1012 76 10000 2.1 150 04:46 20.04.2020
4541 Rain 11 1012 76 10000 2.1 150 04:46 20.04.2020
4542 Rain 11 1012 66 10000 3.1 230 02:48 20.04.2020
4543 Clouds 12 1011 66 10000 0.8 285 02:26 20.04.2020
4544 Clouds 12 1011 54 10000 0.8 285 01:29 20.04.2020
4545 Clouds 11 1011 62 10000 0.8 285 00:45 20.04.2020
4546 Clouds 14 1011 50 10000 1 0 00:21 20.04.2020
4547 Clouds 14 1011 41 10000 2.1 30 23:39 19.04.2020
4548 Clouds 14 1011 41 10000 2.1 30 23:21 19.04.2020
4549 Clouds 15 1011 33 10000 1.5 250 22:55 19.04.2020
4550 Clouds 15 1011 33 10000 1.5 250 22:55 19.04.2020
4551 Clouds 16 1011 32 10000 2.6 260 22:37 19.04.2020
4552 Clouds 17 1011 32 10000 2.6 260 22:19 19.04.2020
4553 Clouds 17 1011 36 10000 2.1 110 21:42 19.04.2020
4554 Rain 18 1011 36 10000 2.1 110 21:23 19.04.2020
4555 Rain 18 1010 28 10000 2.1 40 20:57 19.04.2020
4556 Rain 18 1010 32 10000 2.1 240 20:39 19.04.2020
4557 Rain 19 1010 32 10000 2.1 240 20:20 19.04.2020
4558 Rain 20 1010 28 10000 1.5 290 19:56 19.04.2020
4559 Rain 21 1010 30 10000 1.5 0 19:38 19.04.2020
4560 Rain 22 1010 30 10000 1.5 0 19:19 19.04.2020
4561 Rain 24 1009 25 10000 1 0 18:55 19.04.2020
4562 Rain 24 1009 27 10000 1 0 18:36 19.04.2020
4563 Clouds 24 1009 27 10000 1 0 18:18 19.04.2020
4564 Clouds 25 1010 22 10000 2.1 290 17:54 19.04.2020
4565 Clouds 24 1010 25 10000 2.6 280 17:36 19.04.2020
4566 Clouds 24 1010 25 10000 2.6 280 17:36 19.04.2020
4567 Clouds 24 1010 25 10000 2.6 280 17:18 19.04.2020
4568 Clouds 26 1010 22 10000 2.1 0 16:39 19.04.2020
4569 Clouds 25 1010 22 10000 2.1 0 16:21 19.04.2020
4570 Clouds 25 1010 19 10000 2.1 0 15:57 19.04.2020
4571 Clouds 26 1011 37 10000 1.5 0 15:39 19.04.2020
4572 Clouds 26 1011 32 10000 1.5 0 15:18 19.04.2020
4573 Clouds 24 1012 27 10000 2.6 0 14:38 19.04.2020
4574 Clouds 24 1012 27 10000 2.6 0 14:20 19.04.2020
4575 Clouds 25 1012 29 10000 1.5 0 13:56 19.04.2020
4576 Clouds 25 1012 29 10000 1.5 0 13:56 19.04.2020
4577 Clouds 23 1012 27 10000 1 0 13:36 19.04.2020
4578 Clouds 23 1012 27 10000 1 0 13:18 19.04.2020
4579 Clouds 21 1013 37 10000 0.5 0 12:43 19.04.2020
4580 Clouds 21 1013 37 10000 0.5 0 12:24 19.04.2020
4581 Clouds 18 1014 45 10000 0.5 0 11:39 19.04.2020
4582 Clouds 20 1014 45 10000 0.5 0 11:20 19.04.2020
4583 Clouds 19 1015 48 10000 1 0 10:59 19.04.2020
4584 Clouds 17 1015 51 10000 1.7 227 10:41 19.04.2020
4585 Clouds 17 1015 51 10000 1.7 227 10:41 19.04.2020
4586 Clouds 17 1015 51 10000 1.7 227 10:20 19.04.2020
4587 Clouds 15 1015 54 10000 0.5 0 09:51 19.04.2020
4588 Clouds 14 1015 54 10000 1 0 09:32 19.04.2020
4589 Clouds 13 1015 58 10000 0.5 0 08:59 19.04.2020
4590 Clouds 11 1015 66 10000 1 0 08:38 19.04.2020
4591 Clouds 10 1015 66 10000 1 0 08:18 19.04.2020
4592 Clouds 11 1015 70 10000 1.24 211 07:45 19.04.2020
4593 Clouds 10 1015 70 10000 1.24 211 07:25 19.04.2020
4594 Clouds 10 1015 70 10000 1.28 208 07:25 19.04.2020
4595 Clouds 8 1015 81 10000 1 340 06:37 19.04.2020
4596 Clouds 8 1015 81 10000 1 340 06:18 19.04.2020
4597 Clouds 8 1015 75 10000 1 190 04:56 19.04.2020
4598 Clear 8 1015 75 10000 1.07 211 03:21 19.04.2020
4599 Clear 9 1015 70 10000 1 320 02:22 19.04.2020
4600 Clear 9 1015 61 10000 1 0 01:39 19.04.2020
4601 Clear 10 1015 61 10000 1 0 01:18 19.04.2020
4602 Clear 10 1015 57 10000 2.1 160 00:38 19.04.2020
4603 Clear 10 1015 57 10000 2.1 160 00:19 19.04.2020
4604 Clear 11 1015 57 10000 1.5 130 23:39 18.04.2020
4605 Clear 11 1015 57 10000 1.5 130 23:39 18.04.2020
4606 Clear 11 1015 57 10000 1.5 130 23:19 18.04.2020
4607 Clear 13 1015 54 10000 1.5 70 22:42 18.04.2020
4608 Clear 13 1015 54 10000 1.5 70 22:22 18.04.2020
4609 Clear 14 1015 47 10000 1.5 140 21:58 18.04.2020
4610 Clear 14 1015 47 10000 2.1 170 21:38 18.04.2020
4611 Clouds 15 1015 47 10000 2.1 170 21:20 18.04.2020
4612 Clouds 17 1015 42 10000 3.1 170 20:42 18.04.2020
4613 Clouds 17 1015 42 10000 3.1 170 20:23 18.04.2020
4614 Clouds 19 1014 32 10000 2.6 70 19:59 18.04.2020
4615 Clouds 19 1014 32 10000 2.6 70 19:59 18.04.2020
4616 Clouds 20 1014 28 10000 3.6 60 19:38 18.04.2020
4617 Clouds 21 1014 28 10000 3.6 60 19:20 18.04.2020
4618 Clouds 23 1014 27 10000 5.1 60 18:38 18.04.2020
4619 Clouds 23 1014 27 10000 5.1 60 18:20 18.04.2020
4620 Clouds 24 1014 25 10000 3.6 40 17:55 18.04.2020
4621 Clouds 24 1014 22 10000 2.6 50 17:36 18.04.2020
4622 Clouds 24 1014 22 10000 2.6 50 17:18 18.04.2020
4623 Clouds 24 1014 23 10000 3.6 90 16:42 18.04.2020
4624 Clouds 24 1014 23 10000 3.6 90 16:22 18.04.2020
4625 Clouds 24 1014 22 10000 3.1 130 15:40 18.04.2020
4626 Clouds 24 1014 22 10000 3.1 130 15:40 18.04.2020
4627 Clouds 24 1014 22 10000 3.1 130 15:22 18.04.2020
4628 Clouds 24 1015 19 10000 1.5 80 14:54 18.04.2020
4629 Clouds 24 1015 20 10000 3.1 250 14:36 18.04.2020
4630 Clear 23 1015 20 10000 3.1 250 14:18 18.04.2020
4631 Clear 24 1016 23 10000 2.6 290 13:42 18.04.2020
4632 Clear 23 1016 25 10000 2.6 290 13:20 18.04.2020
4633 Clear 22 1016 26 10000 3.6 270 12:43 18.04.2020
4634 Clouds 22 1016 26 10000 3.6 270 12:24 18.04.2020
4635 Clouds 21 1017 28 10000 4.1 280 11:57 18.04.2020
4636 Clouds 20 1017 34 10000 1.5 0 11:39 18.04.2020
4637 Clouds 18 1017 39 10000 1.5 0 11:20 18.04.2020
4638 Clouds 16 1017 41 10000 1 0 10:42 18.04.2020
4639 Clouds 16 1017 41 10000 1 0 10:22 18.04.2020
4640 Clouds 14 1017 44 10000 0.5 0 09:59 18.04.2020
4641 Clouds 13 1018 50 10000 1 0 09:39 18.04.2020
4642 Clear 13 1018 50 10000 1 0 09:20 18.04.2020
4643 Clear 11 1018 61 10000 1 0 08:42 18.04.2020
4644 Clear 11 1018 61 10000 1 0 08:21 18.04.2020
4645 Clear 8 1018 70 10000 1.5 110 07:47 18.04.2020
4646 Clear 5 1017 80 10000 1.5 110 07:28 18.04.2020
4647 Clear 7 1017 86 10000 1.07 258 06:39 18.04.2020
4648 Clear 5 1017 80 10000 1 180 05:49 18.04.2020
4649 Clear 5 1016 75 10000 1 0 04:54 18.04.2020
4650 Clear 6 1016 75 10000 1 0 04:30 18.04.2020
4651 Clear 8 1016 75 10000 0.5 130 03:18 18.04.2020
4652 Clear 8 1016 70 10000 0.5 0 02:40 18.04.2020
4653 Clear 8 1016 70 10000 0.5 0 02:20 18.04.2020
4654 Clear 9 1016 70 10000 2.1 110 01:40 18.04.2020
4655 Clear 9 1016 61 10000 1.5 140 00:59 18.04.2020
4656 Clear 10 1016 61 10000 1.5 120 00:24 18.04.2020
4657 Clear 11 1016 53 10000 1 0 23:58 17.04.2020
4658 Clear 11 1016 57 10000 1.5 60 23:40 17.04.2020
4659 Clear 12 1016 57 10000 1.5 60 23:19 17.04.2020
4660 Clear 13 1015 46 10000 1 0 22:58 17.04.2020
4661 Clear 13 1015 46 10000 1 0 22:58 17.04.2020
4662 Clear 14 1015 51 10000 2.6 340 22:40 17.04.2020
4663 Clear 15 1015 51 10000 2.6 340 22:19 17.04.2020
4664 Clear 14 1015 41 10000 3.1 260 21:56 17.04.2020
4665 Clear 15 1015 38 10000 3.1 280 21:37 17.04.2020
4666 Clear 15 1015 38 10000 3.1 280 21:18 17.04.2020
4667 Clear 16 1015 36 10000 2.1 310 20:54 17.04.2020
4668 Clear 18 1014 25 10000 3.6 290 20:36 17.04.2020
4669 Clear 18 1014 25 10000 3.6 290 20:36 17.04.2020
4670 Clear 18 1014 25 10000 3.6 290 20:18 17.04.2020
4671 Clear 19 1013 22 10000 4.6 300 19:42 17.04.2020
4672 Clear 20 1013 22 10000 4.6 300 19:23 17.04.2020
4673 Clear 21 1013 51 10000 5.1 300 18:45 17.04.2020
4674 Clouds 22 1013 21 10000 6.2 300 18:24 17.04.2020
4675 Clouds 23 1013 33 10000 6.2 300 17:57 17.04.2020
4676 Clouds 23 1013 33 10000 6.2 290 17:37 17.04.2020
4677 Clouds 23 1013 33 10000 6.2 290 17:18 17.04.2020
4678 Clouds 23 1013 23 10000 6.2 280 16:43 17.04.2020
4679 Clouds 23 1013 23 10000 6.2 280 16:23 17.04.2020
4680 Clouds 23 1013 27 10000 6.2 280 15:44 17.04.2020
4681 Clouds 23 1014 23 10000 7.2 300 15:24 17.04.2020
4682 Clouds 23 1014 23 10000 7.7 280 14:58 17.04.2020
4683 Clouds 22 1014 24 10000 6.7 270 14:39 17.04.2020
4684 Clouds 22 1014 24 10000 6.7 270 14:21 17.04.2020
4685 Clouds 21 1015 28 10000 5.1 260 13:55 17.04.2020
4686 Clouds 20 1015 28 10000 5.7 280 13:36 17.04.2020
4687 Clouds 17 1015 28 10000 5.7 280 13:18 17.04.2020
4688 Clouds 17 1016 42 10000 2.1 0 12:44 17.04.2020
4689 Clouds 15 1016 42 10000 2.1 0 12:23 17.04.2020
4690 Clouds 14 1017 44 10000 1 0 11:42 17.04.2020
4691 Clouds 14 1017 44 10000 1 0 11:19 17.04.2020
4692 Clouds 15 1017 50 10000 1 0 10:56 17.04.2020
4693 Clouds 15 1017 50 10000 1 0 10:56 17.04.2020
4694 Clouds 14 1018 50 10000 1.5 0 10:38 17.04.2020
4695 Clouds 13 1018 50 10000 1.5 0 10:18 17.04.2020
4696 Clouds 11 1018 66 10000 0.5 0 09:41 17.04.2020
4697 Clouds 10 1018 66 10000 0.5 0 09:20 17.04.2020
4698 Clouds 9 1018 70 10000 0.5 0 08:57 17.04.2020
4699 Clouds 7 1018 70 10000 0.5 0 08:39 17.04.2020
4700 Clouds 6 1018 75 10000 1.3 244 08:19 17.04.2020
4701 Clouds 5 1018 86 10000 0.5 0 07:44 17.04.2020
4702 Clouds 6 1018 49 10000 1 160 07:22 17.04.2020
4703 Clouds 5 1017 49 10000 2.1 110 06:45 17.04.2020
4704 Clouds 4 1017 86 10000 1.5 50 06:22 17.04.2020
4705 Clouds 4 1018 86 10000 1.5 340 04:46 17.04.2020
4706 Clouds 5 1018 80 10000 0.5 0 03:19 17.04.2020
4707 Clouds 5 1018 80 10000 1 360 01:58 17.04.2020
4708 Clouds 5 1019 75 10000 1.5 60 01:27 17.04.2020
4709 Clouds 5 1019 70 10000 1 0 00:45 17.04.2020
4710 Clear 7 1019 65 10000 3.1 110 00:18 17.04.2020
4711 Clear 7 1019 65 10000 2.1 140 23:40 16.04.2020
4712 Clear 8 1019 57 10000 2.6 140 23:22 16.04.2020
4713 Clear 8 1019 57 10000 3.1 110 22:56 16.04.2020
4714 Clear 8 1019 57 10000 3.1 110 22:37 16.04.2020
4715 Clear 8 1019 57 10000 3.1 110 22:37 16.04.2020
4716 Clear 8 1019 53 10000 2.1 50 22:19 16.04.2020
4717 Clear 8 1019 61 10000 1.5 50 21:41 16.04.2020
4718 Clear 8 1018 53 10000 2.1 210 21:20 16.04.2020
4719 Clear 9 1018 53 10000 2.1 210 20:57 16.04.2020
4720 Clear 10 1018 47 10000 2.1 170 20:38 16.04.2020
4721 Clear 10 1018 41 10000 1.5 150 20:19 16.04.2020
4722 Clear 11 1018 38 10000 2.6 130 19:40 16.04.2020
4723 Clear 12 1018 36 10000 1.5 80 19:20 16.04.2020
4724 Clear 13 1018 36 10000 1.5 80 18:58 16.04.2020
4725 Clear 12 1019 31 10000 1.5 120 18:39 16.04.2020
4726 Clear 13 1019 31 10000 1.5 90 18:21 16.04.2020
4727 Clear 14 1019 35 10000 1.5 70 17:55 16.04.2020
4728 Clear 14 1019 35 10000 1.5 70 17:37 16.04.2020
4729 Clear 14 1019 29 10000 1.5 30 17:18 16.04.2020
4730 Clear 14 1020 31 10000 1.5 0 16:41 16.04.2020
4731 Clear 14 1020 29 10000 1.5 260 16:19 16.04.2020
4732 Clear 15 1020 31 10000 2.1 160 15:45 16.04.2020
4733 Clear 18 1021 31 10000 1.5 0 15:19 16.04.2020
4734 Clear 16 1021 31 10000 1.5 0 14:58 16.04.2020
4735 Clear 17 1022 30 10000 2.6 0 14:39 16.04.2020
4736 Clear 15 1022 26 10000 1.5 0 14:19 16.04.2020
4737 Clear 15 1022 26 10000 1.5 0 13:56 16.04.2020
4738 Clear 15 1023 22 10000 1.5 0 13:37 16.04.2020
4739 Clear 11 1023 30 10000 1.5 0 13:18 16.04.2020
4740 Clear 13 1023 30 10000 1.5 0 12:56 16.04.2020
4741 Clear 13 1023 30 10000 1.5 0 12:56 16.04.2020
4742 Clear 14 1024 37 10000 1 0 12:37 16.04.2020
4743 Clear 10 1024 43 10000 1 0 12:18 16.04.2020
4744 Clear 12 1025 46 10000 1 0 11:42 16.04.2020
4745 Clear 9 1025 45 10000 1.5 0 11:22 16.04.2020
4746 Clear 10 1025 45 10000 1.5 0 10:57 16.04.2020
4747 Clear 8 1025 56 10000 1.5 0 10:39 16.04.2020
4748 Clear 9 1026 60 10000 1.5 0 10:19 16.04.2020
4749 Clear 8 1026 60 10000 1.5 0 09:57 16.04.2020
4750 Clear 8 1026 65 10000 1 0 09:38 16.04.2020
4751 Clear 3 1026 74 10000 1 0 09:19 16.04.2020
4752 Clear 4 1026 80 10000 1 0 08:41 16.04.2020
4753 Clear 3 1026 86 10000 1 0 08:22 16.04.2020
4754 Clear 1 1026 47 10000 0.5 320 07:46 16.04.2020
4755 Clear 0 1026 47 10000 0.5 320 07:26 16.04.2020
4756 Clear 1 1026 92 10000 1 130 06:44 16.04.2020
4757 Clear 0 1026 92 10000 1 130 06:25 16.04.2020
4758 Clear -1 1025 92 10000 1.5 80 05:34 16.04.2020
4759 Clear -1 1025 92 10000 1 0 03:59 16.04.2020
4760 Clear -1 1024 66 10000 1.5 170 03:23 16.04.2020
4761 Clear 0 1024 66 10000 1 0 02:47 16.04.2020
4762 Clear 0 1024 66 10000 1 0 02:28 16.04.2020
4763 Clear 0 1024 80 10000 0.93 273 01:19 16.04.2020
4764 Clear 0 1024 86 10000 1 0 00:32 16.04.2020
4765 Clouds 0 1024 86 10000 0.5 0 23:59 15.04.2020
4766 Clouds 0 1023 86 10000 2.1 170 23:41 15.04.2020
4767 Clouds -1 1024 86 10000 0.5 200 23:21 15.04.2020
4768 Clouds 0 1024 80 10000 1.5 100 22:40 15.04.2020
4769 Clouds 0 1023 74 10000 1 0 22:22 15.04.2020
4770 Clouds 0 1023 74 10000 1 0 21:59 15.04.2020
4771 Clouds 1 1023 69 10000 2.6 170 21:40 15.04.2020
4772 Clouds 3 1023 65 10000 2.1 220 21:22 15.04.2020
4773 Clouds 4 1023 65 10000 2.1 220 20:57 15.04.2020
4774 Clouds 4 1023 60 10000 2.6 160 20:39 15.04.2020
4775 Clouds 4 1022 65 10000 3.6 120 20:21 15.04.2020
4776 Clouds 5 1022 60 10000 3.6 90 19:45 15.04.2020
4777 Clouds 6 1022 56 10000 2.6 90 19:21 15.04.2020
4778 Clouds 6 1022 56 10000 3.6 80 18:55 15.04.2020
4779 Clouds 5 1022 56 10000 3.6 80 18:37 15.04.2020
4780 Clouds 6 1022 56 10000 4.6 80 18:18 15.04.2020
4781 Clouds 7 1022 60 10000 4.6 70 17:40 15.04.2020
4782 Clouds 7 1022 60 10000 4.6 70 17:40 15.04.2020
4783 Clouds 7 1022 52 10000 4.6 70 17:21 15.04.2020
4784 Clouds 7 1022 52 10000 4.6 70 16:58 15.04.2020
4785 Clouds 7 1021 56 10000 3.6 60 16:39 15.04.2020
4786 Clouds 8 1021 52 10000 3.1 60 16:20 15.04.2020
4787 Clouds 8 1021 52 10000 3.1 60 15:58 15.04.2020
4788 Clouds 8 1021 52 10000 4.1 40 15:39 15.04.2020
4789 Clouds 7 1022 55 10000 4.6 40 15:20 15.04.2020
4790 Clouds 7 1022 55 10000 4.6 40 15:20 15.04.2020
4791 Clouds 7 1022 55 10000 4.6 40 14:58 15.04.2020
4792 Clouds 6 1022 55 10000 3.1 40 14:39 15.04.2020
4793 Clouds 6 1022 55 10000 3.1 40 14:39 15.04.2020
4794 Clouds 5 1022 56 10000 3.1 50 14:21 15.04.2020
4795 Clouds 7 1022 56 10000 3.1 50 13:58 15.04.2020
4796 Clouds 6 1022 56 10000 3.6 20 13:39 15.04.2020
4797 Clouds 7 1021 56 10000 3.1 50 13:20 15.04.2020
4798 Clouds 6 1021 56 10000 4.1 90 12:56 15.04.2020
4799 Clouds 6 1021 56 10000 4.1 90 12:38 15.04.2020
4800 Clouds 6 1022 65 10000 4.1 30 12:19 15.04.2020
4801 Clouds 6 1022 60 10000 3.1 50 11:42 15.04.2020
4802 Clouds 6 1022 60 10000 3.1 50 11:24 15.04.2020
4803 Clouds 5 1021 60 10000 1.5 0 10:58 15.04.2020
4804 Clouds 5 1021 65 10000 3.1 280 10:36 15.04.2020
4805 Clouds 2 1021 56 10000 3.6 280 10:18 15.04.2020
4806 Clouds 2 1021 56 10000 3.6 290 09:55 15.04.2020
4807 Clouds 2 1021 56 10000 3.6 290 09:37 15.04.2020
4808 Clouds 1 1021 61 10000 4.1 290 09:18 15.04.2020
4809 Clouds 2 1020 74 10000 4.6 290 08:41 15.04.2020
4810 Clouds 2 1020 80 10000 4.6 280 08:21 15.04.2020
4811 Clouds 1 1020 80 10000 4.6 280 07:55 15.04.2020
4812 Clouds 1 1020 61 10000 4.1 280 07:34 15.04.2020
4813 Clouds 2 1019 61 5000 5.7 280 06:37 15.04.2020
4814 Clouds 2 1019 67 8000 6.2 280 05:57 15.04.2020
4815 Clouds 2 1018 67 7000 6.7 280 05:21 15.04.2020
4816 Clouds 2 1018 93 8000 5.7 280 04:45 15.04.2020
4817 Clouds 1 1018 67 8000 6.2 270 03:51 15.04.2020
4818 Clouds 1 1018 70 6000 5.7 270 03:18 15.04.2020
4819 Clouds 1 1018 93 8000 6.2 280 02:33 15.04.2020
4820 Clouds 2 1017 86 10000 8.2 280 01:44 15.04.2020
4821 Clouds 2 1017 86 10000 8.2 280 01:20 15.04.2020
4822 Rain 2 1016 86 10000 8.2 280 00:37 15.04.2020
4823 Rain 2 1016 86 10000 10.3 270 00:19 15.04.2020
4824 Rain 3 1016 86 10000 10.3 270 23:55 14.04.2020
4825 Rain 3 1016 80 10000 8.7 280 23:36 14.04.2020
4826 Rain 4 1015 86 10000 7.2 280 23:18 14.04.2020
4827 Rain 4 1015 86 10000 7.2 280 23:18 14.04.2020
4828 Rain 4 1015 80 10000 8.7 280 22:55 14.04.2020
4829 Rain 4 1015 80 10000 8.7 280 22:36 14.04.2020
4830 Rain 5 1014 87 10000 8.2 290 22:18 14.04.2020
4831 Rain 5 1014 87 10000 8.2 290 21:55 14.04.2020
4832 Rain 6 1014 87 10000 7.7 300 21:37 14.04.2020
4833 Rain 6 1013 87 10000 6.7 290 21:18 14.04.2020
4834 Rain 7 1012 87 10000 2.6 320 20:40 14.04.2020
4835 Clouds 7 1012 76 10000 1.5 310 20:22 14.04.2020
4836 Clouds 8 1012 76 10000 1.5 310 19:58 14.04.2020
4837 Rain 8 1012 81 10000 2.1 330 19:39 14.04.2020
4838 Rain 7 1012 81 10000 2.6 340 19:20 14.04.2020
4839 Rain 7 1012 81 10000 1.5 10 18:56 14.04.2020
4840 Rain 8 1012 81 10000 1.5 10 18:37 14.04.2020
4841 Rain 8 1012 76 10000 2.1 350 18:18 14.04.2020
4842 Rain 8 1012 76 10000 2.1 350 17:56 14.04.2020
4843 Rain 8 1012 71 10000 6.7 270 17:37 14.04.2020
4844 Rain 11 1012 62 10000 12.3 250 17:18 14.04.2020
4845 Clouds 13 1010 44 10000 10.8 240 16:41 14.04.2020
4846 Clouds 14 1010 44 10000 10.8 240 16:23 14.04.2020
4847 Clouds 13 1010 61 10000 10.8 240 15:58 14.04.2020
4848 Rain 14 1009 23 10000 7.2 250 15:38 14.04.2020
4849 Clouds 18 1010 19 10000 6.7 240 15:19 14.04.2020
4850 Clouds 19 1010 19 10000 6.7 240 14:57 14.04.2020
4851 Clouds 19 1009 19 10000 7.2 240 14:39 14.04.2020
4852 Clouds 19 1009 19 10000 7.2 240 14:39 14.04.2020
4853 Clouds 16 1009 19 10000 4.6 210 14:21 14.04.2020
4854 Clouds 16 1009 19 10000 4.6 210 14:21 14.04.2020
4855 Clouds 15 1010 19 10000 7.7 220 13:45 14.04.2020
4856 Clouds 16 1010 19 10000 5.7 230 13:24 14.04.2020
4857 Clouds 18 1010 19 10000 5.7 230 12:59 14.04.2020
4858 Clouds 17 1011 22 10000 3.1 250 12:39 14.04.2020
4859 Clouds 17 1011 22 10000 3.1 250 12:39 14.04.2020
4860 Clouds 15 1011 25 10000 2.1 360 12:20 14.04.2020
4861 Clouds 14 1011 25 10000 2.1 360 11:54 14.04.2020
4862 Clouds 13 1012 38 10000 1 0 11:36 14.04.2020
4863 Clouds 12 1012 38 10000 1.5 0 11:18 14.04.2020
4864 Clouds 13 1013 41 10000 1 0 10:40 14.04.2020
4865 Clouds 12 1013 43 10000 2.55 242 10:21 14.04.2020
4866 Clouds 10 1013 50 10000 1 0 09:42 14.04.2020
4867 Clouds 10 1013 50 10000 1 0 09:24 14.04.2020
4868 Clouds 8 1013 61 10000 1.5 120 08:57 14.04.2020
4869 Clouds 8 1014 75 10000 1 90 08:39 14.04.2020
4870 Clouds 7 1014 81 10000 1 0 08:21 14.04.2020
4871 Clouds 6 1014 80 10000 1.5 50 07:51 14.04.2020
4872 Clouds 7 1014 80 10000 1.5 50 07:27 14.04.2020
4873 Clouds 5 1013 80 10000 1 0 06:46 14.04.2020
4874 Clouds 5 1013 75 10000 1.5 150 05:54 14.04.2020
4875 Clouds 5 1014 75 10000 1 0 03:50 14.04.2020
4876 Clouds 6 1014 66 10000 1.5 130 02:40 14.04.2020
4877 Clouds 6 1014 65 10000 1.36 236 01:29 14.04.2020
4878 Clouds 6 1014 57 10000 1 0 00:59 14.04.2020
4879 Clouds 6 1014 61 10000 1.5 0 00:32 14.04.2020
4880 Clouds 7 1014 53 10000 2.6 130 23:59 13.04.2020
4881 Clouds 7 1014 53 10000 2.6 130 23:39 13.04.2020
4882 Clouds 8 1014 53 10000 2.1 90 23:20 13.04.2020
4883 Clouds 8 1014 53 10000 2.1 90 22:55 13.04.2020
4884 Clouds 9 1014 50 10000 0.5 0 22:55 13.04.2020
4885 Clouds 8 1014 50 10000 0.5 0 22:37 13.04.2020
4886 Clouds 9 1014 41 10000 1.5 20 22:18 13.04.2020
4887 Clouds 10 1014 38 10000 2.1 60 21:42 13.04.2020
4888 Clouds 10 1014 41 10000 1.5 210 21:21 13.04.2020
4889 Clouds 9 1014 41 10000 1.5 210 20:59 13.04.2020
4890 Clouds 11 1014 36 10000 3.1 220 20:40 13.04.2020
4891 Clouds 11 1014 48 10000 3.1 230 20:20 13.04.2020
4892 Clouds 11 1014 48 10000 3.1 230 19:58 13.04.2020
4893 Clouds 11 1014 48 10000 5.1 250 19:37 13.04.2020
4894 Clouds 12 1014 48 10000 5.7 270 19:19 13.04.2020
4895 Clouds 12 1014 48 10000 5.7 270 19:19 13.04.2020
4896 Clouds 13 1014 48 10000 5.7 270 18:57 13.04.2020
4897 Clouds 13 1014 24 10000 7.7 280 18:37 13.04.2020
4898 Clouds 17 1014 22 10000 6.2 240 18:18 13.04.2020
4899 Clouds 16 1014 22 10000 6.2 240 17:56 13.04.2020
4900 Clouds 16 1014 39 10000 4.6 250 17:37 13.04.2020
4901 Clouds 17 1014 39 10000 6.7 210 17:19 13.04.2020
4902 Clouds 17 1014 39 10000 6.7 210 16:57 13.04.2020
4903 Clouds 17 1014 39 10000 5.1 220 16:37 13.04.2020
4904 Clouds 18 1014 24 10000 4.6 260 16:19 13.04.2020
4905 Clouds 17 1015 28 10000 4.6 260 15:46 13.04.2020
4906 Clouds 18 1015 28 10000 4.6 260 15:28 13.04.2020
4907 Clouds 17 1015 32 10000 3.1 0 14:59 13.04.2020
4908 Clouds 16 1016 28 10000 5.1 250 14:40 13.04.2020
4909 Clouds 16 1016 30 10000 1 0 14:22 13.04.2020
4910 Clouds 16 1016 30 10000 1 0 13:56 13.04.2020
4911 Clouds 14 1017 36 10000 1.5 0 13:38 13.04.2020
4912 Clouds 14 1018 39 10000 0.5 0 13:20 13.04.2020
4913 Clouds 14 1018 39 10000 0.5 0 12:58 13.04.2020
4914 Clouds 13 1018 41 10000 2.1 240 12:39 13.04.2020
4915 Clear 13 1019 44 10000 1 0 12:19 13.04.2020
4916 Clear 13 1019 44 10000 1 0 12:19 13.04.2020
4917 Clear 13 1019 44 10000 1 0 11:57 13.04.2020
4918 Clear 14 1019 47 10000 1 0 11:38 13.04.2020
4919 Clear 13 1019 43 10000 1 0 11:18 13.04.2020
4920 Clear 13 1019 43 10000 1 0 10:54 13.04.2020
4921 Clear 12 1020 50 10000 1 0 10:36 13.04.2020
4922 Clear 11 1020 53 10000 0.5 0 10:18 13.04.2020
4923 Clear 9 1020 42 10000 1 0 09:43 13.04.2020
4924 Clouds 9 1020 60 10000 1 0 09:24 13.04.2020
4925 Clouds 8 1021 60 10000 2.1 90 08:45 13.04.2020
4926 Clouds 6 1021 60 10000 2.1 90 08:26 13.04.2020
4927 Clouds 5 1021 60 10000 0.5 120 07:45 13.04.2020
4928 Clouds 4 1021 60 10000 0.5 120 07:26 13.04.2020
4929 Clouds 3 1021 69 10000 3.1 120 06:56 13.04.2020
4930 Clouds 4 1021 69 10000 3.1 120 06:37 13.04.2020
4931 Clouds 4 1020 65 10000 1.5 140 05:40 13.04.2020
4932 Clouds 4 1021 65 10000 2.1 160 05:19 13.04.2020
4933 Clouds 4 1021 69 10000 2.6 120 04:31 13.04.2020
4934 Clouds 4 1021 69 10000 3.1 100 03:54 13.04.2020
4935 Clouds 5 1021 65 10000 4.1 100 03:34 13.04.2020
4936 Clear 6 1021 69 10000 4.6 110 02:40 13.04.2020
4937 Clear 6 1022 61 10000 6.7 110 01:46 13.04.2020
4938 Clear 6 1022 61 10000 6.7 110 01:27 13.04.2020
4939 Clear 6 1022 61 10000 6.7 110 01:27 13.04.2020
4940 Clear 7 1021 61 10000 7.2 110 00:46 13.04.2020
4941 Clear 6 1021 70 10000 5.7 110 00:24 13.04.2020
4942 Clear 6 1021 70 10000 5.7 110 23:56 12.04.2020
4943 Clear 6 1021 70 10000 4.1 110 23:37 12.04.2020
4944 Clear 6 1021 70 10000 5.7 100 23:18 12.04.2020
4945 Clear 7 1021 70 10000 5.7 100 22:41 12.04.2020
4946 Clear 6 1021 70 10000 5.7 100 22:19 12.04.2020
4947 Clear 7 1021 70 10000 5.7 100 21:59 12.04.2020
4948 Clear 7 1021 62 10000 6.7 110 21:37 12.04.2020
4949 Rain 7 1021 62 10000 7.2 110 21:18 12.04.2020
4950 Rain 8 1021 58 10000 7.2 100 20:42 12.04.2020
4951 Rain 8 1020 54 10000 6.7 100 20:23 12.04.2020
4952 Rain 8 1020 54 10000 6.7 100 19:57 12.04.2020
4953 Rain 8 1020 47 10000 6.7 110 19:39 12.04.2020
4954 Rain 10 1020 41 10000 4.6 120 19:19 12.04.2020
4955 Rain 10 1020 39 10000 5.1 150 18:41 12.04.2020
4956 Rain 13 1020 34 10000 4.1 140 18:23 12.04.2020
4957 Rain 13 1020 34 10000 3.1 120 18:00 12.04.2020
4958 Rain 14 1020 34 10000 3.1 120 17:41 12.04.2020
4959 Rain 14 1020 34 10000 3.1 120 17:23 12.04.2020
4960 Rain 14 1021 31 10000 4.1 120 16:58 12.04.2020
4961 Rain 13 1021 34 10000 3.1 130 16:39 12.04.2020
4962 Rain 13 1021 31 10000 3.6 140 16:20 12.04.2020
4963 Rain 14 1021 29 10000 4.1 110 15:49 12.04.2020
4964 Rain 14 1021 29 10000 4.1 110 15:30 12.04.2020
4965 Rain 18 1022 34 10000 3.6 80 14:55 12.04.2020
4966 Rain 18 1022 31 10000 3.1 110 14:36 12.04.2020
4967 Rain 13 1023 42 10000 2.6 100 14:18 12.04.2020
4968 Rain 12 1023 42 10000 3.1 80 13:42 12.04.2020
4969 Rain 11 1024 38 10000 3.1 140 13:23 12.04.2020
4970 Rain 12 1024 38 10000 3.1 140 12:55 12.04.2020
4971 Rain 12 1024 38 10000 4.1 130 12:37 12.04.2020
4972 Clouds 11 1024 41 10000 5.1 110 12:18 12.04.2020
4973 Clouds 10 1024 44 10000 6.7 100 11:42 12.04.2020
4974 Clouds 10 1025 44 10000 6.7 110 11:22 12.04.2020
4975 Clouds 10 1025 44 10000 6.7 110 10:58 12.04.2020
4976 Clouds 10 1025 47 10000 6.7 100 10:40 12.04.2020
4977 Clouds 8 1025 47 10000 7.2 100 10:21 12.04.2020
4978 Clouds 8 1025 47 10000 7.2 100 10:00 12.04.2020
4979 Clouds 8 1025 47 10000 7.2 100 10:00 12.04.2020
4980 Clouds 10 1025 53 10000 6.2 90 09:39 12.04.2020
4981 Clouds 8 1025 53 10000 6.2 100 09:21 12.04.2020
4982 Clouds 7 1025 70 10000 5.7 100 08:52 12.04.2020
4983 Clouds 7 1025 70 10000 5.7 100 08:33 12.04.2020
4984 Clouds 6 1025 75 10000 4.1 110 07:58 12.04.2020
4985 Clouds 5 1025 80 10000 4.1 120 07:40 12.04.2020
4986 Clouds 4 1025 59 10000 3.1 110 07:18 12.04.2020
4987 Clouds 4 1025 59 10000 1 0 06:33 12.04.2020
4988 Clouds 4 1024 65 10000 1.5 340 05:50 12.04.2020
4989 Clouds 3 1024 65 10000 1.5 340 05:28 12.04.2020
4990 Clouds 4 1024 80 10000 0.66 93 03:38 12.04.2020
4991 Clouds 5 1023 75 10000 1 150 02:57 12.04.2020
4992 Clouds 5 1023 75 10000 1.5 170 02:34 12.04.2020
4993 Clouds 5 1023 75 10000 2.1 130 01:34 12.04.2020
4994 Clouds 5 1023 75 10000 2.6 150 00:57 12.04.2020
4995 Clouds 6 1023 75 10000 0.5 0 00:39 12.04.2020
4996 Clouds 7 1023 75 10000 0.5 0 00:19 12.04.2020
4997 Clouds 8 1023 70 10000 1 0 23:46 11.04.2020
4998 Clouds 8 1023 70 10000 1 0 23:24 11.04.2020
4999 Clouds 7 1023 57 10000 0.5 0 22:41 11.04.2020
5000 Clouds 8 1023 53 10000 1.5 230 22:22 11.04.2020
5001 Clouds 8 1023 53 10000 1.5 230 21:57 11.04.2020
5002 Clouds 8 1022 50 10000 1.5 210 21:37 11.04.2020
5003 Clouds 8 1022 43 10000 1 0 21:19 11.04.2020
5004 Clouds 7 1022 43 10000 1 0 20:58 11.04.2020
5005 Clouds 7 1022 47 10000 2.1 320 20:39 11.04.2020
5006 Clouds 9 1021 50 10000 0.5 0 20:20 11.04.2020
5007 Clouds 9 1021 50 10000 0.5 0 19:58 11.04.2020
5008 Clouds 8 1021 41 10000 2.6 10 19:38 11.04.2020
5009 Clouds 12 1021 38 10000 4.1 40 19:19 11.04.2020
5010 Clouds 12 1021 38 10000 4.1 40 18:56 11.04.2020
5011 Clouds 13 1020 36 10000 4.6 40 18:38 11.04.2020
5012 Clouds 13 1020 36 10000 4.6 40 18:38 11.04.2020
5013 Clouds 13 1020 33 10000 5.7 40 18:20 11.04.2020
5014 Clouds 13 1020 33 10000 5.7 40 17:58 11.04.2020
5015 Clouds 14 1020 34 10000 6.2 60 17:40 11.04.2020
5016 Clouds 15 1020 32 10000 6.2 50 17:20 11.04.2020
5017 Clouds 15 1019 32 10000 4.6 30 16:43 11.04.2020
5018 Clouds 15 1019 30 10000 5.7 10 16:22 11.04.2020
5019 Clouds 15 1019 30 10000 5.7 10 15:59 11.04.2020
5020 Clouds 15 1019 30 10000 5.7 10 15:59 11.04.2020
5021 Clouds 15 1019 22 10000 3.6 310 15:37 11.04.2020
5022 Clouds 15 1020 38 10000 4.1 290 15:18 11.04.2020
5023 Clouds 15 1020 25 10000 3.6 310 14:42 11.04.2020
5024 Clouds 15 1020 25 10000 3.6 310 14:23 11.04.2020
5025 Clouds 17 1020 25 10000 4.1 310 13:59 11.04.2020
5026 Clouds 17 1020 29 10000 5.1 300 13:38 11.04.2020
5027 Clouds 17 1020 32 10000 4.1 300 13:19 11.04.2020
5028 Clouds 14 1021 34 10000 4.1 300 12:41 11.04.2020
5029 Clouds 16 1021 34 10000 4.1 300 12:41 11.04.2020
5030 Clouds 14 1021 34 10000 3.6 320 12:19 11.04.2020
5031 Clouds 14 1021 34 10000 3.6 320 11:56 11.04.2020
5032 Clouds 13 1021 33 10000 5.1 310 11:38 11.04.2020
5033 Clouds 15 1021 42 10000 4.6 290 11:19 11.04.2020
5034 Clouds 17 1021 38 10000 3.6 300 10:43 11.04.2020
5035 Clouds 17 1021 38 10000 3.6 300 10:43 11.04.2020
5036 Clouds 13 1021 47 10000 2.1 310 10:22 11.04.2020
5037 Clouds 12 1021 47 10000 2.1 310 09:59 11.04.2020
5038 Clouds 11 1021 53 10000 1.62 340 09:39 11.04.2020
5039 Clouds 11 1021 53 10000 1.62 340 09:39 11.04.2020
5040 Clear 9 1021 53 10000 0.87 264 09:21 11.04.2020
5041 Clear 9 1021 61 10000 1.5 120 08:47 11.04.2020
5042 Clear 7 1021 61 10000 1.5 120 08:28 11.04.2020
5043 Clear 4 1021 50 10000 2.1 120 07:52 11.04.2020
5044 Clear 2 1021 69 10000 2.6 120 07:34 11.04.2020
5045 Clear 2 1021 69 10000 3.1 130 06:49 11.04.2020
5046 Clear 4 1021 74 10000 1.5 130 06:19 11.04.2020
5047 Clear 3 1020 74 10000 2.1 130 05:52 11.04.2020
5048 Clear 3 1020 69 10000 2.6 160 03:40 11.04.2020
5049 Clouds 4 1020 55 10000 2.1 110 01:59 11.04.2020
5050 Clouds 5 1020 52 10000 2.6 280 01:24 11.04.2020
5051 Clouds 5 1020 49 10000 0.5 0 00:44 11.04.2020
5052 Clouds 6 1020 52 10000 1.5 230 00:20 11.04.2020
5053 Clouds 6 1020 52 10000 1.5 230 23:57 10.04.2020
5054 Clouds 6 1019 49 10000 1 290 23:38 10.04.2020
5055 Clouds 7 1019 43 10000 1.08 284 23:19 10.04.2020
5056 Clouds 7 1019 40 8000 1 0 22:43 10.04.2020
5057 Clouds 8 1019 33 10000 2.1 250 22:22 10.04.2020
5058 Clouds 8 1019 33 10000 2.1 250 21:58 10.04.2020
5059 Clouds 7 1019 35 10000 2.6 240 21:40 10.04.2020
5060 Clear 10 1018 26 10000 1.5 270 21:20 10.04.2020
5061 Clear 9 1018 30 10000 1.5 300 20:44 10.04.2020
5062 Clear 10 1017 27 10000 2.6 310 20:24 10.04.2020
5063 Clear 10 1017 27 10000 2.6 310 19:59 10.04.2020
5064 Clear 11 1017 25 10000 3.6 310 19:41 10.04.2020
5065 Clear 11 1017 24 10000 5.1 300 19:21 10.04.2020
5066 Clear 11 1017 24 10000 5.1 300 19:21 10.04.2020
5067 Clear 12 1017 24 10000 5.1 300 18:58 10.04.2020
5068 Clear 12 1016 22 10000 5.7 290 18:40 10.04.2020
5069 Clear 17 1016 21 10000 6.2 290 18:21 10.04.2020
5070 Clear 16 1016 21 10000 7.2 290 17:58 10.04.2020
5071 Clear 17 1016 21 10000 7.2 290 17:39 10.04.2020
5072 Clear 17 1016 21 10000 6.7 280 17:20 10.04.2020
5073 Clear 17 1016 21 10000 6.7 280 16:56 10.04.2020
5074 Clear 17 1016 22 10000 5.1 250 16:38 10.04.2020
5075 Clear 17 1017 21 10000 6.2 270 16:20 10.04.2020
5076 Clear 17 1017 21 10000 5.7 280 15:56 10.04.2020
5077 Clear 17 1017 21 10000 5.7 280 15:37 10.04.2020
5078 Clear 17 1017 21 10000 5.7 280 15:37 10.04.2020
5079 Clear 17 1017 21 10000 4.6 260 15:18 10.04.2020
5080 Clear 17 1017 21 10000 4.6 260 14:56 10.04.2020
5081 Clear 16 1018 19 10000 3.6 260 14:38 10.04.2020
5082 Clear 16 1018 19 10000 3.6 260 14:38 10.04.2020
5083 Clear 16 1018 22 10000 4.1 240 14:18 10.04.2020
5084 Clear 16 1018 22 10000 4.1 240 14:18 10.04.2020
5085 Clear 16 1018 20 10000 4.6 270 13:43 10.04.2020
5086 Clear 15 1019 22 10000 3.6 290 13:21 10.04.2020
5087 Clear 17 1019 25 10000 3.1 270 12:43 10.04.2020
5088 Clear 14 1019 27 10000 3.1 290 12:24 10.04.2020
5089 Clear 14 1019 27 10000 3.1 290 11:57 10.04.2020
5090 Clear 12 1019 38 10000 2.6 0 11:38 10.04.2020
5091 Clear 11 1020 43 10000 2.6 300 11:20 10.04.2020
5092 Clear 10 1020 40 10000 1.5 0 10:46 10.04.2020
5093 Clear 12 1020 46 10000 0.5 0 10:23 10.04.2020
5094 Clear 11 1020 46 10000 0.5 0 09:57 10.04.2020
5095 Clear 9 1020 52 10000 1 0 09:38 10.04.2020
5096 Clear 8 1020 43 10000 0.5 0 09:20 10.04.2020
5097 Clear 6 1021 65 10000 1 0 08:43 10.04.2020
5098 Clear 5 1021 65 10000 1 0 08:24 10.04.2020
5099 Clear 3 1020 74 10000 1.5 160 07:45 10.04.2020
5100 Clear 0 1020 43 10000 1 130 07:24 10.04.2020
5101 Clear 0 1020 43 10000 1.5 120 06:49 10.04.2020
5102 Clear 2 1020 50 10000 1.5 120 06:28 10.04.2020
5103 Clear 2 1020 80 10000 1.5 110 05:42 10.04.2020
5104 Clear 1 1020 80 10000 1 170 04:58 10.04.2020
5105 Clear 2 1020 74 10000 1 140 03:50 10.04.2020
5106 Clear 2 1020 74 10000 1 140 03:31 10.04.2020
5107 Clear 2 1020 74 10000 1.5 130 02:49 10.04.2020
5108 Clear 2 1020 74 10000 1.5 130 02:30 10.04.2020
5109 Clear 3 1020 56 10000 1 300 01:30 10.04.2020
5110 Clear 4 1020 49 10000 2.1 250 00:50 10.04.2020
5111 Clear 4 1020 65 10000 1.5 170 00:24 10.04.2020
5112 Clear 4 1020 65 10000 1.5 170 23:56 09.04.2020
5113 Clear 5 1020 56 10000 2.1 80 23:38 09.04.2020
5114 Clear 5 1020 49 10000 0.58 303 23:19 09.04.2020
5115 Clear 6 1020 43 10000 2.1 180 22:41 09.04.2020
5116 Clear 6 1020 43 10000 2.1 180 22:23 09.04.2020
5117 Clear 7 1020 46 10000 3.6 200 21:54 09.04.2020
5118 Clear 7 1020 43 10000 3.1 190 21:36 09.04.2020
5119 Clear 8 1020 33 8000 2.6 210 21:18 09.04.2020
5120 Clear 9 1019 33 10000 2.1 70 20:41 09.04.2020
5121 Clear 7 1019 33 10000 2.6 50 20:20 09.04.2020
5122 Clear 7 1019 33 10000 2.6 50 19:56 09.04.2020
5123 Clear 9 1019 30 10000 3.1 60 19:36 09.04.2020
5124 Clear 9 1019 27 10000 3.6 70 19:18 09.04.2020
5125 Clear 10 1019 23 10000 4.1 70 18:41 09.04.2020
5126 Clear 15 1019 22 10000 4.6 50 18:18 09.04.2020
5127 Clear 14 1019 20 10000 3.1 60 17:40 09.04.2020
5128 Clear 14 1019 22 10000 2.1 0 17:22 09.04.2020
5129 Clear 14 1019 22 10000 2.1 0 16:56 09.04.2020
5130 Clear 14 1019 24 10000 2.6 30 16:37 09.04.2020
5131 Clear 14 1019 24 10000 2.6 30 16:37 09.04.2020
5132 Clear 14 1019 23 10000 2.1 120 16:18 09.04.2020
5133 Clear 14 1019 23 10000 2.1 120 15:54 09.04.2020
5134 Clear 13 1020 23 10000 1.5 0 15:36 09.04.2020
5135 Clear 13 1020 25 10000 2.1 210 15:18 09.04.2020
5136 Clear 13 1020 23 10000 2.6 100 14:39 09.04.2020
5137 Clear 13 1021 27 10000 2.1 0 14:20 09.04.2020
5138 Clear 13 1021 25 10000 2.1 0 13:42 09.04.2020
5139 Clear 12 1021 25 10000 2.1 0 13:24 09.04.2020
5140 Clear 16 1022 26 10000 1.5 0 12:59 09.04.2020
5141 Clear 16 1022 30 10000 1.5 0 12:39 09.04.2020
5142 Clear 11 1022 30 10000 1.5 0 12:21 09.04.2020
5143 Clear 13 1022 30 10000 1.5 0 11:55 09.04.2020
5144 Clear 13 1023 44 10000 1 0 11:36 09.04.2020
5145 Clear 11 1023 46 10000 0.5 0 11:18 09.04.2020
5146 Clear 10 1023 32 10000 1.5 0 10:41 09.04.2020
5147 Clear 9 1024 32 10000 1 0 10:22 09.04.2020
5148 Clear 8 1024 32 10000 1 0 09:58 09.04.2020
5149 Clear 5 1024 60 10000 1 0 09:40 09.04.2020
5150 Clear 5 1024 65 10000 0.5 0 09:21 09.04.2020
5151 Clear 5 1024 65 10000 0.5 0 09:21 09.04.2020
5152 Clear 4 1024 65 10000 0.5 0 08:56 09.04.2020
5153 Clear 4 1024 64 8000 0.5 0 08:37 09.04.2020
5154 Clear 3 1024 74 8000 1 110 08:18 09.04.2020
5155 Clear 1 1023 74 8000 1.5 60 07:37 09.04.2020
5156 Clear 0 1023 92 10000 0.82 40 07:18 09.04.2020
5157 Clear 0 1023 86 10000 1 0 06:28 09.04.2020
5158 Clear 0 1023 60 10000 1.5 80 05:49 09.04.2020
5159 Clear 0 1023 60 10000 2.1 180 05:20 09.04.2020
5160 Clear 1 1024 69 10000 2.1 150 02:35 09.04.2020
5161 Clear 1 1024 69 10000 1 0 01:46 09.04.2020
5162 Clear 1 1024 69 10000 1 0 01:27 09.04.2020
5163 Clear 2 1024 60 10000 1.5 90 00:45 09.04.2020
5164 Clear 3 1025 48 10000 1 0 00:21 09.04.2020
5165 Clear 3 1025 48 10000 1 0 23:59 08.04.2020
5166 Clear 3 1025 56 10000 1.5 200 23:41 08.04.2020
5167 Clear 3 1025 56 10000 1.5 200 23:41 08.04.2020
5168 Clear 3 1025 56 10000 1.5 220 23:22 08.04.2020
5169 Clear 4 1025 48 10000 1.5 200 22:44 08.04.2020
5170 Clear 4 1025 45 10000 3.1 120 22:24 08.04.2020
5171 Clear 4 1025 45 10000 3.1 120 21:57 08.04.2020
5172 Clear 4 1025 45 10000 2.1 140 21:39 08.04.2020
5173 Clear 5 1025 34 10000 2.6 120 21:21 08.04.2020
5174 Clear 5 1025 34 10000 2.6 120 20:59 08.04.2020
5175 Clear 5 1025 34 10000 2.6 120 20:40 08.04.2020
5176 Clear 5 1024 32 10000 2.1 80 20:20 08.04.2020
5177 Clear 5 1024 32 10000 2.1 80 19:58 08.04.2020
5178 Clear 5 1024 32 10000 2.1 80 19:37 08.04.2020
5179 Clear 7 1024 34 10000 2.6 60 19:19 08.04.2020
5180 Clear 6 1024 32 10000 3.6 50 18:42 08.04.2020
5181 Clear 11 1024 30 10000 5.1 40 18:24 08.04.2020
5182 Clear 10 1024 28 10000 5.7 40 17:56 08.04.2020
5183 Clear 10 1024 28 10000 5.7 40 17:38 08.04.2020
5184 Clear 10 1024 28 10000 5.7 40 17:38 08.04.2020
5185 Clear 10 1024 28 10000 4.1 60 17:18 08.04.2020
5186 Clear 11 1024 26 10000 4.1 50 16:42 08.04.2020
5187 Clear 11 1024 25 10000 4.6 60 16:23 08.04.2020
5188 Clear 11 1025 24 10000 4.6 80 15:55 08.04.2020
5189 Clear 11 1025 24 10000 4.6 80 15:37 08.04.2020
5190 Clear 11 1025 26 10000 4.1 40 15:18 08.04.2020
5191 Clear 10 1026 26 10000 2.6 0 14:43 08.04.2020
5192 Clear 10 1026 26 10000 2.6 0 14:24 08.04.2020
5193 Clear 12 1026 26 10000 2.1 0 13:54 08.04.2020
5194 Clear 12 1026 26 10000 2.1 0 13:54 08.04.2020
5195 Clear 12 1027 26 10000 1 0 13:36 08.04.2020
5196 Clear 12 1027 28 10000 2.1 0 13:18 08.04.2020
5197 Clear 11 1028 28 10000 2.1 0 12:41 08.04.2020
5198 Clear 10 1028 30 10000 3.6 120 12:18 08.04.2020
5199 Clear 10 1028 30 10000 3.6 120 11:55 08.04.2020
5200 Clear 10 1029 27 10000 4.1 120 11:37 08.04.2020
5201 Clear 9 1029 27 10000 5.1 90 11:19 08.04.2020
5202 Clear 9 1030 32 10000 3.1 80 10:55 08.04.2020
5203 Clear 9 1030 32 10000 3.1 80 10:37 08.04.2020
5204 Clear 8 1030 45 10000 2.6 110 10:18 08.04.2020
5205 Clear 6 1030 42 10000 3.08 58 09:42 08.04.2020
5206 Clear 2 1030 60 10000 1 0 09:20 08.04.2020
5207 Clear 2 1030 60 10000 1 0 08:59 08.04.2020
5208 Clear 1 1030 64 10000 1.5 90 08:40 08.04.2020
5209 Clear 0 1030 48 10000 1.5 90 08:21 08.04.2020
5210 Clear -1 1030 48 10000 1.5 130 07:43 08.04.2020
5211 Clear -2 1030 74 10000 1.5 140 07:22 08.04.2020
5212 Clear -1 1030 74 10000 2.1 100 06:41 08.04.2020
5213 Clear -3 1030 74 10000 1 100 05:30 08.04.2020
5214 Clear -2 1030 59 10000 2.1 130 03:21 08.04.2020
5215 Clear -1 1030 59 10000 1 0 02:38 08.04.2020
5216 Clear -1 1031 44 10000 1.31 10 02:18 08.04.2020
5217 Clear -1 1031 51 10000 0.5 0 01:28 08.04.2020
5218 Clear -1 1031 55 10000 3.6 110 00:50 08.04.2020
5219 Clear 1 1031 55 10000 3.6 110 00:32 08.04.2020
5220 Clear 0 1031 48 10000 2.1 100 23:57 07.04.2020
5221 Clear 0 1031 41 10000 3.1 150 23:38 07.04.2020
5222 Clear 0 1031 41 10000 2.1 140 23:19 07.04.2020
5223 Clear 1 1031 41 10000 2.1 140 23:19 07.04.2020
5224 Clear 1 1031 41 10000 2.1 140 22:56 07.04.2020
5225 Clear 1 1031 39 10000 3.1 0 22:38 07.04.2020
5226 Clear 2 1031 39 10000 2.6 190 22:18 07.04.2020
5227 Clear 2 1031 36 10000 2.6 70 21:43 07.04.2020
5228 Clear 2 1031 34 10000 4.6 60 21:22 07.04.2020
5229 Clear 2 1030 34 10000 4.6 50 20:59 07.04.2020
5230 Clear 3 1030 34 10000 4.6 50 20:41 07.04.2020
5231 Clear 3 1030 31 10000 4.6 50 20:21 07.04.2020
5232 Clear 2 1030 31 10000 4.6 50 19:58 07.04.2020
5233 Clear 3 1030 31 10000 4.6 50 19:38 07.04.2020
5234 Clear 3 1030 31 10000 4.6 50 19:38 07.04.2020
5235 Clear 4 1030 29 10000 6.2 50 19:20 07.04.2020
5236 Clear 5 1030 29 10000 6.2 50 18:59 07.04.2020
5237 Clear 3 1030 29 10000 6.2 50 18:40 07.04.2020
5238 Clear 3 1030 29 10000 6.2 50 18:40 07.04.2020
5239 Clear 9 1030 25 10000 6.7 40 18:21 07.04.2020
5240 Clear 0 1024 48 0 0.45 95 17:47 07.04.2020
5241 Clear 8 1029 26 10000 6.7 40 17:24 07.04.2020
5242 Clear 8 1029 26 10000 6.7 40 16:58 07.04.2020
5243 Clear 8 1029 26 10000 6.7 40 16:40 07.04.2020
5244 Clear 8 1029 26 10000 6.2 40 16:22 07.04.2020
5245 Clear 8 1030 26 10000 6.2 40 15:43 07.04.2020
5246 Clear 8 1030 24 10000 5.1 90 15:24 07.04.2020
5247 Clear 8 1031 24 10000 6.2 70 14:43 07.04.2020
5248 Clear 8 1031 24 10000 6.2 70 14:23 07.04.2020
5249 Clear 8 1031 28 10000 4.1 50 13:58 07.04.2020
5250 Clear 10 1031 30 10000 4.1 100 13:39 07.04.2020
5251 Clear 9 1031 27 10000 4.1 50 13:19 07.04.2020
5252 Clear 9 1031 27 10000 4.1 50 12:56 07.04.2020
5253 Clear 9 1032 25 10000 3.6 60 12:37 07.04.2020
5254 Clear 8 1032 27 10000 5.1 110 12:18 07.04.2020
5255 Clear 8 1032 25 10000 5.1 120 11:45 07.04.2020
5256 Clear 8 1032 25 10000 5.1 120 11:27 07.04.2020
5257 Clear 8 1032 25 10000 5.1 130 10:59 07.04.2020
5258 Clear 7 1032 31 10000 5.7 120 10:39 07.04.2020
5259 Clear 7 1033 33 10000 6.2 100 10:19 07.04.2020
5260 Clear 6 1033 52 10000 4.6 100 09:46 07.04.2020
5261 Clear 2 1033 60 10000 5.1 100 09:20 07.04.2020
5262 Clear 3 1033 60 10000 5.1 100 08:59 07.04.2020
5263 Clear 2 1033 74 10000 3.6 110 08:39 07.04.2020
5264 Clear -1 1033 55 10000 3.1 120 08:19 07.04.2020
5265 Clear -2 1033 80 10000 3.1 100 07:44 07.04.2020
5266 Clear -3 1032 86 10000 2.6 110 07:26 07.04.2020
5267 Clear -3 1032 86 10000 2.1 120 06:52 07.04.2020
5268 Clear -3 1032 86 10000 2.1 120 06:25 07.04.2020
5269 Clear -3 1032 79 10000 2.1 130 05:48 07.04.2020
5270 Clear -3 1032 79 10000 2.1 130 05:23 07.04.2020
5271 Clear -1 1031 64 10000 1 170 03:34 07.04.2020
5272 Clear 0 1031 64 10000 1.84 29 02:59 07.04.2020
5273 Clear 0 1031 69 10000 1 0 02:33 07.04.2020
5274 Clouds 0 1031 69 10000 1.5 60 01:33 07.04.2020
5275 Clouds -1 1031 64 10000 1.5 90 00:44 07.04.2020
5276 Clouds 1 1031 64 10000 1.5 90 00:25 07.04.2020
5277 Clouds 0 1031 60 10000 2.6 80 23:39 06.04.2020
5278 Clouds 2 1030 60 10000 2.6 80 23:20 06.04.2020
5279 Clouds 2 1030 55 10000 2.6 110 22:41 06.04.2020
5280 Clouds 1 1030 48 10000 2.1 140 22:22 06.04.2020
5281 Clouds 1 1030 48 10000 2.1 140 21:59 06.04.2020
5282 Clouds 1 1030 45 10000 4.1 100 21:40 06.04.2020
5283 Clouds 2 1029 39 10000 5.7 60 21:19 06.04.2020
5284 Clouds 2 1029 39 10000 5.7 60 20:56 06.04.2020
5285 Clouds 2 1029 39 10000 5.7 60 20:38 06.04.2020
5286 Clouds 2 1029 37 10000 6.2 60 20:19 06.04.2020
5287 Clouds 2 1029 37 10000 6.2 60 19:54 06.04.2020
5288 Clouds 2 1029 37 10000 6.2 60 19:36 06.04.2020
5289 Clouds 4 1029 37 10000 5.7 60 19:18 06.04.2020
5290 Clouds 3 1028 34 10000 6.7 60 18:41 06.04.2020
5291 Clouds 3 1028 34 10000 6.7 60 18:41 06.04.2020
5292 Clouds 8 1028 32 10000 7.7 60 18:23 06.04.2020
5293 Clouds 8 1028 34 10000 9.3 50 17:55 06.04.2020
5294 Clouds 8 1028 34 10000 9.3 50 17:55 06.04.2020
5295 Clouds 9 1028 34 10000 9.3 50 17:36 06.04.2020
5296 Clouds 8 1028 34 10000 7.7 50 17:18 06.04.2020
5297 Clouds 8 1028 34 10000 7.7 50 17:18 06.04.2020
5298 Clouds 8 1029 34 10000 6.7 60 16:45 06.04.2020
5299 Clouds 8 1029 34 10000 6.7 60 16:27 06.04.2020
5300 Clouds 7 1029 30 10000 7.7 50 14:46 06.04.2020
5301 Clouds 7 1029 30 10000 7.7 50 14:46 06.04.2020
5302 Clouds 7 1029 30 10000 7.7 50 14:46 06.04.2020
5303 Clouds 7 1029 30 10000 7.7 50 14:46 06.04.2020
5304 Clouds 9 1029 37 10000 6.7 50 13:44 06.04.2020
5305 Clouds 8 1029 32 10000 7.2 40 13:21 06.04.2020
5306 Clouds 8 1029 32 10000 6.7 60 12:40 06.04.2020
5307 Clouds 6 1030 32 10000 6.7 60 12:18 06.04.2020
5308 Clouds 6 1029 32 10000 6.7 60 12:18 06.04.2020
5309 Clouds 6 1030 34 10000 7.2 60 11:40 06.04.2020
5310 Clouds 11 1030 34 10000 7.2 60 11:40 06.04.2020
5311 Clouds 11 1030 34 10000 7.2 60 11:40 06.04.2020
5312 Clouds 11 1030 34 10000 7.2 60 11:40 06.04.2020
5313 Clouds 4 1030 31 10000 5.7 80 10:53 06.04.2020
5314 Clouds 4 1030 31 10000 5.7 80 10:53 06.04.2020
5315 Clouds 7 1030 31 10000 5.7 80 10:53 06.04.2020
5316 Clouds 4 1030 31 10000 5.7 80 10:53 06.04.2020
5317 Clouds 6 1030 29 10000 7.7 70 10:23 06.04.2020
5318 Clouds 7 1030 29 10000 7.7 70 10:23 06.04.2020
5319 Clouds 6 1030 29 10000 7.7 70 10:23 06.04.2020
5320 Clouds 6 1030 29 10000 7.7 70 10:23 06.04.2020
5321 Clouds 6 1030 29 10000 7.7 70 10:23 06.04.2020
5322 Clouds 6 1030 34 10000 8.2 80 09:59 06.04.2020
5323 Clouds 6 1030 34 10000 8.2 80 09:57 06.04.2020
5324 Clouds 6 1030 34 10000 8.2 80 09:57 06.04.2020
5325 Clouds 6 1030 34 10000 8.2 80 09:57 06.04.2020
5326 Clouds 6 1030 34 10000 8.2 80 09:57 06.04.2020
5327 Clear 5 1029 31 10000 9.3 90 09:26 06.04.2020
5328 Clouds 3 1029 39 10000 6.2 100 08:55 06.04.2020
5329 Clouds 3 1029 39 10000 6.2 100 08:55 06.04.2020
5330 Clouds 2 1029 48 10000 3.1 130 08:36 06.04.2020
5331 Clouds 2 1029 48 10000 3.1 130 08:36 06.04.2020
5332 Clouds 2 1029 48 10000 3.1 130 08:36 06.04.2020
5333 Clouds 1 1029 52 10000 2.6 130 07:55 06.04.2020
5334 Clouds -1 1029 74 10000 2.6 130 07:18 06.04.2020
5335 Clouds -1 1028 74 10000 3.1 120 06:25 06.04.2020
5336 Clouds 0 1027 69 10000 3.6 130 05:26 06.04.2020
5337 Clouds 0 1027 69 10000 3.6 130 05:26 06.04.2020
5338 Clouds 0 1027 69 10000 3.6 130 05:26 06.04.2020
5339 Clouds 2 1026 59 10000 3.1 90 03:28 06.04.2020
5340 Clouds 1 1026 51 10000 3.6 130 02:48 06.04.2020
5341 Clouds -1 1026 39 10000 5.7 90 01:52 06.04.2020
5342 Clouds 3 1027 39 10000 7.2 90 00:49 06.04.2020
5343 Clouds 3 1026 45 10000 6.2 90 00:26 06.04.2020
5344 Clouds 4 1026 70 10000 3.1 130 23:48 05.04.2020
5345 Clouds 4 1026 75 10000 2.6 100 23:30 05.04.2020
5346 Clouds 3 1026 70 10000 2.1 130 22:56 05.04.2020
5347 Clouds 3 1026 70 10000 3.1 90 22:38 05.04.2020
5348 Clouds 5 1026 70 10000 3.1 90 22:19 05.04.2020
5349 Clouds 5 1025 81 10000 1 0 21:57 05.04.2020
5350 Clouds 5 1025 75 10000 1 0 21:39 05.04.2020
5351 Clouds 5 1025 75 10000 1 0 21:21 05.04.2020
5352 Clouds 5 1025 75 10000 1 0 21:21 05.04.2020
5353 Clouds 5 1025 75 10000 1 0 21:21 05.04.2020
5354 Clouds 5 1025 75 10000 1 0 21:20 05.04.2020
5355 Clouds 5 1025 75 10000 1 0 21:20 05.04.2020
5356 Clouds 5 1024 75 10000 1.5 200 20:20 05.04.2020
5357 Clouds 5 1024 75 10000 1.5 200 20:20 05.04.2020
5358 Clouds 5 1024 75 10000 1.5 200 20:20 05.04.2020
5359 Clouds 6 1023 65 10000 4.1 65 19:40 05.04.2020
5360 Clouds 6 1023 65 10000 4.1 65 19:22 05.04.2020
5361 Clouds 6 1023 65 10000 4.1 65 19:22 05.04.2020
5362 Clouds 6 1023 65 10000 2.6 240 18:45 05.04.2020
5363 Clouds 6 1023 65 10000 2.6 230 17:58 05.04.2020
5364 Clouds 6 1023 65 10000 2.6 230 17:58 05.04.2020
5365 Clouds 6 1023 65 10000 2.1 190 17:39 05.04.2020
5366 Clouds 6 1023 65 10000 2.1 190 17:39 05.04.2020
5367 Clouds 6 1023 65 10000 2.1 190 17:39 05.04.2020
5368 Clouds 6 1023 65 10000 2.1 190 17:39 05.04.2020
5369 Clouds 6 1023 65 10000 2.1 190 17:20 05.04.2020
5370 Clouds 6 1023 65 10000 2.1 190 17:20 05.04.2020
5371 Clouds 4 1023 65 10000 3.1 100 16:21 05.04.2020
5372 Clouds 5 1023 65 10000 5.1 90 15:59 05.04.2020
5373 Clouds 5 1023 61 10000 5.7 50 15:41 05.04.2020
5374 Clouds 5 1023 61 10000 5.7 50 15:22 05.04.2020
5375 Clouds 6 1023 61 10000 6.2 60 14:47 05.04.2020
5376 Clouds 6 1023 61 10000 6.2 60 14:47 05.04.2020
5377 Clouds 6 1023 65 10000 3.1 130 13:44 05.04.2020
5378 Clouds 5 1023 70 10000 4.6 110 12:55 05.04.2020
5379 Clouds 5 1023 70 10000 4.6 110 12:55 05.04.2020
5380 Clouds 5 1023 70 10000 4.6 110 12:55 05.04.2020
5381 Clouds 5 1023 70 10000 4.6 110 12:55 05.04.2020
5382 Clouds 5 1023 70 10000 4.6 110 12:55 05.04.2020
5383 Clouds 6 1022 70 10000 8.2 90 11:44 05.04.2020
5384 Clouds 5 1022 70 10000 8.2 90 11:21 05.04.2020
5385 Clouds 5 1022 70 10000 8.2 90 10:59 05.04.2020
5386 Clouds 4 1022 75 10000 7.7 100 10:41 05.04.2020
5387 Clouds 4 1022 75 10000 7.7 100 10:18 05.04.2020
5388 Clouds 4 1022 75 10000 6.2 90 09:43 05.04.2020
5389 Rain 4 1021 81 10000 6.2 110 09:24 05.04.2020
5390 Rain 4 1021 81 10000 6.2 110 09:24 05.04.2020
5391 Rain 4 1021 81 10000 6.2 110 09:24 05.04.2020
5392 Rain 4 1021 81 10000 6.2 110 09:24 05.04.2020
5393 Rain 4 1021 81 10000 6.2 110 09:24 05.04.2020
5394 Rain 3 1020 93 10000 1 0 07:42 05.04.2020
5395 Rain 3 1018 93 10000 1.5 240 04:40 05.04.2020
5396 Rain 3 1019 93 10000 2.1 230 03:33 05.04.2020
5397 Rain 4 1019 93 10000 1.5 230 02:52 05.04.2020
5398 Rain 3 1019 93 10000 1 310 01:48 05.04.2020
5399 Rain 3 1019 93 10000 0.5 0 01:28 05.04.2020
5400 Rain 3 1019 93 10000 2.6 150 00:44 05.04.2020
5401 Rain 2 1019 93 10000 2.6 150 00:21 05.04.2020
5402 Rain 3 1019 87 10000 4.6 140 23:55 04.04.2020
5403 Rain 3 1019 87 10000 4.6 140 23:55 04.04.2020
5404 Rain 3 1019 87 10000 4.6 140 23:37 04.04.2020
5405 Rain 3 1019 87 10000 4.6 140 23:19 04.04.2020
5406 Rain 3 1019 93 10000 4.1 140 22:41 04.04.2020
5407 Rain 3 1019 93 10000 4.1 140 22:22 04.04.2020
5408 Rain 3 1019 93 10000 4.1 130 21:59 04.04.2020
5409 Rain 3 1019 93 10000 4.1 130 21:59 04.04.2020
5410 Rain 3 1018 93 9000 4.1 130 21:40 04.04.2020
5411 Rain 3 1018 87 10000 4.1 130 21:20 04.04.2020
5412 Rain 3 1018 87 10000 4.1 130 20:59 04.04.2020
5413 Rain 3 1018 93 8000 4.1 130 20:40 04.04.2020
5414 Rain 4 1018 93 8000 4.1 130 20:21 04.04.2020
5415 Rain 4 1017 93 8000 4.6 130 19:57 04.04.2020
5416 Rain 4 1017 93 7000 2.1 120 19:37 04.04.2020
5417 Rain 4 1017 93 7000 2.1 120 19:19 04.04.2020
5418 Rain 4 1017 93 6000 1.5 140 18:56 04.04.2020
5419 Rain 4 1017 93 8000 2.6 140 18:37 04.04.2020
5420 Rain 4 1017 93 8000 2.6 140 18:19 04.04.2020
5421 Rain 5 1017 81 8000 2.6 150 17:41 04.04.2020
5422 Rain 5 1017 81 8000 2.6 150 17:41 04.04.2020
5423 Rain 5 1017 81 8000 2.6 150 17:20 04.04.2020
5424 Rain 5 1017 81 10000 4.1 140 16:56 04.04.2020
5425 Rain 4 1017 81 8000 4.6 130 16:38 04.04.2020
5426 Rain 5 1017 81 8000 4.6 130 16:19 04.04.2020
5427 Clouds 5 1017 81 10000 4.6 120 15:41 04.04.2020
5428 Clouds 5 1017 81 10000 4.6 120 15:23 04.04.2020
5429 Clouds 5 1017 75 10000 4.6 130 14:59 04.04.2020
5430 Clouds 5 1017 81 10000 4.6 140 14:40 04.04.2020
5431 Clouds 5 1017 81 10000 4.6 140 14:22 04.04.2020
5432 Clouds 5 1017 81 10000 5.1 140 13:55 04.04.2020
5433 Clouds 5 1017 81 10000 5.1 130 13:37 04.04.2020
5434 Clouds 5 1017 81 10000 5.1 130 13:19 04.04.2020
5435 Clouds 4 1017 81 10000 5.1 130 12:44 04.04.2020
5436 Clouds 4 1017 81 10000 5.1 130 12:44 04.04.2020
5437 Rain 5 1017 87 8000 6.7 120 12:23 04.04.2020
5438 Rain 5 1017 87 8000 6.7 120 11:58 04.04.2020
5439 Rain 4 1017 87 8000 6.2 130 11:38 04.04.2020
5440 Rain 3 1017 87 8000 6.2 130 11:19 04.04.2020
5441 Rain 5 1017 87 8000 6.2 130 10:55 04.04.2020
5442 Rain 4 1017 81 6000 3.1 150 10:37 04.04.2020
5443 Rain 3 1017 81 6000 3.1 150 10:18 04.04.2020
5444 Rain 4 1016 93 5000 2.1 130 09:54 04.04.2020
5445 Rain 4 1016 87 7000 2.1 90 09:36 04.04.2020
5446 Rain 3 1016 87 7000 2.1 90 09:18 04.04.2020
5447 Rain 4 1015 87 10000 2.6 150 08:38 04.04.2020
5448 Rain 4 1015 87 10000 2.6 150 08:20 04.04.2020
5449 Clouds 4 1015 87 10000 3.1 150 07:44 04.04.2020
5450 Clouds 4 1015 87 10000 3.1 100 07:26 04.04.2020
5451 Rain 2 1015 87 10000 4.6 90 06:47 04.04.2020
5452 Clouds 3 1015 86 10000 3.1 120 06:18 04.04.2020
5453 Clouds 3 1015 93 10000 3.1 100 05:41 04.04.2020
5454 Clouds 3 1015 93 10000 3.1 100 05:23 04.04.2020
5455 Clouds 2 1015 81 10000 2.1 110 04:27 04.04.2020
5456 Clouds 2 1015 81 10000 2.1 130 03:49 04.04.2020
5457 Clouds 2 1015 81 10000 2.6 110 02:50 04.04.2020
5458 Clouds 3 1015 81 10000 2.6 110 02:32 04.04.2020
5459 Clouds 3 1015 81 10000 2.1 100 01:53 04.04.2020
5460 Clouds 3 1015 81 10000 1 130 01:24 04.04.2020
5461 Clouds 3 1015 75 10000 2.1 150 00:48 04.04.2020
5462 Clouds 3 1015 81 10000 2.6 150 00:28 04.04.2020
5463 Clouds 3 1015 81 10000 3.6 100 23:39 03.04.2020
5464 Clouds 3 1015 75 10000 4.6 90 23:21 03.04.2020
5465 Clouds 3 1015 75 10000 4.6 90 22:56 03.04.2020
5466 Clouds 3 1015 81 10000 3.6 110 22:38 03.04.2020
5467 Clouds 3 1015 81 10000 3.6 110 22:18 03.04.2020
5468 Clouds 3 1014 75 10000 3.6 120 21:43 03.04.2020
5469 Clouds 3 1014 75 10000 3.6 120 21:24 03.04.2020
5470 Clouds 3 1014 75 10000 2.6 130 20:56 03.04.2020
5471 Clouds 3 1014 75 10000 3.1 140 20:37 03.04.2020
5472 Clouds 3 1014 75 10000 3.1 140 20:19 03.04.2020
5473 Clouds 4 1013 65 10000 4.1 110 19:56 03.04.2020
5474 Clouds 4 1013 66 10000 3.6 110 19:38 03.04.2020
5475 Clouds 4 1013 66 10000 3.6 110 19:20 03.04.2020
5476 Clouds 5 1013 57 10000 3.1 120 18:58 03.04.2020
5477 Clouds 6 1013 50 10000 1.5 160 18:40 03.04.2020
5478 Clouds 8 1013 50 10000 1.5 160 18:22 03.04.2020
5479 Clouds 8 1013 54 10000 1 0 17:43 03.04.2020
5480 Clouds 9 1013 54 10000 1 0 17:21 03.04.2020
5481 Clouds 9 1012 50 10000 2.1 0 16:58 03.04.2020
5482 Clouds 7 1013 54 10000 1.5 0 16:40 03.04.2020
5483 Clouds 7 1013 54 10000 1.5 0 16:21 03.04.2020
5484 Clouds 9 1013 57 10000 1 0 15:57 03.04.2020
5485 Clouds 7 1013 61 10000 0.59 165 15:38 03.04.2020
5486 Clouds 7 1013 61 10000 1.22 200 15:19 03.04.2020
5487 Clouds 7 1013 61 10000 1.22 200 15:19 03.04.2020
5488 Clouds 5 1013 47 0 0.45 136 14:41 03.04.2020
5489 Clouds 5 1013 47 0 0.45 136 14:41 03.04.2020
5490 Clouds 5 1015 70 10000 0.5 0 14:22 03.04.2020
5491 Clouds 5 1015 70 10000 0.5 0 13:57 03.04.2020
5492 Clouds 5 1015 70 10000 0.5 0 13:38 03.04.2020
5493 Clouds 6 1015 70 10000 0.5 0 13:20 03.04.2020
5494 Clouds 5 1015 60 10000 1 0 12:43 03.04.2020
5495 Clear 4 1015 60 10000 1 0 12:20 03.04.2020
5496 Clear 4 1015 58 10000 1.53 193 11:56 03.04.2020
5497 Clear 2 1015 74 7000 0.5 0 11:37 03.04.2020
5498 Clear 2 1015 74 7000 0.5 0 11:18 03.04.2020
5499 Mist 1 1015 58 4000 1 100 10:57 03.04.2020
5500 Mist 0 1015 92 1200 1.5 80 10:38 03.04.2020
5501 Mist 0 1015 92 1200 1.5 80 10:20 03.04.2020
5502 Fog 0 1016 100 200 1 0 09:57 03.04.2020
5503 Fog 0 1015 92 150 0.5 0 09:39 03.04.2020
5504 Fog 0 1015 92 150 0.5 0 09:39 03.04.2020
5505 Fog 0 1015 92 150 0.5 0 09:21 03.04.2020
5506 Fog 0 1015 92 150 1.5 60 08:55 03.04.2020
5507 Fog -2 1015 92 200 0.5 0 08:36 03.04.2020
5508 Fog -2 1015 92 200 0.5 0 08:18 03.04.2020
5509 Fog -3 1015 100 150 1.36 200 07:41 03.04.2020
5510 Fog -3 1015 100 150 1.36 200 07:41 03.04.2020
5511 Fog -3 1015 100 150 1.36 200 07:23 03.04.2020
5512 Fog -4 1014 100 250 1 0 06:34 03.04.2020
5513 Fog -3 1014 92 300 2.1 130 05:43 03.04.2020
5514 Fog -3 1014 92 300 2.1 130 05:21 03.04.2020
5515 Mist -4 1014 92 2000 1 110 03:37 03.04.2020
5516 Mist -3 1014 100 3000 1 0 02:47 03.04.2020
5517 Mist -3 1015 100 5000 1 320 01:30 03.04.2020
5518 Mist -3 1015 100 5000 0.5 0 00:56 03.04.2020
5519 Mist -3 1015 92 5000 0.5 0 00:33 03.04.2020
5520 Mist -2 1015 92 5000 0.5 0 23:57 02.04.2020
5521 Mist -2 1015 92 5000 1 0 23:38 02.04.2020
5522 Mist -2 1015 92 5000 1 0 23:19 02.04.2020
5523 Clouds -2 1015 92 7000 1 140 22:42 02.04.2020
5524 Clouds -2 1015 92 7000 1 140 22:42 02.04.2020
5525 Clouds -2 1015 92 7000 1 140 22:23 02.04.2020
5526 Clouds -2 1015 71 6000 0.74 159 21:59 02.04.2020
5527 Clouds -2 1015 71 8000 0.5 0 21:37 02.04.2020
5528 Clouds 0 1015 71 8000 0.5 0 21:19 02.04.2020
5529 Clouds 0 1014 71 10000 1 0 20:45 02.04.2020
5530 Clouds 0 1014 71 10000 1.5 120 20:25 02.04.2020
5531 Clouds 2 1014 74 10000 2.6 130 19:59 02.04.2020
5532 Clouds 2 1014 74 10000 2.6 130 19:59 02.04.2020
5533 Clouds 2 1014 74 10000 2.6 120 19:40 02.04.2020
5534 Clouds 2 1014 74 10000 2.6 120 19:20 02.04.2020
5535 Clouds 2 1014 74 10000 2.1 110 18:56 02.04.2020
5536 Clouds 3 1014 69 10000 2.1 90 18:37 02.04.2020
5537 Clouds 3 1014 74 10000 1.5 100 18:18 02.04.2020
5538 Clouds 3 1014 69 10000 0.5 0 17:43 02.04.2020
5539 Clouds 3 1014 69 10000 0.5 0 17:24 02.04.2020
5540 Clouds 4 1014 64 10000 1 0 16:58 02.04.2020
5541 Clouds 3 1014 69 10000 1 0 16:40 02.04.2020
5542 Clouds 3 1014 69 10000 1 0 16:21 02.04.2020
5543 Clouds 3 1014 64 10000 1 140 15:57 02.04.2020
5544 Clouds 4 1014 60 10000 1 0 15:39 02.04.2020
5545 Clouds 4 1014 60 10000 1 0 15:18 02.04.2020
5546 Clouds 4 1014 60 10000 1 0 15:18 02.04.2020
5547 Clouds 4 1015 64 10000 2.54 38 14:57 02.04.2020
5548 Clouds 4 1015 64 10000 2.54 38 14:38 02.04.2020
5549 Clouds 3 1015 64 10000 2.54 38 14:18 02.04.2020
5550 Clouds 3 1015 69 10000 2.26 29 13:54 02.04.2020
5551 Clouds 3 1015 64 10000 1 0 13:36 02.04.2020
5552 Clouds 3 1015 64 10000 1 0 13:18 02.04.2020
5553 Clouds 2 1015 69 10000 1.5 300 12:41 02.04.2020
5554 Clouds 2 1015 69 10000 1.5 300 12:19 02.04.2020
5555 Clouds 2 1015 69 10000 1 0 11:57 02.04.2020
5556 Clouds 1 1015 74 10000 2.1 320 11:38 02.04.2020
5557 Clouds 1 1015 74 10000 2.1 320 11:19 02.04.2020
5558 Clouds 1 1015 80 10000 2.6 310 10:55 02.04.2020
5559 Clouds 0 1015 59 10000 3.1 300 10:37 02.04.2020
5560 Clouds 0 1015 59 10000 2.1 320 10:19 02.04.2020
5561 Clouds 0 1015 59 10000 2.1 320 09:56 02.04.2020
5562 Clouds 0 1015 59 10000 0.5 0 09:38 02.04.2020
5563 Clouds -2 1015 72 10000 0.5 0 09:19 02.04.2020
5564 Clouds -2 1015 76 10000 1.5 50 08:46 02.04.2020
5565 Snow -3 1015 92 10000 1 0 08:26 02.04.2020
5566 Snow -3 1014 92 10000 0.5 0 07:45 02.04.2020
5567 Clouds -3 1014 92 10000 0.5 0 07:21 02.04.2020
5568 Clouds -3 1014 92 10000 1 0 06:58 02.04.2020
5569 Snow -3 1014 92 7000 1.94 20 06:22 02.04.2020
5570 Snow -3 1014 92 8000 2.1 230 05:45 02.04.2020
5571 Snow -3 1014 92 5000 2.1 170 04:46 02.04.2020
5572 Snow -2 1015 92 1100 2.1 140 01:54 02.04.2020
5573 Snow -2 1015 92 2000 2.1 130 00:51 02.04.2020
5574 Snow -2 1015 92 1900 1.5 160 00:29 02.04.2020
5575 Snow -2 1015 92 1900 1.5 170 23:57 01.04.2020
5576 Snow -2 1015 92 2100 0.5 200 23:37 01.04.2020
5577 Snow -2 1015 92 2100 0.5 200 23:18 01.04.2020
5578 Snow -2 1015 92 10000 0.5 200 22:41 01.04.2020
5579 Snow -2 1015 92 10000 0.5 200 22:22 01.04.2020
5580 Snow -2 1015 92 4000 2.1 150 21:57 01.04.2020
5581 Snow -2 1015 92 2500 2.6 140 21:39 01.04.2020
5582 Snow -2 1015 92 2500 2.6 140 21:18 01.04.2020
5583 Snow -2 1015 92 4000 2.6 140 20:55 01.04.2020
5584 Snow -2 1015 92 5000 3.1 130 20:37 01.04.2020
5585 Snow -2 1015 92 5000 3.1 130 20:18 01.04.2020
5586 Snow -2 1015 92 3000 3.6 120 19:43 01.04.2020
5587 Snow -2 1015 92 3000 3.6 120 19:22 01.04.2020
5588 Snow -2 1015 92 1100 3.1 120 18:56 01.04.2020
5589 Snow -2 1015 92 1100 3.1 120 18:56 01.04.2020
5590 Snow -2 1015 92 800 3.6 110 18:38 01.04.2020
5591 Snow -2 1015 92 800 3.6 110 18:38 01.04.2020
5592 Snow -1 1015 92 800 3.6 110 18:20 01.04.2020
5593 Snow -1 1015 92 1100 3.1 90 17:55 01.04.2020
5594 Snow -1 1015 92 1600 2.1 70 17:36 01.04.2020
5595 Snow -1 1015 92 1600 2.1 70 17:18 01.04.2020
5596 Snow 0 1015 69 5000 4.6 120 16:42 01.04.2020
5597 Snow 0 1015 69 5000 4.6 120 16:42 01.04.2020
5598 Snow -1 1015 69 5000 4.6 120 16:24 01.04.2020
5599 Snow -1 1015 69 4000 4.6 120 15:58 01.04.2020
5600 Snow -1 1016 69 10000 4.6 120 15:40 01.04.2020
5601 Snow 0 1016 67 10000 4.6 120 15:21 01.04.2020
5602 Snow 0 1016 67 10000 4.6 110 14:57 01.04.2020
5603 Snow 0 1016 67 8000 4.6 120 14:38 01.04.2020
5604 Snow 0 1016 67 4500 4.6 130 14:19 01.04.2020
5605 Snow 0 1016 67 4500 4.6 130 13:58 01.04.2020
5606 Clouds 0 1017 67 10000 5.7 130 13:37 01.04.2020
5607 Clouds 0 1017 67 10000 5.7 130 13:19 01.04.2020
5608 Clouds 0 1017 67 10000 7.2 140 12:54 01.04.2020
5609 Snow -1 1017 92 3000 7.7 130 12:36 01.04.2020
5610 Snow -1 1017 92 3000 7.7 130 12:18 01.04.2020
5611 Snow -1 1017 92 1800 5.7 130 11:42 01.04.2020
5612 Snow -1 1017 92 1800 5.7 130 11:23 01.04.2020
5613 Snow -1 1017 92 3500 5.7 120 10:58 01.04.2020
5614 Snow -1 1017 92 2300 5.1 110 10:37 01.04.2020
5615 Snow -1 1017 92 2300 5.1 110 10:18 01.04.2020
5616 Snow -1 1017 92 1000 6.2 110 09:55 01.04.2020
5617 Snow -2 1017 92 1700 6.7 120 09:37 01.04.2020
5618 Snow -2 1017 92 1700 6.7 120 09:18 01.04.2020
5619 Snow -2 1016 92 10000 6.2 110 08:40 01.04.2020
5620 Snow -2 1016 92 10000 6.2 110 08:18 01.04.2020
5621 Snow -3 1016 100 6000 3.6 130 07:43 01.04.2020
5622 Snow -3 1016 100 6000 3.6 130 07:20 01.04.2020
5623 Snow -3 1016 100 8000 3.6 140 06:47 01.04.2020
5624 Snow -2 1016 100 8000 3.6 140 06:23 01.04.2020
5625 Snow -2 1016 100 8000 3.6 130 05:55 01.04.2020
5626 Snow -2 1017 92 2800 2.1 120 04:30 01.04.2020
5627 Snow -2 1017 92 2600 1.5 140 03:28 01.04.2020
5628 Snow -2 1017 92 2700 0.5 40 02:49 01.04.2020
5629 Snow -2 1018 92 3500 2.17 35 01:54 01.04.2020
5630 Snow -2 1018 92 2500 1 0 01:29 01.04.2020
5631 Snow -2 1018 100 2600 1.5 320 00:58 01.04.2020
5632 Snow -2 1018 100 2000 2.1 320 00:40 01.04.2020
5633 Snow -2 1018 100 2000 2.1 320 00:18 01.04.2020
5634 Snow -2 1018 71 1800 2.1 340 23:41 31.03.2020
5635 Snow -2 1018 71 1800 2.1 340 23:41 31.03.2020
5636 Snow -2 1018 71 1800 2.1 340 23:23 31.03.2020
5637 Snow -2 1018 71 1800 2.1 340 23:23 31.03.2020
5638 Snow -1 1018 71 1400 3.6 10 22:43 31.03.2020
5639 Snow -1 1018 71 1400 3.6 10 22:23 31.03.2020
5640 Snow -1 1018 71 1400 3.6 10 22:23 31.03.2020
5641 Snow 0 1018 71 2300 4.1 300 21:59 31.03.2020
5642 Snow 0 1018 71 2300 4.1 300 21:59 31.03.2020
5643 Snow 0 1018 71 2300 4.1 300 21:59 31.03.2020
5644 Clouds 0 1018 86 8000 4.1 280 21:41 31.03.2020
5645 Clouds 0 1018 86 8000 4.1 280 21:22 31.03.2020
5646 Clouds 1 1018 86 8000 4.1 280 20:58 31.03.2020
5647 Clouds 1 1017 80 10000 5.7 270 20:38 31.03.2020
5648 Clouds 2 1016 60 10000 3.1 320 20:20 31.03.2020
5649 Clouds 3 1016 60 10000 3.1 320 19:59 31.03.2020
5650 Clouds 3 1016 60 10000 3.6 330 19:40 31.03.2020
5651 Clouds 3 1016 60 10000 3.6 330 19:21 31.03.2020
5652 Clouds 2 1015 56 10000 2.1 340 18:54 31.03.2020
5653 Clouds 3 1015 52 10000 3.6 360 18:36 31.03.2020
5654 Clouds 4 1015 52 10000 3.6 360 18:18 31.03.2020
5655 Clouds 3 1015 52 10000 3.1 10 17:54 31.03.2020
5656 Clouds 4 1015 48 10000 4.1 20 17:36 31.03.2020
5657 Clouds 4 1015 48 10000 4.1 20 17:36 31.03.2020
5658 Clouds 5 1015 48 10000 4.6 20 17:18 31.03.2020
5659 Clouds 4 1015 42 10000 2.1 300 16:37 31.03.2020
5660 Clouds 4 1015 42 10000 2.1 300 16:18 31.03.2020
5661 Clouds 4 1015 52 10000 3.1 310 15:56 31.03.2020
5662 Clouds 4 1015 63 10000 4.6 310 15:37 31.03.2020
5663 Clouds 9 1015 48 10000 4.6 310 15:19 31.03.2020
5664 Clouds 5 1015 49 10000 3.6 290 14:56 31.03.2020
5665 Clouds 9 1015 48 10000 2.6 290 14:38 31.03.2020
5666 Clouds 10 1015 48 10000 2.6 290 14:18 31.03.2020
5667 Clouds 8 1016 52 10000 3.1 270 13:41 31.03.2020
5668 Clouds 8 1016 52 10000 3.1 270 13:19 31.03.2020
5669 Clouds 8 1016 47 10000 3.1 260 12:54 31.03.2020
5670 Clouds 8 1016 52 10000 4.1 250 12:36 31.03.2020
5671 Clouds 9 1017 56 10000 4.6 260 12:18 31.03.2020
5672 Clouds 8 1017 56 10000 5.1 280 11:38 31.03.2020
5673 Clouds 7 1017 65 10000 5.1 270 11:19 31.03.2020
5674 Clouds 7 1017 65 10000 5.1 270 10:56 31.03.2020
5675 Clouds 6 1017 69 10000 5.7 270 10:38 31.03.2020
5676 Clouds 4 1017 69 10000 5.7 270 10:20 31.03.2020
5677 Clouds 6 1017 60 10000 5.7 280 09:45 31.03.2020
5678 Clouds 5 1017 69 10000 6.2 280 09:27 31.03.2020
5679 -273 0 0 0 0 0 08:59 31.03.2020
5680 Clouds 2 1017 69 10000 6.2 280 08:59 31.03.2020
5681 Clouds 1 1017 69 10000 6.2 290 08:41 31.03.2020
5682 Clouds 1 1017 69 10000 6.2 290 08:21 31.03.2020
5683 Clouds 0 1017 74 10000 5.7 290 07:59 31.03.2020
5684 Clouds 0 1017 74 8000 6.7 280 07:41 31.03.2020
5685 Clouds 0 1017 74 8000 6.7 280 07:22 31.03.2020
5686 Clouds 0 1017 74 8000 6.7 280 06:53 31.03.2020
5687 Clouds 0 1016 74 10000 6.7 280 06:35 31.03.2020
5688 Clouds 1 1016 69 10000 6.2 280 05:41 31.03.2020
5689 Clouds 1 1016 74 10000 8.2 280 04:33 31.03.2020
5690 Clouds 1 1015 74 9000 8.2 280 02:30 31.03.2020
5691 Clouds 2 1015 68 10000 7.7 280 01:46 31.03.2020
5692 Clouds 2 1015 68 10000 7.2 280 00:53 31.03.2020
5693 Clouds 2 1015 65 10000 7.7 280 00:25 31.03.2020
5694 Clouds 2 1015 64 10000 6.7 280 23:59 30.03.2020
5695 Clouds 3 1015 60 10000 7.7 280 23:38 30.03.2020
5696 Clouds 4 1015 60 10000 7.7 280 23:19 30.03.2020
5697 Clouds 4 1015 60 10000 6.7 280 22:57 30.03.2020
5698 Clouds 5 1014 56 10000 7.2 270 22:38 30.03.2020
5699 Clouds 5 1014 56 10000 6.7 280 22:18 30.03.2020
5700 Clouds 5 1014 56 10000 6.7 280 21:57 30.03.2020
5701 Clouds 5 1013 49 10000 6.7 270 21:37 30.03.2020
5702 Clouds 6 1013 49 10000 6.7 270 21:19 30.03.2020
5703 Clouds 6 1013 43 10000 6.2 280 20:55 30.03.2020
5704 Clouds 7 1012 43 10000 6.2 290 20:36 30.03.2020
5705 Clouds 7 1012 43 10000 6.2 290 20:18 30.03.2020
5706 Clouds 9 1011 62 10000 2.1 330 19:40 30.03.2020
5707 Clouds 9 1011 62 10000 2.1 330 19:22 30.03.2020
5708 Clouds 9 1011 62 10000 3.6 320 18:57 30.03.2020
5709 Clouds 10 1011 62 10000 3.6 310 18:38 30.03.2020
5710 Clouds 10 1011 48 10000 3.6 310 18:20 30.03.2020
5711 Clouds 10 1010 48 10000 3.6 310 17:57 30.03.2020
5712 Clouds 10 1010 33 10000 3.6 290 17:38 30.03.2020
5713 Clouds 10 1010 33 10000 3.6 290 17:38 30.03.2020
5714 Clouds 10 1011 48 10000 4.6 290 17:19 30.03.2020
5715 Clouds 10 1011 48 10000 4.6 290 16:55 30.03.2020
5716 Clouds 10 1011 35 10000 3.6 280 16:36 30.03.2020
5717 Clouds 10 1011 35 10000 3.6 280 16:18 30.03.2020
5718 -273 0 0 0 0 0 15:54 30.03.2020
5719 Clouds 11 1011 38 10000 4.6 320 15:36 30.03.2020
5720 Clouds 11 1011 38 10000 4.6 320 15:18 30.03.2020
5721 Clouds 10 1011 40 10000 3.6 290 14:39 30.03.2020
5722 Clouds 11 1011 40 10000 3.6 290 14:19 30.03.2020
5723 Clouds 11 1011 37 10000 3.6 290 14:19 30.03.2020
5724 Clouds 11 1012 38 10000 4.1 260 13:59 30.03.2020
5725 Clouds 10 1012 41 10000 3.6 290 13:40 30.03.2020
5726 Clouds 10 1012 41 10000 3.6 290 13:20 30.03.2020
5727 Clouds 10 1012 44 10000 4.1 280 12:54 30.03.2020
5728 Clouds 12 1012 44 10000 4.1 280 12:54 30.03.2020
5729 Clouds 10 1012 41 10000 4.6 290 12:36 30.03.2020
5730 Clear 10 1012 41 10000 4.6 290 12:18 30.03.2020
5731 Clear 9 1012 46 10000 5.1 300 11:42 30.03.2020
5732 -273 0 0 0 0 0 11:23 30.03.2020
5733 Clear 9 1013 46 10000 6.2 300 10:57 30.03.2020
5734 Clear 8 1013 50 10000 6.2 300 10:38 30.03.2020
5735 Clear 8 1013 50 10000 6.2 300 10:20 30.03.2020
5736 Clear 7 1013 70 10000 1 0 09:41 30.03.2020
5737 Clear 4 1013 70 10000 1 0 09:20 30.03.2020
5738 Clear 4 1012 75 10000 1.2 265 08:58 30.03.2020
5739 Clear 4 1012 86 10000 1.5 150 08:38 30.03.2020
5740 Clear 3 1012 86 10000 1.5 150 08:20 30.03.2020
5741 Clear 2 1012 59 8000 1 0 07:44 30.03.2020
5742 Clear -1 1012 59 8000 1 110 07:23 30.03.2020
5743 Clear -1 1012 59 8000 0.5 0 06:47 30.03.2020
5744 Clear -1 1012 59 8000 0.5 0 06:25 30.03.2020
5745 Clear -1 1012 86 10000 1 0 05:44 30.03.2020
5746 Clear 0 1012 86 8000 1.5 130 04:37 30.03.2020
5747 Clear 0 1012 86 8000 1.5 130 04:18 30.03.2020
5748 Clear 1 1012 63 8000 1 90 02:45 30.03.2020
5749 Clear 0 1012 63 10000 1.5 120 01:58 30.03.2020
5750 Clear 1 1012 63 10000 1.5 60 01:18 30.03.2020
5751 Clear 2 1011 70 10000 2.1 310 00:29 30.03.2020
5752 Clouds 2 1011 60 10000 2.6 290 23:56 29.03.2020
5753 Clouds 2 1011 70 10000 3.6 270 23:37 29.03.2020
5754 Clouds 2 1011 70 10000 3.6 270 23:19 29.03.2020
5755 Clouds 4 1011 60 10000 3.1 280 22:41 29.03.2020
5756 Clouds 4 1011 60 10000 3.1 280 22:20 29.03.2020
5757 Clouds 4 1011 60 10000 2.6 280 21:59 29.03.2020
5758 Clouds 6 1011 61 10000 3.6 280 21:38 29.03.2020
5759 Rain 6 1011 61 10000 3.6 280 21:20 29.03.2020
5760 Clouds 7 1010 59 10000 2.6 290 20:55 29.03.2020
5761 Clouds 7 1010 50 10000 2.6 290 20:37 29.03.2020
5762 Clouds 7 1010 50 10000 2.6 290 20:37 29.03.2020
5763 Clouds 8 1010 50 10000 2.6 290 20:19 29.03.2020
5764 Rain 8 1010 50 10000 2.6 290 19:57 29.03.2020
5765 Rain 8 1010 50 10000 2.6 290 19:57 29.03.2020
5766 Clouds 8 1009 59 10000 2.6 300 19:39 29.03.2020
5767 Clouds 9 1009 43 10000 3.6 320 19:21 29.03.2020
5768 Clouds 9 1009 43 10000 3.6 320 18:57 29.03.2020
5769 Clouds 10 1009 35 10000 5.7 320 18:38 29.03.2020
5770 Clouds 10 1009 44 10000 2.6 290 18:18 29.03.2020
5771 Clouds 11 1009 44 10000 2.6 290 17:55 29.03.2020
5772 Clouds 10 1008 38 10000 3.1 280 17:36 29.03.2020
5773 Clouds 10 1008 38 10000 3.1 280 17:18 29.03.2020
5774 Clouds 9 1008 41 10000 3.1 280 16:55 29.03.2020
5775 Clouds 10 1008 33 10000 3.6 280 16:36 29.03.2020
5776 Clouds 10 1009 33 10000 5.1 290 16:18 29.03.2020
5777 Clouds 12 1009 44 10000 3.1 320 15:41 29.03.2020
5778 Clouds 12 1009 44 10000 3.1 320 15:23 29.03.2020
5779 Clouds 12 1009 44 10000 3.1 320 15:23 29.03.2020
5780 Clouds 10 1009 33 10000 3.6 320 14:57 29.03.2020
5781 Clouds 10 1009 33 10000 1.5 310 14:39 29.03.2020
5782 Clouds 10 1009 33 10000 1.5 310 14:19 29.03.2020
5783 Clouds 12 1009 38 10000 4.6 280 13:56 29.03.2020
5784 Clouds 10 1009 38 10000 2.6 310 13:38 29.03.2020
5785 Clouds 10 1009 38 10000 2.6 310 13:19 29.03.2020
5786 Clouds 9 1010 44 10000 3.6 260 12:55 29.03.2020
5787 Clouds 10 1010 46 10000 2.1 250 12:37 29.03.2020
5788 Clouds 7 1010 57 10000 1.5 310 12:18 29.03.2020
5789 Clouds 7 1010 57 10000 1.5 310 12:18 29.03.2020
5790 Clouds 8 1010 57 10000 1.5 310 12:18 29.03.2020
5791 Clouds 6 1011 61 10000 1.5 310 11:39 29.03.2020
5792 Clouds 6 1011 61 10000 1.5 310 11:21 29.03.2020
5793 Clouds 6 1011 61 10000 2.1 300 10:59 29.03.2020
5794 Clouds 5 1011 65 10000 1.5 0 10:37 29.03.2020
5795 Clouds 5 1011 65 10000 1.5 0 10:18 29.03.2020
5796 Clouds 5 1011 80 10000 1 0 09:39 29.03.2020
5797 Clouds 3 1011 80 10000 1 0 09:19 29.03.2020
5798 Clouds 2 1011 61 10000 1 0 08:53 29.03.2020
5799 Clouds 1 1011 61 9000 1 0 08:28 29.03.2020
5800 Clouds 1 1011 61 9000 1 100 07:58 29.03.2020
5801 Clouds 0 1011 86 9000 1 360 07:39 29.03.2020
5802 Clouds 0 1011 86 9000 1 360 07:39 29.03.2020
5803 Clouds 1 1011 86 9000 1 360 07:20 29.03.2020
5804 Clouds 0 1011 86 10000 1.5 330 04:59 29.03.2020
5805 Clouds 0 1011 86 10000 1.5 330 04:59 29.03.2020
5806 Clouds 1 1011 67 9000 2.1 300 03:48 29.03.2020
5807 Clouds 1 1011 67 9000 2.1 290 03:26 29.03.2020
5808 Clouds 1 1011 67 9000 1.5 280 01:50 29.03.2020
5809 Clouds 1 1011 67 9000 1 0 01:23 29.03.2020
5810 Clouds 1 1011 67 8000 2.1 360 00:53 29.03.2020
5811 Clouds 1 1011 67 8000 2.1 320 00:30 29.03.2020
5812 Clouds 1 1011 67 10000 2.1 260 23:42 28.03.2020
5813 Clouds 1 1011 67 10000 2.1 260 23:23 28.03.2020
5814 Clouds 2 1011 75 8000 1 260 22:57 28.03.2020
5815 Clouds 2 1011 81 7000 0.5 0 22:37 28.03.2020
5816 Clouds 2 1011 81 7000 0.5 0 22:19 28.03.2020
5817 Clouds 3 1011 70 7000 2.1 200 21:42 28.03.2020
5818 Clouds 3 1011 70 7000 2.1 200 21:24 28.03.2020
5819 Clouds 5 1011 75 7000 0.5 0 20:58 28.03.2020
5820 Clouds 5 1011 70 10000 1 0 20:39 28.03.2020
5821 Clouds 5 1011 70 10000 1 0 20:21 28.03.2020
5822 Clouds 6 1011 65 10000 1 20 19:56 28.03.2020
5823 Clouds 6 1011 61 10000 1 0 19:37 28.03.2020
5824 Clouds 6 1011 61 10000 1 0 19:37 28.03.2020
5825 Clouds 6 1011 61 10000 1 0 19:19 28.03.2020
5826 Clouds 7 1011 57 10000 1.5 110 18:55 28.03.2020
5827 Clouds 6 1010 57 10000 1 10 18:36 28.03.2020
5828 Clouds 6 1010 57 10000 2.6 40 18:18 28.03.2020
5829 Clouds 7 1010 53 10000 3.1 40 17:38 28.03.2020
5830 Clouds 8 1010 53 10000 3.1 40 17:19 28.03.2020
5831 Clouds 8 1010 54 10000 4.6 40 16:42 28.03.2020
5832 Clouds 8 1010 54 10000 4.6 40 16:20 28.03.2020
5833 Clouds 8 1011 50 10000 4.1 20 15:56 28.03.2020
5834 Clouds 8 1011 54 10000 4.1 360 15:37 28.03.2020
5835 Clouds 8 1011 54 10000 4.1 360 15:18 28.03.2020
5836 Clouds 8 1011 50 10000 3.6 10 14:42 28.03.2020
5837 Clouds 8 1011 50 10000 3.6 10 14:22 28.03.2020
5838 Clouds 9 1011 47 8000 3.6 20 13:56 28.03.2020
5839 Clouds 8 1011 46 8000 3.6 10 13:37 28.03.2020
5840 Clouds 8 1011 46 8000 3.6 10 13:18 28.03.2020
5841 Clouds 8 1011 46 8000 3.6 10 13:18 28.03.2020
5842 Clouds 7 1012 46 8000 2.1 0 12:38 28.03.2020
5843 Clouds 7 1012 46 8000 2.1 0 12:19 28.03.2020
5844 Clouds 7 1013 53 8000 2.1 280 11:42 28.03.2020
5845 Clouds 9 1013 53 8000 2.1 280 11:21 28.03.2020
5846 Clouds 8 1013 61 8000 1.5 0 10:43 28.03.2020
5847 Clouds 8 1013 61 8000 1.5 0 10:24 28.03.2020
5848 Clouds 8 1013 61 7000 2.1 290 09:59 28.03.2020
5849 Clouds 7 1014 65 7000 1.5 290 09:39 28.03.2020
5850 Clouds 5 1014 65 7000 1.5 290 09:21 28.03.2020
5851 Clouds 6 1014 70 7000 2.1 290 08:42 28.03.2020
5852 Clouds 6 1014 70 7000 2.1 290 08:42 28.03.2020
5853 Clouds 3 1014 70 7000 2.1 290 08:24 28.03.2020
5854 Clouds 2 1014 75 6000 3.1 270 07:52 28.03.2020
5855 Clouds 1 1014 80 6000 2.1 290 07:34 28.03.2020
5856 Mist 2 1014 80 5000 0.5 0 06:52 28.03.2020
5857 Clouds 1 1014 65 8000 2.6 310 06:23 28.03.2020
5858 Clouds 0 1014 65 8000 2.1 300 05:26 28.03.2020
5859 Clouds 0 1014 86 8000 2.1 310 04:53 28.03.2020
5860 Clouds 0 1014 86 8000 2.1 300 04:35 28.03.2020
5861 Mist 1 1014 86 5000 2.1 260 02:50 28.03.2020
5862 Mist 1 1015 93 5000 1.5 0 01:47 28.03.2020
5863 Clouds 1 1015 86 7000 1 230 01:23 28.03.2020
5864 Clouds 1 1015 93 7000 1 60 00:47 28.03.2020
5865 Clouds 1 1015 93 7000 1.5 70 00:21 28.03.2020
5866 Clouds 0 1015 86 8000 2.6 100 23:43 27.03.2020
5867 Clouds 0 1015 86 8000 2.6 100 23:24 27.03.2020
5868 Clouds 1 1015 86 8000 1.5 90 22:56 27.03.2020
5869 Clouds 1 1015 86 8000 1.5 90 22:56 27.03.2020
5870 Clouds 0 1016 86 8000 2.1 150 22:38 27.03.2020
5871 Clouds 2 1016 86 8000 2.1 150 22:20 27.03.2020
5872 Clouds 2 1016 86 8000 3.1 110 21:55 27.03.2020
5873 Clouds 3 1016 80 8000 2.1 100 21:37 27.03.2020
5874 Clouds 3 1016 80 8000 2.1 100 21:19 27.03.2020
5875 Clouds 4 1016 70 9000 3.1 160 20:42 27.03.2020
5876 Clouds 5 1016 70 9000 3.1 160 20:21 27.03.2020
5877 Clouds 4 1016 81 9000 3.1 180 19:59 27.03.2020
5878 Clouds 5 1016 75 8000 3.1 150 19:40 27.03.2020
5879 Clouds 5 1016 75 9000 3.1 130 19:22 27.03.2020
5880 Clouds 5 1016 75 9000 3.1 130 18:56 27.03.2020
5881 Clouds 5 1015 70 10000 2.1 110 18:38 27.03.2020
5882 Clouds 5 1015 70 10000 2.1 110 18:19 27.03.2020
5883 Clouds 4 1015 70 9000 4.6 50 17:40 27.03.2020
5884 Clouds 5 1015 70 9000 4.6 50 17:20 27.03.2020
5885 Clouds 6 1015 70 8000 5.1 40 16:45 27.03.2020
5886 Clouds 6 1015 70 8000 5.1 40 16:27 27.03.2020
5887 Clouds 9 1015 66 10000 5.1 30 15:57 27.03.2020
5888 Clouds 5 1015 66 10000 5.1 40 15:39 27.03.2020
5889 Clouds 9 1015 66 10000 5.1 40 15:39 27.03.2020
5890 Clouds 9 1015 66 10000 5.1 40 15:21 27.03.2020
5891 Clouds 10 1015 61 10000 3.6 50 14:45 27.03.2020
5892 Clouds 10 1015 57 8000 4.1 110 14:24 27.03.2020
5893 Clouds 10 1015 61 9000 4.6 100 13:56 27.03.2020
5894 Clouds 10 1016 61 10000 5.1 120 13:37 27.03.2020
5895 Clouds 10 1016 61 10000 5.1 120 13:18 27.03.2020
5896 Clouds 9 1016 61 10000 6.2 110 12:45 27.03.2020
5897 Clouds 9 1016 61 10000 6.2 110 12:20 27.03.2020
5898 Clouds 9 1016 61 10000 5.1 100 11:59 27.03.2020
5899 Clouds 9 1016 61 10000 5.1 100 11:59 27.03.2020
5900 Clouds 9 1016 61 10000 5.1 100 11:59 27.03.2020
5901 Clouds 9 1016 61 10000 5.1 100 11:59 27.03.2020
5902 Clouds 9 1017 66 10000 1.5 0 11:40 27.03.2020
5903 Clouds 9 1017 66 10000 1.5 0 11:22 27.03.2020
5904 Clouds 7 1017 65 10000 2.6 90 10:54 27.03.2020
5905 Clouds 7 1017 65 10000 1 0 10:36 27.03.2020
5906 Clouds 7 1017 70 10000 1 0 10:18 27.03.2020
5907 Clouds 7 1017 70 10000 1 0 09:54 27.03.2020
5908 Clouds 6 1017 63 10000 1 0 09:36 27.03.2020
5909 Clouds 6 1017 63 10000 1 0 09:18 27.03.2020
5910 Clouds 5 1017 75 10000 1.5 90 08:54 27.03.2020
5911 Clouds 4 1017 63 10000 2.6 130 08:36 27.03.2020
5912 Clouds 4 1017 69 10000 2.6 130 08:18 27.03.2020
5913 Clouds 3 1017 69 10000 2.1 90 07:41 27.03.2020
5914 Clouds 3 1017 69 10000 2.1 90 07:21 27.03.2020
5915 Clouds 1 1017 86 7000 1.5 120 06:41 27.03.2020
5916 Clouds 0 1017 69 6000 1.5 130 05:57 27.03.2020
5917 Clouds 1 1018 71 10000 3.6 120 03:34 27.03.2020
5918 Clouds 2 1019 93 10000 2.1 100 01:56 27.03.2020
5919 Clouds 3 1019 86 10000 3.6 100 01:19 27.03.2020
5920 Clouds 3 1019 86 10000 2.6 60 00:43 27.03.2020
5921 Clouds 3 1019 86 10000 2.6 60 00:19 27.03.2020
5922 Clouds 3 1020 86 10000 3.6 90 23:40 26.03.2020
5923 Clouds 3 1020 86 10000 3.6 90 23:18 26.03.2020
5924 Clouds 3 1020 86 10000 3.6 90 22:57 26.03.2020
5925 Clouds 3 1020 86 10000 3.6 90 22:36 26.03.2020
5926 Clouds 3 1020 86 10000 3.6 90 22:18 26.03.2020
5927 Clouds 3 1020 86 10000 3.6 140 21:40 26.03.2020
5928 Clouds 3 1020 86 10000 3.6 140 21:21 26.03.2020
5929 Clouds 3 1020 86 10000 3.1 160 20:59 26.03.2020
5930 Clouds 3 1020 86 10000 3.6 160 20:39 26.03.2020
5931 Clouds 3 1020 86 10000 3.6 160 20:21 26.03.2020
5932 Clouds 3 1020 86 10000 3.1 150 19:58 26.03.2020
5933 Clouds 3 1020 86 10000 2.6 140 19:39 26.03.2020
5934 Clouds 3 1020 86 10000 2.6 140 19:21 26.03.2020
5935 Clouds 3 1020 86 10000 3.6 150 18:58 26.03.2020
5936 Clouds 3 1020 72 10000 3.1 130 18:40 26.03.2020
5937 Clouds 3 1020 72 10000 3.1 130 18:21 26.03.2020
5938 Clouds 3 1020 86 10000 3.6 100 17:44 26.03.2020
5939 Clouds 4 1020 80 10000 4.1 120 17:19 26.03.2020
5940 Clouds 4 1020 80 10000 4.1 120 16:55 26.03.2020
5941 Clouds 4 1020 80 10000 4.1 120 16:55 26.03.2020
5942 Clouds 4 1020 80 10000 5.7 110 16:37 26.03.2020
5943 Clouds 4 1020 80 10000 5.7 110 16:18 26.03.2020
5944 Clouds 4 1020 80 10000 4.6 110 15:41 26.03.2020
5945 Clouds 4 1020 80 10000 4.6 110 15:22 26.03.2020
5946 Clouds 4 1020 80 10000 5.1 120 14:58 26.03.2020
5947 Clouds 4 1020 80 10000 5.7 110 14:39 26.03.2020
5948 Clouds 4 1020 80 10000 5.7 110 14:19 26.03.2020
5949 Clouds 4 1020 80 10000 5.7 120 13:44 26.03.2020
5950 Clouds 3 1020 86 10000 5.1 110 13:24 26.03.2020
5951 Clouds 3 1020 67 10000 5.7 140 12:58 26.03.2020
5952 Clouds 3 1021 67 10000 6.7 140 12:38 26.03.2020
5953 Clouds 3 1021 67 10000 6.7 140 12:20 26.03.2020
5954 Clouds 3 1021 67 10000 5.1 140 11:45 26.03.2020
5955 Clouds 3 1021 86 10000 2.6 120 11:22 26.03.2020
5956 Clouds 3 1021 86 10000 2.6 120 10:56 26.03.2020
5957 Rain 3 1021 68 10000 3.6 140 10:37 26.03.2020
5958 Rain 3 1021 68 10000 3.6 140 10:19 26.03.2020
5959 Clouds 2 1021 80 10000 4.6 130 09:43 26.03.2020
5960 Clouds 2 1021 80 10000 4.6 130 09:20 26.03.2020
5961 Clouds 2 1021 80 10000 4.6 140 08:55 26.03.2020
5962 Clouds 2 1021 80 10000 5.7 140 08:37 26.03.2020
5963 Clouds 2 1021 80 10000 5.7 140 08:18 26.03.2020
5964 Clouds 1 1020 86 10000 5.1 130 07:41 26.03.2020
5965 Clouds 1 1020 86 10000 5.1 130 07:20 26.03.2020
5966 Snow 1 1020 86 9000 4.1 120 06:48 26.03.2020
5967 Clouds 1 1021 86 10000 6.7 110 05:54 26.03.2020
5968 Clouds 1 1021 86 10000 6.2 120 03:59 26.03.2020
5969 Clouds 1 1021 86 10000 5.1 110 03:36 26.03.2020
5970 Clouds 1 1021 86 10000 6.2 120 02:54 26.03.2020
5971 Clouds 1 1021 86 10000 5.7 110 01:50 26.03.2020
5972 Clouds 1 1022 71 10000 5.7 120 00:45 26.03.2020
5973 Clouds 1 1023 86 10000 6.2 110 23:47 25.03.2020
5974 Clouds 1 1023 86 10000 6.2 110 23:28 25.03.2020
5975 Clouds 1 1023 86 10000 4.6 110 22:58 25.03.2020
5976 Rain 1 1024 86 10000 5.1 110 22:38 25.03.2020
5977 Rain 1 1024 86 10000 5.1 110 22:19 25.03.2020
5978 Rain 1 1024 86 10000 5.7 110 21:55 25.03.2020
5979 Rain 1 1024 86 10000 6.2 110 21:37 25.03.2020
5980 Rain 1 1024 86 10000 6.2 110 21:18 25.03.2020
5981 Rain 1 1024 86 10000 6.2 110 21:18 25.03.2020
5982 Clouds 1 1024 86 10000 5.1 110 20:40 25.03.2020
5983 Clouds 1 1024 86 10000 5.1 110 20:20 25.03.2020
5984 Clouds 1 1024 86 10000 5.1 120 19:58 25.03.2020
5985 Clouds 1 1024 86 10000 5.1 120 19:39 25.03.2020
5986 Clouds 1 1024 86 10000 5.1 120 19:21 25.03.2020
5987 Clouds 1 1024 86 10000 6.2 120 18:54 25.03.2020
5988 Clouds 1 1024 86 10000 5.7 110 18:36 25.03.2020
5989 Clouds 1 1024 86 10000 6.2 100 18:18 25.03.2020
5990 Clouds 1 1024 86 10000 7.2 120 17:41 25.03.2020
5991 Clouds 1 1024 86 10000 7.2 120 17:23 25.03.2020
5992 Clouds 1 1024 86 10000 7.2 130 16:59 25.03.2020
5993 Clouds 1 1024 86 10000 7.2 130 16:39 25.03.2020
5994 Clouds 1 1024 86 10000 7.2 130 16:21 25.03.2020
5995 Clouds 1 1024 86 10000 7.2 130 16:21 25.03.2020
5996 Clouds 2 1023 80 10000 8.2 130 15:44 25.03.2020
5997 Clouds 2 1023 80 10000 8.2 130 15:21 25.03.2020
5998 Clouds 2 1023 80 10000 8.2 130 14:59 25.03.2020
5999 Clouds 2 1023 80 10000 7.7 130 14:40 25.03.2020
6000 Clouds 2 1023 80 10000 7.7 130 14:20 25.03.2020
6001 Clouds 2 1023 80 10000 6.7 120 13:45 25.03.2020
6002 Clouds 2 1023 80 10000 7.7 130 13:25 25.03.2020
6003 Clouds 2 1024 74 10000 8.2 130 12:40 25.03.2020
6004 Clouds 2 1024 80 10000 7.2 130 12:21 25.03.2020
6005 Clouds 2 1024 80 10000 7.2 130 11:59 25.03.2020
6006 Clouds 2 1024 74 10000 6.7 130 11:41 25.03.2020
6007 Clouds 2 1024 74 10000 6.7 130 11:21 25.03.2020
6008 Clouds 2 1024 74 10000 6.7 130 11:21 25.03.2020
6009 Clouds 2 1024 74 10000 7.2 130 10:58 25.03.2020
6010 Clouds 2 1024 80 10000 7.2 130 10:40 25.03.2020
6011 Clouds 2 1024 80 10000 7.2 130 10:19 25.03.2020
6012 Clouds 1 1024 86 10000 5.7 120 09:56 25.03.2020
6013 Clouds 1 1024 80 10000 5.7 110 09:38 25.03.2020
6014 Clouds 1 1024 80 10000 5.7 110 09:20 25.03.2020
6015 Clouds 0 1023 67 10000 6.7 110 08:42 25.03.2020
6016 Clouds 0 1023 67 10000 6.7 110 08:24 25.03.2020
6017 Clouds 0 1023 78 10000 6.2 110 07:56 25.03.2020
6018 Clouds 0 1023 78 10000 5.7 110 07:37 25.03.2020
6019 Clouds 0 1023 78 10000 5.1 110 07:18 25.03.2020
6020 Clouds 0 1022 78 10000 5.7 110 06:41 25.03.2020
6021 Clouds 0 1022 78 10000 5.7 110 06:23 25.03.2020
6022 Clouds 0 1022 78 10000 5.7 120 05:47 25.03.2020
6023 Clouds 0 1022 83 10000 6.2 120 04:42 25.03.2020
6024 Clouds 0 1021 83 10000 7.2 110 03:57 25.03.2020
6025 Clouds 0 1022 83 10000 5.1 100 03:32 25.03.2020
6026 Snow -1 1022 92 10000 6.2 110 01:40 25.03.2020
6027 Snow -1 1022 92 10000 7.2 110 00:50 25.03.2020
6028 Snow -1 1022 92 10000 6.2 100 00:27 25.03.2020
6029 Snow -1 1022 92 10000 6.2 110 23:55 24.03.2020
6030 Snow -1 1022 92 10000 6.7 100 23:28 24.03.2020
6031 Snow -1 1022 92 10000 6.2 100 22:58 24.03.2020
6032 Snow -1 1022 92 8000 7.2 100 22:38 24.03.2020
6033 Snow -1 1022 92 8000 7.2 100 22:38 24.03.2020
6034 Snow -1 1022 92 8000 7.2 100 22:20 24.03.2020
6035 Snow -1 1022 86 10000 6.2 100 21:58 24.03.2020
6036 Snow -1 1022 86 10000 6.7 110 21:40 24.03.2020
6037 Snow -1 1022 86 10000 6.7 110 21:19 24.03.2020
6038 Snow -1 1022 86 10000 6.7 110 20:58 24.03.2020
6039 Snow -1 1022 86 10000 6.2 110 20:39 24.03.2020
6040 Snow -1 1022 86 10000 6.2 110 20:21 24.03.2020
6041 Snow 0 1021 75 10000 5.1 110 19:47 24.03.2020
6042 Snow -1 1021 86 5000 5.1 90 19:22 24.03.2020
6043 Snow 0 1021 75 5000 6.2 90 18:58 24.03.2020
6044 Snow 0 1020 75 10000 4.6 90 18:38 24.03.2020
6045 Snow 0 1020 75 10000 4.6 90 18:20 24.03.2020
6046 Snow -1 1020 86 10000 3.6 80 17:56 24.03.2020
6047 Clouds 0 1019 75 10000 7.7 90 17:56 24.03.2020
6048 Clouds 0 1019 75 10000 7.7 90 17:38 24.03.2020
6049 Clouds 0 1019 70 10000 7.7 90 17:20 24.03.2020
6050 Clouds 0 1019 97 10000 7.7 90 16:56 24.03.2020
6051 Snow 0 1019 97 8000 7.7 90 16:37 24.03.2020
6052 Snow 0 1019 97 8000 7.2 90 16:19 24.03.2020
6053 Snow 0 1019 97 8000 4.6 100 15:42 24.03.2020
6054 Snow 0 1019 97 8000 4.6 100 15:23 24.03.2020
6055 Snow 1 1019 74 8000 5.1 80 14:44 24.03.2020
6056 Snow 1 1018 74 10000 5.1 80 14:22 24.03.2020
6057 Snow 1 1018 74 10000 5.1 80 13:58 24.03.2020
6058 Snow 1 1018 74 10000 6.2 80 13:40 24.03.2020
6059 Snow 1 1018 74 10000 6.2 80 13:21 24.03.2020
6060 Snow 0 1018 67 10000 6.7 80 12:42 24.03.2020
6061 Snow 0 1018 67 10000 6.7 80 12:42 24.03.2020
6062 Snow 0 1018 67 10000 6.7 80 12:24 24.03.2020
6063 Snow 0 1018 67 10000 5.7 80 11:41 24.03.2020
6064 Snow 0 1018 96 10000 5.7 80 11:21 24.03.2020
6065 Snow 0 1018 96 10000 4.6 80 10:59 24.03.2020
6066 Snow 0 1018 96 10000 3.6 70 10:40 24.03.2020
6067 Snow 0 1018 96 10000 3.6 70 10:18 24.03.2020
6068 Clouds 0 1018 100 10000 3.1 70 09:46 24.03.2020
6069 Clouds 0 1018 100 10000 3.1 70 09:46 24.03.2020
6070 Clouds 0 1017 100 10000 2.6 70 09:26 24.03.2020
6071 Snow 0 1017 100 10000 3.6 90 08:57 24.03.2020
6072 Snow 0 1017 100 10000 3.1 120 08:37 24.03.2020
6073 Snow 0 1017 100 10000 3.1 120 08:18 24.03.2020
6074 Snow 0 1017 92 5000 3.1 140 07:44 24.03.2020
6075 Snow -2 1017 92 5000 3.1 140 07:22 24.03.2020
6076 Snow -3 1017 100 4500 4.1 130 06:40 24.03.2020
6077 Snow -3 1017 100 4500 4.1 130 06:18 24.03.2020
6078 Snow -2 1016 100 3500 2.6 140 04:51 24.03.2020
6079 Snow -2 1017 100 2600 1.5 140 03:22 24.03.2020
6080 Snow -2 1017 100 2700 1 140 02:41 24.03.2020
6081 Snow -2 1017 100 2700 2.1 37 00:54 24.03.2020
6082 Snow -2 1018 92 2200 1 120 00:27 24.03.2020
6083 Snow -2 1018 92 2600 0.5 0 23:56 23.03.2020
6084 Snow -2 1018 100 2500 1 0 23:37 23.03.2020
6085 Snow -2 1018 100 4200 0.5 0 23:19 23.03.2020
6086 Snow -2 1018 100 2100 2.14 31 22:44 23.03.2020
6087 Snow -2 1018 100 2100 2.14 31 22:23 23.03.2020
6088 Snow -2 1018 100 2700 1 0 21:55 23.03.2020
6089 Snow -2 1018 100 2300 1 0 21:37 23.03.2020
6090 Snow -2 1018 100 2300 1 0 21:18 23.03.2020
6091 Snow -2 1019 100 2100 1 0 20:42 23.03.2020
6092 Snow -2 1019 100 2100 1 0 20:24 23.03.2020
6093 Snow -3 1019 100 2000 1 330 19:56 23.03.2020
6094 Snow -3 1019 100 2100 2.1 290 19:37 23.03.2020
6095 Snow -2 1019 100 2100 2.1 290 19:19 23.03.2020
6096 Snow -2 1018 100 2000 3.1 290 18:44 23.03.2020
6097 Snow -3 1018 100 2000 3.1 290 18:25 23.03.2020
6098 Snow -3 1018 100 2000 3.1 280 17:59 23.03.2020
6099 Snow -3 1018 100 2000 3.1 280 17:41 23.03.2020
6100 Snow -1 1018 100 1500 3.1 280 17:19 23.03.2020
6101 Snow -2 1018 100 1300 3.6 280 16:44 23.03.2020
6102 Snow -1 1018 100 1300 3.6 280 16:25 23.03.2020
6103 Snow -1 1018 100 2100 3.6 290 15:58 23.03.2020
6104 Snow -1 1019 100 3500 4.1 280 15:39 23.03.2020
6105 Snow -1 1019 100 3500 4.1 280 15:18 23.03.2020
6106 Snow -1 1019 100 5000 4.6 280 14:37 23.03.2020
6107 Snow -1 1019 100 5000 4.6 280 14:37 23.03.2020
6108 Snow -1 1019 100 5000 4.6 280 14:19 23.03.2020
6109 Snow -2 1019 92 5000 5.1 280 13:57 23.03.2020
6110 Snow -2 1019 100 4000 5.1 280 13:38 23.03.2020
6111 Snow -1 1019 92 4000 5.1 280 13:20 23.03.2020
6112 Snow -1 1019 100 2500 4.6 280 12:43 23.03.2020
6113 Snow -1 1019 100 3000 5.7 280 12:23 23.03.2020
6114 Snow -2 1019 100 3000 5.7 280 11:56 23.03.2020
6115 Snow -2 1019 92 3000 5.7 280 11:37 23.03.2020
6116 Snow -1 1019 92 5000 5.1 280 11:19 23.03.2020
6117 Snow -1 1019 92 4000 5.1 280 10:42 23.03.2020
6118 Snow -2 1019 92 4000 5.1 280 10:23 23.03.2020
6119 Snow -1 1019 92 5000 6.2 280 09:59 23.03.2020
6120 Snow -1 1019 92 5000 5.1 280 09:41 23.03.2020
6121 Snow -1 1019 92 5000 5.1 280 09:19 23.03.2020
6122 Snow -2 1019 100 2100 5.1 280 08:38 23.03.2020
6123 Snow -2 1019 100 2100 5.1 280 08:20 23.03.2020
6124 Snow -2 1019 100 4000 4.6 280 07:52 23.03.2020
6125 Snow -2 1019 100 5000 4.6 280 07:33 23.03.2020
6126 Snow -2 1019 100 4600 5.1 280 06:56 23.03.2020
6127 Snow -2 1019 100 1300 5.1 280 06:34 23.03.2020
6128 Snow -2 1019 100 1400 4.6 280 05:44 23.03.2020
6129 Snow -2 1019 100 2100 4.6 280 03:54 23.03.2020
6130 Snow -1 1019 97 2400 4.1 290 02:45 23.03.2020
6131 Snow -1 1019 97 2100 3.6 280 01:50 23.03.2020
6132 Snow -2 1019 97 1600 4.6 280 00:47 23.03.2020
6133 Snow -2 1019 97 1600 4.6 280 00:27 23.03.2020
6134 Snow -1 1019 97 4000 4.1 290 23:42 22.03.2020
6135 Snow -1 1019 97 4000 4.1 290 23:24 22.03.2020
6136 Rain 0 1019 86 8000 4.1 300 22:42 22.03.2020
6137 Rain 0 1019 86 8000 4.1 300 22:21 22.03.2020
6138 Rain 1 1018 80 10000 4.6 290 21:41 22.03.2020
6139 Rain 1 1018 80 10000 4.6 290 21:23 22.03.2020
6140 Clouds 1 1018 80 10000 4.6 290 20:59 22.03.2020
6141 Clouds 1 1018 80 10000 4.6 290 20:40 22.03.2020
6142 Clouds 2 1018 80 10000 4.6 290 20:22 22.03.2020
6143 Clouds 1 1018 80 10000 5.1 290 19:56 22.03.2020
6144 Clouds 2 1018 75 10000 5.7 300 19:38 22.03.2020
6145 Clouds 2 1018 75 10000 5.7 300 19:19 22.03.2020
6146 Clouds 3 1017 70 10000 5.7 290 18:57 22.03.2020
6147 Rain 3 1017 70 10000 6.2 290 18:39 22.03.2020
6148 Rain 3 1017 70 10000 6.2 290 18:19 22.03.2020
6149 Clouds 5 1016 65 10000 6.7 280 17:56 22.03.2020
6150 Rain 6 1016 87 10000 6.2 280 17:37 22.03.2020
6151 Rain 6 1016 75 10000 6.2 280 17:19 22.03.2020
6152 Clouds 7 1016 75 10000 5.1 280 16:55 22.03.2020
6153 Clouds 7 1015 53 10000 5.7 290 16:37 22.03.2020
6154 Clouds 8 1015 53 10000 5.7 290 16:19 22.03.2020
6155 Clouds 5 1015 53 10000 7.7 270 15:40 22.03.2020
6156 Clouds 5 1015 53 10000 7.7 270 15:19 22.03.2020
6157 Clouds 8 1015 54 10000 7.2 290 14:46 22.03.2020
6158 Clouds 10 1015 54 10000 7.2 290 14:18 22.03.2020
6159 Clouds 10 1015 54 10000 6.2 280 13:42 22.03.2020
6160 Clouds 11 1015 54 10000 6.2 280 13:20 22.03.2020
6161 Clouds 11 1015 54 10000 7.2 270 12:47 22.03.2020
6162 Clouds 10 1015 58 10000 7.2 260 12:23 22.03.2020
6163 Clouds 10 1015 58 10000 7.2 260 12:23 22.03.2020
6164 Clouds 8 1016 57 10000 7.7 280 11:59 22.03.2020
6165 Clouds 10 1016 57 10000 7.7 280 11:41 22.03.2020
6166 Clouds 10 1016 57 10000 7.7 280 11:23 22.03.2020
6167 Clouds 10 1016 66 10000 7.7 280 10:57 22.03.2020
6168 Clouds 10 1016 66 10000 7.7 280 10:39 22.03.2020
6169 Clouds 10 1016 66 10000 7.7 280 10:20 22.03.2020
6170 Clouds 10 1015 66 10000 7.7 280 09:42 22.03.2020
6171 Clouds 9 1015 66 10000 7.7 280 09:22 22.03.2020
6172 Clouds 9 1015 66 10000 6.2 280 08:44 22.03.2020
6173 Clouds 8 1015 70 10000 6.2 280 08:24 22.03.2020
6174 Clouds 8 1015 66 10000 4.1 300 07:52 22.03.2020
6175 Clouds 6 1015 81 10000 1 0 07:26 22.03.2020
6176 Clouds 3 1015 93 8000 1.86 332 06:35 22.03.2020
6177 Clouds 3 1014 86 8000 0.5 0 05:35 22.03.2020
6178 Clouds 5 1014 86 10000 1 60 03:30 22.03.2020
6179 Clouds 5 1014 81 10000 1 180 01:28 22.03.2020
6180 Clouds 5 1014 70 10000 1 0 00:48 22.03.2020
6181 Clouds 5 1014 65 10000 2.6 30 00:28 22.03.2020
6182 Clouds 6 1013 62 10000 1.5 210 23:43 21.03.2020
6183 Clouds 6 1013 70 10000 3.6 200 23:19 21.03.2020
6184 Clouds 6 1013 70 10000 3.6 200 22:55 21.03.2020
6185 Clouds 7 1013 66 10000 1.5 260 22:37 21.03.2020
6186 Clouds 7 1013 66 10000 1.5 260 22:18 21.03.2020
6187 Clouds 8 1012 62 10000 2.1 100 21:42 21.03.2020
6188 Clouds 8 1012 62 10000 2.1 100 21:23 21.03.2020
6189 Clouds 7 1012 66 10000 3.1 100 20:59 21.03.2020
6190 Clouds 8 1012 54 10000 3.1 90 20:41 21.03.2020
6191 Clouds 10 1012 36 10000 2.6 0 20:19 21.03.2020
6192 Clouds 10 1012 75 10000 3.6 220 19:44 21.03.2020
6193 Clouds 10 1012 75 10000 3.6 220 19:25 21.03.2020
6194 Clouds 11 1011 29 10000 3.1 270 18:57 21.03.2020
6195 Clouds 10 1011 24 10000 2.6 300 18:38 21.03.2020
6196 Clouds 12 1011 24 10000 2.6 300 18:20 21.03.2020
6197 Clouds 12 1011 24 10000 2.6 300 18:20 21.03.2020
6198 Clouds 12 1011 25 10000 2.6 310 17:55 21.03.2020
6199 Clouds 12 1011 75 10000 1 0 17:37 21.03.2020
6200 Clear 15 1011 26 10000 1.5 330 17:18 21.03.2020
6201 Clear 15 1011 26 10000 1.5 330 17:18 21.03.2020
6202 Clear 16 1011 24 10000 3.1 0 16:41 21.03.2020
6203 Clear 17 1011 24 10000 3.1 0 16:20 21.03.2020
6204 Clear 17 1011 45 10000 3.1 80 15:56 21.03.2020
6205 Clear 18 1011 24 10000 1 0 15:37 21.03.2020
6206 Clear 17 1012 45 10000 2.1 20 15:18 21.03.2020
6207 Clear 17 1012 45 10000 2.1 20 14:54 21.03.2020
6208 Clear 17 1013 26 10000 2.1 0 14:36 21.03.2020
6209 Clear 17 1013 26 10000 2.1 0 14:18 21.03.2020
6210 Clear 17 1013 28 10000 2.6 290 13:56 21.03.2020
6211 Clear 16 1013 30 10000 1 0 13:38 21.03.2020
6212 Clear 16 1013 30 10000 1 0 13:19 21.03.2020
6213 Clear 15 1015 34 10000 1.5 0 12:39 21.03.2020
6214 Clear 15 1015 34 10000 1.5 0 12:19 21.03.2020
6215 Clear 14 1015 36 10000 1.5 0 11:58 21.03.2020
6216 Clear 13 1016 41 10000 1.5 290 11:39 21.03.2020
6217 Clear 13 1016 41 10000 1.5 290 11:19 21.03.2020
6218 Clear 12 1016 47 10000 1 0 10:57 21.03.2020
6219 Clear 12 1016 47 10000 1 0 10:57 21.03.2020
6220 Clear 12 1017 50 10000 1 0 10:39 21.03.2020
6221 Clear 12 1017 50 10000 1 0 10:20 21.03.2020
6222 Clear 11 1017 50 10000 0.5 0 09:57 21.03.2020
6223 Clear 11 1018 57 10000 1 0 09:37 21.03.2020
6224 Clear 11 1018 57 10000 1 0 09:37 21.03.2020
6225 Clear 11 1018 57 10000 1 0 09:19 21.03.2020
6226 Clear 10 1018 57 10000 1 0 08:45 21.03.2020
6227 Clear 9 1018 65 10000 1 0 08:25 21.03.2020
6228 Clouds 7 1018 75 10000 1 0 07:52 21.03.2020
6229 Clouds 6 1018 75 8000 2.1 290 07:32 21.03.2020
6230 Clouds 4 1018 72 8000 1.5 320 06:48 21.03.2020
6231 Clouds 3 1018 72 8000 0.5 0 06:29 21.03.2020
6232 Clouds 3 1018 80 8000 1.11 203 05:48 21.03.2020
6233 Clouds 3 1018 78 10000 0.5 340 05:18 21.03.2020
6234 Clouds 3 1018 80 10000 1.3 193 03:26 21.03.2020
6235 Clouds 4 1019 70 10000 1 0 02:34 21.03.2020
6236 Clouds 4 1019 70 10000 3.1 150 01:38 21.03.2020
6237 Clouds 4 1019 70 10000 3.1 150 01:18 21.03.2020
6238 Clear 4 1019 70 10000 3.6 140 00:38 21.03.2020
6239 Clear 5 1020 70 10000 3.6 150 23:58 20.03.2020
6240 Clear 5 1020 65 10000 3.1 150 23:40 20.03.2020
6241 Clear 5 1020 61 10000 3.6 150 23:18 20.03.2020
6242 Clear 5 1020 61 10000 3.6 150 22:41 20.03.2020
6243 Clear 6 1020 61 10000 3.6 150 22:22 20.03.2020
6244 Clear 6 1020 57 10000 3.6 130 21:56 20.03.2020
6245 Clear 6 1020 57 10000 3.6 140 21:38 20.03.2020
6246 Clear 7 1020 57 10000 3.6 140 21:18 20.03.2020
6247 Clear 7 1020 57 10000 3.1 140 20:57 20.03.2020
6248 Clear 7 1020 53 10000 4.6 130 20:38 20.03.2020
6249 Clear 7 1020 53 10000 4.6 130 20:18 20.03.2020
6250 Clear 8 1019 53 10000 2.6 120 19:45 20.03.2020
6251 Clear 8 1019 50 10000 3.1 140 19:19 20.03.2020
6252 Clear 8 1019 50 10000 3.1 140 19:19 20.03.2020
6253 Clear 8 1019 54 10000 2.1 150 18:55 20.03.2020
6254 Clear 8 1019 38 10000 1 20 18:37 20.03.2020
6255 Clear 10 1019 31 10000 1 70 18:19 20.03.2020
6256 Clear 11 1019 34 10000 1.5 90 17:39 20.03.2020
6257 Clear 14 1019 34 10000 1.5 90 17:21 20.03.2020
6258 Clear 15 1019 32 10000 1.5 100 16:58 20.03.2020
6259 Clear 15 1019 32 10000 1.5 100 16:58 20.03.2020
6260 Clear 14 1019 29 10000 2.6 80 16:40 20.03.2020
6261 Clear 15 1019 29 10000 2.6 80 16:18 20.03.2020
6262 Clear 14 1019 50 10000 1 0 15:42 20.03.2020
6263 Clear 15 1019 50 10000 1 0 15:22 20.03.2020
6264 Clear 15 1020 29 10000 2.6 90 14:56 20.03.2020
6265 Clear 14 1020 32 10000 2.6 0 14:37 20.03.2020
6266 Clear 16 1021 32 10000 2.1 120 14:18 20.03.2020
6267 Clear 16 1021 31 10000 3.1 90 13:43 20.03.2020
6268 Clear 13 1021 31 10000 3.6 140 13:19 20.03.2020
6269 Clear 13 1022 33 10000 2.1 0 12:41 20.03.2020
6270 Clear 15 1022 33 10000 2.1 0 12:23 20.03.2020
6271 Clear 14 1022 36 10000 1 0 11:58 20.03.2020
6272 Clear 13 1023 41 10000 1.5 300 11:38 20.03.2020
6273 Clear 11 1023 41 10000 1.5 300 11:19 20.03.2020
6274 Clear 8 1024 40 10000 1 0 10:42 20.03.2020
6275 Clear 9 1024 40 10000 1 0 10:21 20.03.2020
6276 Clear 10 1024 43 10000 1 0 09:58 20.03.2020
6277 Clear 9 1024 52 10000 1 0 09:39 20.03.2020
6278 Clear 9 1024 52 10000 1 0 09:19 20.03.2020
6279 Clear 6 1024 56 10000 1 0 08:42 20.03.2020
6280 Clear 6 1024 56 10000 1 0 08:22 20.03.2020
6281 Clear 4 1024 64 10000 1 0 07:54 20.03.2020
6282 Clear 3 1024 74 10000 1 60 07:36 20.03.2020
6283 Clear 2 1024 74 10000 1 60 07:18 20.03.2020
6284 Clear 0 1024 80 10000 1.5 110 06:41 20.03.2020
6285 Clear 0 1024 80 10000 1.5 110 06:41 20.03.2020
6286 Clear -1 1023 80 10000 1.5 130 04:51 20.03.2020
6287 Clear 0 1023 80 10000 1 100 03:22 20.03.2020
6288 Clouds 0 1023 74 10000 1 0 01:58 20.03.2020
6289 Clouds 1 1023 64 10000 1 0 00:59 20.03.2020
6290 Clouds 1 1023 60 10000 1 0 00:30 20.03.2020
6291 Clouds 1 1023 60 10000 2.1 300 23:47 19.03.2020
6292 Clouds 2 1023 60 10000 2.1 300 23:28 19.03.2020
6293 Clouds 1 1023 64 10000 2.1 240 22:56 19.03.2020
6294 Clouds 2 1023 48 10000 1 0 22:38 19.03.2020
6295 Clouds 2 1023 48 10000 1 0 22:19 19.03.2020
6296 Clouds 3 1023 45 10000 4.6 200 21:42 19.03.2020
6297 Clouds 3 1023 45 10000 4.1 200 21:20 19.03.2020
6298 Clouds 3 1023 45 10000 4.1 200 20:59 19.03.2020
6299 Clouds 4 1023 42 10000 2.6 210 20:41 19.03.2020
6300 Clouds 4 1023 42 10000 2.6 210 20:22 19.03.2020
6301 Clouds 5 1023 37 10000 2.1 190 19:55 19.03.2020
6302 Clouds 4 1023 45 10000 1.5 160 19:37 19.03.2020
6303 Clouds 4 1023 45 10000 1.5 160 19:19 19.03.2020
6304 Clouds 4 1022 32 10000 2.1 80 18:42 19.03.2020
6305 Clouds 6 1022 32 10000 2.1 80 18:22 19.03.2020
6306 Clouds 4 1022 37 10000 2.6 90 17:58 19.03.2020
6307 Clouds 5 1022 37 10000 2.6 90 17:40 19.03.2020
6308 Clear 10 1022 28 10000 3.6 30 17:19 19.03.2020
6309 Clear 10 1022 29 10000 4.1 60 16:43 19.03.2020
6310 Clear 11 1022 29 10000 4.1 60 16:23 19.03.2020
6311 Clear 11 1022 25 10000 2.6 100 15:45 19.03.2020
6312 Clear 10 1022 26 10000 2.1 0 15:27 19.03.2020
6313 Clear 11 1023 25 10000 1.5 0 14:55 19.03.2020
6314 Clear 10 1023 28 10000 2.6 240 14:37 19.03.2020
6315 Clear 9 1024 30 10000 3.1 240 14:19 19.03.2020
6316 Clear 10 1024 35 10000 3.6 240 13:39 19.03.2020
6317 Clear 10 1024 35 10000 3.6 240 13:19 19.03.2020
6318 Clear 10 1024 35 10000 3.6 240 13:19 19.03.2020
6319 Clear 9 1025 37 10000 3.1 260 12:55 19.03.2020
6320 Clear 8 1025 37 10000 2.6 290 12:37 19.03.2020
6321 Clear 8 1026 37 10000 2.1 230 12:18 19.03.2020
6322 Clear 9 1026 40 10000 2.6 250 11:41 19.03.2020
6323 Clear 6 1027 43 10000 2.6 260 11:23 19.03.2020
6324 Clear 7 1027 43 10000 2.6 260 10:56 19.03.2020
6325 Clear 6 1027 49 10000 2.1 270 10:36 19.03.2020
6326 Clear 8 1027 49 10000 2.1 270 10:18 19.03.2020
6327 Clear 6 1028 60 10000 1.5 310 09:42 19.03.2020
6328 Clear 5 1028 60 10000 1.5 310 09:24 19.03.2020
6329 Clear 5 1028 64 10000 1 0 08:48 19.03.2020
6330 Clear 1 1028 69 10000 1 0 08:23 19.03.2020
6331 Clear 1 1028 74 10000 1 0 07:57 19.03.2020
6332 Clear -1 1028 86 10000 1 0 07:38 19.03.2020
6333 Clear -1 1028 86 10000 1 0 07:18 19.03.2020
6334 Clear -3 1028 86 10000 1.5 160 06:23 19.03.2020
6335 Clear -4 1028 92 9000 2.1 110 05:24 19.03.2020
6336 Clear -4 1028 86 10000 1.5 120 04:46 19.03.2020
6337 Clear -4 1028 86 9000 1.5 120 03:44 19.03.2020
6338 Clear -3 1028 86 10000 0.5 0 01:45 19.03.2020
6339 Clear -3 1028 78 9000 1.5 170 00:39 19.03.2020
6340 Clear -3 1028 78 9000 1.5 170 00:18 19.03.2020
6341 Clear -2 1029 74 10000 1 0 23:41 18.03.2020
6342 Clear -2 1029 74 10000 2.1 110 23:21 18.03.2020
6343 Clear -2 1029 69 10000 2.1 100 22:42 18.03.2020
6344 Clear -2 1029 69 10000 2.1 100 22:22 18.03.2020
6345 Clear -1 1029 69 10000 2.1 100 21:55 18.03.2020
6346 Clear -1 1029 64 10000 1.5 170 21:37 18.03.2020
6347 Clear -1 1029 64 10000 1.5 170 21:19 18.03.2020
6348 Clear 1 1029 64 10000 1.5 140 20:54 18.03.2020
6349 Clear 1 1028 64 10000 1.5 150 20:36 18.03.2020
6350 Clear 2 1028 52 10000 1.5 190 20:18 18.03.2020
6351 Clear 2 1028 56 10000 2.1 100 19:40 18.03.2020
6352 Clear 3 1028 48 10000 1.5 60 19:21 18.03.2020
6353 Clear 4 1028 48 10000 1.5 60 18:56 18.03.2020
6354 Clear 5 1028 45 10000 4.1 40 18:38 18.03.2020
6355 Clear 5 1028 45 10000 4.1 40 18:19 18.03.2020
6356 Clear 5 1027 42 10000 4.6 60 17:54 18.03.2020
6357 Clear 5 1027 39 10000 5.7 50 17:36 18.03.2020
6358 Clouds 6 1027 39 10000 6.2 50 17:18 18.03.2020
6359 Clouds 7 1027 37 10000 5.1 50 16:42 18.03.2020
6360 Clouds 8 1027 37 10000 5.1 50 16:20 18.03.2020
6361 Clouds 8 1027 37 10000 5.1 50 16:20 18.03.2020
6362 Clouds 7 1027 37 10000 4.6 40 15:56 18.03.2020
6363 Clouds 7 1027 32 10000 4.6 40 15:37 18.03.2020
6364 Clouds 8 1027 32 10000 4.6 40 15:19 18.03.2020
6365 Clouds 8 1027 30 10000 6.2 60 14:42 18.03.2020
6366 Clouds 9 1027 30 10000 6.2 60 14:21 18.03.2020
6367 Clouds 9 1027 34 10000 4.1 50 13:41 18.03.2020
6368 Clouds 7 1027 32 10000 4.1 70 13:19 18.03.2020
6369 Clouds 9 1027 30 10000 5.1 70 12:44 18.03.2020
6370 Clouds 7 1027 30 10000 5.1 70 12:21 18.03.2020
6371 Clouds 7 1027 27 10000 5.7 70 11:59 18.03.2020
6372 Clouds 7 1027 27 10000 6.2 50 11:37 18.03.2020
6373 Clouds 7 1027 27 10000 6.2 50 11:37 18.03.2020
6374 Clouds 7 1027 30 10000 3.1 100 11:18 18.03.2020
6375 Clouds 8 1027 30 10000 3.1 100 10:56 18.03.2020
6376 Clouds 8 1027 30 10000 3.1 100 10:56 18.03.2020
6377 Clouds 8 1027 40 10000 2.1 0 10:36 18.03.2020
6378 Clouds 6 1027 46 10000 1.5 320 10:18 18.03.2020
6379 Clouds 5 1027 54 10000 1.5 90 09:42 18.03.2020
6380 Clouds 5 1027 54 10000 1.5 90 09:23 18.03.2020
6381 Clouds 7 1027 54 10000 0.5 0 08:54 18.03.2020
6382 Clouds 4 1027 54 10000 1 0 08:36 18.03.2020
6383 Clouds 3 1027 74 10000 1 0 08:18 18.03.2020
6384 Clouds 2 1026 80 10000 2.1 90 07:39 18.03.2020
6385 Clouds 0 1026 80 10000 2.1 90 07:21 18.03.2020
6386 Clouds -2 1026 86 10000 2.6 110 06:42 18.03.2020
6387 Clouds -2 1026 86 10000 1.5 70 05:43 18.03.2020
6388 Clear -2 1025 86 10000 1 0 04:58 18.03.2020
6389 Clear -2 1025 83 8000 3.1 290 03:21 18.03.2020
6390 Clear -2 1025 83 10000 1.5 290 02:37 18.03.2020
6391 Clear -2 1025 83 10000 1.5 290 02:37 18.03.2020
6392 Clear -2 1025 83 10000 1.5 290 02:37 18.03.2020
6393 Clear -1 1025 76 10000 1.5 140 01:45 18.03.2020
6394 Clear -1 1025 80 10000 2.1 170 01:19 18.03.2020
6395 Clear -1 1025 80 10000 2.1 170 00:22 18.03.2020
6396 Clear 0 1025 74 10000 1.5 110 23:43 17.03.2020
6397 Clear 0 1025 64 10000 1.5 80 23:22 17.03.2020
6398 Clear 2 1025 52 10000 2.6 310 22:47 17.03.2020
6399 Clear 2 1025 52 10000 2.6 310 22:28 17.03.2020
6400 Clear 2 1025 48 10000 2.6 300 21:57 17.03.2020
6401 Clear 2 1025 48 10000 3.1 310 21:36 17.03.2020
6402 Clear 3 1025 48 10000 3.1 310 21:18 17.03.2020
6403 Clear 2 1025 60 10000 1.5 360 20:38 17.03.2020
6404 Clear 3 1025 60 10000 1.5 360 20:19 17.03.2020
6405 Clear 4 1024 39 10000 2.6 300 19:42 17.03.2020
6406 Clear 5 1024 39 10000 2.6 300 19:21 17.03.2020
6407 Clear 5 1024 32 10000 3.6 310 18:59 17.03.2020
6408 Clear 5 1024 32 10000 3.6 290 18:40 17.03.2020
6409 Clear 6 1024 24 10000 3.6 300 18:22 17.03.2020
6410 Clear 7 1024 24 10000 3.6 300 17:56 17.03.2020
6411 Clear 7 1024 22 10000 3.6 290 17:38 17.03.2020
6412 Clear 10 1024 23 10000 2.1 250 17:19 17.03.2020
6413 Clear 10 1024 21 10000 1.5 240 16:42 17.03.2020
6414 Clear 11 1024 21 10000 1.5 240 16:19 17.03.2020
6415 Clear 12 1025 23 10000 3.6 280 15:48 17.03.2020
6416 Clear 11 1025 24 10000 3.1 280 15:23 17.03.2020
6417 Clear 11 1025 26 10000 3.1 290 14:49 17.03.2020
6418 Clear 10 1026 24 10000 3.1 290 14:30 17.03.2020
6419 Clear 10 1026 28 10000 1.5 0 13:58 17.03.2020
6420 Clear 9 1027 34 10000 1.5 0 13:40 17.03.2020
6421 Clear 8 1027 37 10000 1 0 13:22 17.03.2020
6422 Clear 10 1027 37 10000 1 0 12:47 17.03.2020
6423 Clear 10 1028 37 10000 1.5 0 12:25 17.03.2020
6424 Clear 9 1028 39 10000 1.5 0 11:56 17.03.2020
6425 Clear 8 1029 42 10000 1 0 11:38 17.03.2020
6426 Clear 7 1029 42 10000 1 0 11:20 17.03.2020
6427 Clear 7 1029 45 10000 1.5 0 10:54 17.03.2020
6428 Clear 7 1030 52 10000 1 0 10:36 17.03.2020
6429 Clear 6 1030 52 10000 1 0 10:18 17.03.2020
6430 Clear 4 1030 59 10000 1 0 09:44 17.03.2020
6431 Clear 3 1030 59 10000 1 0 09:20 17.03.2020
6432 Clear 3 1030 59 10000 1 0 09:20 17.03.2020
6433 Clear 1 1031 69 10000 1 0 08:51 17.03.2020
6434 Clear 0 1031 52 10000 1.07 252 08:24 17.03.2020
6435 Clear -1 1031 86 10000 1 0 07:58 17.03.2020
6436 Clear -2 1031 86 10000 1 0 07:40 17.03.2020
6437 Clear -2 1031 86 10000 1 0 07:19 17.03.2020
6438 Clear -4 1031 92 8000 1.5 350 06:41 17.03.2020
6439 Clear -4 1031 92 10000 1.07 252 06:19 17.03.2020
6440 Clear -4 1031 92 10000 1.5 0 04:51 17.03.2020
6441 Clear -4 1031 92 10000 1 260 03:26 17.03.2020
6442 Clear -4 1031 79 10000 0.5 0 01:49 17.03.2020
6443 Clear -3 1031 68 10000 1 0 01:29 17.03.2020
6444 Clear -3 1031 74 10000 1.5 150 00:50 17.03.2020
6445 Clear -3 1031 68 10000 1 0 23:51 16.03.2020
6446 Clear -3 1031 68 10000 1.5 220 23:33 16.03.2020
6447 Clear -3 1031 50 10000 2.6 130 22:45 16.03.2020
6448 Clear -3 1031 50 10000 2.6 130 22:45 16.03.2020
6449 Clear -2 1031 50 10000 2.6 130 22:26 16.03.2020
6450 Clear -3 1032 68 10000 3.1 110 21:59 16.03.2020
6451 Clear -2 1031 50 10000 2.6 110 21:41 16.03.2020
6452 Clear -2 1031 50 10000 2.6 110 21:23 16.03.2020
6453 Clear -2 1032 59 10000 2.6 90 20:57 16.03.2020
6454 Clear -2 1031 55 10000 2.6 80 20:38 16.03.2020
6455 Clear -1 1031 55 10000 2.6 80 20:19 16.03.2020
6456 Clear -1 1031 51 10000 3.1 150 19:42 16.03.2020
6457 Clear 0 1031 51 10000 3.1 150 19:22 16.03.2020
6458 Clear 1 1031 41 10000 3.6 180 18:56 16.03.2020
6459 Clear 1 1031 28 10000 4.6 150 18:37 16.03.2020
6460 Clear 1 1030 35 10000 3.6 130 18:18 16.03.2020
6461 Clear 2 1030 36 10000 5.1 90 17:42 16.03.2020
6462 Clear 7 1030 36 10000 4.6 90 17:22 16.03.2020
6463 Clear 8 1030 31 10000 4.6 80 16:46 16.03.2020
6464 Clear 8 1030 31 10000 4.6 80 16:28 16.03.2020
6465 Clear 8 1030 39 10000 4.6 90 15:56 16.03.2020
6466 Clear 8 1030 36 10000 4.1 100 15:37 16.03.2020
6467 Clear 8 1030 36 10000 4.1 100 15:18 16.03.2020
6468 Clear 7 1031 33 10000 4.1 110 14:42 16.03.2020
6469 Clear 7 1031 33 10000 4.1 110 14:19 16.03.2020
6470 Clear 6 1031 45 10000 5.7 110 13:42 16.03.2020
6471 Clear 6 1031 45 10000 5.7 110 13:23 16.03.2020
6472 Clear 6 1032 48 10000 5.1 110 12:46 16.03.2020
6473 Clear 6 1032 48 10000 5.1 100 12:26 16.03.2020
6474 Clear 5 1032 51 10000 5.1 100 11:58 16.03.2020
6475 Clear 5 1032 55 10000 5.7 100 11:39 16.03.2020
6476 Clear 3 1032 55 10000 6.2 110 11:18 16.03.2020
6477 Clear 4 1032 59 10000 7.2 100 10:41 16.03.2020
6478 Clear 4 1032 59 10000 7.2 100 10:19 16.03.2020
6479 Clear 3 1032 55 10000 6.7 130 09:44 16.03.2020
6480 Clouds 2 1032 59 10000 7.2 120 09:24 16.03.2020
6481 Clouds 2 1032 69 10000 6.7 110 08:54 16.03.2020
6482 Clear 1 1032 69 10000 6.2 100 08:25 16.03.2020
6483 Clouds -3 1032 88 10000 6.7 100 07:50 16.03.2020
6484 Clouds 0 1031 88 10000 5.1 100 07:27 16.03.2020
6485 Clouds -4 1031 80 10000 4.1 110 06:54 16.03.2020
6486 Clouds -4 1030 74 10000 4.1 90 06:25 16.03.2020
6487 Clouds -4 1030 80 10000 4.6 90 05:50 16.03.2020
6488 Clouds 0 1029 96 10000 4.1 110 02:45 16.03.2020
6489 Clouds 1 1029 80 10000 3.6 90 01:20 16.03.2020
6490 Clouds 2 1028 80 10000 3.6 110 00:40 16.03.2020
6491 Clouds 2 1028 80 10000 4.6 110 23:48 15.03.2020
6492 Clouds 2 1028 98 10000 4.1 120 23:20 15.03.2020
6493 Clouds 2 1028 93 10000 4.1 130 22:43 15.03.2020
6494 Clouds 2 1028 93 10000 4.1 130 22:23 15.03.2020
6495 Clouds 2 1027 98 10000 5.1 130 21:58 15.03.2020
6496 Clouds -1 1027 98 10000 3.6 140 21:38 15.03.2020
6497 Clouds 2 1027 98 10000 3.6 140 21:18 15.03.2020
6498 Rain 2 1026 93 10000 3.1 110 20:42 15.03.2020
6499 Rain 2 1026 93 10000 3.1 110 20:21 15.03.2020
6500 Rain 2 1026 93 10000 3.1 100 19:58 15.03.2020
6501 Rain 2 1026 93 10000 3.1 100 19:40 15.03.2020
6502 Rain 2 1026 93 10000 3.1 100 19:21 15.03.2020
6503 Clouds 2 1025 93 10000 2.6 80 18:56 15.03.2020
6504 Clouds 2 1025 93 10000 4.1 110 18:37 15.03.2020
6505 Clouds 2 1025 93 10000 4.1 110 18:37 15.03.2020
6506 Rain 2 1025 93 8000 5.1 130 18:19 15.03.2020
6507 Clouds 3 1024 86 10000 2.6 120 17:41 15.03.2020
6508 Clouds 3 1024 86 10000 2.6 120 17:21 15.03.2020
6509 Clouds 3 1024 86 10000 3.1 140 16:58 15.03.2020
6510 Clouds 3 1023 93 10000 3.6 160 16:40 15.03.2020
6511 Clouds 3 1023 93 10000 3.6 160 16:21 15.03.2020
6512 Clouds 4 1023 98 10000 3.1 50 15:48 15.03.2020
6513 Clouds 1 1023 80 10000 2.6 40 15:30 15.03.2020
6514 Clouds 3 1022 86 10000 3.6 50 14:58 15.03.2020
6515 Clouds 1 1022 86 10000 3.1 50 14:38 15.03.2020
6516 Clouds 4 1022 86 10000 3.1 50 14:19 15.03.2020
6517 Clouds 4 1022 86 10000 4.1 40 13:55 15.03.2020
6518 Clouds 4 1022 86 10000 5.7 50 13:37 15.03.2020
6519 Clouds 4 1022 86 10000 5.7 50 13:18 15.03.2020
6520 Clouds 4 1022 86 10000 5.7 50 13:18 15.03.2020
6521 Rain 4 1021 86 10000 3.6 40 12:40 15.03.2020
6522 Rain 4 1021 86 10000 3.6 40 12:21 15.03.2020
6523 Rain 5 1021 86 10000 2.6 70 11:44 15.03.2020
6524 Rain 4 1021 86 10000 2.6 70 11:25 15.03.2020
6525 Rain 4 1021 86 10000 3.6 40 10:59 15.03.2020
6526 Clouds 5 1020 86 10000 1.5 310 10:39 15.03.2020
6527 Clouds 5 1020 86 10000 1.5 310 10:21 15.03.2020
6528 Clouds 5 1020 80 10000 3.6 20 09:44 15.03.2020
6529 Clouds 5 1020 80 10000 3.6 20 09:25 15.03.2020
6530 Clouds 5 1019 81 10000 1.5 20 08:59 15.03.2020
6531 Clouds 5 1019 81 10000 2.1 350 08:40 15.03.2020
6532 Clouds 3 1019 81 10000 2.1 350 08:18 15.03.2020
6533 Clouds 2 1018 86 10000 1.5 0 07:44 15.03.2020
6534 Clouds 2 1018 93 10000 1.5 330 07:18 15.03.2020
6535 Clouds 2 1018 86 10000 1 0 06:36 15.03.2020
6536 Clouds 2 1018 86 10000 2.1 220 05:46 15.03.2020
6537 Clouds 3 1018 86 10000 2.6 260 04:50 15.03.2020
6538 Clouds 3 1018 86 10000 2.6 280 04:32 15.03.2020
6539 Clouds 3 1017 86 10000 2.6 280 03:59 15.03.2020
6540 Rain 2 1017 86 10000 3.1 280 02:48 15.03.2020
6541 Rain 3 1018 86 10000 4.6 270 01:56 15.03.2020
6542 Rain 3 1017 93 8000 3.6 290 00:53 15.03.2020
6543 Rain 3 1017 93 8000 2.6 300 00:28 15.03.2020
6544 Rain 3 1017 93 8000 2.6 300 23:58 14.03.2020
6545 Rain 3 1017 93 10000 1.5 280 23:38 14.03.2020
6546 Rain 5 1017 93 10000 1.5 280 23:19 14.03.2020
6547 Rain 3 1017 93 10000 2.1 290 22:46 14.03.2020
6548 Rain 3 1017 93 10000 2.1 290 22:27 14.03.2020
6549 Rain 5 1017 93 10000 1.5 340 21:57 14.03.2020
6550 Rain 5 1017 87 8000 2.1 260 21:37 14.03.2020
6551 Rain 6 1017 87 8000 2.1 260 21:19 14.03.2020
6552 Rain 6 1017 87 8000 2.1 260 21:19 14.03.2020
6553 Rain 6 1017 93 8000 2.1 210 20:59 14.03.2020
6554 Rain 7 1017 93 10000 2.1 230 20:41 14.03.2020
6555 Rain 7 1017 93 10000 2.1 230 20:20 14.03.2020
6556 Rain 5 1017 93 6000 2.6 320 19:58 14.03.2020
6557 Rain 5 1017 87 8000 3.6 300 19:39 14.03.2020
6558 Rain 6 1016 81 10000 4.6 310 19:19 14.03.2020
6559 Clouds 5 1016 61 10000 4.1 300 18:37 14.03.2020
6560 Clouds 5 1016 61 10000 4.1 300 18:19 14.03.2020
6561 Clouds 5 1015 57 10000 2.1 300 18:19 14.03.2020
6562 Clouds 5 1015 57 10000 2.6 300 17:39 14.03.2020
6563 -273 0 0 0 0 0 17:21 14.03.2020
6564 Clouds 8 1015 50 10000 2.1 20 16:41 14.03.2020
6565 Clouds 8 1015 50 10000 2.1 20 16:23 14.03.2020
6566 Clouds 8 1015 50 10000 3.1 360 15:59 14.03.2020
6567 Clouds 9 1015 46 10000 3.6 10 15:27 14.03.2020
6568 Clouds 10 1015 75 10000 4.1 20 14:59 14.03.2020
6569 Clouds 10 1015 75 10000 3.1 40 14:37 14.03.2020
6570 Clouds 11 1015 57 10000 3.1 40 14:19 14.03.2020
6571 Clouds 10 1015 57 10000 2.6 350 13:44 14.03.2020
6572 Clouds 11 1015 64 10000 2.6 350 13:24 14.03.2020
6573 Clouds 9 1016 64 10000 3.1 350 12:58 14.03.2020
6574 Clouds 9 1016 64 10000 3.1 360 12:38 14.03.2020
6575 Clouds 10 1016 41 10000 2.6 350 12:20 14.03.2020
6576 Clouds 10 1017 43 10000 3.1 250 11:42 14.03.2020
6577 Clouds 10 1017 43 10000 3.1 250 11:24 14.03.2020
6578 Clouds 12 1017 43 10000 3.1 290 10:46 14.03.2020
6579 Clouds 12 1017 43 10000 3.1 290 10:27 14.03.2020
6580 Clouds 11 1017 50 10000 2.6 320 09:58 14.03.2020
6581 Clouds 10 1018 50 10000 3.6 290 09:40 14.03.2020
6582 Clouds 9 1018 50 10000 3.6 290 09:20 14.03.2020
6583 Clouds 8 1018 57 10000 5.1 290 08:45 14.03.2020
6584 Clouds 8 1018 57 10000 5.1 290 08:45 14.03.2020
6585 Clouds 7 1018 57 10000 5.1 290 08:23 14.03.2020
6586 Clouds 7 1017 61 10000 5.7 280 07:39 14.03.2020
6587 Clouds 7 1017 61 10000 5.7 280 07:20 14.03.2020
6588 Clouds 6 1017 65 10000 5.1 280 06:41 14.03.2020
6589 Clouds 6 1017 66 10000 4.6 280 05:56 14.03.2020
6590 Clouds 7 1016 66 10000 5.7 280 04:51 14.03.2020
6591 Clouds 8 1016 71 10000 7.2 280 03:25 14.03.2020
6592 Clouds 8 1016 76 10000 6.2 270 02:35 14.03.2020
6593 Clouds 8 1016 76 10000 5.7 280 01:27 14.03.2020
6594 Clouds 8 1015 71 10000 5.7 270 00:20 14.03.2020
6595 Clouds 9 1015 66 10000 4.1 280 23:32 13.03.2020
6596 Clear 9 1014 62 10000 4.1 290 22:57 13.03.2020
6597 Clear 9 1014 58 10000 4.6 290 22:38 13.03.2020
6598 Clear 8 1013 62 10000 5.1 280 22:19 13.03.2020
6599 Clear 8 1013 66 10000 3.6 280 21:39 13.03.2020
6600 Clear 10 1012 51 10000 2.1 0 21:18 13.03.2020
6601 Clear 9 1012 62 10000 1.87 333 20:41 13.03.2020
6602 Clear 10 1012 62 10000 1.87 333 20:22 13.03.2020
6603 Clear 10 1011 58 10000 1 0 19:51 13.03.2020
6604 Clear 11 1011 51 10000 1.5 120 19:31 13.03.2020
6605 Clear 12 1010 45 10000 2.1 270 18:59 13.03.2020
6606 Clear 12 1010 48 10000 2.1 280 18:39 13.03.2020
6607 Clear 12 1010 48 10000 2.1 280 18:21 13.03.2020
6608 Clear 13 1010 35 10000 2.1 180 17:42 13.03.2020
6609 -273 0 0 0 0 0 17:21 13.03.2020
6610 Clear 18 1010 28 10000 1 0 16:56 13.03.2020
6611 Clear 19 1010 30 10000 2.1 340 16:37 13.03.2020
6612 Clear 18 1010 30 10000 2.1 340 16:19 13.03.2020
6613 Clear 18 1010 28 10000 2.1 340 15:41 13.03.2020
6614 Clear 19 1010 28 10000 2.1 340 15:21 13.03.2020
6615 Clear 18 1011 37 10000 1 0 14:44 13.03.2020
6616 Clear 17 1011 37 10000 1 0 14:23 13.03.2020
6617 Clear 17 1011 40 10000 1.5 270 13:59 13.03.2020
6618 Clear 17 1012 40 10000 1.5 0 13:40 13.03.2020
6619 -273 0 0 0 0 0 13:21 13.03.2020
6620 Clear 18 1012 42 10000 1 0 12:56 13.03.2020
6621 Clear 18 1013 45 10000 1.5 270 12:38 13.03.2020
6622 Clear 18 1013 45 10000 1.5 270 12:19 13.03.2020
6623 Clear 17 1014 51 10000 1.5 0 11:45 13.03.2020
6624 Clear 17 1014 51 10000 1.5 0 11:26 13.03.2020
6625 Clear 14 1014 58 10000 0.5 0 10:58 13.03.2020
6626 Clear 14 1015 62 10000 1 0 10:39 13.03.2020
6627 Clear 12 1015 62 10000 1 0 10:21 13.03.2020
6628 Clear 12 1016 71 10000 0.15 64 09:44 13.03.2020
6629 Clear 12 1016 71 10000 0.15 64 09:25 13.03.2020
6630 Clear 11 1016 71 10000 0.5 0 08:48 13.03.2020
6631 Clear 7 1016 75 8000 0.15 316 08:23 13.03.2020
6632 Mist 7 1016 81 3500 0.5 0 07:58 13.03.2020
6633 Mist 6 1016 93 2100 0.91 241 07:38 13.03.2020
6634 Mist 5 1016 93 2100 0.91 241 07:19 13.03.2020
6635 Fog 4 1016 100 550 1 0 06:44 13.03.2020
6636 Fog 5 1016 100 550 1 0 06:44 13.03.2020
6637 Fog 4 1016 93 6000 1 0 05:56 13.03.2020
6638 Mist 3 1016 100 2200 0.91 241 05:37 13.03.2020
6639 Mist 5 1016 93 10000 1 40 04:38 13.03.2020
6640 Mist 5 1016 93 10000 0.5 0 03:46 13.03.2020
6641 Clear 6 1017 87 10000 0.95 217 01:48 13.03.2020
6642 Clear 6 1017 87 10000 1.5 330 01:19 13.03.2020
6643 Clear 6 1017 87 10000 1.5 120 00:56 13.03.2020
6644 Clear 7 1017 75 10000 2.6 150 00:29 13.03.2020
6645 Clear 7 1017 75 10000 2.1 200 23:59 12.03.2020
6646 Clear 7 1017 75 10000 2.1 200 23:59 12.03.2020
6647 Clear 7 1017 81 10000 1.5 140 23:28 12.03.2020
6648 Clear 7 1018 75 10000 2.1 140 22:57 12.03.2020
6649 Clear 7 1018 76 10000 3.6 130 22:39 12.03.2020
6650 Clear 7 1018 76 10000 3.6 130 22:21 12.03.2020
6651 Clear 7 1018 71 10000 2.6 140 21:45 12.03.2020
6652 Clear 7 1018 71 10000 3.1 150 21:27 12.03.2020
6653 Clear 7 1018 71 10000 1.5 0 20:57 12.03.2020
6654 Clear 7 1018 71 10000 1.5 130 20:38 12.03.2020
6655 Clear 7 1018 71 10000 1.5 130 20:19 12.03.2020
6656 Clear 8 1018 54 10000 4.1 210 19:41 12.03.2020
6657 Clear 8 1018 58 10000 3.1 200 19:20 12.03.2020
6658 Clear 9 1018 44 10000 1 0 18:44 12.03.2020
6659 Clear 9 1018 44 10000 1 0 18:24 12.03.2020
6660 Clear 11 1018 42 10000 0.5 0 17:57 12.03.2020
6661 Clear 11 1018 34 10000 1 0 17:38 12.03.2020
6662 Clear 15 1018 34 10000 1 0 17:20 12.03.2020
6663 Clear 15 1018 34 10000 2.1 290 16:55 12.03.2020
6664 Clear 16 1018 34 10000 2.1 320 16:37 12.03.2020
6665 Clear 15 1018 34 10000 2.1 320 16:18 12.03.2020
6666 Clear 15 1018 37 10000 2.1 330 15:45 12.03.2020
6667 Clear 15 1018 39 10000 1.5 0 15:26 12.03.2020
6668 Clear 14 1019 42 10000 2.1 0 14:40 12.03.2020
6669 Clear 14 1019 42 10000 2.1 0 14:21 12.03.2020
6670 Clear 14 1020 42 10000 1.5 0 13:56 12.03.2020
6671 Clear 14 1020 45 10000 2.1 280 13:36 12.03.2020
6672 Clear 14 1021 45 10000 1.5 0 13:18 12.03.2020
6673 Clear 13 1021 48 10000 1 0 12:41 12.03.2020
6674 Clear 15 1021 48 10000 1 0 12:21 12.03.2020
6675 Clear 14 1022 48 10000 1.5 350 11:57 12.03.2020
6676 Clear 14 1022 51 10000 1.5 0 11:38 12.03.2020
6677 Clear 12 1022 51 10000 1.5 0 11:19 12.03.2020
6678 Clear 11 1022 54 10000 2.1 0 10:58 12.03.2020
6679 Clear 10 1022 58 10000 0.5 0 10:40 12.03.2020
6680 Clear 11 1022 58 10000 0.5 0 10:22 12.03.2020
6681 Clear 11 1022 62 10000 1.5 300 09:46 12.03.2020
6682 Clear 10 1022 66 10000 1 0 09:25 12.03.2020
6683 Clear 8 1022 75 10000 1 0 08:44 12.03.2020
6684 Clear 7 1022 75 10000 1 0 08:20 12.03.2020
6685 Clear 6 1022 81 10000 2.6 110 07:56 12.03.2020
6686 Clear 5 1022 86 10000 2.6 90 07:38 12.03.2020
6687 Clear 4 1022 86 10000 2.6 90 07:20 12.03.2020
6688 Clear 2 1021 85 10000 1.5 80 05:48 12.03.2020
6689 Clear 2 1021 85 10000 1.5 80 05:25 12.03.2020
6690 Clear 4 1020 86 10000 1.61 268 02:41 12.03.2020
6691 Clouds 5 1021 75 10000 2.6 10 01:31 12.03.2020
6692 Clouds 4 1020 70 10000 2.6 340 00:45 12.03.2020
6693 Clouds 4 1020 75 10000 2.1 360 00:26 12.03.2020
6694 Clo